<?xml version='1.0' encoding='UTF-8'?><gpx version="1.1" creator="JPX - https://github.com/jenetics/jpx" xmlns="http://www.topografix.com/GPX/1/1"><trk><trkseg><trkpt lat="43.83208" lon="10.4945667"><ele>13.0</ele><time>2026-03-28T09:26:41.069Z</time></trkpt><trkpt lat="43.8321567" lon="10.4945283"><ele>13.0</ele><time>2026-03-28T09:26:45.069Z</time></trkpt><trkpt lat="43.8322433" lon="10.49452"><ele>13.0</ele><time>2026-03-28T09:26:47.069Z</time></trkpt><trkpt lat="43.832365" lon="10.4945083"><ele>13.0</ele><time>2026-03-28T09:26:49.069Z</time></trkpt><trkpt lat="43.8324783" lon="10.4945167"><ele>13.0</ele><time>2026-03-28T09:26:51.069Z</time></trkpt><trkpt lat="43.83255" lon="10.4945083"><ele>12.999999999999998</ele><time>2026-03-28T09:26:53.068Z</time></trkpt><trkpt lat="43.8326333" lon="10.4944233"><ele>13.0</ele><time>2026-03-28T09:27:14.069Z</time></trkpt><trkpt lat="43.8327583" lon="10.4944067"><ele>13.0</ele><time>2026-03-28T09:27:16.068Z</time></trkpt><trkpt lat="43.832825" lon="10.4944117"><ele>13.0</ele><time>2026-03-28T09:27:17.069Z</time></trkpt><trkpt lat="43.8328933" lon="10.494415"><ele>12.999999999999998</ele><time>2026-03-28T09:27:18.069Z</time></trkpt><trkpt lat="43.8329683" lon="10.4944183"><ele>13.0</ele><time>2026-03-28T09:27:19.069Z</time></trkpt><trkpt lat="43.8330433" lon="10.4944233"><ele>12.999999999999998</ele><time>2026-03-28T09:27:20.069Z</time></trkpt><trkpt lat="43.8331167" lon="10.4944267"><ele>13.0</ele><time>2026-03-28T09:27:21.069Z</time></trkpt><trkpt lat="43.8331933" lon="10.4944383"><ele>13.0</ele><time>2026-03-28T09:27:22.069Z</time></trkpt><trkpt lat="43.8332717" lon="10.49445"><ele>13.0</ele><time>2026-03-28T09:27:23.069Z</time></trkpt><trkpt lat="43.8333567" lon="10.49446"><ele>12.999999999999998</ele><time>2026-03-28T09:27:24.069Z</time></trkpt><trkpt lat="43.8334433" lon="10.4944767"><ele>13.0</ele><time>2026-03-28T09:27:25.069Z</time></trkpt><trkpt lat="43.8335333" lon="10.4944967"><ele>13.0</ele><time>2026-03-28T09:27:26.069Z</time></trkpt><trkpt lat="43.833625" lon="10.49451"><ele>13.0</ele><time>2026-03-28T09:27:27.068Z</time></trkpt><trkpt lat="43.8337167" lon="10.4945217"><ele>13.0</ele><time>2026-03-28T09:27:28.069Z</time></trkpt><trkpt lat="43.833815" lon="10.494535"><ele>13.0</ele><time>2026-03-28T09:27:29.069Z</time></trkpt><trkpt lat="43.83391" lon="10.4945467"><ele>13.0</ele><time>2026-03-28T09:27:30.069Z</time></trkpt><trkpt lat="43.83401" lon="10.4945583"><ele>13.0</ele><time>2026-03-28T09:27:31.069Z</time></trkpt><trkpt lat="43.8341067" lon="10.494565"><ele>13.0</ele><time>2026-03-28T09:27:32.069Z</time></trkpt><trkpt lat="43.834205" lon="10.4945867"><ele>13.0</ele><time>2026-03-28T09:27:33.068Z</time></trkpt><trkpt lat="43.8343" lon="10.4946083"><ele>13.0</ele><time>2026-03-28T09:27:34.069Z</time></trkpt><trkpt lat="43.8343967" lon="10.4946233"><ele>13.0</ele><time>2026-03-28T09:27:35.069Z</time></trkpt><trkpt lat="43.8344917" lon="10.4946333"><ele>13.166666666666666</ele><time>2026-03-28T09:27:36.069Z</time></trkpt><trkpt lat="43.8345817" lon="10.49463"><ele>13.333333333333332</ele><time>2026-03-28T09:27:37.069Z</time></trkpt><trkpt lat="43.8346733" lon="10.4946333"><ele>13.5</ele><time>2026-03-28T09:27:38.069Z</time></trkpt><trkpt lat="43.8347633" lon="10.494655"><ele>13.666666666666668</ele><time>2026-03-28T09:27:39.069Z</time></trkpt><trkpt lat="43.8348467" lon="10.4946767"><ele>13.833333333333334</ele><time>2026-03-28T09:27:40.069Z</time></trkpt><trkpt lat="43.8349333" lon="10.4946917"><ele>14.0</ele><time>2026-03-28T09:27:41.069Z</time></trkpt><trkpt lat="43.835005" lon="10.4947"><ele>14.0</ele><time>2026-03-28T09:27:42.068Z</time></trkpt><trkpt lat="43.83507" lon="10.4947117"><ele>13.999999999999998</ele><time>2026-03-28T09:27:43.069Z</time></trkpt><trkpt lat="43.8351717" lon="10.4947117"><ele>13.999999999999998</ele><time>2026-03-28T09:27:45.069Z</time></trkpt><trkpt lat="43.8352567" lon="10.4947267"><ele>14.0</ele><time>2026-03-28T09:27:48.069Z</time></trkpt><trkpt lat="43.8353517" lon="10.4947283"><ele>14.0</ele><time>2026-03-28T09:27:51.069Z</time></trkpt><trkpt lat="43.8354633" lon="10.4947333"><ele>14.000000000000002</ele><time>2026-03-28T09:27:53.069Z</time></trkpt><trkpt lat="43.83559" lon="10.494745"><ele>14.0</ele><time>2026-03-28T09:27:55.069Z</time></trkpt><trkpt lat="43.83566" lon="10.4947567"><ele>14.0</ele><time>2026-03-28T09:27:56.069Z</time></trkpt><trkpt lat="43.8357317" lon="10.494775"><ele>14.0</ele><time>2026-03-28T09:27:57.069Z</time></trkpt><trkpt lat="43.8358133" lon="10.4947883"><ele>14.000000000000002</ele><time>2026-03-28T09:27:58.069Z</time></trkpt><trkpt lat="43.835895" lon="10.4948017"><ele>14.0</ele><time>2026-03-28T09:27:59.068Z</time></trkpt><trkpt lat="43.8359867" lon="10.494815"><ele>14.399999999999999</ele><time>2026-03-28T09:28:00.069Z</time></trkpt><trkpt lat="43.8360767" lon="10.49483"><ele>14.799999999999999</ele><time>2026-03-28T09:28:01.069Z</time></trkpt><trkpt lat="43.836175" lon="10.4948467"><ele>15.200000000000001</ele><time>2026-03-28T09:28:02.069Z</time></trkpt><trkpt lat="43.8362833" lon="10.4948633"><ele>15.600000000000001</ele><time>2026-03-28T09:28:03.068Z</time></trkpt><trkpt lat="43.8363967" lon="10.494885"><ele>16.0</ele><time>2026-03-28T09:28:04.069Z</time></trkpt><trkpt lat="43.8365183" lon="10.494925"><ele>16.0</ele><time>2026-03-28T09:28:05.069Z</time></trkpt><trkpt lat="43.836635" lon="10.4949733"><ele>16.0</ele><time>2026-03-28T09:28:06.069Z</time></trkpt><trkpt lat="43.836745" lon="10.4950033"><ele>16.0</ele><time>2026-03-28T09:28:07.069Z</time></trkpt><trkpt lat="43.8368533" lon="10.49502"><ele>16.0</ele><time>2026-03-28T09:28:08.069Z</time></trkpt><trkpt lat="43.8369617" lon="10.49503"><ele>16.0</ele><time>2026-03-28T09:28:09.068Z</time></trkpt><trkpt lat="43.8370783" lon="10.4950483"><ele>16.0</ele><time>2026-03-28T09:28:10.069Z</time></trkpt><trkpt lat="43.837185" lon="10.49506"><ele>16.0</ele><time>2026-03-28T09:28:11.069Z</time></trkpt><trkpt lat="43.83729" lon="10.49507"><ele>16.0</ele><time>2026-03-28T09:28:12.069Z</time></trkpt><trkpt lat="43.837395" lon="10.49508"><ele>16.0</ele><time>2026-03-28T09:28:13.068Z</time></trkpt><trkpt lat="43.837495" lon="10.4950933"><ele>16.0</ele><time>2026-03-28T09:28:14.068Z</time></trkpt><trkpt lat="43.8375967" lon="10.4951067"><ele>16.0</ele><time>2026-03-28T09:28:15.069Z</time></trkpt><trkpt lat="43.8377033" lon="10.4951217"><ele>16.0</ele><time>2026-03-28T09:28:16.069Z</time></trkpt><trkpt lat="43.8378167" lon="10.495145"><ele>16.0</ele><time>2026-03-28T09:28:17.068Z</time></trkpt><trkpt lat="43.8379333" lon="10.4951667"><ele>16.0</ele><time>2026-03-28T09:28:18.068Z</time></trkpt><trkpt lat="43.8380517" lon="10.4951783"><ele>16.0</ele><time>2026-03-28T09:28:19.069Z</time></trkpt><trkpt lat="43.83817" lon="10.4952017"><ele>16.0</ele><time>2026-03-28T09:28:20.069Z</time></trkpt><trkpt lat="43.8382917" lon="10.4952233"><ele>16.0</ele><time>2026-03-28T09:28:21.068Z</time></trkpt><trkpt lat="43.83841" lon="10.4952433"><ele>16.0</ele><time>2026-03-28T09:28:22.069Z</time></trkpt><trkpt lat="43.838525" lon="10.4952567"><ele>16.0</ele><time>2026-03-28T09:28:23.069Z</time></trkpt><trkpt lat="43.8386383" lon="10.4952667"><ele>16.0</ele><time>2026-03-28T09:28:24.069Z</time></trkpt><trkpt lat="43.8387483" lon="10.49528"><ele>16.0</ele><time>2026-03-28T09:28:25.068Z</time></trkpt><trkpt lat="43.8388617" lon="10.4953"><ele>16.0</ele><time>2026-03-28T09:28:26.069Z</time></trkpt><trkpt lat="43.8389717" lon="10.49531"><ele>16.0</ele><time>2026-03-28T09:28:27.069Z</time></trkpt><trkpt lat="43.839065" lon="10.4953267"><ele>15.999999999999998</ele><time>2026-03-28T09:28:28.069Z</time></trkpt><trkpt lat="43.839145" lon="10.495335"><ele>16.0</ele><time>2026-03-28T09:28:29.069Z</time></trkpt><trkpt lat="43.8392217" lon="10.495345"><ele>16.0</ele><time>2026-03-28T09:28:30.069Z</time></trkpt><trkpt lat="43.8392967" lon="10.495355"><ele>16.0</ele><time>2026-03-28T09:28:31.069Z</time></trkpt><trkpt lat="43.8393667" lon="10.4953633"><ele>15.999999999999998</ele><time>2026-03-28T09:28:32.069Z</time></trkpt><trkpt lat="43.8394817" lon="10.4954183"><ele>16.0</ele><time>2026-03-28T09:28:34.069Z</time></trkpt><trkpt lat="43.83955" lon="10.4955267"><ele>17.0</ele><time>2026-03-28T09:28:36.069Z</time></trkpt><trkpt lat="43.8395267" lon="10.4956917"><ele>18.0</ele><time>2026-03-28T09:28:38.069Z</time></trkpt><trkpt lat="43.8394967" lon="10.49579"><ele>19.0</ele><time>2026-03-28T09:28:39.069Z</time></trkpt><trkpt lat="43.8394617" lon="10.49591"><ele>20.0</ele><time>2026-03-28T09:28:40.069Z</time></trkpt><trkpt lat="43.8394317" lon="10.4960267"><ele>21.0</ele><time>2026-03-28T09:28:41.069Z</time></trkpt><trkpt lat="43.8393983" lon="10.496155"><ele>21.6</ele><time>2026-03-28T09:28:42.069Z</time></trkpt><trkpt lat="43.8393583" lon="10.4962817"><ele>22.200000000000003</ele><time>2026-03-28T09:28:43.069Z</time></trkpt><trkpt lat="43.8393233" lon="10.4964117"><ele>22.799999999999997</ele><time>2026-03-28T09:28:44.069Z</time></trkpt><trkpt lat="43.839285" lon="10.4965417"><ele>23.4</ele><time>2026-03-28T09:28:45.069Z</time></trkpt><trkpt lat="43.8392467" lon="10.4966767"><ele>24.0</ele><time>2026-03-28T09:28:46.069Z</time></trkpt><trkpt lat="43.8392067" lon="10.4968"><ele>23.0</ele><time>2026-03-28T09:28:47.069Z</time></trkpt><trkpt lat="43.8391717" lon="10.496915"><ele>22.0</ele><time>2026-03-28T09:28:48.068Z</time></trkpt><trkpt lat="43.8391367" lon="10.4970167"><ele>21.0</ele><time>2026-03-28T09:28:49.069Z</time></trkpt><trkpt lat="43.8391" lon="10.497105"><ele>20.0</ele><time>2026-03-28T09:28:50.069Z</time></trkpt><trkpt lat="43.839075" lon="10.4972283"><ele>19.0</ele><time>2026-03-28T09:28:52.069Z</time></trkpt><trkpt lat="43.8390067" lon="10.4973467"><ele>18.0</ele><time>2026-03-28T09:29:16.069Z</time></trkpt><trkpt lat="43.8389917" lon="10.4974433"><ele>17.6</ele><time>2026-03-28T09:29:17.068Z</time></trkpt><trkpt lat="43.8389617" lon="10.497545"><ele>17.200000000000003</ele><time>2026-03-28T09:29:18.068Z</time></trkpt><trkpt lat="43.838925" lon="10.497665"><ele>16.8</ele><time>2026-03-28T09:29:19.069Z</time></trkpt><trkpt lat="43.8388817" lon="10.49779"><ele>16.400000000000002</ele><time>2026-03-28T09:29:20.069Z</time></trkpt><trkpt lat="43.8388367" lon="10.4979217"><ele>16.0</ele><time>2026-03-28T09:29:21.069Z</time></trkpt><trkpt lat="43.8387983" lon="10.4980583"><ele>16.0</ele><time>2026-03-28T09:29:22.069Z</time></trkpt><trkpt lat="43.8387533" lon="10.498195"><ele>16.0</ele><time>2026-03-28T09:29:23.069Z</time></trkpt><trkpt lat="43.838695" lon="10.49835"><ele>16.0</ele><time>2026-03-28T09:29:24.069Z</time></trkpt><trkpt lat="43.8386483" lon="10.4985017"><ele>16.0</ele><time>2026-03-28T09:29:25.069Z</time></trkpt><trkpt lat="43.8386033" lon="10.4986483"><ele>16.0</ele><time>2026-03-28T09:29:26.069Z</time></trkpt><trkpt lat="43.8385583" lon="10.49879"><ele>16.0</ele><time>2026-03-28T09:29:27.069Z</time></trkpt><trkpt lat="43.8385133" lon="10.49893"><ele>16.0</ele><time>2026-03-28T09:29:28.069Z</time></trkpt><trkpt lat="43.838465" lon="10.4990717"><ele>16.0</ele><time>2026-03-28T09:29:29.069Z</time></trkpt><trkpt lat="43.83842" lon="10.4992033"><ele>16.0</ele><time>2026-03-28T09:29:30.069Z</time></trkpt><trkpt lat="43.83837" lon="10.4993533"><ele>16.0</ele><time>2026-03-28T09:29:31.068Z</time></trkpt><trkpt lat="43.838325" lon="10.4994967"><ele>16.0</ele><time>2026-03-28T09:29:32.069Z</time></trkpt><trkpt lat="43.8382917" lon="10.4996367"><ele>16.0</ele><time>2026-03-28T09:29:33.069Z</time></trkpt><trkpt lat="43.8382483" lon="10.4997783"><ele>16.0</ele><time>2026-03-28T09:29:34.068Z</time></trkpt><trkpt lat="43.8382" lon="10.4999183"><ele>16.0</ele><time>2026-03-28T09:29:35.069Z</time></trkpt><trkpt lat="43.8381483" lon="10.5000617"><ele>16.0</ele><time>2026-03-28T09:29:36.068Z</time></trkpt><trkpt lat="43.8381033" lon="10.500205"><ele>16.0</ele><time>2026-03-28T09:29:37.069Z</time></trkpt><trkpt lat="43.8380667" lon="10.5003483"><ele>16.0</ele><time>2026-03-28T09:29:38.069Z</time></trkpt><trkpt lat="43.8380283" lon="10.50049"><ele>16.0</ele><time>2026-03-28T09:29:39.069Z</time></trkpt><trkpt lat="43.83799" lon="10.50063"><ele>16.0</ele><time>2026-03-28T09:29:40.069Z</time></trkpt><trkpt lat="43.8379433" lon="10.5007717"><ele>16.6</ele><time>2026-03-28T09:29:41.069Z</time></trkpt><trkpt lat="43.8379" lon="10.5009"><ele>17.200000000000003</ele><time>2026-03-28T09:29:42.068Z</time></trkpt><trkpt lat="43.8378533" lon="10.50104"><ele>17.799999999999997</ele><time>2026-03-28T09:29:43.069Z</time></trkpt><trkpt lat="43.837815" lon="10.50118"><ele>18.4</ele><time>2026-03-28T09:29:44.068Z</time></trkpt><trkpt lat="43.8377967" lon="10.5013167"><ele>19.0</ele><time>2026-03-28T09:29:45.069Z</time></trkpt><trkpt lat="43.8377783" lon="10.5014617"><ele>19.2</ele><time>2026-03-28T09:29:46.068Z</time></trkpt><trkpt lat="43.8377667" lon="10.501615"><ele>19.4</ele><time>2026-03-28T09:29:47.069Z</time></trkpt><trkpt lat="43.8377567" lon="10.501765"><ele>19.6</ele><time>2026-03-28T09:29:48.069Z</time></trkpt><trkpt lat="43.8377467" lon="10.50191"><ele>19.8</ele><time>2026-03-28T09:29:49.069Z</time></trkpt><trkpt lat="43.83774" lon="10.5020583"><ele>20.0</ele><time>2026-03-28T09:29:50.069Z</time></trkpt><trkpt lat="43.8377367" lon="10.5022033"><ele>19.6</ele><time>2026-03-28T09:29:51.068Z</time></trkpt><trkpt lat="43.8377383" lon="10.5023467"><ele>19.2</ele><time>2026-03-28T09:29:52.069Z</time></trkpt><trkpt lat="43.8377267" lon="10.5024917"><ele>18.8</ele><time>2026-03-28T09:29:53.069Z</time></trkpt><trkpt lat="43.8377267" lon="10.502645"><ele>18.4</ele><time>2026-03-28T09:29:54.068Z</time></trkpt><trkpt lat="43.8377217" lon="10.5027917"><ele>18.0</ele><time>2026-03-28T09:29:55.069Z</time></trkpt><trkpt lat="43.8377217" lon="10.5029317"><ele>17.6</ele><time>2026-03-28T09:29:56.069Z</time></trkpt><trkpt lat="43.8377183" lon="10.5030633"><ele>17.200000000000003</ele><time>2026-03-28T09:29:57.068Z</time></trkpt><trkpt lat="43.8377267" lon="10.5031767"><ele>16.8</ele><time>2026-03-28T09:29:58.069Z</time></trkpt><trkpt lat="43.837745" lon="10.5032683"><ele>16.400000000000002</ele><time>2026-03-28T09:29:59.069Z</time></trkpt><trkpt lat="43.837765" lon="10.5034217"><ele>16.0</ele><time>2026-03-28T09:30:01.068Z</time></trkpt><trkpt lat="43.8377683" lon="10.503565"><ele>15.999999999999998</ele><time>2026-03-28T09:30:03.069Z</time></trkpt><trkpt lat="43.8377583" lon="10.5036533"><ele>16.0</ele><time>2026-03-28T09:30:04.069Z</time></trkpt><trkpt lat="43.8377483" lon="10.5037533"><ele>16.0</ele><time>2026-03-28T09:30:05.069Z</time></trkpt><trkpt lat="43.8377517" lon="10.5038633"><ele>16.0</ele><time>2026-03-28T09:30:06.069Z</time></trkpt><trkpt lat="43.8377467" lon="10.5039867"><ele>15.999999999999998</ele><time>2026-03-28T09:30:07.069Z</time></trkpt><trkpt lat="43.83774" lon="10.50412"><ele>16.0</ele><time>2026-03-28T09:30:08.069Z</time></trkpt><trkpt lat="43.8377317" lon="10.5042433"><ele>16.0</ele><time>2026-03-28T09:30:09.068Z</time></trkpt><trkpt lat="43.83773" lon="10.5043733"><ele>16.0</ele><time>2026-03-28T09:30:10.069Z</time></trkpt><trkpt lat="43.8377283" lon="10.50451"><ele>16.0</ele><time>2026-03-28T09:30:11.069Z</time></trkpt><trkpt lat="43.8377267" lon="10.504645"><ele>16.0</ele><time>2026-03-28T09:30:12.069Z</time></trkpt><trkpt lat="43.8377183" lon="10.504805"><ele>16.0</ele><time>2026-03-28T09:30:13.069Z</time></trkpt><trkpt lat="43.8377267" lon="10.5049733"><ele>16.0</ele><time>2026-03-28T09:30:14.068Z</time></trkpt><trkpt lat="43.8377067" lon="10.505135"><ele>16.0</ele><time>2026-03-28T09:30:15.069Z</time></trkpt><trkpt lat="43.8377" lon="10.505275"><ele>16.0</ele><time>2026-03-28T09:30:16.069Z</time></trkpt><trkpt lat="43.83769" lon="10.5054067"><ele>16.0</ele><time>2026-03-28T09:30:17.068Z</time></trkpt><trkpt lat="43.83768" lon="10.505525"><ele>16.0</ele><time>2026-03-28T09:30:18.069Z</time></trkpt><trkpt lat="43.8376733" lon="10.505635"><ele>15.833333333333332</ele><time>2026-03-28T09:30:19.068Z</time></trkpt><trkpt lat="43.837665" lon="10.5057333"><ele>15.666666666666666</ele><time>2026-03-28T09:30:20.069Z</time></trkpt><trkpt lat="43.8376667" lon="10.50588"><ele>15.5</ele><time>2026-03-28T09:30:22.068Z</time></trkpt><trkpt lat="43.8377333" lon="10.505945"><ele>15.333333333333332</ele><time>2026-03-28T09:30:24.069Z</time></trkpt><trkpt lat="43.837805" lon="10.5059517"><ele>15.166666666666666</ele><time>2026-03-28T09:30:25.069Z</time></trkpt><trkpt lat="43.83791" lon="10.5059217"><ele>15.0</ele><time>2026-03-28T09:30:26.068Z</time></trkpt><trkpt lat="43.838015" lon="10.5059267"><ele>15.0</ele><time>2026-03-28T09:30:27.069Z</time></trkpt><trkpt lat="43.838115" lon="10.50594"><ele>15.0</ele><time>2026-03-28T09:30:28.069Z</time></trkpt><trkpt lat="43.8382083" lon="10.5059483"><ele>15.0</ele><time>2026-03-28T09:30:29.069Z</time></trkpt><trkpt lat="43.8382817" lon="10.505985"><ele>15.0</ele><time>2026-03-28T09:30:30.068Z</time></trkpt><trkpt lat="43.8383467" lon="10.5060217"><ele>15.0</ele><time>2026-03-28T09:30:31.068Z</time></trkpt><trkpt lat="43.8383667" lon="10.5061083"><ele>15.0</ele><time>2026-03-28T09:30:32.069Z</time></trkpt><trkpt lat="43.838365" lon="10.5062133"><ele>15.2</ele><time>2026-03-28T09:30:33.068Z</time></trkpt><trkpt lat="43.8383417" lon="10.506355"><ele>15.4</ele><time>2026-03-28T09:30:34.068Z</time></trkpt><trkpt lat="43.8383233" lon="10.5064967"><ele>15.600000000000001</ele><time>2026-03-28T09:30:35.069Z</time></trkpt><trkpt lat="43.8383067" lon="10.5066283"><ele>15.8</ele><time>2026-03-28T09:30:36.069Z</time></trkpt><trkpt lat="43.83831" lon="10.506765"><ele>16.0</ele><time>2026-03-28T09:30:37.069Z</time></trkpt><trkpt lat="43.8383217" lon="10.5068933"><ele>16.0</ele><time>2026-03-28T09:30:38.068Z</time></trkpt><trkpt lat="43.83834" lon="10.5070083"><ele>16.0</ele><time>2026-03-28T09:30:39.068Z</time></trkpt><trkpt lat="43.8383633" lon="10.5071217"><ele>16.0</ele><time>2026-03-28T09:30:40.069Z</time></trkpt><trkpt lat="43.8383983" lon="10.5072517"><ele>16.0</ele><time>2026-03-28T09:30:41.068Z</time></trkpt><trkpt lat="43.8384333" lon="10.50739"><ele>16.0</ele><time>2026-03-28T09:30:42.069Z</time></trkpt><trkpt lat="43.838465" lon="10.5075283"><ele>15.8</ele><time>2026-03-28T09:30:43.069Z</time></trkpt><trkpt lat="43.838505" lon="10.5076633"><ele>15.600000000000001</ele><time>2026-03-28T09:30:44.069Z</time></trkpt><trkpt lat="43.83854" lon="10.5078017"><ele>15.4</ele><time>2026-03-28T09:30:45.068Z</time></trkpt><trkpt lat="43.8385783" lon="10.507935"><ele>15.2</ele><time>2026-03-28T09:30:46.068Z</time></trkpt><trkpt lat="43.838625" lon="10.50807"><ele>15.0</ele><time>2026-03-28T09:30:47.069Z</time></trkpt><trkpt lat="43.838655" lon="10.5082167"><ele>15.0</ele><time>2026-03-28T09:30:48.069Z</time></trkpt><trkpt lat="43.8386817" lon="10.5083533"><ele>15.0</ele><time>2026-03-28T09:30:49.068Z</time></trkpt><trkpt lat="43.8387133" lon="10.50849"><ele>15.0</ele><time>2026-03-28T09:30:50.069Z</time></trkpt><trkpt lat="43.8387467" lon="10.5086317"><ele>15.0</ele><time>2026-03-28T09:30:51.068Z</time></trkpt><trkpt lat="43.83879" lon="10.5087833"><ele>15.0</ele><time>2026-03-28T09:30:52.068Z</time></trkpt><trkpt lat="43.838835" lon="10.5089333"><ele>15.25</ele><time>2026-03-28T09:30:53.069Z</time></trkpt><trkpt lat="43.8388883" lon="10.50907"><ele>15.5</ele><time>2026-03-28T09:30:54.068Z</time></trkpt><trkpt lat="43.8389367" lon="10.5092233"><ele>15.75</ele><time>2026-03-28T09:30:55.068Z</time></trkpt><trkpt lat="43.8389867" lon="10.5093783"><ele>16.0</ele><time>2026-03-28T09:30:56.068Z</time></trkpt><trkpt lat="43.8390317" lon="10.5095317"><ele>16.5</ele><time>2026-03-28T09:30:57.068Z</time></trkpt><trkpt lat="43.8390833" lon="10.50968"><ele>17.0</ele><time>2026-03-28T09:30:58.069Z</time></trkpt><trkpt lat="43.83912" lon="10.5098283"><ele>17.5</ele><time>2026-03-28T09:30:59.069Z</time></trkpt><trkpt lat="43.8391667" lon="10.509985"><ele>18.0</ele><time>2026-03-28T09:31:00.069Z</time></trkpt><trkpt lat="43.8392083" lon="10.51014"><ele>18.0</ele><time>2026-03-28T09:31:01.069Z</time></trkpt><trkpt lat="43.8392433" lon="10.5102917"><ele>18.0</ele><time>2026-03-28T09:31:02.069Z</time></trkpt><trkpt lat="43.8392867" lon="10.5104417"><ele>18.0</ele><time>2026-03-28T09:31:03.069Z</time></trkpt><trkpt lat="43.839345" lon="10.5105933"><ele>18.0</ele><time>2026-03-28T09:31:04.069Z</time></trkpt><trkpt lat="43.83939" lon="10.5107367"><ele>18.4</ele><time>2026-03-28T09:31:05.069Z</time></trkpt><trkpt lat="43.83942" lon="10.510885"><ele>18.8</ele><time>2026-03-28T09:31:06.068Z</time></trkpt><trkpt lat="43.8394383" lon="10.5110267"><ele>19.2</ele><time>2026-03-28T09:31:07.069Z</time></trkpt><trkpt lat="43.839475" lon="10.5111717"><ele>19.6</ele><time>2026-03-28T09:31:08.069Z</time></trkpt><trkpt lat="43.8395183" lon="10.51131"><ele>20.0</ele><time>2026-03-28T09:31:09.068Z</time></trkpt><trkpt lat="43.8395667" lon="10.5114483"><ele>20.0</ele><time>2026-03-28T09:31:10.069Z</time></trkpt><trkpt lat="43.8396067" lon="10.511595"><ele>20.0</ele><time>2026-03-28T09:31:11.069Z</time></trkpt><trkpt lat="43.8396517" lon="10.5117467"><ele>20.0</ele><time>2026-03-28T09:31:12.068Z</time></trkpt><trkpt lat="43.8397" lon="10.511905"><ele>20.0</ele><time>2026-03-28T09:31:13.069Z</time></trkpt><trkpt lat="43.8397417" lon="10.5120517"><ele>19.0</ele><time>2026-03-28T09:31:14.069Z</time></trkpt><trkpt lat="43.8397883" lon="10.5121983"><ele>18.0</ele><time>2026-03-28T09:31:15.069Z</time></trkpt><trkpt lat="43.8398317" lon="10.512345"><ele>17.0</ele><time>2026-03-28T09:31:16.069Z</time></trkpt><trkpt lat="43.839875" lon="10.5124933"><ele>16.0</ele><time>2026-03-28T09:31:17.068Z</time></trkpt><trkpt lat="43.8399083" lon="10.51264"><ele>16.0</ele><time>2026-03-28T09:31:18.069Z</time></trkpt><trkpt lat="43.8399383" lon="10.5128017"><ele>16.0</ele><time>2026-03-28T09:31:19.069Z</time></trkpt><trkpt lat="43.8399767" lon="10.5129517"><ele>16.0</ele><time>2026-03-28T09:31:20.069Z</time></trkpt><trkpt lat="43.84002" lon="10.5130983"><ele>16.0</ele><time>2026-03-28T09:31:21.068Z</time></trkpt><trkpt lat="43.8400633" lon="10.5132483"><ele>16.0</ele><time>2026-03-28T09:31:22.069Z</time></trkpt><trkpt lat="43.8400967" lon="10.5134067"><ele>16.0</ele><time>2026-03-28T09:31:23.069Z</time></trkpt><trkpt lat="43.8401433" lon="10.5135583"><ele>16.0</ele><time>2026-03-28T09:31:24.068Z</time></trkpt><trkpt lat="43.8401833" lon="10.5137083"><ele>16.0</ele><time>2026-03-28T09:31:25.068Z</time></trkpt><trkpt lat="43.8402317" lon="10.5138717"><ele>17.0</ele><time>2026-03-28T09:31:26.069Z</time></trkpt><trkpt lat="43.84028" lon="10.51403"><ele>18.0</ele><time>2026-03-28T09:31:27.069Z</time></trkpt><trkpt lat="43.84032" lon="10.5141867"><ele>19.0</ele><time>2026-03-28T09:31:28.068Z</time></trkpt><trkpt lat="43.8403633" lon="10.51433"><ele>20.0</ele><time>2026-03-28T09:31:29.069Z</time></trkpt><trkpt lat="43.840395" lon="10.51445"><ele>21.0</ele><time>2026-03-28T09:31:30.069Z</time></trkpt><trkpt lat="43.8404283" lon="10.51455"><ele>20.400000000000002</ele><time>2026-03-28T09:31:31.068Z</time></trkpt><trkpt lat="43.8404733" lon="10.5146967"><ele>19.8</ele><time>2026-03-28T09:31:33.068Z</time></trkpt><trkpt lat="43.8404983" lon="10.5148283"><ele>19.200000000000003</ele><time>2026-03-28T09:31:35.069Z</time></trkpt><trkpt lat="43.8405067" lon="10.514975"><ele>18.6</ele><time>2026-03-28T09:31:37.068Z</time></trkpt><trkpt lat="43.8405783" lon="10.515055"><ele>18.0</ele><time>2026-03-28T09:31:39.069Z</time></trkpt><trkpt lat="43.8406667" lon="10.5150433"><ele>18.0</ele><time>2026-03-28T09:31:41.069Z</time></trkpt><trkpt lat="43.840775" lon="10.5150117"><ele>18.0</ele><time>2026-03-28T09:31:43.068Z</time></trkpt><trkpt lat="43.84084" lon="10.5150217"><ele>18.0</ele><time>2026-03-28T09:31:44.069Z</time></trkpt><trkpt lat="43.8409183" lon="10.515035"><ele>18.0</ele><time>2026-03-28T09:31:45.069Z</time></trkpt><trkpt lat="43.8410067" lon="10.51505"><ele>18.0</ele><time>2026-03-28T09:31:46.069Z</time></trkpt><trkpt lat="43.8411" lon="10.5150733"><ele>18.0</ele><time>2026-03-28T09:31:47.069Z</time></trkpt><trkpt lat="43.8411983" lon="10.5151067"><ele>18.25</ele><time>2026-03-28T09:31:48.069Z</time></trkpt><trkpt lat="43.8413067" lon="10.5151433"><ele>18.5</ele><time>2026-03-28T09:31:49.068Z</time></trkpt><trkpt lat="43.84142" lon="10.5151833"><ele>18.75</ele><time>2026-03-28T09:31:50.069Z</time></trkpt><trkpt lat="43.8415383" lon="10.5152267"><ele>19.0</ele><time>2026-03-28T09:31:51.069Z</time></trkpt><trkpt lat="43.8416567" lon="10.5152683"><ele>19.0</ele><time>2026-03-28T09:31:52.069Z</time></trkpt><trkpt lat="43.841775" lon="10.51531"><ele>19.0</ele><time>2026-03-28T09:31:53.069Z</time></trkpt><trkpt lat="43.8418983" lon="10.515335"><ele>19.0</ele><time>2026-03-28T09:31:54.069Z</time></trkpt><trkpt lat="43.8420167" lon="10.515355"><ele>19.0</ele><time>2026-03-28T09:31:55.069Z</time></trkpt><trkpt lat="43.8421317" lon="10.5153883"><ele>19.0</ele><time>2026-03-28T09:31:56.069Z</time></trkpt><trkpt lat="43.84224" lon="10.515425"><ele>19.0</ele><time>2026-03-28T09:31:57.068Z</time></trkpt><trkpt lat="43.8423417" lon="10.5154583"><ele>19.0</ele><time>2026-03-28T09:31:58.069Z</time></trkpt><trkpt lat="43.842435" lon="10.5154833"><ele>19.0</ele><time>2026-03-28T09:31:59.069Z</time></trkpt><trkpt lat="43.8425217" lon="10.51551"><ele>19.0</ele><time>2026-03-28T09:32:00.069Z</time></trkpt><trkpt lat="43.8426" lon="10.5155433"><ele>19.166666666666664</ele><time>2026-03-28T09:32:01.069Z</time></trkpt><trkpt lat="43.8426717" lon="10.5155883"><ele>19.333333333333332</ele><time>2026-03-28T09:32:02.069Z</time></trkpt><trkpt lat="43.842745" lon="10.5156367"><ele>19.5</ele><time>2026-03-28T09:32:03.069Z</time></trkpt><trkpt lat="43.8428183" lon="10.5156783"><ele>19.666666666666668</ele><time>2026-03-28T09:32:04.068Z</time></trkpt><trkpt lat="43.8429" lon="10.5156983"><ele>19.833333333333336</ele><time>2026-03-28T09:32:05.069Z</time></trkpt><trkpt lat="43.8429883" lon="10.515705"><ele>20.0</ele><time>2026-03-28T09:32:06.069Z</time></trkpt><trkpt lat="43.8430783" lon="10.5157233"><ele>20.0</ele><time>2026-03-28T09:32:07.069Z</time></trkpt><trkpt lat="43.8431617" lon="10.5157617"><ele>20.0</ele><time>2026-03-28T09:32:08.069Z</time></trkpt><trkpt lat="43.8432383" lon="10.5158133"><ele>20.0</ele><time>2026-03-28T09:32:09.069Z</time></trkpt><trkpt lat="43.843305" lon="10.5158667"><ele>20.0</ele><time>2026-03-28T09:32:10.069Z</time></trkpt><trkpt lat="43.8433583" lon="10.51592"><ele>20.0</ele><time>2026-03-28T09:32:11.069Z</time></trkpt><trkpt lat="43.8434317" lon="10.5160317"><ele>20.0</ele><time>2026-03-28T09:32:13.069Z</time></trkpt><trkpt lat="43.8435133" lon="10.5161683"><ele>19.6</ele><time>2026-03-28T09:32:15.069Z</time></trkpt><trkpt lat="43.8435717" lon="10.51625"><ele>19.2</ele><time>2026-03-28T09:32:16.068Z</time></trkpt><trkpt lat="43.843635" lon="10.5163333"><ele>18.8</ele><time>2026-03-28T09:32:17.069Z</time></trkpt><trkpt lat="43.8437033" lon="10.5164233"><ele>18.4</ele><time>2026-03-28T09:32:18.069Z</time></trkpt><trkpt lat="43.8437667" lon="10.5165267"><ele>18.0</ele><time>2026-03-28T09:32:19.069Z</time></trkpt><trkpt lat="43.843835" lon="10.51664"><ele>18.0</ele><time>2026-03-28T09:32:20.069Z</time></trkpt><trkpt lat="43.84391" lon="10.5167517"><ele>18.0</ele><time>2026-03-28T09:32:21.069Z</time></trkpt><trkpt lat="43.8439783" lon="10.5168583"><ele>18.0</ele><time>2026-03-28T09:32:22.068Z</time></trkpt><trkpt lat="43.8440483" lon="10.5169533"><ele>18.0</ele><time>2026-03-28T09:32:23.069Z</time></trkpt><trkpt lat="43.8441083" lon="10.5170467"><ele>18.0</ele><time>2026-03-28T09:32:24.069Z</time></trkpt><trkpt lat="43.8441617" lon="10.5171283"><ele>18.0</ele><time>2026-03-28T09:32:25.068Z</time></trkpt><trkpt lat="43.84421" lon="10.5171983"><ele>18.0</ele><time>2026-03-28T09:32:26.068Z</time></trkpt><trkpt lat="43.8442683" lon="10.5172967"><ele>18.0</ele><time>2026-03-28T09:32:28.069Z</time></trkpt><trkpt lat="43.8443183" lon="10.51736"><ele>18.0</ele><time>2026-03-28T09:32:30.069Z</time></trkpt><trkpt lat="43.8443867" lon="10.5174667"><ele>18.0</ele><time>2026-03-28T09:32:32.069Z</time></trkpt><trkpt lat="43.8444317" lon="10.5175367"><ele>18.0</ele><time>2026-03-28T09:32:33.069Z</time></trkpt><trkpt lat="43.8444817" lon="10.517615"><ele>18.166666666666668</ele><time>2026-03-28T09:32:34.069Z</time></trkpt><trkpt lat="43.8445367" lon="10.5176983"><ele>18.333333333333332</ele><time>2026-03-28T09:32:35.068Z</time></trkpt><trkpt lat="43.8445933" lon="10.5177817"><ele>18.5</ele><time>2026-03-28T09:32:36.068Z</time></trkpt><trkpt lat="43.84465" lon="10.517865"><ele>18.666666666666664</ele><time>2026-03-28T09:32:37.069Z</time></trkpt><trkpt lat="43.8447083" lon="10.51795"><ele>18.833333333333332</ele><time>2026-03-28T09:32:38.069Z</time></trkpt><trkpt lat="43.8447583" lon="10.5180367"><ele>19.0</ele><time>2026-03-28T09:32:39.068Z</time></trkpt><trkpt lat="43.8448067" lon="10.5181217"><ele>19.0</ele><time>2026-03-28T09:32:40.069Z</time></trkpt><trkpt lat="43.8448517" lon="10.5181967"><ele>19.0</ele><time>2026-03-28T09:32:41.069Z</time></trkpt><trkpt lat="43.844925" lon="10.5183233"><ele>19.0</ele><time>2026-03-28T09:32:43.069Z</time></trkpt><trkpt lat="43.844985" lon="10.5184333"><ele>19.0</ele><time>2026-03-28T09:32:45.069Z</time></trkpt><trkpt lat="43.84507" lon="10.5185617"><ele>19.0</ele><time>2026-03-28T09:32:47.068Z</time></trkpt><trkpt lat="43.8451133" lon="10.5186283"><ele>19.0</ele><time>2026-03-28T09:32:48.068Z</time></trkpt><trkpt lat="43.84516" lon="10.51871"><ele>19.0</ele><time>2026-03-28T09:32:49.069Z</time></trkpt><trkpt lat="43.84521" lon="10.5188017"><ele>19.0</ele><time>2026-03-28T09:32:50.069Z</time></trkpt><trkpt lat="43.8452667" lon="10.5188983"><ele>19.0</ele><time>2026-03-28T09:32:51.069Z</time></trkpt><trkpt lat="43.84533" lon="10.5190117"><ele>19.0</ele><time>2026-03-28T09:32:52.069Z</time></trkpt><trkpt lat="43.84539" lon="10.5191117"><ele>19.0</ele><time>2026-03-28T09:32:53.069Z</time></trkpt><trkpt lat="43.8454567" lon="10.5192083"><ele>19.0</ele><time>2026-03-28T09:32:54.068Z</time></trkpt><trkpt lat="43.8455267" lon="10.5193117"><ele>19.0</ele><time>2026-03-28T09:32:55.068Z</time></trkpt><trkpt lat="43.8455967" lon="10.51942"><ele>19.0</ele><time>2026-03-28T09:32:56.068Z</time></trkpt><trkpt lat="43.845675" lon="10.5195233"><ele>19.0</ele><time>2026-03-28T09:32:57.069Z</time></trkpt><trkpt lat="43.8457433" lon="10.5196433"><ele>19.0</ele><time>2026-03-28T09:32:58.069Z</time></trkpt><trkpt lat="43.84582" lon="10.51975"><ele>19.0</ele><time>2026-03-28T09:32:59.068Z</time></trkpt><trkpt lat="43.845895" lon="10.519865"><ele>19.0</ele><time>2026-03-28T09:33:00.068Z</time></trkpt><trkpt lat="43.845975" lon="10.519975"><ele>19.0</ele><time>2026-03-28T09:33:01.069Z</time></trkpt><trkpt lat="43.8460433" lon="10.5200917"><ele>19.0</ele><time>2026-03-28T09:33:02.068Z</time></trkpt><trkpt lat="43.846115" lon="10.5202167"><ele>19.0</ele><time>2026-03-28T09:33:03.069Z</time></trkpt><trkpt lat="43.8461883" lon="10.52034"><ele>18.25</ele><time>2026-03-28T09:33:04.069Z</time></trkpt><trkpt lat="43.8462667" lon="10.5204767"><ele>17.5</ele><time>2026-03-28T09:33:05.069Z</time></trkpt><trkpt lat="43.8463417" lon="10.52062"><ele>16.75</ele><time>2026-03-28T09:33:06.069Z</time></trkpt><trkpt lat="43.84642" lon="10.5207517"><ele>16.0</ele><time>2026-03-28T09:33:07.069Z</time></trkpt><trkpt lat="43.8464983" lon="10.5208833"><ele>16.0</ele><time>2026-03-28T09:33:08.069Z</time></trkpt><trkpt lat="43.8465733" lon="10.5210133"><ele>16.0</ele><time>2026-03-28T09:33:09.069Z</time></trkpt><trkpt lat="43.8466567" lon="10.521125"><ele>16.0</ele><time>2026-03-28T09:33:10.068Z</time></trkpt><trkpt lat="43.8467433" lon="10.52126"><ele>16.0</ele><time>2026-03-28T09:33:11.068Z</time></trkpt><trkpt lat="43.8468483" lon="10.52139"><ele>16.75</ele><time>2026-03-28T09:33:12.069Z</time></trkpt><trkpt lat="43.8469533" lon="10.5215167"><ele>17.5</ele><time>2026-03-28T09:33:13.069Z</time></trkpt><trkpt lat="43.8470683" lon="10.5216233"><ele>18.25</ele><time>2026-03-28T09:33:14.069Z</time></trkpt><trkpt lat="43.8471867" lon="10.521735"><ele>19.0</ele><time>2026-03-28T09:33:15.069Z</time></trkpt><trkpt lat="43.84725" lon="10.5218933"><ele>19.0</ele><time>2026-03-28T09:33:16.069Z</time></trkpt><trkpt lat="43.8473217" lon="10.52204"><ele>19.0</ele><time>2026-03-28T09:33:17.069Z</time></trkpt><trkpt lat="43.847395" lon="10.5221883"><ele>19.0</ele><time>2026-03-28T09:33:18.069Z</time></trkpt><trkpt lat="43.8474717" lon="10.5223417"><ele>19.0</ele><time>2026-03-28T09:33:19.068Z</time></trkpt><trkpt lat="43.84756" lon="10.5224933"><ele>18.75</ele><time>2026-03-28T09:33:20.069Z</time></trkpt><trkpt lat="43.84764" lon="10.522635"><ele>18.5</ele><time>2026-03-28T09:33:21.069Z</time></trkpt><trkpt lat="43.847715" lon="10.52276"><ele>18.25</ele><time>2026-03-28T09:33:22.069Z</time></trkpt><trkpt lat="43.8477933" lon="10.5228917"><ele>18.0</ele><time>2026-03-28T09:33:23.069Z</time></trkpt><trkpt lat="43.8478633" lon="10.5230267"><ele>18.0</ele><time>2026-03-28T09:33:24.069Z</time></trkpt><trkpt lat="43.8479333" lon="10.5231583"><ele>18.0</ele><time>2026-03-28T09:33:25.069Z</time></trkpt><trkpt lat="43.8480117" lon="10.5232833"><ele>18.0</ele><time>2026-03-28T09:33:26.068Z</time></trkpt><trkpt lat="43.848075" lon="10.5234067"><ele>18.0</ele><time>2026-03-28T09:33:27.069Z</time></trkpt><trkpt lat="43.8481517" lon="10.5235183"><ele>18.0</ele><time>2026-03-28T09:33:28.068Z</time></trkpt><trkpt lat="43.8482267" lon="10.52364"><ele>18.0</ele><time>2026-03-28T09:33:29.069Z</time></trkpt><trkpt lat="43.8482983" lon="10.5237483"><ele>18.0</ele><time>2026-03-28T09:33:30.068Z</time></trkpt><trkpt lat="43.8483733" lon="10.5238583"><ele>18.0</ele><time>2026-03-28T09:33:31.069Z</time></trkpt><trkpt lat="43.84844" lon="10.5239717"><ele>18.0</ele><time>2026-03-28T09:33:32.069Z</time></trkpt><trkpt lat="43.848505" lon="10.524085"><ele>18.2</ele><time>2026-03-28T09:33:33.069Z</time></trkpt><trkpt lat="43.84857" lon="10.52419"><ele>18.4</ele><time>2026-03-28T09:33:34.068Z</time></trkpt><trkpt lat="43.8486283" lon="10.5242933"><ele>18.599999999999998</ele><time>2026-03-28T09:33:35.068Z</time></trkpt><trkpt lat="43.8486867" lon="10.52439"><ele>18.8</ele><time>2026-03-28T09:33:36.069Z</time></trkpt><trkpt lat="43.8487467" lon="10.52447"><ele>19.0</ele><time>2026-03-28T09:33:37.068Z</time></trkpt><trkpt lat="43.8487967" lon="10.52456"><ele>19.0</ele><time>2026-03-28T09:33:38.068Z</time></trkpt><trkpt lat="43.8488467" lon="10.5246383"><ele>19.0</ele><time>2026-03-28T09:33:39.069Z</time></trkpt><trkpt lat="43.8488933" lon="10.52472"><ele>19.0</ele><time>2026-03-28T09:33:40.068Z</time></trkpt><trkpt lat="43.84894" lon="10.524785"><ele>19.0</ele><time>2026-03-28T09:33:41.069Z</time></trkpt><trkpt lat="43.848985" lon="10.5248767"><ele>19.0</ele><time>2026-03-28T09:33:43.068Z</time></trkpt><trkpt lat="43.8489767" lon="10.5250133"><ele>19.0</ele><time>2026-03-28T09:33:49.069Z</time></trkpt><trkpt lat="43.8489183" lon="10.5251117"><ele>19.0</ele><time>2026-03-28T09:33:51.068Z</time></trkpt><trkpt lat="43.84881" lon="10.5251767"><ele>19.0</ele><time>2026-03-28T09:33:53.069Z</time></trkpt><trkpt lat="43.8487417" lon="10.5251817"><ele>19.0</ele><time>2026-03-28T09:33:54.069Z</time></trkpt><trkpt lat="43.8486683" lon="10.5251833"><ele>19.0</ele><time>2026-03-28T09:33:55.068Z</time></trkpt><trkpt lat="43.8485917" lon="10.52519"><ele>19.0</ele><time>2026-03-28T09:33:56.068Z</time></trkpt><trkpt lat="43.8485067" lon="10.5251933"><ele>19.0</ele><time>2026-03-28T09:33:57.069Z</time></trkpt><trkpt lat="43.8484217" lon="10.5251983"><ele>18.833333333333332</ele><time>2026-03-28T09:33:58.069Z</time></trkpt><trkpt lat="43.848335" lon="10.525195"><ele>18.666666666666664</ele><time>2026-03-28T09:33:59.069Z</time></trkpt><trkpt lat="43.8482467" lon="10.525195"><ele>18.5</ele><time>2026-03-28T09:34:00.069Z</time></trkpt><trkpt lat="43.8481583" lon="10.52518"><ele>18.333333333333332</ele><time>2026-03-28T09:34:01.068Z</time></trkpt><trkpt lat="43.8480717" lon="10.5251717"><ele>18.166666666666668</ele><time>2026-03-28T09:34:02.069Z</time></trkpt><trkpt lat="43.8479733" lon="10.525165"><ele>18.0</ele><time>2026-03-28T09:34:03.069Z</time></trkpt><trkpt lat="43.8478667" lon="10.5251617"><ele>18.0</ele><time>2026-03-28T09:34:04.069Z</time></trkpt><trkpt lat="43.8477533" lon="10.52516"><ele>18.0</ele><time>2026-03-28T09:34:05.068Z</time></trkpt><trkpt lat="43.8476367" lon="10.525155"><ele>18.0</ele><time>2026-03-28T09:34:06.069Z</time></trkpt><trkpt lat="43.84752" lon="10.5251467"><ele>18.0</ele><time>2026-03-28T09:34:07.069Z</time></trkpt><trkpt lat="43.8474017" lon="10.5251417"><ele>17.4</ele><time>2026-03-28T09:34:08.068Z</time></trkpt><trkpt lat="43.8472883" lon="10.52513"><ele>16.8</ele><time>2026-03-28T09:34:09.069Z</time></trkpt><trkpt lat="43.8471817" lon="10.5251233"><ele>16.2</ele><time>2026-03-28T09:34:10.069Z</time></trkpt><trkpt lat="43.847075" lon="10.52512"><ele>15.6</ele><time>2026-03-28T09:34:11.069Z</time></trkpt><trkpt lat="43.8469633" lon="10.5251133"><ele>15.0</ele><time>2026-03-28T09:34:12.069Z</time></trkpt><trkpt lat="43.846855" lon="10.5251033"><ele>14.8</ele><time>2026-03-28T09:34:13.069Z</time></trkpt><trkpt lat="43.8467483" lon="10.52509"><ele>14.6</ele><time>2026-03-28T09:34:14.068Z</time></trkpt><trkpt lat="43.84664" lon="10.5250783"><ele>14.399999999999999</ele><time>2026-03-28T09:34:15.068Z</time></trkpt><trkpt lat="43.8465283" lon="10.5250667"><ele>14.2</ele><time>2026-03-28T09:34:16.069Z</time></trkpt><trkpt lat="43.8464217" lon="10.525055"><ele>14.0</ele><time>2026-03-28T09:34:17.069Z</time></trkpt><trkpt lat="43.8463267" lon="10.5250433"><ele>14.000000000000002</ele><time>2026-03-28T09:34:18.069Z</time></trkpt><trkpt lat="43.8462433" lon="10.5250317"><ele>14.0</ele><time>2026-03-28T09:34:19.069Z</time></trkpt><trkpt lat="43.8461667" lon="10.5250217"><ele>14.0</ele><time>2026-03-28T09:34:20.069Z</time></trkpt><trkpt lat="43.8461033" lon="10.52501"><ele>14.0</ele><time>2026-03-28T09:34:21.069Z</time></trkpt><trkpt lat="43.8460167" lon="10.52496"><ele>14.000000000000002</ele><time>2026-03-28T09:34:23.069Z</time></trkpt><trkpt lat="43.846015" lon="10.52482"><ele>14.0</ele><time>2026-03-28T09:34:26.069Z</time></trkpt><trkpt lat="43.8460183" lon="10.524655"><ele>14.399999999999999</ele><time>2026-03-28T09:34:28.069Z</time></trkpt><trkpt lat="43.8460233" lon="10.5245417"><ele>14.799999999999999</ele><time>2026-03-28T09:34:29.069Z</time></trkpt><trkpt lat="43.8460367" lon="10.5244167"><ele>15.200000000000001</ele><time>2026-03-28T09:34:30.068Z</time></trkpt><trkpt lat="43.8460583" lon="10.5242867"><ele>15.600000000000001</ele><time>2026-03-28T09:34:31.068Z</time></trkpt><trkpt lat="43.84607" lon="10.524155"><ele>16.0</ele><time>2026-03-28T09:34:32.069Z</time></trkpt><trkpt lat="43.84608" lon="10.5240183"><ele>15.999999999999998</ele><time>2026-03-28T09:34:33.068Z</time></trkpt><trkpt lat="43.8460867" lon="10.5239067"><ele>16.0</ele><time>2026-03-28T09:34:34.069Z</time></trkpt><trkpt lat="43.8460983" lon="10.5238033"><ele>16.0</ele><time>2026-03-28T09:34:35.068Z</time></trkpt><trkpt lat="43.84614" lon="10.5236683"><ele>16.0</ele><time>2026-03-28T09:34:37.068Z</time></trkpt><trkpt lat="43.8462383" lon="10.5236367"><ele>15.999999999999998</ele><time>2026-03-28T09:34:39.069Z</time></trkpt><trkpt lat="43.8463133" lon="10.5236417"><ele>16.0</ele><time>2026-03-28T09:34:40.069Z</time></trkpt><trkpt lat="43.846395" lon="10.5236567"><ele>15.999999999999998</ele><time>2026-03-28T09:34:41.068Z</time></trkpt><trkpt lat="43.84646" lon="10.5236733"><ele>16.0</ele><time>2026-03-28T09:34:42.069Z</time></trkpt><trkpt lat="43.8465317" lon="10.5236917"><ele>16.0</ele><time>2026-03-28T09:34:44.069Z</time></trkpt><trkpt lat="43.84653" lon="10.5236033"><ele>16.0</ele><time>2026-03-28T09:35:16.069Z</time></trkpt><trkpt lat="43.8464617" lon="10.5236433"><ele>15.999999999999998</ele><time>2026-03-28T09:35:19.069Z</time></trkpt><trkpt lat="43.8463617" lon="10.52367"><ele>16.0</ele><time>2026-03-28T09:35:21.068Z</time></trkpt><trkpt lat="43.84625" lon="10.5236733"><ele>15.999999999999998</ele><time>2026-03-28T09:35:23.069Z</time></trkpt><trkpt lat="43.8461683" lon="10.5236917"><ele>16.0</ele><time>2026-03-28T09:35:25.069Z</time></trkpt><trkpt lat="43.8461167" lon="10.5238067"><ele>16.0</ele><time>2026-03-28T09:35:29.069Z</time></trkpt><trkpt lat="43.8461117" lon="10.523895"><ele>16.0</ele><time>2026-03-28T09:35:30.069Z</time></trkpt><trkpt lat="43.8461067" lon="10.5239833"><ele>15.999999999999998</ele><time>2026-03-28T09:35:31.069Z</time></trkpt><trkpt lat="43.8461017" lon="10.5240833"><ele>16.0</ele><time>2026-03-28T09:35:32.068Z</time></trkpt><trkpt lat="43.846085" lon="10.5242"><ele>15.999999999999998</ele><time>2026-03-28T09:35:33.069Z</time></trkpt><trkpt lat="43.84607" lon="10.52432"><ele>16.0</ele><time>2026-03-28T09:35:34.069Z</time></trkpt><trkpt lat="43.8460533" lon="10.524445"><ele>16.0</ele><time>2026-03-28T09:35:35.068Z</time></trkpt><trkpt lat="43.8460383" lon="10.5245667"><ele>16.0</ele><time>2026-03-28T09:35:36.069Z</time></trkpt><trkpt lat="43.8460267" lon="10.5246833"><ele>15.999999999999998</ele><time>2026-03-28T09:35:37.068Z</time></trkpt><trkpt lat="43.8460133" lon="10.5247817"><ele>16.0</ele><time>2026-03-28T09:35:38.069Z</time></trkpt><trkpt lat="43.8459967" lon="10.5249183"><ele>15.666666666666666</ele><time>2026-03-28T09:35:40.068Z</time></trkpt><trkpt lat="43.84605" lon="10.52503"><ele>15.333333333333332</ele><time>2026-03-28T09:35:46.069Z</time></trkpt><trkpt lat="43.8461233" lon="10.525045"><ele>15.0</ele><time>2026-03-28T09:35:47.069Z</time></trkpt><trkpt lat="43.84621" lon="10.525055"><ele>14.666666666666668</ele><time>2026-03-28T09:35:48.069Z</time></trkpt><trkpt lat="43.84629" lon="10.5250567"><ele>14.333333333333334</ele><time>2026-03-28T09:35:49.069Z</time></trkpt><trkpt lat="43.846365" lon="10.52507"><ele>14.0</ele><time>2026-03-28T09:35:50.069Z</time></trkpt><trkpt lat="43.8464683" lon="10.5250783"><ele>14.0</ele><time>2026-03-28T09:35:51.069Z</time></trkpt><trkpt lat="43.8465867" lon="10.5250967"><ele>14.0</ele><time>2026-03-28T09:35:52.068Z</time></trkpt><trkpt lat="43.8466983" lon="10.5251167"><ele>14.0</ele><time>2026-03-28T09:35:53.069Z</time></trkpt><trkpt lat="43.84681" lon="10.525135"><ele>14.0</ele><time>2026-03-28T09:35:54.069Z</time></trkpt><trkpt lat="43.8469283" lon="10.5251567"><ele>14.25</ele><time>2026-03-28T09:35:55.068Z</time></trkpt><trkpt lat="43.8470433" lon="10.5251667"><ele>14.5</ele><time>2026-03-28T09:35:56.068Z</time></trkpt><trkpt lat="43.8471583" lon="10.5251717"><ele>14.75</ele><time>2026-03-28T09:35:57.069Z</time></trkpt><trkpt lat="43.8472717" lon="10.5251783"><ele>15.0</ele><time>2026-03-28T09:35:58.068Z</time></trkpt><trkpt lat="43.847385" lon="10.5251967"><ele>15.0</ele><time>2026-03-28T09:35:59.069Z</time></trkpt><trkpt lat="43.8474967" lon="10.5252067"><ele>15.0</ele><time>2026-03-28T09:36:00.069Z</time></trkpt><trkpt lat="43.847605" lon="10.525215"><ele>15.0</ele><time>2026-03-28T09:36:01.068Z</time></trkpt><trkpt lat="43.8477167" lon="10.5252317"><ele>15.0</ele><time>2026-03-28T09:36:02.069Z</time></trkpt><trkpt lat="43.8478217" lon="10.5252517"><ele>15.0</ele><time>2026-03-28T09:36:03.069Z</time></trkpt><trkpt lat="43.8479233" lon="10.5252617"><ele>15.6</ele><time>2026-03-28T09:36:04.069Z</time></trkpt><trkpt lat="43.8480217" lon="10.52527"><ele>16.2</ele><time>2026-03-28T09:36:05.069Z</time></trkpt><trkpt lat="43.8481133" lon="10.5252683"><ele>16.8</ele><time>2026-03-28T09:36:06.069Z</time></trkpt><trkpt lat="43.8481967" lon="10.5252617"><ele>17.4</ele><time>2026-03-28T09:36:07.069Z</time></trkpt><trkpt lat="43.8482733" lon="10.52528"><ele>18.0</ele><time>2026-03-28T09:36:08.068Z</time></trkpt><trkpt lat="43.8483567" lon="10.525365"><ele>17.6</ele><time>2026-03-28T09:36:10.068Z</time></trkpt><trkpt lat="43.8483567" lon="10.5255267"><ele>17.200000000000003</ele><time>2026-03-28T09:36:12.069Z</time></trkpt><trkpt lat="43.8483367" lon="10.5256433"><ele>16.8</ele><time>2026-03-28T09:36:13.069Z</time></trkpt><trkpt lat="43.8483167" lon="10.52576"><ele>16.400000000000002</ele><time>2026-03-28T09:36:14.069Z</time></trkpt><trkpt lat="43.8483" lon="10.5258867"><ele>16.0</ele><time>2026-03-28T09:36:15.069Z</time></trkpt><trkpt lat="43.848285" lon="10.5260083"><ele>16.0</ele><time>2026-03-28T09:36:16.068Z</time></trkpt><trkpt lat="43.84828" lon="10.526145"><ele>16.0</ele><time>2026-03-28T09:36:17.068Z</time></trkpt><trkpt lat="43.8482733" lon="10.52628"><ele>16.0</ele><time>2026-03-28T09:36:18.069Z</time></trkpt><trkpt lat="43.8482633" lon="10.5264317"><ele>16.0</ele><time>2026-03-28T09:36:19.069Z</time></trkpt><trkpt lat="43.848255" lon="10.5265933"><ele>16.0</ele><time>2026-03-28T09:36:20.069Z</time></trkpt><trkpt lat="43.8482517" lon="10.52675"><ele>16.0</ele><time>2026-03-28T09:36:21.068Z</time></trkpt><trkpt lat="43.8482467" lon="10.5269067"><ele>16.0</ele><time>2026-03-28T09:36:22.069Z</time></trkpt><trkpt lat="43.8482433" lon="10.52706"><ele>16.0</ele><time>2026-03-28T09:36:23.068Z</time></trkpt><trkpt lat="43.8482417" lon="10.5272083"><ele>16.0</ele><time>2026-03-28T09:36:24.069Z</time></trkpt><trkpt lat="43.84823" lon="10.5273483"><ele>16.0</ele><time>2026-03-28T09:36:25.069Z</time></trkpt><trkpt lat="43.848225" lon="10.5275017"><ele>16.0</ele><time>2026-03-28T09:36:26.069Z</time></trkpt><trkpt lat="43.84822" lon="10.5276417"><ele>16.0</ele><time>2026-03-28T09:36:27.069Z</time></trkpt><trkpt lat="43.848215" lon="10.5277867"><ele>16.0</ele><time>2026-03-28T09:36:28.069Z</time></trkpt><trkpt lat="43.8482117" lon="10.5279333"><ele>16.0</ele><time>2026-03-28T09:36:29.069Z</time></trkpt><trkpt lat="43.848215" lon="10.52808"><ele>16.0</ele><time>2026-03-28T09:36:30.068Z</time></trkpt><trkpt lat="43.8482083" lon="10.52823"><ele>16.0</ele><time>2026-03-28T09:36:31.069Z</time></trkpt><trkpt lat="43.8482067" lon="10.5283767"><ele>16.0</ele><time>2026-03-28T09:36:32.068Z</time></trkpt><trkpt lat="43.8481967" lon="10.5285333"><ele>16.0</ele><time>2026-03-28T09:36:33.069Z</time></trkpt><trkpt lat="43.848185" lon="10.5286983"><ele>16.0</ele><time>2026-03-28T09:36:34.069Z</time></trkpt><trkpt lat="43.848175" lon="10.5288617"><ele>16.0</ele><time>2026-03-28T09:36:35.069Z</time></trkpt><trkpt lat="43.8481617" lon="10.52902"><ele>16.0</ele><time>2026-03-28T09:36:36.068Z</time></trkpt><trkpt lat="43.8481467" lon="10.529175"><ele>16.0</ele><time>2026-03-28T09:36:37.069Z</time></trkpt><trkpt lat="43.8481317" lon="10.52934"><ele>16.0</ele><time>2026-03-28T09:36:38.068Z</time></trkpt><trkpt lat="43.8481117" lon="10.5294983"><ele>16.0</ele><time>2026-03-28T09:36:39.069Z</time></trkpt><trkpt lat="43.8480883" lon="10.5296683"><ele>16.0</ele><time>2026-03-28T09:36:40.069Z</time></trkpt><trkpt lat="43.848085" lon="10.5298283"><ele>16.0</ele><time>2026-03-28T09:36:41.069Z</time></trkpt><trkpt lat="43.84808" lon="10.529995"><ele>16.0</ele><time>2026-03-28T09:36:42.069Z</time></trkpt><trkpt lat="43.8480683" lon="10.5301717"><ele>16.0</ele><time>2026-03-28T09:36:43.068Z</time></trkpt><trkpt lat="43.84806" lon="10.53034"><ele>16.0</ele><time>2026-03-28T09:36:44.069Z</time></trkpt><trkpt lat="43.84805" lon="10.5305033"><ele>16.0</ele><time>2026-03-28T09:36:45.069Z</time></trkpt><trkpt lat="43.8480483" lon="10.53068"><ele>16.0</ele><time>2026-03-28T09:36:46.069Z</time></trkpt><trkpt lat="43.8480383" lon="10.5308567"><ele>16.0</ele><time>2026-03-28T09:36:47.069Z</time></trkpt><trkpt lat="43.8480383" lon="10.5310367"><ele>16.0</ele><time>2026-03-28T09:36:48.069Z</time></trkpt><trkpt lat="43.84803" lon="10.5312067"><ele>16.0</ele><time>2026-03-28T09:36:49.069Z</time></trkpt><trkpt lat="43.8480233" lon="10.5313767"><ele>16.0</ele><time>2026-03-28T09:36:50.068Z</time></trkpt><trkpt lat="43.84802" lon="10.531555"><ele>16.5</ele><time>2026-03-28T09:36:51.069Z</time></trkpt><trkpt lat="43.8480217" lon="10.53173"><ele>17.0</ele><time>2026-03-28T09:36:52.069Z</time></trkpt><trkpt lat="43.8480267" lon="10.5319017"><ele>17.5</ele><time>2026-03-28T09:36:53.069Z</time></trkpt><trkpt lat="43.8480383" lon="10.53207"><ele>18.0</ele><time>2026-03-28T09:36:54.069Z</time></trkpt><trkpt lat="43.848065" lon="10.5322333"><ele>18.0</ele><time>2026-03-28T09:36:55.069Z</time></trkpt><trkpt lat="43.848095" lon="10.532405"><ele>18.0</ele><time>2026-03-28T09:36:56.069Z</time></trkpt><trkpt lat="43.8481267" lon="10.5325733"><ele>18.0</ele><time>2026-03-28T09:36:57.069Z</time></trkpt><trkpt lat="43.84816" lon="10.532745"><ele>18.0</ele><time>2026-03-28T09:36:58.069Z</time></trkpt><trkpt lat="43.84818" lon="10.5329167"><ele>17.5</ele><time>2026-03-28T09:36:59.069Z</time></trkpt><trkpt lat="43.8482033" lon="10.5330917"><ele>17.0</ele><time>2026-03-28T09:37:00.069Z</time></trkpt><trkpt lat="43.84822" lon="10.5332667"><ele>16.5</ele><time>2026-03-28T09:37:01.068Z</time></trkpt><trkpt lat="43.848225" lon="10.533435"><ele>16.0</ele><time>2026-03-28T09:37:02.069Z</time></trkpt><trkpt lat="43.8482267" lon="10.5335967"><ele>16.25</ele><time>2026-03-28T09:37:03.069Z</time></trkpt><trkpt lat="43.8482333" lon="10.533775"><ele>16.5</ele><time>2026-03-28T09:37:04.068Z</time></trkpt><trkpt lat="43.8482367" lon="10.53394"><ele>16.75</ele><time>2026-03-28T09:37:05.069Z</time></trkpt><trkpt lat="43.8482433" lon="10.5340933"><ele>17.0</ele><time>2026-03-28T09:37:06.069Z</time></trkpt><trkpt lat="43.8482517" lon="10.5342367"><ele>17.0</ele><time>2026-03-28T09:37:07.069Z</time></trkpt><trkpt lat="43.8482533" lon="10.534365"><ele>17.0</ele><time>2026-03-28T09:37:08.068Z</time></trkpt><trkpt lat="43.8482517" lon="10.534505"><ele>17.0</ele><time>2026-03-28T09:37:09.069Z</time></trkpt><trkpt lat="43.84826" lon="10.534655"><ele>17.0</ele><time>2026-03-28T09:37:10.069Z</time></trkpt><trkpt lat="43.8482667" lon="10.5348133"><ele>17.0</ele><time>2026-03-28T09:37:11.069Z</time></trkpt><trkpt lat="43.8482783" lon="10.534985"><ele>17.0</ele><time>2026-03-28T09:37:12.069Z</time></trkpt><trkpt lat="43.8483" lon="10.5351633"><ele>17.0</ele><time>2026-03-28T09:37:13.068Z</time></trkpt><trkpt lat="43.848325" lon="10.53533"><ele>17.0</ele><time>2026-03-28T09:37:14.069Z</time></trkpt><trkpt lat="43.8483567" lon="10.5354883"><ele>17.0</ele><time>2026-03-28T09:37:15.068Z</time></trkpt><trkpt lat="43.848385" lon="10.535635"><ele>17.0</ele><time>2026-03-28T09:37:16.068Z</time></trkpt><trkpt lat="43.84842" lon="10.535785"><ele>17.0</ele><time>2026-03-28T09:37:17.068Z</time></trkpt><trkpt lat="43.8484533" lon="10.535935"><ele>17.0</ele><time>2026-03-28T09:37:18.069Z</time></trkpt><trkpt lat="43.8484883" lon="10.536085"><ele>17.0</ele><time>2026-03-28T09:37:19.068Z</time></trkpt><trkpt lat="43.848515" lon="10.5362367"><ele>16.5</ele><time>2026-03-28T09:37:20.069Z</time></trkpt><trkpt lat="43.8485333" lon="10.5363983"><ele>16.0</ele><time>2026-03-28T09:37:21.068Z</time></trkpt><trkpt lat="43.848545" lon="10.53656"><ele>15.5</ele><time>2026-03-28T09:37:22.068Z</time></trkpt><trkpt lat="43.848545" lon="10.5367333"><ele>15.0</ele><time>2026-03-28T09:37:23.068Z</time></trkpt><trkpt lat="43.8485467" lon="10.5369017"><ele>15.25</ele><time>2026-03-28T09:37:24.069Z</time></trkpt><trkpt lat="43.8485467" lon="10.537075"><ele>15.5</ele><time>2026-03-28T09:37:25.069Z</time></trkpt><trkpt lat="43.84854" lon="10.5372467"><ele>15.75</ele><time>2026-03-28T09:37:26.069Z</time></trkpt><trkpt lat="43.84854" lon="10.5374267"><ele>16.0</ele><time>2026-03-28T09:37:27.068Z</time></trkpt><trkpt lat="43.8485283" lon="10.5376067"><ele>16.0</ele><time>2026-03-28T09:37:28.068Z</time></trkpt><trkpt lat="43.84852" lon="10.5377883"><ele>16.0</ele><time>2026-03-28T09:37:29.068Z</time></trkpt><trkpt lat="43.8485133" lon="10.537975"><ele>16.0</ele><time>2026-03-28T09:37:30.068Z</time></trkpt><trkpt lat="43.84851" lon="10.5381617"><ele>16.0</ele><time>2026-03-28T09:37:31.068Z</time></trkpt><trkpt lat="43.848495" lon="10.5383433"><ele>15.75</ele><time>2026-03-28T09:37:32.068Z</time></trkpt><trkpt lat="43.8484733" lon="10.53853"><ele>15.5</ele><time>2026-03-28T09:37:33.069Z</time></trkpt><trkpt lat="43.848455" lon="10.5387117"><ele>15.25</ele><time>2026-03-28T09:37:34.069Z</time></trkpt><trkpt lat="43.84844" lon="10.5388833"><ele>15.0</ele><time>2026-03-28T09:37:35.069Z</time></trkpt><trkpt lat="43.8484317" lon="10.5390467"><ele>15.4</ele><time>2026-03-28T09:37:36.069Z</time></trkpt><trkpt lat="43.84842" lon="10.5392033"><ele>15.8</ele><time>2026-03-28T09:37:37.069Z</time></trkpt><trkpt lat="43.8484083" lon="10.5393483"><ele>16.2</ele><time>2026-03-28T09:37:38.069Z</time></trkpt><trkpt lat="43.84839" lon="10.5394883"><ele>16.6</ele><time>2026-03-28T09:37:39.069Z</time></trkpt><trkpt lat="43.8483783" lon="10.53965"><ele>17.0</ele><time>2026-03-28T09:37:40.068Z</time></trkpt><trkpt lat="43.8483583" lon="10.539815"><ele>17.0</ele><time>2026-03-28T09:37:41.069Z</time></trkpt><trkpt lat="43.8483433" lon="10.5399817"><ele>17.0</ele><time>2026-03-28T09:37:42.069Z</time></trkpt><trkpt lat="43.8483483" lon="10.5401433"><ele>17.0</ele><time>2026-03-28T09:37:43.068Z</time></trkpt><trkpt lat="43.8483483" lon="10.5403133"><ele>17.0</ele><time>2026-03-28T09:37:44.068Z</time></trkpt><trkpt lat="43.8483583" lon="10.54048"><ele>17.0</ele><time>2026-03-28T09:37:45.069Z</time></trkpt><trkpt lat="43.8483733" lon="10.5406383"><ele>17.0</ele><time>2026-03-28T09:37:46.068Z</time></trkpt><trkpt lat="43.8483967" lon="10.5408"><ele>17.0</ele><time>2026-03-28T09:37:47.069Z</time></trkpt><trkpt lat="43.8484233" lon="10.5409583"><ele>17.0</ele><time>2026-03-28T09:37:48.068Z</time></trkpt><trkpt lat="43.8484567" lon="10.5411217"><ele>17.0</ele><time>2026-03-28T09:37:49.069Z</time></trkpt><trkpt lat="43.8485" lon="10.541275"><ele>17.0</ele><time>2026-03-28T09:37:50.069Z</time></trkpt><trkpt lat="43.84854" lon="10.5414367"><ele>17.0</ele><time>2026-03-28T09:37:51.069Z</time></trkpt><trkpt lat="43.8485767" lon="10.5415983"><ele>17.0</ele><time>2026-03-28T09:37:52.069Z</time></trkpt><trkpt lat="43.84862" lon="10.541755"><ele>17.0</ele><time>2026-03-28T09:37:53.069Z</time></trkpt><trkpt lat="43.8486617" lon="10.5419183"><ele>17.0</ele><time>2026-03-28T09:37:54.068Z</time></trkpt><trkpt lat="43.8486917" lon="10.5420867"><ele>17.0</ele><time>2026-03-28T09:37:55.069Z</time></trkpt><trkpt lat="43.8487183" lon="10.5422567"><ele>17.0</ele><time>2026-03-28T09:37:56.068Z</time></trkpt><trkpt lat="43.8487433" lon="10.5424167"><ele>17.0</ele><time>2026-03-28T09:37:57.069Z</time></trkpt><trkpt lat="43.8487783" lon="10.5425667"><ele>17.0</ele><time>2026-03-28T09:37:58.069Z</time></trkpt><trkpt lat="43.848815" lon="10.5426983"><ele>17.0</ele><time>2026-03-28T09:37:59.068Z</time></trkpt><trkpt lat="43.84885" lon="10.54282"><ele>17.0</ele><time>2026-03-28T09:38:00.068Z</time></trkpt><trkpt lat="43.8488667" lon="10.5429367"><ele>17.0</ele><time>2026-03-28T09:38:01.068Z</time></trkpt><trkpt lat="43.8488833" lon="10.543055"><ele>17.0</ele><time>2026-03-28T09:38:02.069Z</time></trkpt><trkpt lat="43.8489017" lon="10.5431867"><ele>17.0</ele><time>2026-03-28T09:38:03.068Z</time></trkpt><trkpt lat="43.8489133" lon="10.5433333"><ele>17.0</ele><time>2026-03-28T09:38:04.068Z</time></trkpt><trkpt lat="43.8489233" lon="10.5434833"><ele>17.0</ele><time>2026-03-28T09:38:05.069Z</time></trkpt><trkpt lat="43.848925" lon="10.543635"><ele>17.0</ele><time>2026-03-28T09:38:06.069Z</time></trkpt><trkpt lat="43.8489217" lon="10.543775"><ele>17.166666666666668</ele><time>2026-03-28T09:38:07.069Z</time></trkpt><trkpt lat="43.8489083" lon="10.5439083"><ele>17.333333333333336</ele><time>2026-03-28T09:38:08.069Z</time></trkpt><trkpt lat="43.8488883" lon="10.544045"><ele>17.5</ele><time>2026-03-28T09:38:09.069Z</time></trkpt><trkpt lat="43.8488917" lon="10.5441517"><ele>17.666666666666668</ele><time>2026-03-28T09:38:10.069Z</time></trkpt><trkpt lat="43.8489033" lon="10.54424"><ele>17.833333333333332</ele><time>2026-03-28T09:38:11.069Z</time></trkpt><trkpt lat="43.8489217" lon="10.5443283"><ele>18.0</ele><time>2026-03-28T09:38:12.069Z</time></trkpt><trkpt lat="43.8489567" lon="10.5444783"><ele>18.0</ele><time>2026-03-28T09:38:14.069Z</time></trkpt><trkpt lat="43.8489817" lon="10.544605"><ele>18.0</ele><time>2026-03-28T09:38:16.069Z</time></trkpt><trkpt lat="43.8489833" lon="10.5444983"><ele>18.0</ele><time>2026-03-28T09:38:25.069Z</time></trkpt><trkpt lat="43.8489217" lon="10.54435"><ele>18.0</ele><time>2026-03-28T09:38:27.069Z</time></trkpt><trkpt lat="43.84889" lon="10.5442167"><ele>18.0</ele><time>2026-03-28T09:38:29.068Z</time></trkpt><trkpt lat="43.8488217" lon="10.5441717"><ele>18.0</ele><time>2026-03-28T09:38:32.069Z</time></trkpt><trkpt lat="43.84877" lon="10.5442667"><ele>18.0</ele><time>2026-03-28T09:38:34.069Z</time></trkpt><trkpt lat="43.8486883" lon="10.5444"><ele>18.0</ele><time>2026-03-28T09:38:36.068Z</time></trkpt><trkpt lat="43.848625" lon="10.5444733"><ele>18.0</ele><time>2026-03-28T09:38:37.069Z</time></trkpt><trkpt lat="43.8485583" lon="10.54454"><ele>18.0</ele><time>2026-03-28T09:38:38.069Z</time></trkpt><trkpt lat="43.8484883" lon="10.544615"><ele>18.0</ele><time>2026-03-28T09:38:39.068Z</time></trkpt><trkpt lat="43.8484067" lon="10.544685"><ele>18.0</ele><time>2026-03-28T09:38:40.069Z</time></trkpt><trkpt lat="43.8483367" lon="10.54479"><ele>18.0</ele><time>2026-03-28T09:38:41.069Z</time></trkpt><trkpt lat="43.8482733" lon="10.5448983"><ele>18.0</ele><time>2026-03-28T09:38:42.069Z</time></trkpt><trkpt lat="43.8481967" lon="10.5450017"><ele>18.0</ele><time>2026-03-28T09:38:43.068Z</time></trkpt><trkpt lat="43.8481233" lon="10.5451"><ele>18.0</ele><time>2026-03-28T09:38:44.069Z</time></trkpt><trkpt lat="43.8480467" lon="10.545195"><ele>18.0</ele><time>2026-03-28T09:38:45.069Z</time></trkpt><trkpt lat="43.8479867" lon="10.5452833"><ele>18.0</ele><time>2026-03-28T09:38:46.069Z</time></trkpt><trkpt lat="43.8479267" lon="10.5453617"><ele>18.0</ele><time>2026-03-28T09:38:47.069Z</time></trkpt><trkpt lat="43.84787" lon="10.5454467"><ele>18.0</ele><time>2026-03-28T09:38:48.069Z</time></trkpt><trkpt lat="43.8478183" lon="10.5455367"><ele>18.0</ele><time>2026-03-28T09:38:49.069Z</time></trkpt><trkpt lat="43.8477767" lon="10.545645"><ele>18.0</ele><time>2026-03-28T09:38:50.069Z</time></trkpt><trkpt lat="43.8477483" lon="10.5457717"><ele>18.0</ele><time>2026-03-28T09:38:51.069Z</time></trkpt><trkpt lat="43.847735" lon="10.5459083"><ele>18.0</ele><time>2026-03-28T09:38:52.069Z</time></trkpt><trkpt lat="43.8477167" lon="10.5460433"><ele>18.0</ele><time>2026-03-28T09:38:53.069Z</time></trkpt><trkpt lat="43.8477017" lon="10.5461917"><ele>18.0</ele><time>2026-03-28T09:38:54.069Z</time></trkpt><trkpt lat="43.8476767" lon="10.5463383"><ele>18.0</ele><time>2026-03-28T09:38:55.069Z</time></trkpt><trkpt lat="43.8476517" lon="10.546485"><ele>18.0</ele><time>2026-03-28T09:38:56.069Z</time></trkpt><trkpt lat="43.847625" lon="10.54663"><ele>18.0</ele><time>2026-03-28T09:38:57.069Z</time></trkpt><trkpt lat="43.8476017" lon="10.54678"><ele>18.0</ele><time>2026-03-28T09:38:58.069Z</time></trkpt><trkpt lat="43.84758" lon="10.546935"><ele>18.0</ele><time>2026-03-28T09:38:59.069Z</time></trkpt><trkpt lat="43.8475517" lon="10.5470733"><ele>18.0</ele><time>2026-03-28T09:39:00.069Z</time></trkpt><trkpt lat="43.847545" lon="10.5472317"><ele>18.0</ele><time>2026-03-28T09:39:01.069Z</time></trkpt><trkpt lat="43.8475383" lon="10.54738"><ele>18.0</ele><time>2026-03-28T09:39:02.068Z</time></trkpt><trkpt lat="43.8475383" lon="10.5475333"><ele>18.0</ele><time>2026-03-28T09:39:03.068Z</time></trkpt><trkpt lat="43.8475367" lon="10.5476817"><ele>18.0</ele><time>2026-03-28T09:39:04.068Z</time></trkpt><trkpt lat="43.847535" lon="10.5478367"><ele>18.0</ele><time>2026-03-28T09:39:05.069Z</time></trkpt><trkpt lat="43.8475367" lon="10.5479917"><ele>18.0</ele><time>2026-03-28T09:39:06.069Z</time></trkpt><trkpt lat="43.8475283" lon="10.5481417"><ele>18.0</ele><time>2026-03-28T09:39:07.069Z</time></trkpt><trkpt lat="43.84752" lon="10.5482867"><ele>18.0</ele><time>2026-03-28T09:39:08.068Z</time></trkpt><trkpt lat="43.8475183" lon="10.5484283"><ele>18.0</ele><time>2026-03-28T09:39:09.069Z</time></trkpt><trkpt lat="43.8475083" lon="10.5485533"><ele>18.0</ele><time>2026-03-28T09:39:10.068Z</time></trkpt><trkpt lat="43.8475" lon="10.5486633"><ele>18.0</ele><time>2026-03-28T09:39:11.069Z</time></trkpt><trkpt lat="43.84749" lon="10.5487517"><ele>18.0</ele><time>2026-03-28T09:39:12.069Z</time></trkpt><trkpt lat="43.8474783" lon="10.548865"><ele>18.0</ele><time>2026-03-28T09:39:14.069Z</time></trkpt><trkpt lat="43.8474117" lon="10.54889"><ele>18.0</ele><time>2026-03-28T09:39:17.069Z</time></trkpt><trkpt lat="43.8472783" lon="10.54888"><ele>18.0</ele><time>2026-03-28T09:39:19.068Z</time></trkpt><trkpt lat="43.847195" lon="10.54888"><ele>18.0</ele><time>2026-03-28T09:39:20.069Z</time></trkpt><trkpt lat="43.8471" lon="10.5488717"><ele>18.0</ele><time>2026-03-28T09:39:21.068Z</time></trkpt><trkpt lat="43.8470083" lon="10.5488683"><ele>18.0</ele><time>2026-03-28T09:39:22.069Z</time></trkpt><trkpt lat="43.8469117" lon="10.54887"><ele>18.0</ele><time>2026-03-28T09:39:23.069Z</time></trkpt><trkpt lat="43.8468117" lon="10.5488683"><ele>18.0</ele><time>2026-03-28T09:39:24.069Z</time></trkpt><trkpt lat="43.8467133" lon="10.5488717"><ele>18.0</ele><time>2026-03-28T09:39:25.068Z</time></trkpt><trkpt lat="43.8466133" lon="10.5488733"><ele>18.0</ele><time>2026-03-28T09:39:26.068Z</time></trkpt><trkpt lat="43.846515" lon="10.5488683"><ele>18.0</ele><time>2026-03-28T09:39:27.069Z</time></trkpt><trkpt lat="43.8464117" lon="10.5488533"><ele>18.0</ele><time>2026-03-28T09:39:28.068Z</time></trkpt><trkpt lat="43.8463067" lon="10.5488283"><ele>18.0</ele><time>2026-03-28T09:39:29.068Z</time></trkpt><trkpt lat="43.846195" lon="10.548805"><ele>18.0</ele><time>2026-03-28T09:39:30.069Z</time></trkpt><trkpt lat="43.84608" lon="10.5487883"><ele>18.0</ele><time>2026-03-28T09:39:31.069Z</time></trkpt><trkpt lat="43.8459617" lon="10.5487767"><ele>18.0</ele><time>2026-03-28T09:39:32.069Z</time></trkpt><trkpt lat="43.8458533" lon="10.54875"><ele>18.0</ele><time>2026-03-28T09:39:33.068Z</time></trkpt><trkpt lat="43.8457567" lon="10.54873"><ele>18.0</ele><time>2026-03-28T09:39:34.069Z</time></trkpt><trkpt lat="43.8456733" lon="10.5487167"><ele>17.666666666666668</ele><time>2026-03-28T09:39:35.069Z</time></trkpt><trkpt lat="43.8455933" lon="10.5487017"><ele>17.333333333333332</ele><time>2026-03-28T09:39:36.069Z</time></trkpt><trkpt lat="43.8455117" lon="10.5486867"><ele>17.0</ele><time>2026-03-28T09:39:37.068Z</time></trkpt><trkpt lat="43.8454383" lon="10.548675"><ele>16.666666666666664</ele><time>2026-03-28T09:39:38.069Z</time></trkpt><trkpt lat="43.84536" lon="10.54865"><ele>16.333333333333332</ele><time>2026-03-28T09:39:39.069Z</time></trkpt><trkpt lat="43.84528" lon="10.5486333"><ele>16.0</ele><time>2026-03-28T09:39:40.069Z</time></trkpt><trkpt lat="43.84521" lon="10.548615"><ele>15.999999999999998</ele><time>2026-03-28T09:39:41.069Z</time></trkpt><trkpt lat="43.8451433" lon="10.5485967"><ele>16.0</ele><time>2026-03-28T09:39:42.068Z</time></trkpt><trkpt lat="43.845065" lon="10.548555"><ele>16.0</ele><time>2026-03-28T09:39:44.068Z</time></trkpt><trkpt lat="43.8450083" lon="10.5486"><ele>16.0</ele><time>2026-03-28T09:39:47.069Z</time></trkpt><trkpt lat="43.8450683" lon="10.548675"><ele>15.999999999999998</ele><time>2026-03-28T09:39:50.069Z</time></trkpt><trkpt lat="43.8452117" lon="10.5486717"><ele>16.0</ele><time>2026-03-28T09:39:52.069Z</time></trkpt><trkpt lat="43.8452967" lon="10.5486883"><ele>16.5</ele><time>2026-03-28T09:39:53.069Z</time></trkpt><trkpt lat="43.8453917" lon="10.5487117"><ele>17.0</ele><time>2026-03-28T09:39:54.068Z</time></trkpt><trkpt lat="43.84548" lon="10.5487267"><ele>17.5</ele><time>2026-03-28T09:39:55.068Z</time></trkpt><trkpt lat="43.8455633" lon="10.5487367"><ele>18.0</ele><time>2026-03-28T09:39:56.069Z</time></trkpt><trkpt lat="43.845645" lon="10.548755"><ele>18.5</ele><time>2026-03-28T09:39:57.069Z</time></trkpt><trkpt lat="43.8457333" lon="10.548775"><ele>19.0</ele><time>2026-03-28T09:39:58.068Z</time></trkpt><trkpt lat="43.845825" lon="10.5487883"><ele>19.0</ele><time>2026-03-28T09:39:59.069Z</time></trkpt><trkpt lat="43.8459217" lon="10.5488133"><ele>19.0</ele><time>2026-03-28T09:40:00.069Z</time></trkpt><trkpt lat="43.84602" lon="10.5488367"><ele>19.0</ele><time>2026-03-28T09:40:01.068Z</time></trkpt><trkpt lat="43.8461183" lon="10.5488633"><ele>19.0</ele><time>2026-03-28T09:40:02.069Z</time></trkpt><trkpt lat="43.8462167" lon="10.5488883"><ele>19.0</ele><time>2026-03-28T09:40:03.069Z</time></trkpt><trkpt lat="43.8463183" lon="10.548905"><ele>18.8</ele><time>2026-03-28T09:40:04.069Z</time></trkpt><trkpt lat="43.84642" lon="10.548925"><ele>18.599999999999998</ele><time>2026-03-28T09:40:05.068Z</time></trkpt><trkpt lat="43.8465267" lon="10.5489267"><ele>18.4</ele><time>2026-03-28T09:40:06.068Z</time></trkpt><trkpt lat="43.84663" lon="10.548925"><ele>18.2</ele><time>2026-03-28T09:40:07.069Z</time></trkpt><trkpt lat="43.8467317" lon="10.5489233"><ele>18.0</ele><time>2026-03-28T09:40:08.068Z</time></trkpt><trkpt lat="43.8468217" lon="10.54893"><ele>18.0</ele><time>2026-03-28T09:40:09.068Z</time></trkpt><trkpt lat="43.846905" lon="10.5489367"><ele>18.0</ele><time>2026-03-28T09:40:10.069Z</time></trkpt><trkpt lat="43.8469767" lon="10.54896"><ele>18.0</ele><time>2026-03-28T09:40:11.069Z</time></trkpt><trkpt lat="43.84706" lon="10.5489817"><ele>18.0</ele><time>2026-03-28T09:40:13.069Z</time></trkpt><trkpt lat="43.8470717" lon="10.549105"><ele>18.0</ele><time>2026-03-28T09:40:16.069Z</time></trkpt><trkpt lat="43.8470567" lon="10.5491917"><ele>18.0</ele><time>2026-03-28T09:40:17.069Z</time></trkpt><trkpt lat="43.84705" lon="10.54929"><ele>18.0</ele><time>2026-03-28T09:40:18.068Z</time></trkpt><trkpt lat="43.8470417" lon="10.5493867"><ele>18.0</ele><time>2026-03-28T09:40:19.069Z</time></trkpt><trkpt lat="43.8470333" lon="10.54949"><ele>18.0</ele><time>2026-03-28T09:40:20.069Z</time></trkpt><trkpt lat="43.84703" lon="10.5496117"><ele>18.0</ele><time>2026-03-28T09:40:21.069Z</time></trkpt><trkpt lat="43.8470183" lon="10.5497317"><ele>18.0</ele><time>2026-03-28T09:40:22.068Z</time></trkpt><trkpt lat="43.8470017" lon="10.5498617"><ele>18.0</ele><time>2026-03-28T09:40:23.068Z</time></trkpt><trkpt lat="43.8469817" lon="10.5499967"><ele>18.0</ele><time>2026-03-28T09:40:24.069Z</time></trkpt><trkpt lat="43.8469617" lon="10.5501217"><ele>18.0</ele><time>2026-03-28T09:40:25.068Z</time></trkpt><trkpt lat="43.8469467" lon="10.55025"><ele>18.0</ele><time>2026-03-28T09:40:26.068Z</time></trkpt><trkpt lat="43.8469517" lon="10.5503867"><ele>18.0</ele><time>2026-03-28T09:40:27.069Z</time></trkpt><trkpt lat="43.8469583" lon="10.5505233"><ele>18.0</ele><time>2026-03-28T09:40:28.069Z</time></trkpt><trkpt lat="43.84696" lon="10.55065"><ele>17.8</ele><time>2026-03-28T09:40:29.069Z</time></trkpt><trkpt lat="43.8469767" lon="10.5507867"><ele>17.6</ele><time>2026-03-28T09:40:30.069Z</time></trkpt><trkpt lat="43.846975" lon="10.5509217"><ele>17.4</ele><time>2026-03-28T09:40:31.069Z</time></trkpt><trkpt lat="43.84697" lon="10.551055"><ele>17.2</ele><time>2026-03-28T09:40:32.069Z</time></trkpt><trkpt lat="43.8469583" lon="10.5511917"><ele>17.0</ele><time>2026-03-28T09:40:33.069Z</time></trkpt><trkpt lat="43.84695" lon="10.5513233"><ele>17.0</ele><time>2026-03-28T09:40:34.069Z</time></trkpt><trkpt lat="43.84694" lon="10.5514533"><ele>17.0</ele><time>2026-03-28T09:40:35.069Z</time></trkpt><trkpt lat="43.84693" lon="10.5515867"><ele>17.0</ele><time>2026-03-28T09:40:36.069Z</time></trkpt><trkpt lat="43.8469233" lon="10.5517217"><ele>17.0</ele><time>2026-03-28T09:40:37.069Z</time></trkpt><trkpt lat="43.8469167" lon="10.551855"><ele>17.0</ele><time>2026-03-28T09:40:38.069Z</time></trkpt><trkpt lat="43.8469133" lon="10.5519917"><ele>16.8</ele><time>2026-03-28T09:40:39.069Z</time></trkpt><trkpt lat="43.8469117" lon="10.5521317"><ele>16.6</ele><time>2026-03-28T09:40:40.069Z</time></trkpt><trkpt lat="43.846915" lon="10.5522633"><ele>16.400000000000002</ele><time>2026-03-28T09:40:41.069Z</time></trkpt><trkpt lat="43.8469183" lon="10.5523933"><ele>16.2</ele><time>2026-03-28T09:40:42.069Z</time></trkpt><trkpt lat="43.8469233" lon="10.55252"><ele>16.0</ele><time>2026-03-28T09:40:43.069Z</time></trkpt><trkpt lat="43.8469183" lon="10.55264"><ele>16.0</ele><time>2026-03-28T09:40:44.068Z</time></trkpt><trkpt lat="43.8469133" lon="10.5527617"><ele>16.0</ele><time>2026-03-28T09:40:45.069Z</time></trkpt><trkpt lat="43.84691" lon="10.55288"><ele>16.0</ele><time>2026-03-28T09:40:46.068Z</time></trkpt><trkpt lat="43.8469067" lon="10.5530117"><ele>16.0</ele><time>2026-03-28T09:40:47.069Z</time></trkpt><trkpt lat="43.8469033" lon="10.5531367"><ele>16.0</ele><time>2026-03-28T09:40:48.069Z</time></trkpt><trkpt lat="43.8468933" lon="10.5532717"><ele>16.0</ele><time>2026-03-28T09:40:49.069Z</time></trkpt><trkpt lat="43.846895" lon="10.55341"><ele>16.0</ele><time>2026-03-28T09:40:50.069Z</time></trkpt><trkpt lat="43.846895" lon="10.5535367"><ele>16.0</ele><time>2026-03-28T09:40:51.069Z</time></trkpt><trkpt lat="43.8468967" lon="10.55367"><ele>16.0</ele><time>2026-03-28T09:40:52.069Z</time></trkpt><trkpt lat="43.846895" lon="10.5538"><ele>16.0</ele><time>2026-03-28T09:40:53.069Z</time></trkpt><trkpt lat="43.84689" lon="10.5539317"><ele>16.0</ele><time>2026-03-28T09:40:54.068Z</time></trkpt><trkpt lat="43.8468867" lon="10.55407"><ele>16.0</ele><time>2026-03-28T09:40:55.068Z</time></trkpt><trkpt lat="43.8468783" lon="10.5542"><ele>16.0</ele><time>2026-03-28T09:40:56.069Z</time></trkpt><trkpt lat="43.8468683" lon="10.554325"><ele>16.0</ele><time>2026-03-28T09:40:57.069Z</time></trkpt><trkpt lat="43.8468567" lon="10.55445"><ele>16.0</ele><time>2026-03-28T09:40:58.069Z</time></trkpt><trkpt lat="43.8468533" lon="10.55457"><ele>15.999999999999998</ele><time>2026-03-28T09:40:59.069Z</time></trkpt><trkpt lat="43.8468417" lon="10.554685"><ele>16.0</ele><time>2026-03-28T09:41:00.069Z</time></trkpt><trkpt lat="43.8468317" lon="10.5547833"><ele>16.0</ele><time>2026-03-28T09:41:01.069Z</time></trkpt><trkpt lat="43.8468283" lon="10.5549167"><ele>16.0</ele><time>2026-03-28T09:41:03.068Z</time></trkpt><trkpt lat="43.8468917" lon="10.55503"><ele>15.999999999999998</ele><time>2026-03-28T09:41:06.069Z</time></trkpt><trkpt lat="43.84695" lon="10.5550683"><ele>16.0</ele><time>2026-03-28T09:41:07.068Z</time></trkpt><trkpt lat="43.8470233" lon="10.5551017"><ele>15.999999999999998</ele><time>2026-03-28T09:41:08.069Z</time></trkpt><trkpt lat="43.8471033" lon="10.5551517"><ele>16.0</ele><time>2026-03-28T09:41:09.068Z</time></trkpt><trkpt lat="43.847185" lon="10.5552017"><ele>16.0</ele><time>2026-03-28T09:41:10.069Z</time></trkpt><trkpt lat="43.8472567" lon="10.555255"><ele>16.0</ele><time>2026-03-28T09:41:11.069Z</time></trkpt><trkpt lat="43.847315" lon="10.55531"><ele>15.999999999999998</ele><time>2026-03-28T09:41:12.068Z</time></trkpt><trkpt lat="43.8473583" lon="10.5553767"><ele>16.0</ele><time>2026-03-28T09:41:13.068Z</time></trkpt><trkpt lat="43.8474017" lon="10.5554667"><ele>16.166666666666664</ele><time>2026-03-28T09:41:14.069Z</time></trkpt><trkpt lat="43.8474417" lon="10.55559"><ele>16.333333333333332</ele><time>2026-03-28T09:41:15.069Z</time></trkpt><trkpt lat="43.8474817" lon="10.555715"><ele>16.5</ele><time>2026-03-28T09:41:16.069Z</time></trkpt><trkpt lat="43.8475183" lon="10.5558283"><ele>16.666666666666668</ele><time>2026-03-28T09:41:17.068Z</time></trkpt><trkpt lat="43.8475517" lon="10.555935"><ele>16.833333333333336</ele><time>2026-03-28T09:41:18.068Z</time></trkpt><trkpt lat="43.8475717" lon="10.55603"><ele>17.0</ele><time>2026-03-28T09:41:19.068Z</time></trkpt><trkpt lat="43.8475833" lon="10.556125"><ele>17.166666666666668</ele><time>2026-03-28T09:41:20.069Z</time></trkpt><trkpt lat="43.847575" lon="10.5562183"><ele>17.333333333333336</ele><time>2026-03-28T09:41:21.069Z</time></trkpt><trkpt lat="43.8475467" lon="10.5563167"><ele>17.5</ele><time>2026-03-28T09:41:22.069Z</time></trkpt><trkpt lat="43.84751" lon="10.5564067"><ele>17.666666666666668</ele><time>2026-03-28T09:41:23.068Z</time></trkpt><trkpt lat="43.8474667" lon="10.5564983"><ele>17.833333333333332</ele><time>2026-03-28T09:41:24.068Z</time></trkpt><trkpt lat="43.8474333" lon="10.5565967"><ele>18.0</ele><time>2026-03-28T09:41:25.069Z</time></trkpt><trkpt lat="43.847405" lon="10.5567"><ele>18.0</ele><time>2026-03-28T09:41:26.068Z</time></trkpt><trkpt lat="43.8473817" lon="10.5568033"><ele>18.0</ele><time>2026-03-28T09:41:27.068Z</time></trkpt><trkpt lat="43.8473667" lon="10.5569133"><ele>18.0</ele><time>2026-03-28T09:41:28.069Z</time></trkpt><trkpt lat="43.8473567" lon="10.557035"><ele>18.0</ele><time>2026-03-28T09:41:29.069Z</time></trkpt><trkpt lat="43.8473533" lon="10.5571583"><ele>18.0</ele><time>2026-03-28T09:41:30.069Z</time></trkpt><trkpt lat="43.8473483" lon="10.557285"><ele>18.0</ele><time>2026-03-28T09:41:31.068Z</time></trkpt><trkpt lat="43.8473367" lon="10.5574117"><ele>17.6</ele><time>2026-03-28T09:41:32.068Z</time></trkpt><trkpt lat="43.8473167" lon="10.5575367"><ele>17.200000000000003</ele><time>2026-03-28T09:41:33.068Z</time></trkpt><trkpt lat="43.847285" lon="10.557655"><ele>16.8</ele><time>2026-03-28T09:41:34.069Z</time></trkpt><trkpt lat="43.847255" lon="10.5577733"><ele>16.400000000000002</ele><time>2026-03-28T09:41:35.069Z</time></trkpt><trkpt lat="43.8472283" lon="10.5578933"><ele>16.0</ele><time>2026-03-28T09:41:36.069Z</time></trkpt><trkpt lat="43.8471967" lon="10.5580083"><ele>15.999999999999998</ele><time>2026-03-28T09:41:37.069Z</time></trkpt><trkpt lat="43.8471567" lon="10.5581167"><ele>16.0</ele><time>2026-03-28T09:41:38.068Z</time></trkpt><trkpt lat="43.8471133" lon="10.5582117"><ele>16.0</ele><time>2026-03-28T09:41:39.068Z</time></trkpt><trkpt lat="43.84706" lon="10.558295"><ele>16.0</ele><time>2026-03-28T09:41:40.069Z</time></trkpt><trkpt lat="43.84702" lon="10.5583833"><ele>15.999999999999998</ele><time>2026-03-28T09:41:41.068Z</time></trkpt><trkpt lat="43.8469917" lon="10.5584767"><ele>16.0</ele><time>2026-03-28T09:41:42.068Z</time></trkpt><trkpt lat="43.8469683" lon="10.558575"><ele>15.999999999999998</ele><time>2026-03-28T09:41:43.068Z</time></trkpt><trkpt lat="43.8469417" lon="10.5586767"><ele>16.0</ele><time>2026-03-28T09:41:44.069Z</time></trkpt><trkpt lat="43.846915" lon="10.558775"><ele>16.0</ele><time>2026-03-28T09:41:45.069Z</time></trkpt><trkpt lat="43.8468783" lon="10.558865"><ele>16.0</ele><time>2026-03-28T09:41:46.068Z</time></trkpt><trkpt lat="43.846835" lon="10.55895"><ele>15.999999999999998</ele><time>2026-03-28T09:41:47.068Z</time></trkpt><trkpt lat="43.8467767" lon="10.55903"><ele>16.0</ele><time>2026-03-28T09:41:48.069Z</time></trkpt><trkpt lat="43.8467267" lon="10.5590967"><ele>16.0</ele><time>2026-03-28T09:41:49.069Z</time></trkpt><trkpt lat="43.8466483" lon="10.5591983"><ele>16.0</ele><time>2026-03-28T09:41:51.069Z</time></trkpt><trkpt lat="43.8465617" lon="10.559265"><ele>16.0</ele><time>2026-03-28T09:41:58.068Z</time></trkpt><trkpt lat="43.84652" lon="10.55934"><ele>16.0</ele><time>2026-03-28T09:42:00.069Z</time></trkpt><trkpt lat="43.846485" lon="10.5595167"><ele>16.0</ele><time>2026-03-28T09:42:02.069Z</time></trkpt><trkpt lat="43.8464717" lon="10.5596183"><ele>16.0</ele><time>2026-03-28T09:42:03.069Z</time></trkpt><trkpt lat="43.8464533" lon="10.5597317"><ele>16.0</ele><time>2026-03-28T09:42:04.069Z</time></trkpt><trkpt lat="43.8464483" lon="10.559855"><ele>16.0</ele><time>2026-03-28T09:42:05.069Z</time></trkpt><trkpt lat="43.8464417" lon="10.5599783"><ele>16.0</ele><time>2026-03-28T09:42:06.069Z</time></trkpt><trkpt lat="43.8464333" lon="10.560105"><ele>16.0</ele><time>2026-03-28T09:42:07.069Z</time></trkpt><trkpt lat="43.8464183" lon="10.5602367"><ele>16.0</ele><time>2026-03-28T09:42:08.069Z</time></trkpt><trkpt lat="43.846395" lon="10.560375"><ele>16.0</ele><time>2026-03-28T09:42:09.069Z</time></trkpt><trkpt lat="43.84637" lon="10.5605117"><ele>16.0</ele><time>2026-03-28T09:42:10.068Z</time></trkpt><trkpt lat="43.846335" lon="10.5606517"><ele>16.0</ele><time>2026-03-28T09:42:11.069Z</time></trkpt><trkpt lat="43.846305" lon="10.56079"><ele>16.0</ele><time>2026-03-28T09:42:12.068Z</time></trkpt><trkpt lat="43.8462817" lon="10.56093"><ele>16.0</ele><time>2026-03-28T09:42:13.068Z</time></trkpt><trkpt lat="43.8462633" lon="10.5610717"><ele>16.0</ele><time>2026-03-28T09:42:14.069Z</time></trkpt><trkpt lat="43.84626" lon="10.5612183"><ele>16.0</ele><time>2026-03-28T09:42:15.069Z</time></trkpt><trkpt lat="43.8462567" lon="10.56137"><ele>16.0</ele><time>2026-03-28T09:42:16.069Z</time></trkpt><trkpt lat="43.846275" lon="10.5615217"><ele>16.0</ele><time>2026-03-28T09:42:17.068Z</time></trkpt><trkpt lat="43.8463033" lon="10.5616733"><ele>16.25</ele><time>2026-03-28T09:42:18.069Z</time></trkpt><trkpt lat="43.8463417" lon="10.56182"><ele>16.5</ele><time>2026-03-28T09:42:19.069Z</time></trkpt><trkpt lat="43.8463983" lon="10.5619583"><ele>16.75</ele><time>2026-03-28T09:42:20.069Z</time></trkpt><trkpt lat="43.8464567" lon="10.5620983"><ele>17.0</ele><time>2026-03-28T09:42:21.068Z</time></trkpt><trkpt lat="43.8465133" lon="10.5622417"><ele>17.0</ele><time>2026-03-28T09:42:22.069Z</time></trkpt><trkpt lat="43.8465667" lon="10.562395"><ele>17.0</ele><time>2026-03-28T09:42:23.069Z</time></trkpt><trkpt lat="43.846615" lon="10.562535"><ele>17.0</ele><time>2026-03-28T09:42:24.069Z</time></trkpt><trkpt lat="43.8466333" lon="10.5626883"><ele>17.0</ele><time>2026-03-28T09:42:25.069Z</time></trkpt><trkpt lat="43.846645" lon="10.562845"><ele>16.75</ele><time>2026-03-28T09:42:26.069Z</time></trkpt><trkpt lat="43.846655" lon="10.5630033"><ele>16.5</ele><time>2026-03-28T09:42:27.069Z</time></trkpt><trkpt lat="43.8466667" lon="10.563165"><ele>16.25</ele><time>2026-03-28T09:42:28.069Z</time></trkpt><trkpt lat="43.846675" lon="10.56333"><ele>16.0</ele><time>2026-03-28T09:42:29.069Z</time></trkpt><trkpt lat="43.8466683" lon="10.5634967"><ele>16.0</ele><time>2026-03-28T09:42:30.068Z</time></trkpt><trkpt lat="43.846655" lon="10.563655"><ele>16.0</ele><time>2026-03-28T09:42:31.069Z</time></trkpt><trkpt lat="43.8466383" lon="10.5638233"><ele>16.0</ele><time>2026-03-28T09:42:32.069Z</time></trkpt><trkpt lat="43.8466267" lon="10.563985"><ele>16.0</ele><time>2026-03-28T09:42:33.069Z</time></trkpt><trkpt lat="43.846615" lon="10.5641333"><ele>16.0</ele><time>2026-03-28T09:42:34.069Z</time></trkpt><trkpt lat="43.8466033" lon="10.564265"><ele>16.0</ele><time>2026-03-28T09:42:35.069Z</time></trkpt><trkpt lat="43.8465967" lon="10.5643967"><ele>16.0</ele><time>2026-03-28T09:42:36.069Z</time></trkpt><trkpt lat="43.8465917" lon="10.5645233"><ele>16.0</ele><time>2026-03-28T09:42:37.069Z</time></trkpt><trkpt lat="43.8465883" lon="10.5646533"><ele>16.0</ele><time>2026-03-28T09:42:38.068Z</time></trkpt><trkpt lat="43.8465917" lon="10.5647767"><ele>15.999999999999998</ele><time>2026-03-28T09:42:39.068Z</time></trkpt><trkpt lat="43.8466067" lon="10.5648933"><ele>16.0</ele><time>2026-03-28T09:42:40.068Z</time></trkpt><trkpt lat="43.84663" lon="10.5649983"><ele>16.0</ele><time>2026-03-28T09:42:41.068Z</time></trkpt><trkpt lat="43.8466633" lon="10.5650867"><ele>16.0</ele><time>2026-03-28T09:42:42.069Z</time></trkpt><trkpt lat="43.8466983" lon="10.5651667"><ele>15.999999999999998</ele><time>2026-03-28T09:42:43.069Z</time></trkpt><trkpt lat="43.8467433" lon="10.5652467"><ele>16.0</ele><time>2026-03-28T09:42:44.069Z</time></trkpt><trkpt lat="43.8467917" lon="10.56534"><ele>15.999999999999998</ele><time>2026-03-28T09:42:45.068Z</time></trkpt><trkpt lat="43.8468367" lon="10.565445"><ele>16.0</ele><time>2026-03-28T09:42:46.068Z</time></trkpt><trkpt lat="43.8468783" lon="10.5655567"><ele>16.0</ele><time>2026-03-28T09:42:47.069Z</time></trkpt><trkpt lat="43.8469133" lon="10.5656717"><ele>16.0</ele><time>2026-03-28T09:42:48.069Z</time></trkpt><trkpt lat="43.8469333" lon="10.5657917"><ele>15.999999999999998</ele><time>2026-03-28T09:42:49.068Z</time></trkpt><trkpt lat="43.8469533" lon="10.5659017"><ele>16.0</ele><time>2026-03-28T09:42:50.069Z</time></trkpt><trkpt lat="43.846965" lon="10.5660067"><ele>15.999999999999998</ele><time>2026-03-28T09:42:51.069Z</time></trkpt><trkpt lat="43.84696" lon="10.5661183"><ele>16.0</ele><time>2026-03-28T09:42:52.069Z</time></trkpt><trkpt lat="43.84696" lon="10.5662383"><ele>16.0</ele><time>2026-03-28T09:42:53.069Z</time></trkpt><trkpt lat="43.8469633" lon="10.56636"><ele>16.0</ele><time>2026-03-28T09:42:54.069Z</time></trkpt><trkpt lat="43.8469683" lon="10.5664867"><ele>15.999999999999998</ele><time>2026-03-28T09:42:55.069Z</time></trkpt><trkpt lat="43.846975" lon="10.5666083"><ele>16.0</ele><time>2026-03-28T09:42:56.069Z</time></trkpt><trkpt lat="43.8469817" lon="10.5667383"><ele>16.0</ele><time>2026-03-28T09:42:57.069Z</time></trkpt><trkpt lat="43.8469867" lon="10.5668667"><ele>16.0</ele><time>2026-03-28T09:42:58.069Z</time></trkpt><trkpt lat="43.8469883" lon="10.566995"><ele>16.0</ele><time>2026-03-28T09:42:59.069Z</time></trkpt><trkpt lat="43.8469883" lon="10.5671267"><ele>16.0</ele><time>2026-03-28T09:43:00.069Z</time></trkpt><trkpt lat="43.8469883" lon="10.5672583"><ele>16.0</ele><time>2026-03-28T09:43:01.069Z</time></trkpt><trkpt lat="43.8469917" lon="10.5673867"><ele>15.999999999999998</ele><time>2026-03-28T09:43:02.069Z</time></trkpt><trkpt lat="43.8469933" lon="10.56751"><ele>16.0</ele><time>2026-03-28T09:43:03.069Z</time></trkpt><trkpt lat="43.8469933" lon="10.5676233"><ele>16.0</ele><time>2026-03-28T09:43:04.069Z</time></trkpt><trkpt lat="43.8470033" lon="10.5677467"><ele>16.0</ele><time>2026-03-28T09:43:05.069Z</time></trkpt><trkpt lat="43.8470117" lon="10.56787"><ele>15.999999999999998</ele><time>2026-03-28T09:43:06.069Z</time></trkpt><trkpt lat="43.8470233" lon="10.5679917"><ele>16.0</ele><time>2026-03-28T09:43:07.069Z</time></trkpt><trkpt lat="43.8470283" lon="10.568115"><ele>15.999999999999998</ele><time>2026-03-28T09:43:08.068Z</time></trkpt><trkpt lat="43.84704" lon="10.56823"><ele>16.0</ele><time>2026-03-28T09:43:09.069Z</time></trkpt><trkpt lat="43.8470433" lon="10.568335"><ele>16.0</ele><time>2026-03-28T09:43:10.068Z</time></trkpt><trkpt lat="43.847055" lon="10.568425"><ele>16.0</ele><time>2026-03-28T09:43:11.069Z</time></trkpt><trkpt lat="43.847065" lon="10.56856"><ele>15.999999999999998</ele><time>2026-03-28T09:43:13.069Z</time></trkpt><trkpt lat="43.847065" lon="10.5686833"><ele>16.0</ele><time>2026-03-28T09:43:15.068Z</time></trkpt><trkpt lat="43.847045" lon="10.568865"><ele>15.999999999999998</ele><time>2026-03-28T09:43:17.068Z</time></trkpt><trkpt lat="43.8470367" lon="10.5689717"><ele>16.0</ele><time>2026-03-28T09:43:18.069Z</time></trkpt><trkpt lat="43.8470133" lon="10.569075"><ele>16.0</ele><time>2026-03-28T09:43:19.069Z</time></trkpt><trkpt lat="43.8469767" lon="10.5691833"><ele>16.0</ele><time>2026-03-28T09:43:20.069Z</time></trkpt><trkpt lat="43.8469367" lon="10.569295"><ele>15.999999999999998</ele><time>2026-03-28T09:43:21.069Z</time></trkpt><trkpt lat="43.8468717" lon="10.5693783"><ele>16.0</ele><time>2026-03-28T09:43:22.069Z</time></trkpt><trkpt lat="43.8467967" lon="10.5694617"><ele>15.8</ele><time>2026-03-28T09:43:23.069Z</time></trkpt><trkpt lat="43.8467117" lon="10.569545"><ele>15.600000000000001</ele><time>2026-03-28T09:43:24.069Z</time></trkpt><trkpt lat="43.846625" lon="10.56964"><ele>15.4</ele><time>2026-03-28T09:43:25.069Z</time></trkpt><trkpt lat="43.8465483" lon="10.5697517"><ele>15.2</ele><time>2026-03-28T09:43:26.068Z</time></trkpt><trkpt lat="43.8464933" lon="10.5698833"><ele>15.0</ele><time>2026-03-28T09:43:27.069Z</time></trkpt><trkpt lat="43.846445" lon="10.570025"><ele>15.0</ele><time>2026-03-28T09:43:28.069Z</time></trkpt><trkpt lat="43.8464117" lon="10.570175"><ele>15.0</ele><time>2026-03-28T09:43:29.068Z</time></trkpt><trkpt lat="43.8463883" lon="10.5703333"><ele>15.0</ele><time>2026-03-28T09:43:30.069Z</time></trkpt><trkpt lat="43.84637" lon="10.5704917"><ele>15.0</ele><time>2026-03-28T09:43:31.069Z</time></trkpt><trkpt lat="43.8463367" lon="10.570645"><ele>15.4</ele><time>2026-03-28T09:43:32.068Z</time></trkpt><trkpt lat="43.8463017" lon="10.5707883"><ele>15.8</ele><time>2026-03-28T09:43:33.068Z</time></trkpt><trkpt lat="43.846275" lon="10.5709133"><ele>16.2</ele><time>2026-03-28T09:43:34.069Z</time></trkpt><trkpt lat="43.8462467" lon="10.5710367"><ele>16.6</ele><time>2026-03-28T09:43:35.068Z</time></trkpt><trkpt lat="43.8462317" lon="10.57114"><ele>17.0</ele><time>2026-03-28T09:43:36.069Z</time></trkpt><trkpt lat="43.84621" lon="10.5712433"><ele>17.0</ele><time>2026-03-28T09:43:37.069Z</time></trkpt><trkpt lat="43.84619" lon="10.5713433"><ele>17.0</ele><time>2026-03-28T09:43:38.069Z</time></trkpt><trkpt lat="43.8461583" lon="10.5714417"><ele>17.0</ele><time>2026-03-28T09:43:39.069Z</time></trkpt><trkpt lat="43.8461117" lon="10.5715317"><ele>17.0</ele><time>2026-03-28T09:43:40.069Z</time></trkpt><trkpt lat="43.84604" lon="10.57162"><ele>17.0</ele><time>2026-03-28T09:43:42.069Z</time></trkpt><trkpt lat="43.8459783" lon="10.5716917"><ele>17.0</ele><time>2026-03-28T09:43:46.069Z</time></trkpt><trkpt lat="43.84596" lon="10.57185"><ele>17.0</ele><time>2026-03-28T09:43:48.068Z</time></trkpt><trkpt lat="43.8459767" lon="10.5719517"><ele>17.0</ele><time>2026-03-28T09:43:49.068Z</time></trkpt><trkpt lat="43.845995" lon="10.5720617"><ele>17.0</ele><time>2026-03-28T09:43:50.069Z</time></trkpt><trkpt lat="43.84601" lon="10.5721867"><ele>17.0</ele><time>2026-03-28T09:43:51.069Z</time></trkpt><trkpt lat="43.8460367" lon="10.5723167"><ele>17.0</ele><time>2026-03-28T09:43:52.069Z</time></trkpt><trkpt lat="43.8460417" lon="10.572445"><ele>17.0</ele><time>2026-03-28T09:43:53.068Z</time></trkpt><trkpt lat="43.8460467" lon="10.5725817"><ele>16.8</ele><time>2026-03-28T09:43:54.069Z</time></trkpt><trkpt lat="43.8460633" lon="10.5727367"><ele>16.6</ele><time>2026-03-28T09:43:55.069Z</time></trkpt><trkpt lat="43.8460783" lon="10.57288"><ele>16.400000000000002</ele><time>2026-03-28T09:43:56.069Z</time></trkpt><trkpt lat="43.846085" lon="10.573025"><ele>16.2</ele><time>2026-03-28T09:43:57.068Z</time></trkpt><trkpt lat="43.84608" lon="10.5731667"><ele>16.0</ele><time>2026-03-28T09:43:58.069Z</time></trkpt><trkpt lat="43.8460733" lon="10.5732933"><ele>16.0</ele><time>2026-03-28T09:43:59.069Z</time></trkpt><trkpt lat="43.8460733" lon="10.5734233"><ele>16.0</ele><time>2026-03-28T09:44:00.069Z</time></trkpt><trkpt lat="43.8460683" lon="10.5735467"><ele>16.0</ele><time>2026-03-28T09:44:01.069Z</time></trkpt><trkpt lat="43.8460667" lon="10.573675"><ele>16.0</ele><time>2026-03-28T09:44:02.069Z</time></trkpt><trkpt lat="43.8460517" lon="10.5738117"><ele>16.0</ele><time>2026-03-28T09:44:03.069Z</time></trkpt><trkpt lat="43.8460367" lon="10.5739533"><ele>15.999999999999998</ele><time>2026-03-28T09:44:04.069Z</time></trkpt><trkpt lat="43.8460317" lon="10.5740883"><ele>16.0</ele><time>2026-03-28T09:44:05.069Z</time></trkpt><trkpt lat="43.84603" lon="10.5742233"><ele>16.0</ele><time>2026-03-28T09:44:06.069Z</time></trkpt><trkpt lat="43.8460267" lon="10.5743367"><ele>16.0</ele><time>2026-03-28T09:44:07.069Z</time></trkpt><trkpt lat="43.846025" lon="10.5744483"><ele>15.999999999999998</ele><time>2026-03-28T09:44:08.068Z</time></trkpt><trkpt lat="43.8460217" lon="10.574555"><ele>16.0</ele><time>2026-03-28T09:44:09.069Z</time></trkpt><trkpt lat="43.8460217" lon="10.5746783"><ele>16.0</ele><time>2026-03-28T09:44:10.069Z</time></trkpt><trkpt lat="43.8460267" lon="10.574815"><ele>16.0</ele><time>2026-03-28T09:44:11.069Z</time></trkpt><trkpt lat="43.8460283" lon="10.57496"><ele>16.0</ele><time>2026-03-28T09:44:12.069Z</time></trkpt><trkpt lat="43.8460217" lon="10.5751217"><ele>16.0</ele><time>2026-03-28T09:44:13.069Z</time></trkpt><trkpt lat="43.8460133" lon="10.5752867"><ele>16.0</ele><time>2026-03-28T09:44:14.069Z</time></trkpt><trkpt lat="43.8460183" lon="10.57546"><ele>15.8</ele><time>2026-03-28T09:44:15.068Z</time></trkpt><trkpt lat="43.8460283" lon="10.5756233"><ele>15.600000000000001</ele><time>2026-03-28T09:44:16.068Z</time></trkpt><trkpt lat="43.8460433" lon="10.5757817"><ele>15.4</ele><time>2026-03-28T09:44:17.069Z</time></trkpt><trkpt lat="43.84606" lon="10.5759333"><ele>15.2</ele><time>2026-03-28T09:44:18.068Z</time></trkpt><trkpt lat="43.8460567" lon="10.576075"><ele>15.0</ele><time>2026-03-28T09:44:19.069Z</time></trkpt><trkpt lat="43.8460933" lon="10.5762267"><ele>14.75</ele><time>2026-03-28T09:44:20.069Z</time></trkpt><trkpt lat="43.8461267" lon="10.5763817"><ele>14.5</ele><time>2026-03-28T09:44:21.068Z</time></trkpt><trkpt lat="43.8461567" lon="10.5765383"><ele>14.25</ele><time>2026-03-28T09:44:22.069Z</time></trkpt><trkpt lat="43.84618" lon="10.576695"><ele>14.0</ele><time>2026-03-28T09:44:23.069Z</time></trkpt><trkpt lat="43.8462" lon="10.5768567"><ele>14.25</ele><time>2026-03-28T09:44:24.069Z</time></trkpt><trkpt lat="43.84622" lon="10.5770233"><ele>14.5</ele><time>2026-03-28T09:44:25.068Z</time></trkpt><trkpt lat="43.846235" lon="10.57719"><ele>14.75</ele><time>2026-03-28T09:44:26.068Z</time></trkpt><trkpt lat="43.8462517" lon="10.5773617"><ele>15.0</ele><time>2026-03-28T09:44:27.069Z</time></trkpt><trkpt lat="43.8462633" lon="10.5775317"><ele>15.0</ele><time>2026-03-28T09:44:28.069Z</time></trkpt><trkpt lat="43.8462867" lon="10.5777067"><ele>15.0</ele><time>2026-03-28T09:44:29.069Z</time></trkpt><trkpt lat="43.8462983" lon="10.5778817"><ele>15.0</ele><time>2026-03-28T09:44:30.069Z</time></trkpt><trkpt lat="43.8463017" lon="10.5780533"><ele>15.0</ele><time>2026-03-28T09:44:31.069Z</time></trkpt><trkpt lat="43.8462867" lon="10.5782283"><ele>14.75</ele><time>2026-03-28T09:44:32.069Z</time></trkpt><trkpt lat="43.846255" lon="10.5783983"><ele>14.5</ele><time>2026-03-28T09:44:33.069Z</time></trkpt><trkpt lat="43.8462183" lon="10.578565"><ele>14.25</ele><time>2026-03-28T09:44:34.069Z</time></trkpt><trkpt lat="43.84618" lon="10.5787333"><ele>14.0</ele><time>2026-03-28T09:44:35.068Z</time></trkpt><trkpt lat="43.8461417" lon="10.5788983"><ele>13.75</ele><time>2026-03-28T09:44:36.068Z</time></trkpt><trkpt lat="43.8461067" lon="10.5790767"><ele>13.5</ele><time>2026-03-28T09:44:37.069Z</time></trkpt><trkpt lat="43.8460667" lon="10.579235"><ele>13.25</ele><time>2026-03-28T09:44:38.069Z</time></trkpt><trkpt lat="43.846025" lon="10.5794017"><ele>13.0</ele><time>2026-03-28T09:44:39.068Z</time></trkpt><trkpt lat="43.84598" lon="10.57956"><ele>13.0</ele><time>2026-03-28T09:44:40.068Z</time></trkpt><trkpt lat="43.8459317" lon="10.5797183"><ele>13.0</ele><time>2026-03-28T09:44:41.069Z</time></trkpt><trkpt lat="43.84589" lon="10.5798767"><ele>13.0</ele><time>2026-03-28T09:44:42.069Z</time></trkpt><trkpt lat="43.845845" lon="10.5800283"><ele>13.0</ele><time>2026-03-28T09:44:43.068Z</time></trkpt><trkpt lat="43.8458017" lon="10.5801733"><ele>13.0</ele><time>2026-03-28T09:44:44.069Z</time></trkpt><trkpt lat="43.8457567" lon="10.5803067"><ele>13.0</ele><time>2026-03-28T09:44:45.068Z</time></trkpt><trkpt lat="43.845705" lon="10.580445"><ele>13.0</ele><time>2026-03-28T09:44:46.069Z</time></trkpt><trkpt lat="43.8456483" lon="10.5805867"><ele>13.0</ele><time>2026-03-28T09:44:47.069Z</time></trkpt><trkpt lat="43.8455833" lon="10.5807217"><ele>13.0</ele><time>2026-03-28T09:44:48.069Z</time></trkpt><trkpt lat="43.84552" lon="10.5808567"><ele>13.0</ele><time>2026-03-28T09:44:49.069Z</time></trkpt><trkpt lat="43.845455" lon="10.5809933"><ele>13.0</ele><time>2026-03-28T09:44:50.068Z</time></trkpt><trkpt lat="43.8453917" lon="10.58113"><ele>13.0</ele><time>2026-03-28T09:44:51.069Z</time></trkpt><trkpt lat="43.8453317" lon="10.5812667"><ele>13.0</ele><time>2026-03-28T09:44:52.069Z</time></trkpt><trkpt lat="43.8452683" lon="10.5814"><ele>13.0</ele><time>2026-03-28T09:44:53.068Z</time></trkpt><trkpt lat="43.8452083" lon="10.581525"><ele>13.0</ele><time>2026-03-28T09:44:54.069Z</time></trkpt><trkpt lat="43.8451533" lon="10.58164"><ele>13.0</ele><time>2026-03-28T09:44:55.069Z</time></trkpt><trkpt lat="43.8451083" lon="10.5817617"><ele>13.0</ele><time>2026-03-28T09:44:56.068Z</time></trkpt><trkpt lat="43.845065" lon="10.5818883"><ele>12.999999999999998</ele><time>2026-03-28T09:44:57.069Z</time></trkpt><trkpt lat="43.8450317" lon="10.58201"><ele>13.0</ele><time>2026-03-28T09:44:58.069Z</time></trkpt><trkpt lat="43.845005" lon="10.5821167"><ele>13.0</ele><time>2026-03-28T09:44:59.069Z</time></trkpt><trkpt lat="43.8449917" lon="10.5822117"><ele>13.0</ele><time>2026-03-28T09:45:00.069Z</time></trkpt><trkpt lat="43.8449717" lon="10.5823733"><ele>12.999999999999998</ele><time>2026-03-28T09:45:02.069Z</time></trkpt><trkpt lat="43.8449567" lon="10.5824583"><ele>13.0</ele><time>2026-03-28T09:45:03.069Z</time></trkpt><trkpt lat="43.84495" lon="10.5825517"><ele>13.0</ele><time>2026-03-28T09:45:04.069Z</time></trkpt><trkpt lat="43.8449433" lon="10.5826483"><ele>13.0</ele><time>2026-03-28T09:45:05.069Z</time></trkpt><trkpt lat="43.8449433" lon="10.5827567"><ele>13.0</ele><time>2026-03-28T09:45:06.069Z</time></trkpt><trkpt lat="43.844945" lon="10.5828617"><ele>13.0</ele><time>2026-03-28T09:45:07.069Z</time></trkpt><trkpt lat="43.8449367" lon="10.5829633"><ele>13.0</ele><time>2026-03-28T09:45:08.069Z</time></trkpt><trkpt lat="43.844915" lon="10.5830533"><ele>13.0</ele><time>2026-03-28T09:45:09.068Z</time></trkpt><trkpt lat="43.8448917" lon="10.58315"><ele>13.0</ele><time>2026-03-28T09:45:10.069Z</time></trkpt><trkpt lat="43.8448667" lon="10.583245"><ele>12.999999999999998</ele><time>2026-03-28T09:45:11.068Z</time></trkpt><trkpt lat="43.844855" lon="10.58334"><ele>13.0</ele><time>2026-03-28T09:45:12.069Z</time></trkpt><trkpt lat="43.8448483" lon="10.5834433"><ele>13.0</ele><time>2026-03-28T09:45:13.069Z</time></trkpt><trkpt lat="43.84483" lon="10.5835333"><ele>13.0</ele><time>2026-03-28T09:45:14.068Z</time></trkpt><trkpt lat="43.8447867" lon="10.5836933"><ele>12.999999999999998</ele><time>2026-03-28T09:45:16.068Z</time></trkpt><trkpt lat="43.8447633" lon="10.583775"><ele>13.0</ele><time>2026-03-28T09:45:17.069Z</time></trkpt><trkpt lat="43.844745" lon="10.5838633"><ele>12.8</ele><time>2026-03-28T09:45:18.069Z</time></trkpt><trkpt lat="43.84472" lon="10.584015"><ele>12.600000000000001</ele><time>2026-03-28T09:45:20.069Z</time></trkpt><trkpt lat="43.8446817" lon="10.584155"><ele>12.399999999999999</ele><time>2026-03-28T09:45:22.069Z</time></trkpt><trkpt lat="43.84467" lon="10.5842883"><ele>12.2</ele><time>2026-03-28T09:45:24.069Z</time></trkpt><trkpt lat="43.84466" lon="10.5844017"><ele>12.0</ele><time>2026-03-28T09:45:26.069Z</time></trkpt><trkpt lat="43.8446383" lon="10.584515"><ele>12.0</ele><time>2026-03-28T09:45:28.069Z</time></trkpt><trkpt lat="43.8446233" lon="10.5846467"><ele>12.0</ele><time>2026-03-28T09:45:30.069Z</time></trkpt><trkpt lat="43.8445983" lon="10.58477"><ele>12.0</ele><time>2026-03-28T09:45:32.069Z</time></trkpt><trkpt lat="43.8445817" lon="10.5848767"><ele>12.0</ele><time>2026-03-28T09:45:37.069Z</time></trkpt><trkpt lat="43.8445617" lon="10.585"><ele>12.0</ele><time>2026-03-28T09:45:40.069Z</time></trkpt><trkpt lat="43.8445483" lon="10.5851017"><ele>12.0</ele><time>2026-03-28T09:45:42.069Z</time></trkpt><trkpt lat="43.844535" lon="10.585205"><ele>12.0</ele><time>2026-03-28T09:45:44.069Z</time></trkpt><trkpt lat="43.844525" lon="10.58532"><ele>12.0</ele><time>2026-03-28T09:45:46.069Z</time></trkpt><trkpt lat="43.844515" lon="10.5854383"><ele>12.0</ele><time>2026-03-28T09:45:48.068Z</time></trkpt><trkpt lat="43.84451" lon="10.5855717"><ele>12.0</ele><time>2026-03-28T09:45:50.069Z</time></trkpt><trkpt lat="43.8445067" lon="10.58571"><ele>12.0</ele><time>2026-03-28T09:45:52.069Z</time></trkpt><trkpt lat="43.8445033" lon="10.5858483"><ele>11.833333333333334</ele><time>2026-03-28T09:45:54.069Z</time></trkpt><trkpt lat="43.844505" lon="10.58597"><ele>11.666666666666666</ele><time>2026-03-28T09:45:56.069Z</time></trkpt><trkpt lat="43.8445033" lon="10.5860867"><ele>11.5</ele><time>2026-03-28T09:45:58.069Z</time></trkpt><trkpt lat="43.84449" lon="10.5861817"><ele>11.333333333333332</ele><time>2026-03-28T09:46:00.069Z</time></trkpt><trkpt lat="43.844475" lon="10.5862767"><ele>11.166666666666666</ele><time>2026-03-28T09:46:03.069Z</time></trkpt><trkpt lat="43.8444967" lon="10.586185"><ele>11.0</ele><time>2026-03-28T09:46:18.069Z</time></trkpt><trkpt lat="43.8444983" lon="10.586025"><ele>11.0</ele><time>2026-03-28T09:46:20.068Z</time></trkpt><trkpt lat="43.8444967" lon="10.5859283"><ele>11.0</ele><time>2026-03-28T09:46:21.069Z</time></trkpt><trkpt lat="43.844505" lon="10.5858083"><ele>11.0</ele><time>2026-03-28T09:46:22.069Z</time></trkpt><trkpt lat="43.8445083" lon="10.5856783"><ele>11.0</ele><time>2026-03-28T09:46:23.069Z</time></trkpt><trkpt lat="43.8445083" lon="10.5855667"><ele>11.0</ele><time>2026-03-28T09:46:24.069Z</time></trkpt><trkpt lat="43.8445083" lon="10.5854667"><ele>11.0</ele><time>2026-03-28T09:46:25.069Z</time></trkpt><trkpt lat="43.8445117" lon="10.58537"><ele>11.200000000000001</ele><time>2026-03-28T09:46:26.068Z</time></trkpt><trkpt lat="43.8445167" lon="10.5852783"><ele>11.4</ele><time>2026-03-28T09:46:27.069Z</time></trkpt><trkpt lat="43.84454" lon="10.585125"><ele>11.6</ele><time>2026-03-28T09:46:29.069Z</time></trkpt><trkpt lat="43.8445667" lon="10.585015"><ele>11.8</ele><time>2026-03-28T09:46:31.068Z</time></trkpt><trkpt lat="43.8445967" lon="10.58489"><ele>12.0</ele><time>2026-03-28T09:46:33.069Z</time></trkpt><trkpt lat="43.8446133" lon="10.5847167"><ele>12.0</ele><time>2026-03-28T09:46:35.068Z</time></trkpt><trkpt lat="43.84462" lon="10.5846167"><ele>12.0</ele><time>2026-03-28T09:46:36.069Z</time></trkpt><trkpt lat="43.844635" lon="10.5845183"><ele>12.0</ele><time>2026-03-28T09:46:37.069Z</time></trkpt><trkpt lat="43.8446567" lon="10.5844183"><ele>12.0</ele><time>2026-03-28T09:46:38.068Z</time></trkpt><trkpt lat="43.844675" lon="10.58431"><ele>12.0</ele><time>2026-03-28T09:46:39.069Z</time></trkpt><trkpt lat="43.8446933" lon="10.5841967"><ele>12.0</ele><time>2026-03-28T09:46:40.069Z</time></trkpt><trkpt lat="43.8447117" lon="10.584085"><ele>11.999999999999998</ele><time>2026-03-28T09:46:41.069Z</time></trkpt><trkpt lat="43.844725" lon="10.5839783"><ele>12.0</ele><time>2026-03-28T09:46:42.068Z</time></trkpt><trkpt lat="43.8447383" lon="10.5838833"><ele>12.0</ele><time>2026-03-28T09:46:43.068Z</time></trkpt><trkpt lat="43.8447567" lon="10.5837917"><ele>12.0</ele><time>2026-03-28T09:46:44.069Z</time></trkpt><trkpt lat="43.8447817" lon="10.5837083"><ele>12.0</ele><time>2026-03-28T09:46:45.068Z</time></trkpt><trkpt lat="43.8448267" lon="10.5836067"><ele>11.999999999999998</ele><time>2026-03-28T09:46:47.069Z</time></trkpt><trkpt lat="43.8448867" lon="10.5836483"><ele>12.0</ele><time>2026-03-28T09:46:50.068Z</time></trkpt><trkpt lat="43.8448683" lon="10.583795"><ele>12.0</ele><time>2026-03-28T09:46:52.069Z</time></trkpt><trkpt lat="43.8448433" lon="10.5838867"><ele>12.0</ele><time>2026-03-28T09:46:53.069Z</time></trkpt><trkpt lat="43.8448217" lon="10.5839783"><ele>12.0</ele><time>2026-03-28T09:46:54.069Z</time></trkpt><trkpt lat="43.8448033" lon="10.584075"><ele>12.0</ele><time>2026-03-28T09:46:55.068Z</time></trkpt><trkpt lat="43.844775" lon="10.5842267"><ele>12.0</ele><time>2026-03-28T09:46:57.069Z</time></trkpt><trkpt lat="43.84475" lon="10.5843683"><ele>12.0</ele><time>2026-03-28T09:46:59.069Z</time></trkpt><trkpt lat="43.8447267" lon="10.58449"><ele>12.0</ele><time>2026-03-28T09:47:01.069Z</time></trkpt><trkpt lat="43.8447083" lon="10.5846017"><ele>12.0</ele><time>2026-03-28T09:47:03.068Z</time></trkpt><trkpt lat="43.844685" lon="10.584725"><ele>12.0</ele><time>2026-03-28T09:47:05.069Z</time></trkpt><trkpt lat="43.8446633" lon="10.5848917"><ele>12.0</ele><time>2026-03-28T09:47:07.068Z</time></trkpt><trkpt lat="43.8446533" lon="10.584985"><ele>12.0</ele><time>2026-03-28T09:47:08.069Z</time></trkpt><trkpt lat="43.8446433" lon="10.5850883"><ele>12.0</ele><time>2026-03-28T09:47:09.069Z</time></trkpt><trkpt lat="43.84463" lon="10.5851883"><ele>12.0</ele><time>2026-03-28T09:47:10.069Z</time></trkpt><trkpt lat="43.84462" lon="10.5852867"><ele>12.0</ele><time>2026-03-28T09:47:11.068Z</time></trkpt><trkpt lat="43.844615" lon="10.5853833"><ele>12.0</ele><time>2026-03-28T09:47:12.068Z</time></trkpt><trkpt lat="43.8446017" lon="10.5854767"><ele>12.0</ele><time>2026-03-28T09:47:13.068Z</time></trkpt><trkpt lat="43.8445917" lon="10.5855633"><ele>12.0</ele><time>2026-03-28T09:47:14.069Z</time></trkpt><trkpt lat="43.8446017" lon="10.58573"><ele>12.0</ele><time>2026-03-28T09:47:16.069Z</time></trkpt><trkpt lat="43.8446367" lon="10.585845"><ele>11.8</ele><time>2026-03-28T09:47:18.069Z</time></trkpt><trkpt lat="43.8447017" lon="10.5859117"><ele>11.6</ele><time>2026-03-28T09:47:20.068Z</time></trkpt><trkpt lat="43.84481" lon="10.5859467"><ele>11.4</ele><time>2026-03-28T09:47:22.069Z</time></trkpt><trkpt lat="43.844915" lon="10.5859917"><ele>11.200000000000001</ele><time>2026-03-28T09:47:24.069Z</time></trkpt><trkpt lat="43.8450067" lon="10.586025"><ele>11.0</ele><time>2026-03-28T09:47:26.068Z</time></trkpt><trkpt lat="43.8450817" lon="10.5860767"><ele>11.0</ele><time>2026-03-28T09:47:28.069Z</time></trkpt><trkpt lat="43.84512" lon="10.5861517"><ele>11.0</ele><time>2026-03-28T09:47:30.069Z</time></trkpt><trkpt lat="43.8451033" lon="10.5862467"><ele>11.0</ele><time>2026-03-28T09:47:33.068Z</time></trkpt><trkpt lat="43.8450567" lon="10.586335"><ele>11.0</ele><time>2026-03-28T09:47:35.069Z</time></trkpt><trkpt lat="43.844985" lon="10.5864783"><ele>11.0</ele><time>2026-03-28T09:47:37.069Z</time></trkpt><trkpt lat="43.84495" lon="10.5865517"><ele>11.0</ele><time>2026-03-28T09:47:38.069Z</time></trkpt><trkpt lat="43.8449133" lon="10.5866233"><ele>10.75</ele><time>2026-03-28T09:47:39.069Z</time></trkpt><trkpt lat="43.84485" lon="10.5867633"><ele>10.5</ele><time>2026-03-28T09:47:41.068Z</time></trkpt><trkpt lat="43.844785" lon="10.5869"><ele>10.25</ele><time>2026-03-28T09:47:43.069Z</time></trkpt><trkpt lat="43.8447217" lon="10.58703"><ele>10.0</ele><time>2026-03-28T09:47:45.068Z</time></trkpt><trkpt lat="43.844665" lon="10.587155"><ele>10.0</ele><time>2026-03-28T09:47:47.069Z</time></trkpt><trkpt lat="43.8446" lon="10.5872933"><ele>10.0</ele><time>2026-03-28T09:47:49.069Z</time></trkpt><trkpt lat="43.844545" lon="10.5874317"><ele>10.0</ele><time>2026-03-28T09:47:51.069Z</time></trkpt><trkpt lat="43.8444833" lon="10.58758"><ele>10.0</ele><time>2026-03-28T09:47:53.069Z</time></trkpt><trkpt lat="43.8444067" lon="10.5877267"><ele>10.0</ele><time>2026-03-28T09:47:55.069Z</time></trkpt><trkpt lat="43.8443667" lon="10.5877967"><ele>10.0</ele><time>2026-03-28T09:47:56.069Z</time></trkpt><trkpt lat="43.844325" lon="10.5878683"><ele>10.0</ele><time>2026-03-28T09:47:57.069Z</time></trkpt><trkpt lat="43.8442867" lon="10.58794"><ele>10.0</ele><time>2026-03-28T09:47:58.068Z</time></trkpt><trkpt lat="43.8442167" lon="10.5880767"><ele>10.0</ele><time>2026-03-28T09:48:00.069Z</time></trkpt><trkpt lat="43.844145" lon="10.588215"><ele>10.0</ele><time>2026-03-28T09:48:02.068Z</time></trkpt><trkpt lat="43.8441067" lon="10.58829"><ele>10.5</ele><time>2026-03-28T09:48:03.069Z</time></trkpt><trkpt lat="43.8440333" lon="10.5884267"><ele>11.0</ele><time>2026-03-28T09:48:05.068Z</time></trkpt><trkpt lat="43.84397" lon="10.5885667"><ele>11.5</ele><time>2026-03-28T09:48:07.068Z</time></trkpt><trkpt lat="43.8439033" lon="10.5886983"><ele>12.0</ele><time>2026-03-28T09:48:09.069Z</time></trkpt><trkpt lat="43.843845" lon="10.5888317"><ele>12.0</ele><time>2026-03-28T09:48:11.069Z</time></trkpt><trkpt lat="43.84378" lon="10.58897"><ele>12.0</ele><time>2026-03-28T09:48:13.069Z</time></trkpt><trkpt lat="43.8437467" lon="10.5890467"><ele>12.0</ele><time>2026-03-28T09:48:14.069Z</time></trkpt><trkpt lat="43.843685" lon="10.58918"><ele>12.0</ele><time>2026-03-28T09:48:16.069Z</time></trkpt><trkpt lat="43.843625" lon="10.5893283"><ele>12.0</ele><time>2026-03-28T09:48:18.069Z</time></trkpt><trkpt lat="43.8435633" lon="10.5894767"><ele>12.0</ele><time>2026-03-28T09:48:20.069Z</time></trkpt><trkpt lat="43.8435233" lon="10.5895633"><ele>12.0</ele><time>2026-03-28T09:48:21.068Z</time></trkpt><trkpt lat="43.8434767" lon="10.589665"><ele>12.0</ele><time>2026-03-28T09:48:22.069Z</time></trkpt><trkpt lat="43.8434267" lon="10.589755"><ele>12.0</ele><time>2026-03-28T09:48:23.069Z</time></trkpt><trkpt lat="43.84338" lon="10.5898483"><ele>12.0</ele><time>2026-03-28T09:48:24.068Z</time></trkpt><trkpt lat="43.8433383" lon="10.58994"><ele>12.0</ele><time>2026-03-28T09:48:25.068Z</time></trkpt><trkpt lat="43.8432967" lon="10.5900267"><ele>12.0</ele><time>2026-03-28T09:48:26.069Z</time></trkpt><trkpt lat="43.8432533" lon="10.5901167"><ele>12.0</ele><time>2026-03-28T09:48:27.069Z</time></trkpt><trkpt lat="43.8432067" lon="10.59021"><ele>12.0</ele><time>2026-03-28T09:48:28.069Z</time></trkpt><trkpt lat="43.843165" lon="10.5903033"><ele>12.0</ele><time>2026-03-28T09:48:29.069Z</time></trkpt><trkpt lat="43.8431217" lon="10.590395"><ele>12.0</ele><time>2026-03-28T09:48:30.069Z</time></trkpt><trkpt lat="43.843085" lon="10.59048"><ele>12.0</ele><time>2026-03-28T09:48:31.069Z</time></trkpt><trkpt lat="43.8430483" lon="10.5905567"><ele>11.833333333333334</ele><time>2026-03-28T09:48:32.069Z</time></trkpt><trkpt lat="43.8430067" lon="10.59063"><ele>11.666666666666666</ele><time>2026-03-28T09:48:33.068Z</time></trkpt><trkpt lat="43.842975" lon="10.59071"><ele>11.5</ele><time>2026-03-28T09:48:34.069Z</time></trkpt><trkpt lat="43.8429017" lon="10.5908367"><ele>11.333333333333332</ele><time>2026-03-28T09:48:36.069Z</time></trkpt><trkpt lat="43.8428433" lon="10.5909267"><ele>11.166666666666666</ele><time>2026-03-28T09:48:38.069Z</time></trkpt><trkpt lat="43.842815" lon="10.5910133"><ele>11.0</ele><time>2026-03-28T09:48:40.068Z</time></trkpt><trkpt lat="43.8427383" lon="10.591065"><ele>11.0</ele><time>2026-03-28T09:48:43.069Z</time></trkpt><trkpt lat="43.8426883" lon="10.59112"><ele>11.0</ele><time>2026-03-28T09:48:45.069Z</time></trkpt><trkpt lat="43.8426283" lon="10.5912433"><ele>11.0</ele><time>2026-03-28T09:48:47.069Z</time></trkpt><trkpt lat="43.8425983" lon="10.5913333"><ele>11.0</ele><time>2026-03-28T09:48:48.069Z</time></trkpt><trkpt lat="43.8425617" lon="10.5914333"><ele>11.0</ele><time>2026-03-28T09:48:49.069Z</time></trkpt><trkpt lat="43.842515" lon="10.5915367"><ele>11.0</ele><time>2026-03-28T09:48:50.069Z</time></trkpt><trkpt lat="43.8424533" lon="10.5916533"><ele>11.0</ele><time>2026-03-28T09:48:51.069Z</time></trkpt><trkpt lat="43.84237" lon="10.5918133"><ele>11.0</ele><time>2026-03-28T09:48:52.069Z</time></trkpt><trkpt lat="43.84229" lon="10.591975"><ele>11.0</ele><time>2026-03-28T09:48:53.069Z</time></trkpt><trkpt lat="43.8422067" lon="10.5921183"><ele>11.0</ele><time>2026-03-28T09:48:54.069Z</time></trkpt><trkpt lat="43.8421333" lon="10.5922667"><ele>11.0</ele><time>2026-03-28T09:48:55.068Z</time></trkpt><trkpt lat="43.84207" lon="10.5924017"><ele>11.0</ele><time>2026-03-28T09:48:56.069Z</time></trkpt><trkpt lat="43.8420017" lon="10.5925383"><ele>11.0</ele><time>2026-03-28T09:48:57.069Z</time></trkpt><trkpt lat="43.841945" lon="10.5926817"><ele>11.0</ele><time>2026-03-28T09:48:58.069Z</time></trkpt><trkpt lat="43.8418817" lon="10.5928233"><ele>11.25</ele><time>2026-03-28T09:48:59.069Z</time></trkpt><trkpt lat="43.8418217" lon="10.592965"><ele>11.5</ele><time>2026-03-28T09:49:00.069Z</time></trkpt><trkpt lat="43.8417617" lon="10.593095"><ele>11.75</ele><time>2026-03-28T09:49:01.068Z</time></trkpt><trkpt lat="43.8416983" lon="10.5932267"><ele>12.0</ele><time>2026-03-28T09:49:02.069Z</time></trkpt><trkpt lat="43.841635" lon="10.5933617"><ele>11.8</ele><time>2026-03-28T09:49:03.069Z</time></trkpt><trkpt lat="43.8415833" lon="10.5934917"><ele>11.6</ele><time>2026-03-28T09:49:04.069Z</time></trkpt><trkpt lat="43.84153" lon="10.5936283"><ele>11.4</ele><time>2026-03-28T09:49:05.069Z</time></trkpt><trkpt lat="43.841475" lon="10.593755"><ele>11.200000000000001</ele><time>2026-03-28T09:49:06.069Z</time></trkpt><trkpt lat="43.8414267" lon="10.5938667"><ele>11.0</ele><time>2026-03-28T09:49:07.068Z</time></trkpt><trkpt lat="43.84137" lon="10.5939767"><ele>11.0</ele><time>2026-03-28T09:49:08.069Z</time></trkpt><trkpt lat="43.8413267" lon="10.59408"><ele>11.0</ele><time>2026-03-28T09:49:09.069Z</time></trkpt><trkpt lat="43.8412783" lon="10.5941683"><ele>11.0</ele><time>2026-03-28T09:49:10.068Z</time></trkpt><trkpt lat="43.8412283" lon="10.5942317"><ele>11.0</ele><time>2026-03-28T09:49:11.069Z</time></trkpt><trkpt lat="43.8411717" lon="10.5943033"><ele>11.0</ele><time>2026-03-28T09:49:13.069Z</time></trkpt><trkpt lat="43.8411367" lon="10.5944567"><ele>11.0</ele><time>2026-03-28T09:49:20.069Z</time></trkpt><trkpt lat="43.8411217" lon="10.59457"><ele>11.166666666666666</ele><time>2026-03-28T09:49:21.068Z</time></trkpt><trkpt lat="43.8411117" lon="10.5947"><ele>11.333333333333332</ele><time>2026-03-28T09:49:22.068Z</time></trkpt><trkpt lat="43.8410983" lon="10.5948217"><ele>11.5</ele><time>2026-03-28T09:49:23.068Z</time></trkpt><trkpt lat="43.84107" lon="10.5949383"><ele>11.666666666666666</ele><time>2026-03-28T09:49:24.068Z</time></trkpt><trkpt lat="43.84104" lon="10.5950517"><ele>11.833333333333334</ele><time>2026-03-28T09:49:25.068Z</time></trkpt><trkpt lat="43.84102" lon="10.5951667"><ele>12.0</ele><time>2026-03-28T09:49:26.069Z</time></trkpt><trkpt lat="43.841025" lon="10.5952833"><ele>11.833333333333334</ele><time>2026-03-28T09:49:27.069Z</time></trkpt><trkpt lat="43.8410517" lon="10.5953933"><ele>11.666666666666666</ele><time>2026-03-28T09:49:28.069Z</time></trkpt><trkpt lat="43.8410883" lon="10.5955017"><ele>11.5</ele><time>2026-03-28T09:49:29.068Z</time></trkpt><trkpt lat="43.84112" lon="10.5956183"><ele>11.333333333333332</ele><time>2026-03-28T09:49:30.068Z</time></trkpt><trkpt lat="43.8411433" lon="10.5957367"><ele>11.166666666666666</ele><time>2026-03-28T09:49:31.069Z</time></trkpt><trkpt lat="43.8411567" lon="10.5958617"><ele>11.0</ele><time>2026-03-28T09:49:32.069Z</time></trkpt><trkpt lat="43.8411583" lon="10.5959933"><ele>11.0</ele><time>2026-03-28T09:49:33.068Z</time></trkpt><trkpt lat="43.8411633" lon="10.5961367"><ele>11.0</ele><time>2026-03-28T09:49:34.069Z</time></trkpt><trkpt lat="43.841175" lon="10.596285"><ele>11.0</ele><time>2026-03-28T09:49:35.069Z</time></trkpt><trkpt lat="43.84118" lon="10.5964233"><ele>11.0</ele><time>2026-03-28T09:49:36.069Z</time></trkpt><trkpt lat="43.8411817" lon="10.5965783"><ele>11.0</ele><time>2026-03-28T09:49:37.069Z</time></trkpt><trkpt lat="43.841175" lon="10.5967467"><ele>11.25</ele><time>2026-03-28T09:49:38.069Z</time></trkpt><trkpt lat="43.841175" lon="10.5969067"><ele>11.5</ele><time>2026-03-28T09:49:39.069Z</time></trkpt><trkpt lat="43.84118" lon="10.5970783"><ele>11.75</ele><time>2026-03-28T09:49:40.068Z</time></trkpt><trkpt lat="43.841185" lon="10.597265"><ele>12.0</ele><time>2026-03-28T09:49:41.068Z</time></trkpt><trkpt lat="43.8411983" lon="10.5974517"><ele>12.0</ele><time>2026-03-28T09:49:42.068Z</time></trkpt><trkpt lat="43.8412067" lon="10.5976433"><ele>12.0</ele><time>2026-03-28T09:49:43.069Z</time></trkpt><trkpt lat="43.8412133" lon="10.5978417"><ele>12.0</ele><time>2026-03-28T09:49:44.069Z</time></trkpt><trkpt lat="43.8412183" lon="10.5980433"><ele>12.0</ele><time>2026-03-28T09:49:45.069Z</time></trkpt><trkpt lat="43.84122" lon="10.59825"><ele>12.333333333333332</ele><time>2026-03-28T09:49:46.069Z</time></trkpt><trkpt lat="43.84123" lon="10.59846"><ele>12.666666666666666</ele><time>2026-03-28T09:49:47.068Z</time></trkpt><trkpt lat="43.8412367" lon="10.5986717"><ele>13.0</ele><time>2026-03-28T09:49:48.069Z</time></trkpt><trkpt lat="43.8412433" lon="10.59888"><ele>13.333333333333332</ele><time>2026-03-28T09:49:49.069Z</time></trkpt><trkpt lat="43.8412667" lon="10.5990833"><ele>13.666666666666668</ele><time>2026-03-28T09:49:50.069Z</time></trkpt><trkpt lat="43.8412717" lon="10.5992933"><ele>14.0</ele><time>2026-03-28T09:49:51.069Z</time></trkpt><trkpt lat="43.84128" lon="10.599505"><ele>13.5</ele><time>2026-03-28T09:49:52.069Z</time></trkpt><trkpt lat="43.8412783" lon="10.5997117"><ele>13.0</ele><time>2026-03-28T09:49:53.069Z</time></trkpt><trkpt lat="43.8412817" lon="10.5999083"><ele>12.5</ele><time>2026-03-28T09:49:54.069Z</time></trkpt><trkpt lat="43.8412817" lon="10.6000983"><ele>12.0</ele><time>2026-03-28T09:49:55.069Z</time></trkpt><trkpt lat="43.841285" lon="10.6002817"><ele>11.5</ele><time>2026-03-28T09:49:56.069Z</time></trkpt><trkpt lat="43.8412933" lon="10.60046"><ele>11.0</ele><time>2026-03-28T09:49:57.069Z</time></trkpt><trkpt lat="43.841295" lon="10.600625"><ele>10.5</ele><time>2026-03-28T09:49:58.069Z</time></trkpt><trkpt lat="43.8413" lon="10.6007967"><ele>10.0</ele><time>2026-03-28T09:49:59.069Z</time></trkpt><trkpt lat="43.8413067" lon="10.6009583"><ele>10.0</ele><time>2026-03-28T09:50:00.069Z</time></trkpt><trkpt lat="43.8413133" lon="10.6011217"><ele>10.0</ele><time>2026-03-28T09:50:01.068Z</time></trkpt><trkpt lat="43.8413167" lon="10.6012783"><ele>10.0</ele><time>2026-03-28T09:50:02.069Z</time></trkpt><trkpt lat="43.8413233" lon="10.6014283"><ele>10.0</ele><time>2026-03-28T09:50:03.068Z</time></trkpt><trkpt lat="43.84133" lon="10.601575"><ele>10.0</ele><time>2026-03-28T09:50:04.069Z</time></trkpt><trkpt lat="43.8413367" lon="10.6017233"><ele>10.4</ele><time>2026-03-28T09:50:05.069Z</time></trkpt><trkpt lat="43.8413467" lon="10.6018767"><ele>10.8</ele><time>2026-03-28T09:50:06.068Z</time></trkpt><trkpt lat="43.84135" lon="10.602035"><ele>11.2</ele><time>2026-03-28T09:50:07.069Z</time></trkpt><trkpt lat="43.8413517" lon="10.60218"><ele>11.6</ele><time>2026-03-28T09:50:08.068Z</time></trkpt><trkpt lat="43.8413483" lon="10.602325"><ele>12.0</ele><time>2026-03-28T09:50:09.069Z</time></trkpt><trkpt lat="43.8413533" lon="10.6024583"><ele>12.0</ele><time>2026-03-28T09:50:10.068Z</time></trkpt><trkpt lat="43.8413567" lon="10.602595"><ele>12.0</ele><time>2026-03-28T09:50:11.069Z</time></trkpt><trkpt lat="43.8413583" lon="10.6027117"><ele>12.0</ele><time>2026-03-28T09:50:12.069Z</time></trkpt><trkpt lat="43.84136" lon="10.6028767"><ele>12.0</ele><time>2026-03-28T09:50:14.068Z</time></trkpt><trkpt lat="43.8413617" lon="10.603005"><ele>12.0</ele><time>2026-03-28T09:50:16.069Z</time></trkpt><trkpt lat="43.8413567" lon="10.6031067"><ele>12.166666666666666</ele><time>2026-03-28T09:50:19.069Z</time></trkpt><trkpt lat="43.8413417" lon="10.6032583"><ele>12.333333333333332</ele><time>2026-03-28T09:50:30.069Z</time></trkpt><trkpt lat="43.841305" lon="10.6033583"><ele>12.5</ele><time>2026-03-28T09:50:31.068Z</time></trkpt><trkpt lat="43.8412617" lon="10.6034533"><ele>12.666666666666666</ele><time>2026-03-28T09:50:32.069Z</time></trkpt><trkpt lat="43.841215" lon="10.6035483"><ele>12.833333333333332</ele><time>2026-03-28T09:50:33.069Z</time></trkpt><trkpt lat="43.841165" lon="10.6036567"><ele>13.0</ele><time>2026-03-28T09:50:34.068Z</time></trkpt><trkpt lat="43.8411133" lon="10.60378"><ele>13.0</ele><time>2026-03-28T09:50:35.069Z</time></trkpt><trkpt lat="43.84106" lon="10.6039133"><ele>13.0</ele><time>2026-03-28T09:50:36.069Z</time></trkpt><trkpt lat="43.841015" lon="10.6040433"><ele>13.0</ele><time>2026-03-28T09:50:37.069Z</time></trkpt><trkpt lat="43.8409633" lon="10.604165"><ele>13.0</ele><time>2026-03-28T09:50:38.069Z</time></trkpt><trkpt lat="43.8408967" lon="10.60429"><ele>13.0</ele><time>2026-03-28T09:50:39.069Z</time></trkpt><trkpt lat="43.8408217" lon="10.6044133"><ele>13.0</ele><time>2026-03-28T09:50:40.069Z</time></trkpt><trkpt lat="43.840735" lon="10.6045283"><ele>13.0</ele><time>2026-03-28T09:50:41.068Z</time></trkpt><trkpt lat="43.840645" lon="10.60465"><ele>13.0</ele><time>2026-03-28T09:50:42.068Z</time></trkpt><trkpt lat="43.8405583" lon="10.6047683"><ele>13.0</ele><time>2026-03-28T09:50:43.068Z</time></trkpt><trkpt lat="43.8404733" lon="10.60488"><ele>13.0</ele><time>2026-03-28T09:50:44.068Z</time></trkpt><trkpt lat="43.8403917" lon="10.6049867"><ele>13.0</ele><time>2026-03-28T09:50:45.069Z</time></trkpt><trkpt lat="43.8403167" lon="10.6050967"><ele>13.0</ele><time>2026-03-28T09:50:46.068Z</time></trkpt><trkpt lat="43.8402483" lon="10.6052"><ele>13.0</ele><time>2026-03-28T09:50:47.069Z</time></trkpt><trkpt lat="43.840175" lon="10.6053"><ele>13.0</ele><time>2026-03-28T09:50:48.068Z</time></trkpt><trkpt lat="43.840095" lon="10.6054083"><ele>12.75</ele><time>2026-03-28T09:50:49.069Z</time></trkpt><trkpt lat="43.8400083" lon="10.60552"><ele>12.5</ele><time>2026-03-28T09:50:50.069Z</time></trkpt><trkpt lat="43.8399183" lon="10.60564"><ele>12.25</ele><time>2026-03-28T09:50:51.068Z</time></trkpt><trkpt lat="43.8398283" lon="10.6057633"><ele>12.0</ele><time>2026-03-28T09:50:52.069Z</time></trkpt><trkpt lat="43.8397333" lon="10.60589"><ele>12.0</ele><time>2026-03-28T09:50:53.068Z</time></trkpt><trkpt lat="43.8396433" lon="10.6060133"><ele>12.0</ele><time>2026-03-28T09:50:54.069Z</time></trkpt><trkpt lat="43.8395583" lon="10.606125"><ele>12.0</ele><time>2026-03-28T09:50:55.069Z</time></trkpt><trkpt lat="43.8394767" lon="10.6062267"><ele>12.0</ele><time>2026-03-28T09:50:56.069Z</time></trkpt><trkpt lat="43.8394017" lon="10.606325"><ele>12.0</ele><time>2026-03-28T09:50:57.069Z</time></trkpt><trkpt lat="43.839325" lon="10.6064217"><ele>12.0</ele><time>2026-03-28T09:50:58.069Z</time></trkpt><trkpt lat="43.839255" lon="10.6065117"><ele>12.0</ele><time>2026-03-28T09:50:59.069Z</time></trkpt><trkpt lat="43.83919" lon="10.6066"><ele>12.0</ele><time>2026-03-28T09:51:00.069Z</time></trkpt><trkpt lat="43.83912" lon="10.6066833"><ele>12.0</ele><time>2026-03-28T09:51:01.068Z</time></trkpt><trkpt lat="43.839045" lon="10.6067833"><ele>11.75</ele><time>2026-03-28T09:51:02.068Z</time></trkpt><trkpt lat="43.8389633" lon="10.6068867"><ele>11.5</ele><time>2026-03-28T09:51:03.069Z</time></trkpt><trkpt lat="43.83888" lon="10.6069983"><ele>11.25</ele><time>2026-03-28T09:51:04.068Z</time></trkpt><trkpt lat="43.8387967" lon="10.6071133"><ele>11.0</ele><time>2026-03-28T09:51:05.069Z</time></trkpt><trkpt lat="43.8387117" lon="10.60723"><ele>11.0</ele><time>2026-03-28T09:51:06.069Z</time></trkpt><trkpt lat="43.8386167" lon="10.6073533"><ele>11.0</ele><time>2026-03-28T09:51:07.069Z</time></trkpt><trkpt lat="43.838525" lon="10.6074833"><ele>11.0</ele><time>2026-03-28T09:51:08.069Z</time></trkpt><trkpt lat="43.8384333" lon="10.6076183"><ele>11.0</ele><time>2026-03-28T09:51:09.068Z</time></trkpt><trkpt lat="43.8383367" lon="10.6077417"><ele>11.25</ele><time>2026-03-28T09:51:10.069Z</time></trkpt><trkpt lat="43.8382417" lon="10.60787"><ele>11.5</ele><time>2026-03-28T09:51:11.069Z</time></trkpt><trkpt lat="43.8381483" lon="10.607995"><ele>11.75</ele><time>2026-03-28T09:51:12.069Z</time></trkpt><trkpt lat="43.8380633" lon="10.6081217"><ele>12.0</ele><time>2026-03-28T09:51:13.069Z</time></trkpt><trkpt lat="43.8379783" lon="10.6082417"><ele>12.0</ele><time>2026-03-28T09:51:14.069Z</time></trkpt><trkpt lat="43.83789" lon="10.6083583"><ele>12.0</ele><time>2026-03-28T09:51:15.069Z</time></trkpt><trkpt lat="43.8378067" lon="10.608485"><ele>12.0</ele><time>2026-03-28T09:51:16.069Z</time></trkpt><trkpt lat="43.837715" lon="10.6086033"><ele>12.0</ele><time>2026-03-28T09:51:17.068Z</time></trkpt><trkpt lat="43.8376167" lon="10.6087217"><ele>12.0</ele><time>2026-03-28T09:51:18.069Z</time></trkpt><trkpt lat="43.8375217" lon="10.6088433"><ele>12.0</ele><time>2026-03-28T09:51:19.069Z</time></trkpt><trkpt lat="43.8374283" lon="10.6089717"><ele>12.0</ele><time>2026-03-28T09:51:20.069Z</time></trkpt><trkpt lat="43.83734" lon="10.6091017"><ele>12.0</ele><time>2026-03-28T09:51:21.069Z</time></trkpt><trkpt lat="43.8372367" lon="10.6092283"><ele>12.0</ele><time>2026-03-28T09:51:22.068Z</time></trkpt><trkpt lat="43.837135" lon="10.6093567"><ele>12.0</ele><time>2026-03-28T09:51:23.069Z</time></trkpt><trkpt lat="43.83704" lon="10.6094833"><ele>12.0</ele><time>2026-03-28T09:51:24.069Z</time></trkpt><trkpt lat="43.836945" lon="10.6096133"><ele>12.0</ele><time>2026-03-28T09:51:25.069Z</time></trkpt><trkpt lat="43.836855" lon="10.6097417"><ele>12.0</ele><time>2026-03-28T09:51:26.068Z</time></trkpt><trkpt lat="43.83676" lon="10.60986"><ele>12.0</ele><time>2026-03-28T09:51:27.068Z</time></trkpt><trkpt lat="43.836665" lon="10.6099783"><ele>12.0</ele><time>2026-03-28T09:51:28.069Z</time></trkpt><trkpt lat="43.8365767" lon="10.6100967"><ele>12.0</ele><time>2026-03-28T09:51:29.069Z</time></trkpt><trkpt lat="43.8364833" lon="10.61021"><ele>12.0</ele><time>2026-03-28T09:51:30.069Z</time></trkpt><trkpt lat="43.8364" lon="10.61033"><ele>12.0</ele><time>2026-03-28T09:51:31.068Z</time></trkpt><trkpt lat="43.8363217" lon="10.6104517"><ele>12.0</ele><time>2026-03-28T09:51:32.069Z</time></trkpt><trkpt lat="43.8362433" lon="10.61057"><ele>12.0</ele><time>2026-03-28T09:51:33.069Z</time></trkpt><trkpt lat="43.8361633" lon="10.610685"><ele>12.0</ele><time>2026-03-28T09:51:34.069Z</time></trkpt><trkpt lat="43.8360817" lon="10.61079"><ele>12.0</ele><time>2026-03-28T09:51:35.069Z</time></trkpt><trkpt lat="43.8360067" lon="10.6108933"><ele>12.0</ele><time>2026-03-28T09:51:36.069Z</time></trkpt><trkpt lat="43.8359267" lon="10.611005"><ele>12.0</ele><time>2026-03-28T09:51:37.068Z</time></trkpt><trkpt lat="43.8358483" lon="10.6111183"><ele>12.0</ele><time>2026-03-28T09:51:38.069Z</time></trkpt><trkpt lat="43.8357683" lon="10.61124"><ele>11.5</ele><time>2026-03-28T09:51:39.068Z</time></trkpt><trkpt lat="43.8356933" lon="10.6113667"><ele>11.0</ele><time>2026-03-28T09:51:40.068Z</time></trkpt><trkpt lat="43.83562" lon="10.6115"><ele>10.5</ele><time>2026-03-28T09:51:41.069Z</time></trkpt><trkpt lat="43.8355533" lon="10.6116383"><ele>10.0</ele><time>2026-03-28T09:51:42.069Z</time></trkpt><trkpt lat="43.8354867" lon="10.6117817"><ele>10.0</ele><time>2026-03-28T09:51:43.069Z</time></trkpt><trkpt lat="43.835425" lon="10.6119267"><ele>10.0</ele><time>2026-03-28T09:51:44.069Z</time></trkpt><trkpt lat="43.8353617" lon="10.612075"><ele>10.0</ele><time>2026-03-28T09:51:45.069Z</time></trkpt><trkpt lat="43.8353" lon="10.6122317"><ele>10.0</ele><time>2026-03-28T09:51:46.069Z</time></trkpt><trkpt lat="43.835245" lon="10.6123883"><ele>10.25</ele><time>2026-03-28T09:51:47.068Z</time></trkpt><trkpt lat="43.8351933" lon="10.612545"><ele>10.5</ele><time>2026-03-28T09:51:48.069Z</time></trkpt><trkpt lat="43.8351467" lon="10.6127067"><ele>10.75</ele><time>2026-03-28T09:51:49.069Z</time></trkpt><trkpt lat="43.8351033" lon="10.6128617"><ele>11.0</ele><time>2026-03-28T09:51:50.068Z</time></trkpt><trkpt lat="43.8350633" lon="10.6130217"><ele>11.0</ele><time>2026-03-28T09:51:51.069Z</time></trkpt><trkpt lat="43.835025" lon="10.6131767"><ele>11.0</ele><time>2026-03-28T09:51:52.069Z</time></trkpt><trkpt lat="43.8349883" lon="10.613325"><ele>11.0</ele><time>2026-03-28T09:51:53.069Z</time></trkpt><trkpt lat="43.8349533" lon="10.6134583"><ele>11.0</ele><time>2026-03-28T09:51:54.069Z</time></trkpt><trkpt lat="43.8349183" lon="10.61359"><ele>11.0</ele><time>2026-03-28T09:51:55.069Z</time></trkpt><trkpt lat="43.8348867" lon="10.6137217"><ele>11.0</ele><time>2026-03-28T09:51:56.068Z</time></trkpt><trkpt lat="43.83485" lon="10.613865"><ele>11.0</ele><time>2026-03-28T09:51:57.069Z</time></trkpt><trkpt lat="43.8348133" lon="10.6140133"><ele>11.0</ele><time>2026-03-28T09:51:58.068Z</time></trkpt><trkpt lat="43.8347783" lon="10.614155"><ele>11.0</ele><time>2026-03-28T09:51:59.068Z</time></trkpt><trkpt lat="43.834745" lon="10.6143"><ele>11.0</ele><time>2026-03-28T09:52:00.07Z</time></trkpt><trkpt lat="43.8347083" lon="10.61445"><ele>11.0</ele><time>2026-03-28T09:52:01.07Z</time></trkpt><trkpt lat="43.8346683" lon="10.6146083"><ele>11.0</ele><time>2026-03-28T09:52:02.07Z</time></trkpt><trkpt lat="43.8346283" lon="10.6147617"><ele>11.0</ele><time>2026-03-28T09:52:03.07Z</time></trkpt><trkpt lat="43.8345867" lon="10.614905"><ele>11.0</ele><time>2026-03-28T09:52:04.07Z</time></trkpt><trkpt lat="43.8345517" lon="10.6150283"><ele>11.0</ele><time>2026-03-28T09:52:05.069Z</time></trkpt><trkpt lat="43.8345233" lon="10.615135"><ele>11.0</ele><time>2026-03-28T09:52:06.069Z</time></trkpt><trkpt lat="43.8344883" lon="10.615285"><ele>11.0</ele><time>2026-03-28T09:52:08.07Z</time></trkpt><trkpt lat="43.8344533" lon="10.6153733"><ele>11.0</ele><time>2026-03-28T09:52:10.07Z</time></trkpt><trkpt lat="43.834415" lon="10.6154517"><ele>11.0</ele><time>2026-03-28T09:52:13.07Z</time></trkpt><trkpt lat="43.8343483" lon="10.6155433"><ele>11.0</ele><time>2026-03-28T09:52:15.07Z</time></trkpt><trkpt lat="43.834295" lon="10.6156117"><ele>11.0</ele><time>2026-03-28T09:52:16.07Z</time></trkpt><trkpt lat="43.8342517" lon="10.6157"><ele>10.8</ele><time>2026-03-28T09:52:17.07Z</time></trkpt><trkpt lat="43.8342183" lon="10.6158017"><ele>10.600000000000001</ele><time>2026-03-28T09:52:18.069Z</time></trkpt><trkpt lat="43.8342017" lon="10.6159267"><ele>10.4</ele><time>2026-03-28T09:52:19.07Z</time></trkpt><trkpt lat="43.8342017" lon="10.61607"><ele>10.2</ele><time>2026-03-28T09:52:20.069Z</time></trkpt><trkpt lat="43.8341983" lon="10.616235"><ele>10.0</ele><time>2026-03-28T09:52:21.07Z</time></trkpt><trkpt lat="43.8341917" lon="10.6163933"><ele>9.8</ele><time>2026-03-28T09:52:22.07Z</time></trkpt><trkpt lat="43.8341683" lon="10.616545"><ele>9.6</ele><time>2026-03-28T09:52:23.07Z</time></trkpt><trkpt lat="43.83414" lon="10.6166967"><ele>9.4</ele><time>2026-03-28T09:52:24.069Z</time></trkpt><trkpt lat="43.8341083" lon="10.6168433"><ele>9.2</ele><time>2026-03-28T09:52:25.069Z</time></trkpt><trkpt lat="43.8340717" lon="10.61699"><ele>9.0</ele><time>2026-03-28T09:52:26.07Z</time></trkpt><trkpt lat="43.834035" lon="10.6171383"><ele>9.5</ele><time>2026-03-28T09:52:27.07Z</time></trkpt><trkpt lat="43.834" lon="10.6172883"><ele>10.0</ele><time>2026-03-28T09:52:28.07Z</time></trkpt><trkpt lat="43.8339567" lon="10.617445"><ele>10.5</ele><time>2026-03-28T09:52:29.07Z</time></trkpt><trkpt lat="43.83391" lon="10.6176067"><ele>11.0</ele><time>2026-03-28T09:52:30.069Z</time></trkpt><trkpt lat="43.8338733" lon="10.617755"><ele>11.25</ele><time>2026-03-28T09:52:31.07Z</time></trkpt><trkpt lat="43.8338283" lon="10.61791"><ele>11.5</ele><time>2026-03-28T09:52:32.07Z</time></trkpt><trkpt lat="43.8337883" lon="10.6180717"><ele>11.75</ele><time>2026-03-28T09:52:33.069Z</time></trkpt><trkpt lat="43.83375" lon="10.6182283"><ele>12.0</ele><time>2026-03-28T09:52:34.069Z</time></trkpt><trkpt lat="43.833705" lon="10.6183733"><ele>12.0</ele><time>2026-03-28T09:52:35.07Z</time></trkpt><trkpt lat="43.833665" lon="10.6185167"><ele>12.0</ele><time>2026-03-28T09:52:36.07Z</time></trkpt><trkpt lat="43.833625" lon="10.6186667"><ele>12.0</ele><time>2026-03-28T09:52:37.069Z</time></trkpt><trkpt lat="43.8335867" lon="10.618825"><ele>12.0</ele><time>2026-03-28T09:52:38.07Z</time></trkpt><trkpt lat="43.8335517" lon="10.61898"><ele>12.0</ele><time>2026-03-28T09:52:39.069Z</time></trkpt><trkpt lat="43.8335217" lon="10.6191333"><ele>12.0</ele><time>2026-03-28T09:52:40.07Z</time></trkpt><trkpt lat="43.8334883" lon="10.61928"><ele>12.0</ele><time>2026-03-28T09:52:41.07Z</time></trkpt><trkpt lat="43.8334517" lon="10.6194167"><ele>12.0</ele><time>2026-03-28T09:52:42.07Z</time></trkpt><trkpt lat="43.8334183" lon="10.6195433"><ele>12.0</ele><time>2026-03-28T09:52:43.07Z</time></trkpt><trkpt lat="43.8333833" lon="10.6196517"><ele>11.666666666666666</ele><time>2026-03-28T09:52:44.07Z</time></trkpt><trkpt lat="43.8333483" lon="10.6197483"><ele>11.333333333333334</ele><time>2026-03-28T09:52:45.069Z</time></trkpt><trkpt lat="43.8333117" lon="10.6198367"><ele>11.0</ele><time>2026-03-28T09:52:46.07Z</time></trkpt><trkpt lat="43.83327" lon="10.61993"><ele>10.666666666666668</ele><time>2026-03-28T09:52:47.069Z</time></trkpt><trkpt lat="43.8332383" lon="10.6200233"><ele>10.333333333333334</ele><time>2026-03-28T09:52:48.07Z</time></trkpt><trkpt lat="43.8332167" lon="10.6201283"><ele>10.0</ele><time>2026-03-28T09:52:49.07Z</time></trkpt><trkpt lat="43.8331983" lon="10.6202483"><ele>10.4</ele><time>2026-03-28T09:52:50.07Z</time></trkpt><trkpt lat="43.833185" lon="10.6203767"><ele>10.8</ele><time>2026-03-28T09:52:51.07Z</time></trkpt><trkpt lat="43.8331633" lon="10.6205217"><ele>11.2</ele><time>2026-03-28T09:52:52.07Z</time></trkpt><trkpt lat="43.8331317" lon="10.6206717"><ele>11.6</ele><time>2026-03-28T09:52:53.07Z</time></trkpt><trkpt lat="43.8331" lon="10.6208183"><ele>12.0</ele><time>2026-03-28T09:52:54.07Z</time></trkpt><trkpt lat="43.833065" lon="10.6209617"><ele>12.0</ele><time>2026-03-28T09:52:55.07Z</time></trkpt><trkpt lat="43.8330267" lon="10.621115"><ele>12.0</ele><time>2026-03-28T09:52:56.07Z</time></trkpt><trkpt lat="43.8329917" lon="10.6212733"><ele>12.0</ele><time>2026-03-28T09:52:57.069Z</time></trkpt><trkpt lat="43.8329567" lon="10.6214267"><ele>12.0</ele><time>2026-03-28T09:52:58.07Z</time></trkpt><trkpt lat="43.8329117" lon="10.621595"><ele>11.75</ele><time>2026-03-28T09:52:59.07Z</time></trkpt><trkpt lat="43.8328633" lon="10.6217717"><ele>11.5</ele><time>2026-03-28T09:53:00.069Z</time></trkpt><trkpt lat="43.83281" lon="10.6219633"><ele>11.25</ele><time>2026-03-28T09:53:01.069Z</time></trkpt><trkpt lat="43.8327583" lon="10.6221633"><ele>11.0</ele><time>2026-03-28T09:53:02.07Z</time></trkpt><trkpt lat="43.8327083" lon="10.6223617"><ele>11.0</ele><time>2026-03-28T09:53:03.069Z</time></trkpt><trkpt lat="43.8326567" lon="10.6225533"><ele>11.0</ele><time>2026-03-28T09:53:04.07Z</time></trkpt><trkpt lat="43.8326117" lon="10.6227383"><ele>11.0</ele><time>2026-03-28T09:53:05.07Z</time></trkpt><trkpt lat="43.8325667" lon="10.622935"><ele>11.0</ele><time>2026-03-28T09:53:06.07Z</time></trkpt><trkpt lat="43.8325233" lon="10.6231283"><ele>11.25</ele><time>2026-03-28T09:53:07.07Z</time></trkpt><trkpt lat="43.832475" lon="10.623315"><ele>11.5</ele><time>2026-03-28T09:53:08.069Z</time></trkpt><trkpt lat="43.8324217" lon="10.62351"><ele>11.75</ele><time>2026-03-28T09:53:09.069Z</time></trkpt><trkpt lat="43.83238" lon="10.62371"><ele>12.0</ele><time>2026-03-28T09:53:10.069Z</time></trkpt><trkpt lat="43.8323283" lon="10.6239083"><ele>12.0</ele><time>2026-03-28T09:53:11.07Z</time></trkpt><trkpt lat="43.8322767" lon="10.6241033"><ele>12.0</ele><time>2026-03-28T09:53:12.07Z</time></trkpt><trkpt lat="43.832225" lon="10.6243017"><ele>12.0</ele><time>2026-03-28T09:53:13.07Z</time></trkpt><trkpt lat="43.8321733" lon="10.6245017"><ele>12.0</ele><time>2026-03-28T09:53:14.07Z</time></trkpt><trkpt lat="43.832125" lon="10.624695"><ele>12.0</ele><time>2026-03-28T09:53:15.07Z</time></trkpt><trkpt lat="43.8320717" lon="10.6248983"><ele>12.0</ele><time>2026-03-28T09:53:16.07Z</time></trkpt><trkpt lat="43.832015" lon="10.6251117"><ele>11.666666666666666</ele><time>2026-03-28T09:53:17.069Z</time></trkpt><trkpt lat="43.83196" lon="10.625325"><ele>11.333333333333332</ele><time>2026-03-28T09:53:18.069Z</time></trkpt><trkpt lat="43.83191" lon="10.6255383"><ele>11.0</ele><time>2026-03-28T09:53:19.069Z</time></trkpt><trkpt lat="43.83186" lon="10.6257567"><ele>11.0</ele><time>2026-03-28T09:53:20.069Z</time></trkpt><trkpt lat="43.8318067" lon="10.6259733"><ele>11.0</ele><time>2026-03-28T09:53:21.07Z</time></trkpt><trkpt lat="43.8317517" lon="10.6261933"><ele>11.0</ele><time>2026-03-28T09:53:22.07Z</time></trkpt><trkpt lat="43.8316983" lon="10.6264133"><ele>11.0</ele><time>2026-03-28T09:53:23.07Z</time></trkpt><trkpt lat="43.83164" lon="10.6266417"><ele>11.0</ele><time>2026-03-28T09:53:24.07Z</time></trkpt><trkpt lat="43.831585" lon="10.6268633"><ele>11.0</ele><time>2026-03-28T09:53:25.069Z</time></trkpt><trkpt lat="43.8315317" lon="10.6270783"><ele>11.25</ele><time>2026-03-28T09:53:26.07Z</time></trkpt><trkpt lat="43.83148" lon="10.6272733"><ele>11.5</ele><time>2026-03-28T09:53:27.069Z</time></trkpt><trkpt lat="43.83143" lon="10.6274667"><ele>11.75</ele><time>2026-03-28T09:53:28.07Z</time></trkpt><trkpt lat="43.831375" lon="10.6276567"><ele>12.0</ele><time>2026-03-28T09:53:29.069Z</time></trkpt><trkpt lat="43.831325" lon="10.6278517"><ele>12.0</ele><time>2026-03-28T09:53:30.069Z</time></trkpt><trkpt lat="43.831275" lon="10.62805"><ele>12.0</ele><time>2026-03-28T09:53:31.07Z</time></trkpt><trkpt lat="43.831225" lon="10.628245"><ele>12.0</ele><time>2026-03-28T09:53:32.07Z</time></trkpt><trkpt lat="43.8311717" lon="10.6284367"><ele>12.0</ele><time>2026-03-28T09:53:33.07Z</time></trkpt><trkpt lat="43.8311233" lon="10.628625"><ele>12.0</ele><time>2026-03-28T09:53:34.07Z</time></trkpt><trkpt lat="43.8310783" lon="10.6288117"><ele>12.0</ele><time>2026-03-28T09:53:35.07Z</time></trkpt><trkpt lat="43.831035" lon="10.6290067"><ele>12.0</ele><time>2026-03-28T09:53:36.07Z</time></trkpt><trkpt lat="43.83099" lon="10.6291983"><ele>12.0</ele><time>2026-03-28T09:53:37.07Z</time></trkpt><trkpt lat="43.83095" lon="10.6293883"><ele>11.75</ele><time>2026-03-28T09:53:38.07Z</time></trkpt><trkpt lat="43.8309033" lon="10.6295833"><ele>11.5</ele><time>2026-03-28T09:53:39.069Z</time></trkpt><trkpt lat="43.83086" lon="10.6297817"><ele>11.25</ele><time>2026-03-28T09:53:40.07Z</time></trkpt><trkpt lat="43.8308217" lon="10.6299817"><ele>11.0</ele><time>2026-03-28T09:53:41.07Z</time></trkpt><trkpt lat="43.830785" lon="10.6301917"><ele>11.333333333333332</ele><time>2026-03-28T09:53:42.07Z</time></trkpt><trkpt lat="43.8307417" lon="10.630405"><ele>11.666666666666666</ele><time>2026-03-28T09:53:43.07Z</time></trkpt><trkpt lat="43.8307067" lon="10.630615"><ele>12.0</ele><time>2026-03-28T09:53:44.07Z</time></trkpt><trkpt lat="43.83067" lon="10.6308183"><ele>12.0</ele><time>2026-03-28T09:53:45.07Z</time></trkpt><trkpt lat="43.8306333" lon="10.6310317"><ele>12.0</ele><time>2026-03-28T09:53:46.07Z</time></trkpt><trkpt lat="43.8305983" lon="10.631245"><ele>12.0</ele><time>2026-03-28T09:53:47.07Z</time></trkpt><trkpt lat="43.8305667" lon="10.6314517"><ele>12.0</ele><time>2026-03-28T09:53:48.07Z</time></trkpt><trkpt lat="43.8305317" lon="10.63167"><ele>12.0</ele><time>2026-03-28T09:53:49.07Z</time></trkpt><trkpt lat="43.8305" lon="10.6318833"><ele>12.0</ele><time>2026-03-28T09:53:50.07Z</time></trkpt><trkpt lat="43.830465" lon="10.6321"><ele>12.666666666666668</ele><time>2026-03-28T09:53:51.07Z</time></trkpt><trkpt lat="43.8304283" lon="10.632315"><ele>13.333333333333334</ele><time>2026-03-28T09:53:52.069Z</time></trkpt><trkpt lat="43.8303983" lon="10.6325333"><ele>14.0</ele><time>2026-03-28T09:53:53.07Z</time></trkpt><trkpt lat="43.83037" lon="10.6327533"><ele>14.0</ele><time>2026-03-28T09:53:54.069Z</time></trkpt><trkpt lat="43.83034" lon="10.63297"><ele>14.0</ele><time>2026-03-28T09:53:55.069Z</time></trkpt><trkpt lat="43.83031" lon="10.6331917"><ele>14.0</ele><time>2026-03-28T09:53:56.07Z</time></trkpt><trkpt lat="43.8302817" lon="10.6333917"><ele>14.0</ele><time>2026-03-28T09:53:57.069Z</time></trkpt><trkpt lat="43.8302533" lon="10.6335983"><ele>14.0</ele><time>2026-03-28T09:53:58.07Z</time></trkpt><trkpt lat="43.830225" lon="10.633795"><ele>14.0</ele><time>2026-03-28T09:53:59.069Z</time></trkpt><trkpt lat="43.8302033" lon="10.6339833"><ele>14.0</ele><time>2026-03-28T09:54:00.069Z</time></trkpt><trkpt lat="43.830185" lon="10.6341567"><ele>14.0</ele><time>2026-03-28T09:54:01.07Z</time></trkpt><trkpt lat="43.8301633" lon="10.6343167"><ele>13.999999999999998</ele><time>2026-03-28T09:54:02.07Z</time></trkpt><trkpt lat="43.83014" lon="10.634465"><ele>13.999999999999998</ele><time>2026-03-28T09:54:03.07Z</time></trkpt><trkpt lat="43.8301217" lon="10.634595"><ele>14.0</ele><time>2026-03-28T09:54:04.07Z</time></trkpt><trkpt lat="43.8301117" lon="10.63472"><ele>14.0</ele><time>2026-03-28T09:54:05.07Z</time></trkpt><trkpt lat="43.83011" lon="10.63483"><ele>13.666666666666668</ele><time>2026-03-28T09:54:06.07Z</time></trkpt><trkpt lat="43.8301167" lon="10.63492"><ele>13.333333333333334</ele><time>2026-03-28T09:54:07.069Z</time></trkpt><trkpt lat="43.8301533" lon="10.6350283"><ele>13.0</ele><time>2026-03-28T09:54:09.07Z</time></trkpt><trkpt lat="43.83022" lon="10.635"><ele>12.666666666666668</ele><time>2026-03-28T09:54:12.069Z</time></trkpt><trkpt lat="43.8302383" lon="10.6349"><ele>12.333333333333334</ele><time>2026-03-28T09:54:15.07Z</time></trkpt><trkpt lat="43.8302517" lon="10.6347833"><ele>12.0</ele><time>2026-03-28T09:54:29.07Z</time></trkpt><trkpt lat="43.83021" lon="10.634675"><ele>11.4</ele><time>2026-03-28T09:54:31.069Z</time></trkpt><trkpt lat="43.8301383" lon="10.6346533"><ele>10.799999999999999</ele><time>2026-03-28T09:54:37.07Z</time></trkpt><trkpt lat="43.8300767" lon="10.6348083"><ele>10.2</ele><time>2026-03-28T09:54:39.07Z</time></trkpt><trkpt lat="43.830055" lon="10.6349433"><ele>9.6</ele><time>2026-03-28T09:54:40.069Z</time></trkpt><trkpt lat="43.8300317" lon="10.635105"><ele>9.0</ele><time>2026-03-28T09:54:41.069Z</time></trkpt><trkpt lat="43.830005" lon="10.6352967"><ele>9.666666666666666</ele><time>2026-03-28T09:54:42.07Z</time></trkpt><trkpt lat="43.82997" lon="10.63552"><ele>10.333333333333332</ele><time>2026-03-28T09:54:43.07Z</time></trkpt><trkpt lat="43.8299333" lon="10.6357517"><ele>11.0</ele><time>2026-03-28T09:54:44.069Z</time></trkpt><trkpt lat="43.82991" lon="10.6359617"><ele>11.5</ele><time>2026-03-28T09:54:45.069Z</time></trkpt><trkpt lat="43.8298767" lon="10.63616"><ele>12.0</ele><time>2026-03-28T09:54:46.07Z</time></trkpt><trkpt lat="43.8298433" lon="10.6363567"><ele>12.5</ele><time>2026-03-28T09:54:47.069Z</time></trkpt><trkpt lat="43.8298067" lon="10.6365567"><ele>13.0</ele><time>2026-03-28T09:54:48.07Z</time></trkpt><trkpt lat="43.829775" lon="10.6367517"><ele>13.0</ele><time>2026-03-28T09:54:49.07Z</time></trkpt><trkpt lat="43.8297483" lon="10.6369417"><ele>13.0</ele><time>2026-03-28T09:54:50.069Z</time></trkpt><trkpt lat="43.8297167" lon="10.637135"><ele>13.0</ele><time>2026-03-28T09:54:51.069Z</time></trkpt><trkpt lat="43.8296867" lon="10.6373333"><ele>13.0</ele><time>2026-03-28T09:54:52.07Z</time></trkpt><trkpt lat="43.829655" lon="10.63753"><ele>13.25</ele><time>2026-03-28T09:54:53.07Z</time></trkpt><trkpt lat="43.829625" lon="10.6377267"><ele>13.5</ele><time>2026-03-28T09:54:54.069Z</time></trkpt><trkpt lat="43.829595" lon="10.6379233"><ele>13.75</ele><time>2026-03-28T09:54:55.069Z</time></trkpt><trkpt lat="43.8295667" lon="10.6381167"><ele>14.0</ele><time>2026-03-28T09:54:56.07Z</time></trkpt><trkpt lat="43.8295383" lon="10.6383083"><ele>14.25</ele><time>2026-03-28T09:54:57.069Z</time></trkpt><trkpt lat="43.8295117" lon="10.638505"><ele>14.5</ele><time>2026-03-28T09:54:58.07Z</time></trkpt><trkpt lat="43.8294817" lon="10.6386983"><ele>14.75</ele><time>2026-03-28T09:54:59.069Z</time></trkpt><trkpt lat="43.8294467" lon="10.6389067"><ele>15.0</ele><time>2026-03-28T09:55:00.07Z</time></trkpt><trkpt lat="43.829415" lon="10.6391067"><ele>15.25</ele><time>2026-03-28T09:55:01.07Z</time></trkpt><trkpt lat="43.829385" lon="10.639305"><ele>15.5</ele><time>2026-03-28T09:55:02.069Z</time></trkpt><trkpt lat="43.8293567" lon="10.6394983"><ele>15.75</ele><time>2026-03-28T09:55:03.07Z</time></trkpt><trkpt lat="43.8293267" lon="10.639695"><ele>16.0</ele><time>2026-03-28T09:55:04.07Z</time></trkpt><trkpt lat="43.829295" lon="10.6398917"><ele>16.0</ele><time>2026-03-28T09:55:05.07Z</time></trkpt><trkpt lat="43.8292683" lon="10.64009"><ele>16.0</ele><time>2026-03-28T09:55:06.07Z</time></trkpt><trkpt lat="43.8292383" lon="10.64028"><ele>16.0</ele><time>2026-03-28T09:55:07.069Z</time></trkpt><trkpt lat="43.829205" lon="10.6404783"><ele>16.0</ele><time>2026-03-28T09:55:08.069Z</time></trkpt><trkpt lat="43.829175" lon="10.6406767"><ele>16.5</ele><time>2026-03-28T09:55:09.07Z</time></trkpt><trkpt lat="43.8291433" lon="10.6408767"><ele>17.0</ele><time>2026-03-28T09:55:10.069Z</time></trkpt><trkpt lat="43.8291183" lon="10.641075"><ele>17.5</ele><time>2026-03-28T09:55:11.069Z</time></trkpt><trkpt lat="43.82909" lon="10.6412767"><ele>18.0</ele><time>2026-03-28T09:55:12.07Z</time></trkpt><trkpt lat="43.8290583" lon="10.6414783"><ele>18.25</ele><time>2026-03-28T09:55:13.069Z</time></trkpt><trkpt lat="43.8290333" lon="10.6416767"><ele>18.5</ele><time>2026-03-28T09:55:14.07Z</time></trkpt><trkpt lat="43.829" lon="10.64187"><ele>18.75</ele><time>2026-03-28T09:55:15.07Z</time></trkpt><trkpt lat="43.8289717" lon="10.6420583"><ele>19.0</ele><time>2026-03-28T09:55:16.07Z</time></trkpt><trkpt lat="43.8289433" lon="10.64224"><ele>19.0</ele><time>2026-03-28T09:55:17.07Z</time></trkpt><trkpt lat="43.8289183" lon="10.642415"><ele>19.0</ele><time>2026-03-28T09:55:18.07Z</time></trkpt><trkpt lat="43.8288967" lon="10.642585"><ele>19.0</ele><time>2026-03-28T09:55:19.07Z</time></trkpt><trkpt lat="43.8288683" lon="10.6427617"><ele>19.0</ele><time>2026-03-28T09:55:20.07Z</time></trkpt><trkpt lat="43.8288383" lon="10.6429233"><ele>19.75</ele><time>2026-03-28T09:55:21.07Z</time></trkpt><trkpt lat="43.8288083" lon="10.643095"><ele>20.5</ele><time>2026-03-28T09:55:22.07Z</time></trkpt><trkpt lat="43.82878" lon="10.643265"><ele>21.25</ele><time>2026-03-28T09:55:23.07Z</time></trkpt><trkpt lat="43.828755" lon="10.6434367"><ele>22.0</ele><time>2026-03-28T09:55:24.069Z</time></trkpt><trkpt lat="43.82873" lon="10.643605"><ele>22.0</ele><time>2026-03-28T09:55:25.069Z</time></trkpt><trkpt lat="43.8287083" lon="10.6437767"><ele>22.0</ele><time>2026-03-28T09:55:26.069Z</time></trkpt><trkpt lat="43.828685" lon="10.6439483"><ele>22.0</ele><time>2026-03-28T09:55:27.069Z</time></trkpt><trkpt lat="43.8286617" lon="10.6441233"><ele>22.0</ele><time>2026-03-28T09:55:28.07Z</time></trkpt><trkpt lat="43.8286367" lon="10.6442983"><ele>22.5</ele><time>2026-03-28T09:55:29.069Z</time></trkpt><trkpt lat="43.828615" lon="10.6444683"><ele>23.0</ele><time>2026-03-28T09:55:30.07Z</time></trkpt><trkpt lat="43.82859" lon="10.6446383"><ele>23.5</ele><time>2026-03-28T09:55:31.07Z</time></trkpt><trkpt lat="43.8285683" lon="10.64482"><ele>24.0</ele><time>2026-03-28T09:55:32.07Z</time></trkpt><trkpt lat="43.8285383" lon="10.6449967"><ele>24.0</ele><time>2026-03-28T09:55:33.07Z</time></trkpt><trkpt lat="43.8285167" lon="10.645175"><ele>24.0</ele><time>2026-03-28T09:55:34.07Z</time></trkpt><trkpt lat="43.828495" lon="10.6453517"><ele>24.0</ele><time>2026-03-28T09:55:35.07Z</time></trkpt><trkpt lat="43.828465" lon="10.645535"><ele>24.0</ele><time>2026-03-28T09:55:36.07Z</time></trkpt><trkpt lat="43.82844" lon="10.6457233"><ele>25.0</ele><time>2026-03-28T09:55:37.069Z</time></trkpt><trkpt lat="43.8284133" lon="10.6459083"><ele>26.0</ele><time>2026-03-28T09:55:38.07Z</time></trkpt><trkpt lat="43.828385" lon="10.6460833"><ele>27.0</ele><time>2026-03-28T09:55:39.07Z</time></trkpt><trkpt lat="43.828365" lon="10.6462483"><ele>28.0</ele><time>2026-03-28T09:55:40.07Z</time></trkpt><trkpt lat="43.8283383" lon="10.646415"><ele>28.0</ele><time>2026-03-28T09:55:41.07Z</time></trkpt><trkpt lat="43.8283133" lon="10.6465767"><ele>28.0</ele><time>2026-03-28T09:55:42.069Z</time></trkpt><trkpt lat="43.8282883" lon="10.646735"><ele>28.0</ele><time>2026-03-28T09:55:43.07Z</time></trkpt><trkpt lat="43.82827" lon="10.6468917"><ele>28.0</ele><time>2026-03-28T09:55:44.069Z</time></trkpt><trkpt lat="43.8282533" lon="10.6470483"><ele>28.25</ele><time>2026-03-28T09:55:45.07Z</time></trkpt><trkpt lat="43.8282433" lon="10.6472133"><ele>28.5</ele><time>2026-03-28T09:55:46.069Z</time></trkpt><trkpt lat="43.8282267" lon="10.6473767"><ele>28.75</ele><time>2026-03-28T09:55:47.07Z</time></trkpt><trkpt lat="43.8282033" lon="10.6475467"><ele>29.0</ele><time>2026-03-28T09:55:48.069Z</time></trkpt><trkpt lat="43.8281717" lon="10.6477183"><ele>29.0</ele><time>2026-03-28T09:55:49.07Z</time></trkpt><trkpt lat="43.828145" lon="10.64789"><ele>29.0</ele><time>2026-03-28T09:55:50.069Z</time></trkpt><trkpt lat="43.82812" lon="10.6480683"><ele>29.0</ele><time>2026-03-28T09:55:51.07Z</time></trkpt><trkpt lat="43.8280933" lon="10.648245"><ele>29.0</ele><time>2026-03-28T09:55:52.07Z</time></trkpt><trkpt lat="43.8280633" lon="10.648425"><ele>29.0</ele><time>2026-03-28T09:55:53.069Z</time></trkpt><trkpt lat="43.828035" lon="10.648605"><ele>29.0</ele><time>2026-03-28T09:55:54.07Z</time></trkpt><trkpt lat="43.828" lon="10.6487867"><ele>29.0</ele><time>2026-03-28T09:55:55.07Z</time></trkpt><trkpt lat="43.8279717" lon="10.6489717"><ele>29.0</ele><time>2026-03-28T09:55:56.07Z</time></trkpt><trkpt lat="43.8279383" lon="10.6491533"><ele>29.25</ele><time>2026-03-28T09:55:57.069Z</time></trkpt><trkpt lat="43.8279033" lon="10.649325"><ele>29.5</ele><time>2026-03-28T09:55:58.069Z</time></trkpt><trkpt lat="43.8278683" lon="10.6494967"><ele>29.75</ele><time>2026-03-28T09:55:59.07Z</time></trkpt><trkpt lat="43.8278217" lon="10.6496533"><ele>30.0</ele><time>2026-03-28T09:56:00.069Z</time></trkpt><trkpt lat="43.82777" lon="10.6498017"><ele>30.0</ele><time>2026-03-28T09:56:01.07Z</time></trkpt><trkpt lat="43.82771" lon="10.6499417"><ele>30.0</ele><time>2026-03-28T09:56:02.069Z</time></trkpt><trkpt lat="43.827645" lon="10.6500583"><ele>30.0</ele><time>2026-03-28T09:56:03.07Z</time></trkpt><trkpt lat="43.8275783" lon="10.6501517"><ele>30.0</ele><time>2026-03-28T09:56:04.069Z</time></trkpt><trkpt lat="43.8275083" lon="10.65023"><ele>30.0</ele><time>2026-03-28T09:56:05.069Z</time></trkpt><trkpt lat="43.8274417" lon="10.6502867"><ele>30.166666666666668</ele><time>2026-03-28T09:56:06.07Z</time></trkpt><trkpt lat="43.8273667" lon="10.650335"><ele>30.333333333333336</ele><time>2026-03-28T09:56:07.069Z</time></trkpt><trkpt lat="43.8272967" lon="10.65039"><ele>30.5</ele><time>2026-03-28T09:56:08.069Z</time></trkpt><trkpt lat="43.8272483" lon="10.65046"><ele>30.666666666666668</ele><time>2026-03-28T09:56:09.07Z</time></trkpt><trkpt lat="43.8272217" lon="10.65055"><ele>30.833333333333336</ele><time>2026-03-28T09:56:10.07Z</time></trkpt><trkpt lat="43.8272217" lon="10.650655"><ele>31.0</ele><time>2026-03-28T09:56:11.07Z</time></trkpt><trkpt lat="43.8272333" lon="10.6507783"><ele>31.0</ele><time>2026-03-28T09:56:12.07Z</time></trkpt><trkpt lat="43.8272217" lon="10.6509017"><ele>31.0</ele><time>2026-03-28T09:56:13.07Z</time></trkpt><trkpt lat="43.82719" lon="10.65103"><ele>31.0</ele><time>2026-03-28T09:56:14.069Z</time></trkpt><trkpt lat="43.8271367" lon="10.65117"><ele>31.0</ele><time>2026-03-28T09:56:15.07Z</time></trkpt><trkpt lat="43.82707" lon="10.651325"><ele>31.0</ele><time>2026-03-28T09:56:16.07Z</time></trkpt><trkpt lat="43.8270083" lon="10.6514717"><ele>31.25</ele><time>2026-03-28T09:56:17.07Z</time></trkpt><trkpt lat="43.826935" lon="10.65162"><ele>31.5</ele><time>2026-03-28T09:56:18.07Z</time></trkpt><trkpt lat="43.8268583" lon="10.6517817"><ele>31.75</ele><time>2026-03-28T09:56:19.07Z</time></trkpt><trkpt lat="43.8267733" lon="10.65195"><ele>32.0</ele><time>2026-03-28T09:56:20.07Z</time></trkpt><trkpt lat="43.8266917" lon="10.6521133"><ele>31.0</ele><time>2026-03-28T09:56:21.07Z</time></trkpt><trkpt lat="43.82661" lon="10.652285"><ele>30.0</ele><time>2026-03-28T09:56:22.07Z</time></trkpt><trkpt lat="43.8265283" lon="10.6524667"><ele>29.0</ele><time>2026-03-28T09:56:23.069Z</time></trkpt><trkpt lat="43.82644" lon="10.6526517"><ele>29.0</ele><time>2026-03-28T09:56:24.069Z</time></trkpt><trkpt lat="43.8263533" lon="10.65283"><ele>29.0</ele><time>2026-03-28T09:56:25.07Z</time></trkpt><trkpt lat="43.8262633" lon="10.6530133"><ele>29.0</ele><time>2026-03-28T09:56:26.07Z</time></trkpt><trkpt lat="43.82617" lon="10.6532"><ele>29.0</ele><time>2026-03-28T09:56:27.07Z</time></trkpt><trkpt lat="43.8260833" lon="10.6533817"><ele>29.0</ele><time>2026-03-28T09:56:28.07Z</time></trkpt><trkpt lat="43.8259917" lon="10.653565"><ele>29.0</ele><time>2026-03-28T09:56:29.07Z</time></trkpt><trkpt lat="43.825895" lon="10.6537533"><ele>28.666666666666664</ele><time>2026-03-28T09:56:30.07Z</time></trkpt><trkpt lat="43.8257983" lon="10.6539417"><ele>28.333333333333336</ele><time>2026-03-28T09:56:31.07Z</time></trkpt><trkpt lat="43.8257017" lon="10.6541217"><ele>28.0</ele><time>2026-03-28T09:56:32.07Z</time></trkpt><trkpt lat="43.8256083" lon="10.6543033"><ele>28.666666666666668</ele><time>2026-03-28T09:56:33.07Z</time></trkpt><trkpt lat="43.8255117" lon="10.654485"><ele>29.333333333333336</ele><time>2026-03-28T09:56:34.069Z</time></trkpt><trkpt lat="43.82541" lon="10.65466"><ele>30.0</ele><time>2026-03-28T09:56:35.07Z</time></trkpt><trkpt lat="43.8253033" lon="10.6548383"><ele>30.0</ele><time>2026-03-28T09:56:36.07Z</time></trkpt><trkpt lat="43.8251983" lon="10.65501"><ele>30.0</ele><time>2026-03-28T09:56:37.07Z</time></trkpt><trkpt lat="43.8250883" lon="10.6551833"><ele>30.0</ele><time>2026-03-28T09:56:38.07Z</time></trkpt><trkpt lat="43.82498" lon="10.6553583"><ele>29.333333333333336</ele><time>2026-03-28T09:56:39.069Z</time></trkpt><trkpt lat="43.8248667" lon="10.655535"><ele>28.666666666666668</ele><time>2026-03-28T09:56:40.069Z</time></trkpt><trkpt lat="43.8247583" lon="10.6557117"><ele>28.0</ele><time>2026-03-28T09:56:41.069Z</time></trkpt><trkpt lat="43.8246517" lon="10.655885"><ele>28.0</ele><time>2026-03-28T09:56:42.07Z</time></trkpt><trkpt lat="43.8245433" lon="10.6560583"><ele>28.0</ele><time>2026-03-28T09:56:43.069Z</time></trkpt><trkpt lat="43.824435" lon="10.6562333"><ele>28.0</ele><time>2026-03-28T09:56:44.07Z</time></trkpt><trkpt lat="43.8243267" lon="10.6564017"><ele>28.0</ele><time>2026-03-28T09:56:45.07Z</time></trkpt><trkpt lat="43.824215" lon="10.6565667"><ele>28.0</ele><time>2026-03-28T09:56:46.069Z</time></trkpt><trkpt lat="43.824115" lon="10.6567317"><ele>28.0</ele><time>2026-03-28T09:56:47.069Z</time></trkpt><trkpt lat="43.8240183" lon="10.6569117"><ele>28.333333333333336</ele><time>2026-03-28T09:56:48.069Z</time></trkpt><trkpt lat="43.8239317" lon="10.6570933"><ele>28.666666666666664</ele><time>2026-03-28T09:56:49.07Z</time></trkpt><trkpt lat="43.823845" lon="10.65728"><ele>29.0</ele><time>2026-03-28T09:56:50.07Z</time></trkpt><trkpt lat="43.8237633" lon="10.6574667"><ele>29.0</ele><time>2026-03-28T09:56:51.07Z</time></trkpt><trkpt lat="43.82368" lon="10.657655"><ele>29.0</ele><time>2026-03-28T09:56:52.07Z</time></trkpt><trkpt lat="43.823605" lon="10.6578433"><ele>29.0</ele><time>2026-03-28T09:56:53.069Z</time></trkpt><trkpt lat="43.8235317" lon="10.6580433"><ele>28.333333333333332</ele><time>2026-03-28T09:56:54.069Z</time></trkpt><trkpt lat="43.8234567" lon="10.658235"><ele>27.666666666666664</ele><time>2026-03-28T09:56:55.07Z</time></trkpt><trkpt lat="43.8233783" lon="10.6584167"><ele>27.0</ele><time>2026-03-28T09:56:56.07Z</time></trkpt><trkpt lat="43.8233083" lon="10.6585917"><ele>26.75</ele><time>2026-03-28T09:56:57.07Z</time></trkpt><trkpt lat="43.8232333" lon="10.6587667"><ele>26.5</ele><time>2026-03-28T09:56:58.07Z</time></trkpt><trkpt lat="43.82316" lon="10.65894"><ele>26.25</ele><time>2026-03-28T09:56:59.07Z</time></trkpt><trkpt lat="43.82309" lon="10.6591217"><ele>26.0</ele><time>2026-03-28T09:57:00.07Z</time></trkpt><trkpt lat="43.8230283" lon="10.6593"><ele>26.25</ele><time>2026-03-28T09:57:01.069Z</time></trkpt><trkpt lat="43.8229617" lon="10.659475"><ele>26.5</ele><time>2026-03-28T09:57:02.069Z</time></trkpt><trkpt lat="43.8228933" lon="10.6596517"><ele>26.75</ele><time>2026-03-28T09:57:03.069Z</time></trkpt><trkpt lat="43.8228233" lon="10.6598333"><ele>27.0</ele><time>2026-03-28T09:57:04.069Z</time></trkpt><trkpt lat="43.8227533" lon="10.660015"><ele>27.0</ele><time>2026-03-28T09:57:05.07Z</time></trkpt><trkpt lat="43.8226883" lon="10.6601917"><ele>27.0</ele><time>2026-03-28T09:57:06.07Z</time></trkpt><trkpt lat="43.82262" lon="10.6603683"><ele>27.0</ele><time>2026-03-28T09:57:07.07Z</time></trkpt><trkpt lat="43.8225433" lon="10.6605433"><ele>27.0</ele><time>2026-03-28T09:57:08.07Z</time></trkpt><trkpt lat="43.8224767" lon="10.6607133"><ele>26.5</ele><time>2026-03-28T09:57:09.069Z</time></trkpt><trkpt lat="43.82241" lon="10.6608783"><ele>26.0</ele><time>2026-03-28T09:57:10.07Z</time></trkpt><trkpt lat="43.82234" lon="10.661045"><ele>25.5</ele><time>2026-03-28T09:57:11.07Z</time></trkpt><trkpt lat="43.8222767" lon="10.6612133"><ele>25.0</ele><time>2026-03-28T09:57:12.07Z</time></trkpt><trkpt lat="43.8222117" lon="10.6613767"><ele>24.75</ele><time>2026-03-28T09:57:13.069Z</time></trkpt><trkpt lat="43.822145" lon="10.6615417"><ele>24.5</ele><time>2026-03-28T09:57:14.069Z</time></trkpt><trkpt lat="43.82208" lon="10.6617033"><ele>24.25</ele><time>2026-03-28T09:57:15.07Z</time></trkpt><trkpt lat="43.8220167" lon="10.6618617"><ele>24.0</ele><time>2026-03-28T09:57:16.07Z</time></trkpt><trkpt lat="43.82195" lon="10.6620267"><ele>24.0</ele><time>2026-03-28T09:57:17.07Z</time></trkpt><trkpt lat="43.8218883" lon="10.6621983"><ele>24.0</ele><time>2026-03-28T09:57:18.069Z</time></trkpt><trkpt lat="43.82182" lon="10.66237"><ele>24.0</ele><time>2026-03-28T09:57:19.069Z</time></trkpt><trkpt lat="43.8217517" lon="10.6625433"><ele>24.0</ele><time>2026-03-28T09:57:20.07Z</time></trkpt><trkpt lat="43.8216767" lon="10.662715"><ele>23.5</ele><time>2026-03-28T09:57:21.07Z</time></trkpt><trkpt lat="43.82161" lon="10.66289"><ele>23.0</ele><time>2026-03-28T09:57:22.07Z</time></trkpt><trkpt lat="43.82154" lon="10.66307"><ele>22.5</ele><time>2026-03-28T09:57:23.07Z</time></trkpt><trkpt lat="43.8214717" lon="10.663245"><ele>22.0</ele><time>2026-03-28T09:57:24.07Z</time></trkpt><trkpt lat="43.8214067" lon="10.6634233"><ele>22.0</ele><time>2026-03-28T09:57:25.069Z</time></trkpt><trkpt lat="43.8213267" lon="10.6636017"><ele>22.0</ele><time>2026-03-28T09:57:26.07Z</time></trkpt><trkpt lat="43.8212517" lon="10.6637817"><ele>22.0</ele><time>2026-03-28T09:57:27.07Z</time></trkpt><trkpt lat="43.8211767" lon="10.6639483"><ele>22.0</ele><time>2026-03-28T09:57:28.07Z</time></trkpt><trkpt lat="43.8210933" lon="10.664115"><ele>22.0</ele><time>2026-03-28T09:57:29.07Z</time></trkpt><trkpt lat="43.8210083" lon="10.664265"><ele>22.0</ele><time>2026-03-28T09:57:30.07Z</time></trkpt><trkpt lat="43.82091" lon="10.66441"><ele>22.0</ele><time>2026-03-28T09:57:31.069Z</time></trkpt><trkpt lat="43.8208067" lon="10.6645517"><ele>22.0</ele><time>2026-03-28T09:57:32.069Z</time></trkpt><trkpt lat="43.8207067" lon="10.66469"><ele>22.25</ele><time>2026-03-28T09:57:33.069Z</time></trkpt><trkpt lat="43.8206083" lon="10.6648233"><ele>22.5</ele><time>2026-03-28T09:57:34.07Z</time></trkpt><trkpt lat="43.820505" lon="10.66495"><ele>22.75</ele><time>2026-03-28T09:57:35.07Z</time></trkpt><trkpt lat="43.820405" lon="10.665085"><ele>23.0</ele><time>2026-03-28T09:57:36.07Z</time></trkpt><trkpt lat="43.82031" lon="10.665225"><ele>23.0</ele><time>2026-03-28T09:57:37.069Z</time></trkpt><trkpt lat="43.8202333" lon="10.6653683"><ele>23.0</ele><time>2026-03-28T09:57:38.07Z</time></trkpt><trkpt lat="43.820165" lon="10.6655033"><ele>23.0</ele><time>2026-03-28T09:57:39.069Z</time></trkpt><trkpt lat="43.8201117" lon="10.665615"><ele>23.0</ele><time>2026-03-28T09:57:40.07Z</time></trkpt><trkpt lat="43.8200717" lon="10.6657083"><ele>23.0</ele><time>2026-03-28T09:57:41.07Z</time></trkpt><trkpt lat="43.8200583" lon="10.6658333"><ele>23.142857142857142</ele><time>2026-03-28T09:57:43.07Z</time></trkpt><trkpt lat="43.820085" lon="10.6659233"><ele>23.285714285714285</ele><time>2026-03-28T09:57:45.069Z</time></trkpt><trkpt lat="43.8200967" lon="10.6660117"><ele>23.428571428571427</ele><time>2026-03-28T09:57:47.07Z</time></trkpt><trkpt lat="43.8200817" lon="10.6659717"><ele>23.57142857142857</ele><time>2026-03-28T10:05:46.067Z</time></trkpt><trkpt lat="43.8201117" lon="10.66589"><ele>23.714285714285715</ele><time>2026-03-28T10:05:49.068Z</time></trkpt><trkpt lat="43.8200767" lon="10.6658067"><ele>23.857142857142854</ele><time>2026-03-28T10:05:52.068Z</time></trkpt><trkpt lat="43.8199867" lon="10.6658017"><ele>24.0</ele><time>2026-03-28T10:06:04.067Z</time></trkpt><trkpt lat="43.819845" lon="10.666045"><ele>24.0</ele><time>2026-03-28T10:06:07.067Z</time></trkpt><trkpt lat="43.81979" lon="10.6661417"><ele>24.0</ele><time>2026-03-28T10:06:08.068Z</time></trkpt><trkpt lat="43.819725" lon="10.6662433"><ele>24.0</ele><time>2026-03-28T10:06:09.068Z</time></trkpt><trkpt lat="43.81965" lon="10.66635"><ele>24.0</ele><time>2026-03-28T10:06:10.067Z</time></trkpt><trkpt lat="43.81958" lon="10.666455"><ele>24.0</ele><time>2026-03-28T10:06:11.067Z</time></trkpt><trkpt lat="43.8195083" lon="10.66657"><ele>24.0</ele><time>2026-03-28T10:06:12.068Z</time></trkpt><trkpt lat="43.819435" lon="10.6666733"><ele>24.0</ele><time>2026-03-28T10:06:13.067Z</time></trkpt><trkpt lat="43.81936" lon="10.6667717"><ele>24.0</ele><time>2026-03-28T10:06:14.068Z</time></trkpt><trkpt lat="43.8192917" lon="10.666875"><ele>24.0</ele><time>2026-03-28T10:06:15.067Z</time></trkpt><trkpt lat="43.81922" lon="10.666975"><ele>24.0</ele><time>2026-03-28T10:06:16.068Z</time></trkpt><trkpt lat="43.8191433" lon="10.6670683"><ele>23.799999999999997</ele><time>2026-03-28T10:06:17.068Z</time></trkpt><trkpt lat="43.8190633" lon="10.667165"><ele>23.599999999999998</ele><time>2026-03-28T10:06:18.068Z</time></trkpt><trkpt lat="43.8189883" lon="10.66727"><ele>23.4</ele><time>2026-03-28T10:06:19.068Z</time></trkpt><trkpt lat="43.8189183" lon="10.6673817"><ele>23.2</ele><time>2026-03-28T10:06:20.068Z</time></trkpt><trkpt lat="43.81885" lon="10.6674917"><ele>23.0</ele><time>2026-03-28T10:06:21.067Z</time></trkpt><trkpt lat="43.818775" lon="10.6675883"><ele>23.0</ele><time>2026-03-28T10:06:22.068Z</time></trkpt><trkpt lat="43.8187" lon="10.6676833"><ele>23.0</ele><time>2026-03-28T10:06:23.068Z</time></trkpt><trkpt lat="43.8186183" lon="10.6677767"><ele>23.0</ele><time>2026-03-28T10:06:24.067Z</time></trkpt><trkpt lat="43.8185367" lon="10.6678767"><ele>23.0</ele><time>2026-03-28T10:06:25.068Z</time></trkpt><trkpt lat="43.81846" lon="10.6679833"><ele>23.0</ele><time>2026-03-28T10:06:26.068Z</time></trkpt><trkpt lat="43.8183833" lon="10.6680883"><ele>22.799999999999997</ele><time>2026-03-28T10:06:27.067Z</time></trkpt><trkpt lat="43.8183067" lon="10.6681867"><ele>22.6</ele><time>2026-03-28T10:06:28.068Z</time></trkpt><trkpt lat="43.81822" lon="10.6682817"><ele>22.4</ele><time>2026-03-28T10:06:29.068Z</time></trkpt><trkpt lat="43.8181417" lon="10.6683883"><ele>22.200000000000003</ele><time>2026-03-28T10:06:30.068Z</time></trkpt><trkpt lat="43.818065" lon="10.6685017"><ele>22.0</ele><time>2026-03-28T10:06:31.068Z</time></trkpt><trkpt lat="43.8179817" lon="10.6686067"><ele>22.0</ele><time>2026-03-28T10:06:32.068Z</time></trkpt><trkpt lat="43.8178983" lon="10.6687183"><ele>22.0</ele><time>2026-03-28T10:06:33.068Z</time></trkpt><trkpt lat="43.8178233" lon="10.6688267"><ele>22.0</ele><time>2026-03-28T10:06:34.067Z</time></trkpt><trkpt lat="43.8177483" lon="10.6689433"><ele>22.0</ele><time>2026-03-28T10:06:35.068Z</time></trkpt><trkpt lat="43.8176833" lon="10.669065"><ele>22.0</ele><time>2026-03-28T10:06:36.068Z</time></trkpt><trkpt lat="43.817615" lon="10.6691917"><ele>21.75</ele><time>2026-03-28T10:06:37.068Z</time></trkpt><trkpt lat="43.817545" lon="10.6693167"><ele>21.5</ele><time>2026-03-28T10:06:38.068Z</time></trkpt><trkpt lat="43.81748" lon="10.669445"><ele>21.25</ele><time>2026-03-28T10:06:39.068Z</time></trkpt><trkpt lat="43.8174217" lon="10.6695767"><ele>21.0</ele><time>2026-03-28T10:06:40.067Z</time></trkpt><trkpt lat="43.8173533" lon="10.6696983"><ele>21.0</ele><time>2026-03-28T10:06:41.068Z</time></trkpt><trkpt lat="43.8172817" lon="10.6698217"><ele>21.0</ele><time>2026-03-28T10:06:42.068Z</time></trkpt><trkpt lat="43.81721" lon="10.66996"><ele>21.0</ele><time>2026-03-28T10:06:43.067Z</time></trkpt><trkpt lat="43.8171417" lon="10.6701"><ele>21.0</ele><time>2026-03-28T10:06:44.068Z</time></trkpt><trkpt lat="43.817055" lon="10.6702383"><ele>20.75</ele><time>2026-03-28T10:06:45.068Z</time></trkpt><trkpt lat="43.8169867" lon="10.670375"><ele>20.5</ele><time>2026-03-28T10:06:46.068Z</time></trkpt><trkpt lat="43.81692" lon="10.670505"><ele>20.25</ele><time>2026-03-28T10:06:47.068Z</time></trkpt><trkpt lat="43.8168517" lon="10.67063"><ele>20.0</ele><time>2026-03-28T10:06:48.067Z</time></trkpt><trkpt lat="43.81679" lon="10.6707567"><ele>19.2</ele><time>2026-03-28T10:06:49.067Z</time></trkpt><trkpt lat="43.8167367" lon="10.670885"><ele>18.4</ele><time>2026-03-28T10:06:50.068Z</time></trkpt><trkpt lat="43.8166817" lon="10.671005"><ele>17.6</ele><time>2026-03-28T10:06:51.068Z</time></trkpt><trkpt lat="43.8166283" lon="10.671115"><ele>16.8</ele><time>2026-03-28T10:06:52.068Z</time></trkpt><trkpt lat="43.8165767" lon="10.6712117"><ele>16.0</ele><time>2026-03-28T10:06:53.068Z</time></trkpt><trkpt lat="43.8165367" lon="10.6713133"><ele>15.8</ele><time>2026-03-28T10:06:54.068Z</time></trkpt><trkpt lat="43.8164883" lon="10.67142"><ele>15.600000000000001</ele><time>2026-03-28T10:06:55.068Z</time></trkpt><trkpt lat="43.8164317" lon="10.6715367"><ele>15.4</ele><time>2026-03-28T10:06:56.067Z</time></trkpt><trkpt lat="43.8163733" lon="10.6716517"><ele>15.2</ele><time>2026-03-28T10:06:57.068Z</time></trkpt><trkpt lat="43.8163117" lon="10.6717683"><ele>15.0</ele><time>2026-03-28T10:06:58.067Z</time></trkpt><trkpt lat="43.8162517" lon="10.6718817"><ele>14.666666666666666</ele><time>2026-03-28T10:06:59.068Z</time></trkpt><trkpt lat="43.8161933" lon="10.6719817"><ele>14.333333333333332</ele><time>2026-03-28T10:07:00.067Z</time></trkpt><trkpt lat="43.81614" lon="10.6720667"><ele>14.0</ele><time>2026-03-28T10:07:01.068Z</time></trkpt><trkpt lat="43.81609" lon="10.6721433"><ele>13.666666666666666</ele><time>2026-03-28T10:07:02.068Z</time></trkpt><trkpt lat="43.81603" lon="10.6722133"><ele>13.333333333333332</ele><time>2026-03-28T10:07:03.067Z</time></trkpt><trkpt lat="43.8159717" lon="10.6722817"><ele>13.0</ele><time>2026-03-28T10:07:04.067Z</time></trkpt><trkpt lat="43.8159083" lon="10.672355"><ele>12.833333333333332</ele><time>2026-03-28T10:07:05.068Z</time></trkpt><trkpt lat="43.8158467" lon="10.672435"><ele>12.666666666666666</ele><time>2026-03-28T10:07:06.067Z</time></trkpt><trkpt lat="43.815775" lon="10.6724833"><ele>12.5</ele><time>2026-03-28T10:07:07.068Z</time></trkpt><trkpt lat="43.8157283" lon="10.67256"><ele>12.333333333333332</ele><time>2026-03-28T10:07:08.069Z</time></trkpt><trkpt lat="43.8156983" lon="10.672645"><ele>12.166666666666666</ele><time>2026-03-28T10:07:09.069Z</time></trkpt><trkpt lat="43.81567" lon="10.6727533"><ele>12.0</ele><time>2026-03-28T10:07:10.069Z</time></trkpt><trkpt lat="43.8156517" lon="10.672865"><ele>12.0</ele><time>2026-03-28T10:07:11.069Z</time></trkpt><trkpt lat="43.81566" lon="10.673"><ele>12.0</ele><time>2026-03-28T10:07:12.068Z</time></trkpt><trkpt lat="43.8156967" lon="10.67315"><ele>12.0</ele><time>2026-03-28T10:07:13.068Z</time></trkpt><trkpt lat="43.8157217" lon="10.6733133"><ele>12.0</ele><time>2026-03-28T10:07:14.069Z</time></trkpt><trkpt lat="43.815735" lon="10.673475"><ele>12.25</ele><time>2026-03-28T10:07:15.068Z</time></trkpt><trkpt lat="43.8157517" lon="10.6736283"><ele>12.5</ele><time>2026-03-28T10:07:16.068Z</time></trkpt><trkpt lat="43.8157633" lon="10.6737867"><ele>12.75</ele><time>2026-03-28T10:07:17.069Z</time></trkpt><trkpt lat="43.8157783" lon="10.6739417"><ele>13.0</ele><time>2026-03-28T10:07:18.068Z</time></trkpt><trkpt lat="43.8157917" lon="10.6741033"><ele>13.0</ele><time>2026-03-28T10:07:19.069Z</time></trkpt><trkpt lat="43.81581" lon="10.6742633"><ele>13.0</ele><time>2026-03-28T10:07:20.069Z</time></trkpt><trkpt lat="43.815825" lon="10.67442"><ele>13.0</ele><time>2026-03-28T10:07:21.069Z</time></trkpt><trkpt lat="43.8158383" lon="10.6745783"><ele>13.0</ele><time>2026-03-28T10:07:22.068Z</time></trkpt><trkpt lat="43.8158533" lon="10.674735"><ele>13.0</ele><time>2026-03-28T10:07:23.069Z</time></trkpt><trkpt lat="43.815865" lon="10.6748967"><ele>13.0</ele><time>2026-03-28T10:07:24.068Z</time></trkpt><trkpt lat="43.8158733" lon="10.675065"><ele>13.0</ele><time>2026-03-28T10:07:25.068Z</time></trkpt><trkpt lat="43.815885" lon="10.675235"><ele>13.0</ele><time>2026-03-28T10:07:26.069Z</time></trkpt><trkpt lat="43.815905" lon="10.6754"><ele>13.25</ele><time>2026-03-28T10:07:27.068Z</time></trkpt><trkpt lat="43.8159167" lon="10.6755683"><ele>13.5</ele><time>2026-03-28T10:07:28.069Z</time></trkpt><trkpt lat="43.8159267" lon="10.6757367"><ele>13.75</ele><time>2026-03-28T10:07:29.068Z</time></trkpt><trkpt lat="43.8159367" lon="10.6759067"><ele>14.0</ele><time>2026-03-28T10:07:30.069Z</time></trkpt><trkpt lat="43.8159533" lon="10.6760783"><ele>14.25</ele><time>2026-03-28T10:07:31.069Z</time></trkpt><trkpt lat="43.815965" lon="10.67625"><ele>14.5</ele><time>2026-03-28T10:07:32.069Z</time></trkpt><trkpt lat="43.8159783" lon="10.67641"><ele>14.75</ele><time>2026-03-28T10:07:33.069Z</time></trkpt><trkpt lat="43.815995" lon="10.676575"><ele>15.0</ele><time>2026-03-28T10:07:34.069Z</time></trkpt><trkpt lat="43.8160133" lon="10.67674"><ele>15.25</ele><time>2026-03-28T10:07:35.068Z</time></trkpt><trkpt lat="43.8160283" lon="10.6769017"><ele>15.5</ele><time>2026-03-28T10:07:36.069Z</time></trkpt><trkpt lat="43.81604" lon="10.6770667"><ele>15.75</ele><time>2026-03-28T10:07:37.069Z</time></trkpt><trkpt lat="43.8160567" lon="10.6772333"><ele>16.0</ele><time>2026-03-28T10:07:38.069Z</time></trkpt><trkpt lat="43.8160767" lon="10.6774"><ele>16.0</ele><time>2026-03-28T10:07:39.068Z</time></trkpt><trkpt lat="43.8160933" lon="10.6775567"><ele>16.0</ele><time>2026-03-28T10:07:40.069Z</time></trkpt><trkpt lat="43.816105" lon="10.6777017"><ele>16.0</ele><time>2026-03-28T10:07:41.068Z</time></trkpt><trkpt lat="43.8161133" lon="10.6778333"><ele>16.0</ele><time>2026-03-28T10:07:42.069Z</time></trkpt><trkpt lat="43.8161283" lon="10.6779533"><ele>16.0</ele><time>2026-03-28T10:07:43.069Z</time></trkpt><trkpt lat="43.8161383" lon="10.6780583"><ele>15.8</ele><time>2026-03-28T10:07:44.069Z</time></trkpt><trkpt lat="43.81615" lon="10.678215"><ele>15.600000000000001</ele><time>2026-03-28T10:07:46.068Z</time></trkpt><trkpt lat="43.8161567" lon="10.6783267"><ele>15.4</ele><time>2026-03-28T10:07:49.068Z</time></trkpt><trkpt lat="43.81617" lon="10.678465"><ele>15.2</ele><time>2026-03-28T10:07:52.069Z</time></trkpt><trkpt lat="43.8161883" lon="10.678585"><ele>15.0</ele><time>2026-03-28T10:07:54.068Z</time></trkpt><trkpt lat="43.816235" lon="10.6787083"><ele>14.833333333333334</ele><time>2026-03-28T10:07:56.068Z</time></trkpt><trkpt lat="43.8163083" lon="10.67884"><ele>14.666666666666668</ele><time>2026-03-28T10:07:58.069Z</time></trkpt><trkpt lat="43.8163533" lon="10.6789083"><ele>14.5</ele><time>2026-03-28T10:07:59.069Z</time></trkpt><trkpt lat="43.8163933" lon="10.6789833"><ele>14.333333333333334</ele><time>2026-03-28T10:08:00.069Z</time></trkpt><trkpt lat="43.8164283" lon="10.6790767"><ele>14.166666666666668</ele><time>2026-03-28T10:08:01.068Z</time></trkpt><trkpt lat="43.81644" lon="10.6791917"><ele>14.0</ele><time>2026-03-28T10:08:02.068Z</time></trkpt><trkpt lat="43.8164283" lon="10.6793317"><ele>14.2</ele><time>2026-03-28T10:08:03.069Z</time></trkpt><trkpt lat="43.8164117" lon="10.6794717"><ele>14.399999999999999</ele><time>2026-03-28T10:08:04.068Z</time></trkpt><trkpt lat="43.8164033" lon="10.679615"><ele>14.6</ele><time>2026-03-28T10:08:05.069Z</time></trkpt><trkpt lat="43.8163967" lon="10.6797633"><ele>14.8</ele><time>2026-03-28T10:08:06.068Z</time></trkpt><trkpt lat="43.8164033" lon="10.6799133"><ele>15.0</ele><time>2026-03-28T10:08:07.069Z</time></trkpt><trkpt lat="43.8164067" lon="10.6800717"><ele>15.0</ele><time>2026-03-28T10:08:08.068Z</time></trkpt><trkpt lat="43.8164183" lon="10.6802167"><ele>15.0</ele><time>2026-03-28T10:08:09.069Z</time></trkpt><trkpt lat="43.8164317" lon="10.6803667"><ele>15.0</ele><time>2026-03-28T10:08:10.069Z</time></trkpt><trkpt lat="43.8164417" lon="10.680525"><ele>15.0</ele><time>2026-03-28T10:08:11.069Z</time></trkpt><trkpt lat="43.81645" lon="10.68069"><ele>15.0</ele><time>2026-03-28T10:08:12.068Z</time></trkpt><trkpt lat="43.8164683" lon="10.68085"><ele>15.5</ele><time>2026-03-28T10:08:13.069Z</time></trkpt><trkpt lat="43.8164867" lon="10.6810083"><ele>16.0</ele><time>2026-03-28T10:08:14.069Z</time></trkpt><trkpt lat="43.8165117" lon="10.68117"><ele>16.5</ele><time>2026-03-28T10:08:15.069Z</time></trkpt><trkpt lat="43.8165433" lon="10.6813267"><ele>17.0</ele><time>2026-03-28T10:08:16.069Z</time></trkpt><trkpt lat="43.8165767" lon="10.6814833"><ele>17.25</ele><time>2026-03-28T10:08:17.069Z</time></trkpt><trkpt lat="43.8166117" lon="10.6816433"><ele>17.5</ele><time>2026-03-28T10:08:18.068Z</time></trkpt><trkpt lat="43.8166583" lon="10.6818017"><ele>17.75</ele><time>2026-03-28T10:08:19.069Z</time></trkpt><trkpt lat="43.8167033" lon="10.681955"><ele>18.0</ele><time>2026-03-28T10:08:20.069Z</time></trkpt><trkpt lat="43.8167483" lon="10.6821183"><ele>18.0</ele><time>2026-03-28T10:08:21.069Z</time></trkpt><trkpt lat="43.8167883" lon="10.6822667"><ele>18.0</ele><time>2026-03-28T10:08:22.069Z</time></trkpt><trkpt lat="43.81683" lon="10.6824033"><ele>18.0</ele><time>2026-03-28T10:08:23.068Z</time></trkpt><trkpt lat="43.8168683" lon="10.6825267"><ele>18.0</ele><time>2026-03-28T10:08:24.069Z</time></trkpt><trkpt lat="43.8169117" lon="10.6826483"><ele>18.0</ele><time>2026-03-28T10:08:25.069Z</time></trkpt><trkpt lat="43.8169467" lon="10.6827717"><ele>18.0</ele><time>2026-03-28T10:08:26.069Z</time></trkpt><trkpt lat="43.816975" lon="10.6828967"><ele>18.0</ele><time>2026-03-28T10:08:27.069Z</time></trkpt><trkpt lat="43.8169933" lon="10.6830317"><ele>18.0</ele><time>2026-03-28T10:08:28.068Z</time></trkpt><trkpt lat="43.8170083" lon="10.6831683"><ele>18.0</ele><time>2026-03-28T10:08:29.069Z</time></trkpt><trkpt lat="43.8170067" lon="10.6833067"><ele>18.0</ele><time>2026-03-28T10:08:30.069Z</time></trkpt><trkpt lat="43.8169933" lon="10.6834467"><ele>18.0</ele><time>2026-03-28T10:08:31.069Z</time></trkpt><trkpt lat="43.8169733" lon="10.6835833"><ele>18.0</ele><time>2026-03-28T10:08:32.069Z</time></trkpt><trkpt lat="43.8169433" lon="10.6837217"><ele>18.0</ele><time>2026-03-28T10:08:33.068Z</time></trkpt><trkpt lat="43.81692" lon="10.6838583"><ele>18.0</ele><time>2026-03-28T10:08:34.068Z</time></trkpt><trkpt lat="43.816905" lon="10.68399"><ele>18.0</ele><time>2026-03-28T10:08:35.069Z</time></trkpt><trkpt lat="43.8168917" lon="10.684135"><ele>18.0</ele><time>2026-03-28T10:08:36.068Z</time></trkpt><trkpt lat="43.8168767" lon="10.6842783"><ele>18.0</ele><time>2026-03-28T10:08:37.068Z</time></trkpt><trkpt lat="43.8168717" lon="10.6844233"><ele>18.0</ele><time>2026-03-28T10:08:38.069Z</time></trkpt><trkpt lat="43.816865" lon="10.68458"><ele>18.0</ele><time>2026-03-28T10:08:39.069Z</time></trkpt><trkpt lat="43.8168583" lon="10.6847317"><ele>18.0</ele><time>2026-03-28T10:08:40.069Z</time></trkpt><trkpt lat="43.81686" lon="10.6848933"><ele>18.0</ele><time>2026-03-28T10:08:41.069Z</time></trkpt><trkpt lat="43.8168583" lon="10.685055"><ele>18.0</ele><time>2026-03-28T10:08:42.069Z</time></trkpt><trkpt lat="43.816855" lon="10.6852067"><ele>18.0</ele><time>2026-03-28T10:08:43.069Z</time></trkpt><trkpt lat="43.81685" lon="10.6853617"><ele>18.0</ele><time>2026-03-28T10:08:44.069Z</time></trkpt><trkpt lat="43.8168467" lon="10.6855067"><ele>18.0</ele><time>2026-03-28T10:08:45.069Z</time></trkpt><trkpt lat="43.8168433" lon="10.68566"><ele>18.2</ele><time>2026-03-28T10:08:46.069Z</time></trkpt><trkpt lat="43.816835" lon="10.6858167"><ele>18.4</ele><time>2026-03-28T10:08:47.069Z</time></trkpt><trkpt lat="43.8168283" lon="10.6859617"><ele>18.599999999999998</ele><time>2026-03-28T10:08:48.069Z</time></trkpt><trkpt lat="43.8168183" lon="10.6861067"><ele>18.8</ele><time>2026-03-28T10:08:49.069Z</time></trkpt><trkpt lat="43.8168083" lon="10.686245"><ele>19.0</ele><time>2026-03-28T10:08:50.068Z</time></trkpt><trkpt lat="43.8168" lon="10.686385"><ele>19.4</ele><time>2026-03-28T10:08:51.069Z</time></trkpt><trkpt lat="43.816795" lon="10.6865267"><ele>19.799999999999997</ele><time>2026-03-28T10:08:52.068Z</time></trkpt><trkpt lat="43.816785" lon="10.686665"><ele>20.200000000000003</ele><time>2026-03-28T10:08:53.068Z</time></trkpt><trkpt lat="43.81677" lon="10.68681"><ele>20.6</ele><time>2026-03-28T10:08:54.069Z</time></trkpt><trkpt lat="43.8167533" lon="10.6869567"><ele>21.0</ele><time>2026-03-28T10:08:55.068Z</time></trkpt><trkpt lat="43.8167433" lon="10.6871117"><ele>21.0</ele><time>2026-03-28T10:08:56.069Z</time></trkpt><trkpt lat="43.8167417" lon="10.6872633"><ele>21.0</ele><time>2026-03-28T10:08:57.069Z</time></trkpt><trkpt lat="43.8167317" lon="10.68742"><ele>21.0</ele><time>2026-03-28T10:08:58.068Z</time></trkpt><trkpt lat="43.8167233" lon="10.6875617"><ele>21.0</ele><time>2026-03-28T10:08:59.069Z</time></trkpt><trkpt lat="43.8167117" lon="10.6876967"><ele>21.0</ele><time>2026-03-28T10:09:00.069Z</time></trkpt><trkpt lat="43.8167" lon="10.6878267"><ele>21.200000000000003</ele><time>2026-03-28T10:09:01.069Z</time></trkpt><trkpt lat="43.816685" lon="10.6879517"><ele>21.400000000000002</ele><time>2026-03-28T10:09:02.069Z</time></trkpt><trkpt lat="43.81667" lon="10.6880917"><ele>21.6</ele><time>2026-03-28T10:09:03.069Z</time></trkpt><trkpt lat="43.8166617" lon="10.6882383"><ele>21.8</ele><time>2026-03-28T10:09:04.069Z</time></trkpt><trkpt lat="43.816655" lon="10.6883983"><ele>22.0</ele><time>2026-03-28T10:09:05.068Z</time></trkpt><trkpt lat="43.81664" lon="10.6885583"><ele>22.25</ele><time>2026-03-28T10:09:06.069Z</time></trkpt><trkpt lat="43.8166217" lon="10.68872"><ele>22.5</ele><time>2026-03-28T10:09:07.069Z</time></trkpt><trkpt lat="43.8166067" lon="10.6888817"><ele>22.75</ele><time>2026-03-28T10:09:08.069Z</time></trkpt><trkpt lat="43.816595" lon="10.6890483"><ele>23.0</ele><time>2026-03-28T10:09:09.069Z</time></trkpt><trkpt lat="43.816575" lon="10.6892033"><ele>23.0</ele><time>2026-03-28T10:09:10.068Z</time></trkpt><trkpt lat="43.8165467" lon="10.68936"><ele>23.0</ele><time>2026-03-28T10:09:11.069Z</time></trkpt><trkpt lat="43.816515" lon="10.6895333"><ele>23.0</ele><time>2026-03-28T10:09:12.068Z</time></trkpt><trkpt lat="43.81647" lon="10.6897083"><ele>23.0</ele><time>2026-03-28T10:09:13.069Z</time></trkpt><trkpt lat="43.8164283" lon="10.6898867"><ele>23.0</ele><time>2026-03-28T10:09:14.069Z</time></trkpt><trkpt lat="43.8163867" lon="10.69008"><ele>23.0</ele><time>2026-03-28T10:09:15.068Z</time></trkpt><trkpt lat="43.816345" lon="10.6902583"><ele>23.0</ele><time>2026-03-28T10:09:16.069Z</time></trkpt><trkpt lat="43.8163067" lon="10.690435"><ele>23.0</ele><time>2026-03-28T10:09:17.069Z</time></trkpt><trkpt lat="43.8162667" lon="10.6906067"><ele>23.0</ele><time>2026-03-28T10:09:18.069Z</time></trkpt><trkpt lat="43.8162267" lon="10.6907717"><ele>23.0</ele><time>2026-03-28T10:09:19.068Z</time></trkpt><trkpt lat="43.8161883" lon="10.69094"><ele>23.0</ele><time>2026-03-28T10:09:20.068Z</time></trkpt><trkpt lat="43.8161417" lon="10.691105"><ele>23.0</ele><time>2026-03-28T10:09:21.069Z</time></trkpt><trkpt lat="43.8160817" lon="10.6912567"><ele>22.75</ele><time>2026-03-28T10:09:22.069Z</time></trkpt><trkpt lat="43.816025" lon="10.6914017"><ele>22.5</ele><time>2026-03-28T10:09:23.068Z</time></trkpt><trkpt lat="43.8159717" lon="10.69154"><ele>22.25</ele><time>2026-03-28T10:09:24.068Z</time></trkpt><trkpt lat="43.8159167" lon="10.6916733"><ele>22.0</ele><time>2026-03-28T10:09:25.069Z</time></trkpt><trkpt lat="43.815865" lon="10.6918033"><ele>21.8</ele><time>2026-03-28T10:09:26.069Z</time></trkpt><trkpt lat="43.8158183" lon="10.6919317"><ele>21.6</ele><time>2026-03-28T10:09:27.069Z</time></trkpt><trkpt lat="43.81578" lon="10.6920533"><ele>21.400000000000002</ele><time>2026-03-28T10:09:28.069Z</time></trkpt><trkpt lat="43.8157383" lon="10.6921567"><ele>21.200000000000003</ele><time>2026-03-28T10:09:29.069Z</time></trkpt><trkpt lat="43.8157" lon="10.692235"><ele>21.0</ele><time>2026-03-28T10:09:30.069Z</time></trkpt><trkpt lat="43.8156333" lon="10.692345"><ele>21.0</ele><time>2026-03-28T10:09:32.069Z</time></trkpt><trkpt lat="43.815505" lon="10.6924533"><ele>21.0</ele><time>2026-03-28T10:09:39.068Z</time></trkpt><trkpt lat="43.8154317" lon="10.6925217"><ele>21.0</ele><time>2026-03-28T10:09:40.069Z</time></trkpt><trkpt lat="43.8153433" lon="10.692625"><ele>21.0</ele><time>2026-03-28T10:09:41.068Z</time></trkpt><trkpt lat="43.8152383" lon="10.692765"><ele>20.0</ele><time>2026-03-28T10:09:42.069Z</time></trkpt><trkpt lat="43.815135" lon="10.69291"><ele>19.0</ele><time>2026-03-28T10:09:43.069Z</time></trkpt><trkpt lat="43.8150483" lon="10.69306"><ele>18.0</ele><time>2026-03-28T10:09:44.069Z</time></trkpt><trkpt lat="43.8149683" lon="10.6931833"><ele>17.0</ele><time>2026-03-28T10:09:45.069Z</time></trkpt><trkpt lat="43.814885" lon="10.6932983"><ele>17.0</ele><time>2026-03-28T10:09:46.068Z</time></trkpt><trkpt lat="43.814815" lon="10.6934117"><ele>17.0</ele><time>2026-03-28T10:09:47.069Z</time></trkpt><trkpt lat="43.8147517" lon="10.69352"><ele>17.0</ele><time>2026-03-28T10:09:48.068Z</time></trkpt><trkpt lat="43.8147017" lon="10.6936317"><ele>17.0</ele><time>2026-03-28T10:09:49.068Z</time></trkpt><trkpt lat="43.8146633" lon="10.6937533"><ele>17.0</ele><time>2026-03-28T10:09:50.069Z</time></trkpt><trkpt lat="43.8146517" lon="10.69386"><ele>17.0</ele><time>2026-03-28T10:09:51.069Z</time></trkpt><trkpt lat="43.814655" lon="10.69397"><ele>17.0</ele><time>2026-03-28T10:09:52.069Z</time></trkpt><trkpt lat="43.8146717" lon="10.6940917"><ele>17.0</ele><time>2026-03-28T10:09:53.069Z</time></trkpt><trkpt lat="43.8146733" lon="10.6942167"><ele>17.0</ele><time>2026-03-28T10:09:54.068Z</time></trkpt><trkpt lat="43.814645" lon="10.6943567"><ele>17.0</ele><time>2026-03-28T10:09:55.069Z</time></trkpt><trkpt lat="43.8145983" lon="10.694505"><ele>17.75</ele><time>2026-03-28T10:09:56.069Z</time></trkpt><trkpt lat="43.8145383" lon="10.6946567"><ele>18.5</ele><time>2026-03-28T10:09:57.068Z</time></trkpt><trkpt lat="43.8144767" lon="10.69481"><ele>19.25</ele><time>2026-03-28T10:09:58.068Z</time></trkpt><trkpt lat="43.8144083" lon="10.6949733"><ele>20.0</ele><time>2026-03-28T10:09:59.068Z</time></trkpt><trkpt lat="43.8143483" lon="10.6951333"><ele>19.5</ele><time>2026-03-28T10:10:00.069Z</time></trkpt><trkpt lat="43.8142917" lon="10.69529"><ele>19.0</ele><time>2026-03-28T10:10:01.068Z</time></trkpt><trkpt lat="43.8142333" lon="10.6954583"><ele>18.5</ele><time>2026-03-28T10:10:02.069Z</time></trkpt><trkpt lat="43.8141683" lon="10.6956233"><ele>18.0</ele><time>2026-03-28T10:10:03.069Z</time></trkpt><trkpt lat="43.8141017" lon="10.6957883"><ele>18.0</ele><time>2026-03-28T10:10:04.069Z</time></trkpt><trkpt lat="43.814035" lon="10.69595"><ele>18.0</ele><time>2026-03-28T10:10:05.069Z</time></trkpt><trkpt lat="43.8139667" lon="10.69612"><ele>18.0</ele><time>2026-03-28T10:10:06.069Z</time></trkpt><trkpt lat="43.8139017" lon="10.6962867"><ele>18.0</ele><time>2026-03-28T10:10:07.068Z</time></trkpt><trkpt lat="43.8138367" lon="10.6964583"><ele>18.0</ele><time>2026-03-28T10:10:08.068Z</time></trkpt><trkpt lat="43.8137817" lon="10.696625"><ele>18.0</ele><time>2026-03-28T10:10:09.068Z</time></trkpt><trkpt lat="43.81372" lon="10.69678"><ele>18.0</ele><time>2026-03-28T10:10:10.069Z</time></trkpt><trkpt lat="43.8136683" lon="10.6969267"><ele>18.0</ele><time>2026-03-28T10:10:11.068Z</time></trkpt><trkpt lat="43.8136167" lon="10.6970667"><ele>18.0</ele><time>2026-03-28T10:10:12.068Z</time></trkpt><trkpt lat="43.81357" lon="10.6971917"><ele>18.0</ele><time>2026-03-28T10:10:13.069Z</time></trkpt><trkpt lat="43.813515" lon="10.6972967"><ele>18.0</ele><time>2026-03-28T10:10:14.069Z</time></trkpt><trkpt lat="43.81345" lon="10.6973767"><ele>18.0</ele><time>2026-03-28T10:10:15.069Z</time></trkpt><trkpt lat="43.8133867" lon="10.6974383"><ele>18.0</ele><time>2026-03-28T10:10:16.068Z</time></trkpt><trkpt lat="43.8133217" lon="10.6975"><ele>18.0</ele><time>2026-03-28T10:10:17.069Z</time></trkpt><trkpt lat="43.8132667" lon="10.6975833"><ele>18.0</ele><time>2026-03-28T10:10:18.068Z</time></trkpt><trkpt lat="43.8132267" lon="10.69768"><ele>18.0</ele><time>2026-03-28T10:10:19.069Z</time></trkpt><trkpt lat="43.8132167" lon="10.6977833"><ele>18.0</ele><time>2026-03-28T10:10:20.068Z</time></trkpt><trkpt lat="43.8132283" lon="10.6978917"><ele>18.0</ele><time>2026-03-28T10:10:21.069Z</time></trkpt><trkpt lat="43.8132617" lon="10.6979933"><ele>18.0</ele><time>2026-03-28T10:10:22.069Z</time></trkpt><trkpt lat="43.813325" lon="10.6980783"><ele>18.0</ele><time>2026-03-28T10:10:23.069Z</time></trkpt><trkpt lat="43.8133933" lon="10.698165"><ele>18.0</ele><time>2026-03-28T10:10:24.069Z</time></trkpt><trkpt lat="43.8134717" lon="10.6982683"><ele>18.0</ele><time>2026-03-28T10:10:25.069Z</time></trkpt><trkpt lat="43.8135517" lon="10.6983933"><ele>18.0</ele><time>2026-03-28T10:10:26.069Z</time></trkpt><trkpt lat="43.8136317" lon="10.6985367"><ele>18.0</ele><time>2026-03-28T10:10:27.069Z</time></trkpt><trkpt lat="43.81371" lon="10.6986983"><ele>18.333333333333332</ele><time>2026-03-28T10:10:28.069Z</time></trkpt><trkpt lat="43.8137817" lon="10.6988783"><ele>18.666666666666664</ele><time>2026-03-28T10:10:29.069Z</time></trkpt><trkpt lat="43.813855" lon="10.6990733"><ele>19.0</ele><time>2026-03-28T10:10:30.069Z</time></trkpt><trkpt lat="43.8139233" lon="10.6992583"><ele>19.5</ele><time>2026-03-28T10:10:31.069Z</time></trkpt><trkpt lat="43.8139833" lon="10.6994417"><ele>20.0</ele><time>2026-03-28T10:10:32.069Z</time></trkpt><trkpt lat="43.814045" lon="10.6996233"><ele>20.5</ele><time>2026-03-28T10:10:33.068Z</time></trkpt><trkpt lat="43.8141117" lon="10.6998083"><ele>21.0</ele><time>2026-03-28T10:10:34.069Z</time></trkpt><trkpt lat="43.8141783" lon="10.699985"><ele>21.0</ele><time>2026-03-28T10:10:35.069Z</time></trkpt><trkpt lat="43.8142417" lon="10.700155"><ele>21.0</ele><time>2026-03-28T10:10:36.069Z</time></trkpt><trkpt lat="43.814305" lon="10.7003217"><ele>21.0</ele><time>2026-03-28T10:10:37.069Z</time></trkpt><trkpt lat="43.8143667" lon="10.7004933"><ele>21.0</ele><time>2026-03-28T10:10:38.069Z</time></trkpt><trkpt lat="43.8144283" lon="10.70067"><ele>21.5</ele><time>2026-03-28T10:10:39.068Z</time></trkpt><trkpt lat="43.814495" lon="10.7008417"><ele>22.0</ele><time>2026-03-28T10:10:40.069Z</time></trkpt><trkpt lat="43.8145517" lon="10.701005"><ele>22.5</ele><time>2026-03-28T10:10:41.069Z</time></trkpt><trkpt lat="43.8145933" lon="10.70118"><ele>23.0</ele><time>2026-03-28T10:10:42.069Z</time></trkpt><trkpt lat="43.8146317" lon="10.7013633"><ele>23.0</ele><time>2026-03-28T10:10:43.068Z</time></trkpt><trkpt lat="43.8146817" lon="10.7015567"><ele>23.0</ele><time>2026-03-28T10:10:44.069Z</time></trkpt><trkpt lat="43.8147317" lon="10.701745"><ele>23.0</ele><time>2026-03-28T10:10:45.068Z</time></trkpt><trkpt lat="43.8147733" lon="10.70194"><ele>23.0</ele><time>2026-03-28T10:10:46.069Z</time></trkpt><trkpt lat="43.8148183" lon="10.7021333"><ele>23.0</ele><time>2026-03-28T10:10:47.069Z</time></trkpt><trkpt lat="43.8148633" lon="10.702325"><ele>23.0</ele><time>2026-03-28T10:10:48.068Z</time></trkpt><trkpt lat="43.81491" lon="10.702515"><ele>23.0</ele><time>2026-03-28T10:10:49.068Z</time></trkpt><trkpt lat="43.81495" lon="10.7027067"><ele>23.0</ele><time>2026-03-28T10:10:50.069Z</time></trkpt><trkpt lat="43.814995" lon="10.7028967"><ele>23.0</ele><time>2026-03-28T10:10:51.069Z</time></trkpt><trkpt lat="43.815045" lon="10.7030867"><ele>23.0</ele><time>2026-03-28T10:10:52.068Z</time></trkpt><trkpt lat="43.8150833" lon="10.7032817"><ele>23.0</ele><time>2026-03-28T10:10:53.069Z</time></trkpt><trkpt lat="43.8151267" lon="10.7034717"><ele>23.0</ele><time>2026-03-28T10:10:54.068Z</time></trkpt><trkpt lat="43.8151717" lon="10.7036667"><ele>23.0</ele><time>2026-03-28T10:10:55.069Z</time></trkpt><trkpt lat="43.8152117" lon="10.7038617"><ele>23.0</ele><time>2026-03-28T10:10:56.069Z</time></trkpt><trkpt lat="43.815255" lon="10.7040633"><ele>23.0</ele><time>2026-03-28T10:10:57.069Z</time></trkpt><trkpt lat="43.8153" lon="10.7042567"><ele>23.0</ele><time>2026-03-28T10:10:58.068Z</time></trkpt><trkpt lat="43.81534" lon="10.7044567"><ele>22.666666666666668</ele><time>2026-03-28T10:10:59.069Z</time></trkpt><trkpt lat="43.8153783" lon="10.70466"><ele>22.333333333333332</ele><time>2026-03-28T10:11:00.069Z</time></trkpt><trkpt lat="43.8154167" lon="10.7048633"><ele>22.0</ele><time>2026-03-28T10:11:01.069Z</time></trkpt><trkpt lat="43.81546" lon="10.7050667"><ele>22.333333333333332</ele><time>2026-03-28T10:11:02.069Z</time></trkpt><trkpt lat="43.8155067" lon="10.705265"><ele>22.666666666666668</ele><time>2026-03-28T10:11:03.069Z</time></trkpt><trkpt lat="43.8155567" lon="10.7054717"><ele>23.0</ele><time>2026-03-28T10:11:04.069Z</time></trkpt><trkpt lat="43.815605" lon="10.7056767"><ele>23.0</ele><time>2026-03-28T10:11:05.069Z</time></trkpt><trkpt lat="43.81565" lon="10.7058833"><ele>23.0</ele><time>2026-03-28T10:11:06.069Z</time></trkpt><trkpt lat="43.8156933" lon="10.706095"><ele>23.0</ele><time>2026-03-28T10:11:07.069Z</time></trkpt><trkpt lat="43.8157417" lon="10.7063083"><ele>23.0</ele><time>2026-03-28T10:11:08.069Z</time></trkpt><trkpt lat="43.8157883" lon="10.70652"><ele>23.0</ele><time>2026-03-28T10:11:09.068Z</time></trkpt><trkpt lat="43.8158367" lon="10.7067333"><ele>23.0</ele><time>2026-03-28T10:11:10.068Z</time></trkpt><trkpt lat="43.8158817" lon="10.7069467"><ele>23.333333333333336</ele><time>2026-03-28T10:11:11.069Z</time></trkpt><trkpt lat="43.8159333" lon="10.70715"><ele>23.666666666666668</ele><time>2026-03-28T10:11:12.068Z</time></trkpt><trkpt lat="43.8159867" lon="10.7073567"><ele>24.0</ele><time>2026-03-28T10:11:13.069Z</time></trkpt><trkpt lat="43.8160267" lon="10.7075767"><ele>23.333333333333332</ele><time>2026-03-28T10:11:14.068Z</time></trkpt><trkpt lat="43.8160667" lon="10.707795"><ele>22.666666666666664</ele><time>2026-03-28T10:11:15.068Z</time></trkpt><trkpt lat="43.8161117" lon="10.708005"><ele>22.0</ele><time>2026-03-28T10:11:16.069Z</time></trkpt><trkpt lat="43.8161533" lon="10.7082083"><ele>22.0</ele><time>2026-03-28T10:11:17.068Z</time></trkpt><trkpt lat="43.8162017" lon="10.70842"><ele>22.0</ele><time>2026-03-28T10:11:18.069Z</time></trkpt><trkpt lat="43.8162133" lon="10.708615"><ele>22.0</ele><time>2026-03-28T10:11:19.069Z</time></trkpt><trkpt lat="43.81622" lon="10.708825"><ele>22.0</ele><time>2026-03-28T10:11:20.069Z</time></trkpt><trkpt lat="43.8162083" lon="10.709035"><ele>22.0</ele><time>2026-03-28T10:11:21.069Z</time></trkpt><trkpt lat="43.8161967" lon="10.7092417"><ele>22.0</ele><time>2026-03-28T10:11:22.068Z</time></trkpt><trkpt lat="43.8161833" lon="10.7094567"><ele>22.0</ele><time>2026-03-28T10:11:23.068Z</time></trkpt><trkpt lat="43.816165" lon="10.7096683"><ele>22.0</ele><time>2026-03-28T10:11:24.068Z</time></trkpt><trkpt lat="43.81615" lon="10.709875"><ele>22.0</ele><time>2026-03-28T10:11:25.069Z</time></trkpt><trkpt lat="43.8161367" lon="10.71009"><ele>22.666666666666664</ele><time>2026-03-28T10:11:26.069Z</time></trkpt><trkpt lat="43.8161233" lon="10.710305"><ele>23.333333333333332</ele><time>2026-03-28T10:11:27.069Z</time></trkpt><trkpt lat="43.8161083" lon="10.7105183"><ele>24.0</ele><time>2026-03-28T10:11:28.068Z</time></trkpt><trkpt lat="43.8160917" lon="10.7107283"><ele>24.0</ele><time>2026-03-28T10:11:29.069Z</time></trkpt><trkpt lat="43.816075" lon="10.710935"><ele>24.0</ele><time>2026-03-28T10:11:30.069Z</time></trkpt><trkpt lat="43.8160583" lon="10.7111383"><ele>24.0</ele><time>2026-03-28T10:11:31.069Z</time></trkpt><trkpt lat="43.8160433" lon="10.711345"><ele>24.0</ele><time>2026-03-28T10:11:32.068Z</time></trkpt><trkpt lat="43.8160333" lon="10.711545"><ele>24.0</ele><time>2026-03-28T10:11:33.069Z</time></trkpt><trkpt lat="43.8160133" lon="10.7117467"><ele>24.0</ele><time>2026-03-28T10:11:34.069Z</time></trkpt><trkpt lat="43.816005" lon="10.711945"><ele>24.0</ele><time>2026-03-28T10:11:35.069Z</time></trkpt><trkpt lat="43.8159967" lon="10.7121417"><ele>24.0</ele><time>2026-03-28T10:11:36.068Z</time></trkpt><trkpt lat="43.815985" lon="10.7123467"><ele>24.0</ele><time>2026-03-28T10:11:37.069Z</time></trkpt><trkpt lat="43.81597" lon="10.7125517"><ele>24.0</ele><time>2026-03-28T10:11:38.069Z</time></trkpt><trkpt lat="43.8159633" lon="10.7127583"><ele>24.0</ele><time>2026-03-28T10:11:39.068Z</time></trkpt><trkpt lat="43.815955" lon="10.7129617"><ele>24.0</ele><time>2026-03-28T10:11:40.068Z</time></trkpt><trkpt lat="43.815945" lon="10.71316"><ele>24.25</ele><time>2026-03-28T10:11:41.069Z</time></trkpt><trkpt lat="43.8159283" lon="10.7133633"><ele>24.5</ele><time>2026-03-28T10:11:42.068Z</time></trkpt><trkpt lat="43.8159217" lon="10.7135667"><ele>24.75</ele><time>2026-03-28T10:11:43.069Z</time></trkpt><trkpt lat="43.8159167" lon="10.7137733"><ele>25.0</ele><time>2026-03-28T10:11:44.069Z</time></trkpt><trkpt lat="43.8159033" lon="10.7139767"><ele>25.0</ele><time>2026-03-28T10:11:45.069Z</time></trkpt><trkpt lat="43.8158883" lon="10.7141817"><ele>25.0</ele><time>2026-03-28T10:11:46.069Z</time></trkpt><trkpt lat="43.8158667" lon="10.71438"><ele>25.0</ele><time>2026-03-28T10:11:47.069Z</time></trkpt><trkpt lat="43.815845" lon="10.7145833"><ele>25.0</ele><time>2026-03-28T10:11:48.069Z</time></trkpt><trkpt lat="43.8158283" lon="10.71478"><ele>24.75</ele><time>2026-03-28T10:11:49.069Z</time></trkpt><trkpt lat="43.8158033" lon="10.7149883"><ele>24.5</ele><time>2026-03-28T10:11:50.069Z</time></trkpt><trkpt lat="43.8157817" lon="10.71519"><ele>24.25</ele><time>2026-03-28T10:11:51.068Z</time></trkpt><trkpt lat="43.8157783" lon="10.7153833"><ele>24.0</ele><time>2026-03-28T10:11:52.069Z</time></trkpt><trkpt lat="43.8157767" lon="10.7155833"><ele>24.25</ele><time>2026-03-28T10:11:53.068Z</time></trkpt><trkpt lat="43.8157683" lon="10.71578"><ele>24.5</ele><time>2026-03-28T10:11:54.069Z</time></trkpt><trkpt lat="43.8157567" lon="10.7159783"><ele>24.75</ele><time>2026-03-28T10:11:55.068Z</time></trkpt><trkpt lat="43.81575" lon="10.7161733"><ele>25.0</ele><time>2026-03-28T10:11:56.069Z</time></trkpt><trkpt lat="43.8157367" lon="10.71635"><ele>25.0</ele><time>2026-03-28T10:11:57.069Z</time></trkpt><trkpt lat="43.8157217" lon="10.7165217"><ele>25.0</ele><time>2026-03-28T10:11:58.068Z</time></trkpt><trkpt lat="43.8157083" lon="10.71669"><ele>25.0</ele><time>2026-03-28T10:11:59.069Z</time></trkpt><trkpt lat="43.8156983" lon="10.7168633"><ele>25.0</ele><time>2026-03-28T10:12:00.068Z</time></trkpt><trkpt lat="43.815685" lon="10.717035"><ele>25.25</ele><time>2026-03-28T10:12:01.069Z</time></trkpt><trkpt lat="43.8156583" lon="10.7172033"><ele>25.5</ele><time>2026-03-28T10:12:02.069Z</time></trkpt><trkpt lat="43.8156283" lon="10.7173717"><ele>25.75</ele><time>2026-03-28T10:12:03.069Z</time></trkpt><trkpt lat="43.8155833" lon="10.7175433"><ele>26.0</ele><time>2026-03-28T10:12:04.069Z</time></trkpt><trkpt lat="43.81553" lon="10.7177267"><ele>26.0</ele><time>2026-03-28T10:12:05.069Z</time></trkpt><trkpt lat="43.8154783" lon="10.7179033"><ele>26.0</ele><time>2026-03-28T10:12:06.069Z</time></trkpt><trkpt lat="43.8154283" lon="10.7180867"><ele>26.0</ele><time>2026-03-28T10:12:07.069Z</time></trkpt><trkpt lat="43.8153817" lon="10.718265"><ele>26.0</ele><time>2026-03-28T10:12:08.069Z</time></trkpt><trkpt lat="43.8153383" lon="10.7184533"><ele>25.666666666666664</ele><time>2026-03-28T10:12:09.068Z</time></trkpt><trkpt lat="43.8152917" lon="10.71865"><ele>25.333333333333336</ele><time>2026-03-28T10:12:10.069Z</time></trkpt><trkpt lat="43.815235" lon="10.7188517"><ele>25.0</ele><time>2026-03-28T10:12:11.068Z</time></trkpt><trkpt lat="43.8151817" lon="10.7190483"><ele>24.5</ele><time>2026-03-28T10:12:12.069Z</time></trkpt><trkpt lat="43.8151333" lon="10.71924"><ele>24.0</ele><time>2026-03-28T10:12:13.069Z</time></trkpt><trkpt lat="43.81509" lon="10.7194317"><ele>23.5</ele><time>2026-03-28T10:12:14.069Z</time></trkpt><trkpt lat="43.8150383" lon="10.7196367"><ele>23.0</ele><time>2026-03-28T10:12:15.069Z</time></trkpt><trkpt lat="43.8149917" lon="10.7198367"><ele>23.0</ele><time>2026-03-28T10:12:16.069Z</time></trkpt><trkpt lat="43.814945" lon="10.72005"><ele>23.0</ele><time>2026-03-28T10:12:17.069Z</time></trkpt><trkpt lat="43.8148917" lon="10.7202467"><ele>23.0</ele><time>2026-03-28T10:12:18.069Z</time></trkpt><trkpt lat="43.8148433" lon="10.720455"><ele>22.75</ele><time>2026-03-28T10:12:19.068Z</time></trkpt><trkpt lat="43.8147933" lon="10.7206467"><ele>22.5</ele><time>2026-03-28T10:12:20.069Z</time></trkpt><trkpt lat="43.8147417" lon="10.7208467"><ele>22.25</ele><time>2026-03-28T10:12:21.068Z</time></trkpt><trkpt lat="43.81469" lon="10.72104"><ele>22.0</ele><time>2026-03-28T10:12:22.069Z</time></trkpt><trkpt lat="43.8146417" lon="10.7212283"><ele>22.0</ele><time>2026-03-28T10:12:23.069Z</time></trkpt><trkpt lat="43.8145983" lon="10.7214183"><ele>22.0</ele><time>2026-03-28T10:12:24.069Z</time></trkpt><trkpt lat="43.81455" lon="10.7216083"><ele>22.0</ele><time>2026-03-28T10:12:25.069Z</time></trkpt><trkpt lat="43.814505" lon="10.7217917"><ele>22.0</ele><time>2026-03-28T10:12:26.069Z</time></trkpt><trkpt lat="43.8144617" lon="10.7219867"><ele>22.0</ele><time>2026-03-28T10:12:27.068Z</time></trkpt><trkpt lat="43.8144133" lon="10.7221817"><ele>22.0</ele><time>2026-03-28T10:12:28.069Z</time></trkpt><trkpt lat="43.814375" lon="10.7223733"><ele>22.0</ele><time>2026-03-28T10:12:29.069Z</time></trkpt><trkpt lat="43.8143333" lon="10.7225533"><ele>22.0</ele><time>2026-03-28T10:12:30.069Z</time></trkpt><trkpt lat="43.814295" lon="10.722745"><ele>21.75</ele><time>2026-03-28T10:12:31.069Z</time></trkpt><trkpt lat="43.8142533" lon="10.72293"><ele>21.5</ele><time>2026-03-28T10:12:32.068Z</time></trkpt><trkpt lat="43.8142067" lon="10.7231033"><ele>21.25</ele><time>2026-03-28T10:12:33.069Z</time></trkpt><trkpt lat="43.81417" lon="10.723275"><ele>21.0</ele><time>2026-03-28T10:12:34.069Z</time></trkpt><trkpt lat="43.8141333" lon="10.7234417"><ele>20.5</ele><time>2026-03-28T10:12:35.068Z</time></trkpt><trkpt lat="43.8141033" lon="10.7236233"><ele>20.0</ele><time>2026-03-28T10:12:36.069Z</time></trkpt><trkpt lat="43.814075" lon="10.7238017"><ele>19.5</ele><time>2026-03-28T10:12:37.069Z</time></trkpt><trkpt lat="43.8140533" lon="10.7239833"><ele>19.0</ele><time>2026-03-28T10:12:38.069Z</time></trkpt><trkpt lat="43.8140383" lon="10.7241633"><ele>19.0</ele><time>2026-03-28T10:12:39.069Z</time></trkpt><trkpt lat="43.81402" lon="10.724345"><ele>19.0</ele><time>2026-03-28T10:12:40.069Z</time></trkpt><trkpt lat="43.814" lon="10.7245183"><ele>19.0</ele><time>2026-03-28T10:12:41.069Z</time></trkpt><trkpt lat="43.8139817" lon="10.7247067"><ele>19.0</ele><time>2026-03-28T10:12:42.068Z</time></trkpt><trkpt lat="43.8139633" lon="10.724895"><ele>18.25</ele><time>2026-03-28T10:12:43.069Z</time></trkpt><trkpt lat="43.81394" lon="10.7250867"><ele>17.5</ele><time>2026-03-28T10:12:44.068Z</time></trkpt><trkpt lat="43.8139117" lon="10.7252767"><ele>16.75</ele><time>2026-03-28T10:12:45.069Z</time></trkpt><trkpt lat="43.81389" lon="10.72546"><ele>16.0</ele><time>2026-03-28T10:12:46.069Z</time></trkpt><trkpt lat="43.8138783" lon="10.7256433"><ele>16.0</ele><time>2026-03-28T10:12:47.068Z</time></trkpt><trkpt lat="43.813845" lon="10.72582"><ele>16.0</ele><time>2026-03-28T10:12:48.068Z</time></trkpt><trkpt lat="43.8138433" lon="10.7260067"><ele>16.0</ele><time>2026-03-28T10:12:49.069Z</time></trkpt><trkpt lat="43.81382" lon="10.7261967"><ele>16.0</ele><time>2026-03-28T10:12:50.068Z</time></trkpt><trkpt lat="43.8138" lon="10.726395"><ele>16.25</ele><time>2026-03-28T10:12:51.069Z</time></trkpt><trkpt lat="43.8137833" lon="10.7265817"><ele>16.5</ele><time>2026-03-28T10:12:52.069Z</time></trkpt><trkpt lat="43.813775" lon="10.7267633"><ele>16.75</ele><time>2026-03-28T10:12:53.068Z</time></trkpt><trkpt lat="43.8137717" lon="10.72694"><ele>17.0</ele><time>2026-03-28T10:12:54.069Z</time></trkpt><trkpt lat="43.8137667" lon="10.72711"><ele>17.0</ele><time>2026-03-28T10:12:55.069Z</time></trkpt><trkpt lat="43.813755" lon="10.727255"><ele>17.0</ele><time>2026-03-28T10:12:56.069Z</time></trkpt><trkpt lat="43.8137467" lon="10.7273833"><ele>17.0</ele><time>2026-03-28T10:12:57.069Z</time></trkpt><trkpt lat="43.8137383" lon="10.7274933"><ele>17.0</ele><time>2026-03-28T10:12:58.068Z</time></trkpt><trkpt lat="43.81373" lon="10.7275833"><ele>17.0</ele><time>2026-03-28T10:12:59.069Z</time></trkpt><trkpt lat="43.8137267" lon="10.72771"><ele>17.0</ele><time>2026-03-28T10:13:01.068Z</time></trkpt><trkpt lat="43.8137317" lon="10.7278483"><ele>16.666666666666668</ele><time>2026-03-28T10:13:12.069Z</time></trkpt><trkpt lat="43.81382" lon="10.7278833"><ele>16.333333333333336</ele><time>2026-03-28T10:13:14.069Z</time></trkpt><trkpt lat="43.8138867" lon="10.7278767"><ele>16.0</ele><time>2026-03-28T10:13:15.069Z</time></trkpt><trkpt lat="43.813965" lon="10.7278617"><ele>15.666666666666668</ele><time>2026-03-28T10:13:16.069Z</time></trkpt><trkpt lat="43.8140517" lon="10.7278467"><ele>15.333333333333334</ele><time>2026-03-28T10:13:17.069Z</time></trkpt><trkpt lat="43.8141367" lon="10.727825"><ele>15.0</ele><time>2026-03-28T10:13:18.068Z</time></trkpt><trkpt lat="43.814205" lon="10.7278"><ele>15.0</ele><time>2026-03-28T10:13:19.069Z</time></trkpt><trkpt lat="43.8142683" lon="10.72779"><ele>15.0</ele><time>2026-03-28T10:13:20.068Z</time></trkpt><trkpt lat="43.8143333" lon="10.7278233"><ele>15.0</ele><time>2026-03-28T10:13:22.069Z</time></trkpt><trkpt lat="43.8143767" lon="10.7279217"><ele>15.0</ele><time>2026-03-28T10:13:24.069Z</time></trkpt><trkpt lat="43.8144233" lon="10.7280917"><ele>15.0</ele><time>2026-03-28T10:13:26.069Z</time></trkpt><trkpt lat="43.8144483" lon="10.7281917"><ele>15.0</ele><time>2026-03-28T10:13:27.068Z</time></trkpt><trkpt lat="43.8144783" lon="10.7282917"><ele>15.166666666666666</ele><time>2026-03-28T10:13:28.069Z</time></trkpt><trkpt lat="43.814505" lon="10.7284"><ele>15.333333333333332</ele><time>2026-03-28T10:13:29.069Z</time></trkpt><trkpt lat="43.814535" lon="10.7285167"><ele>15.5</ele><time>2026-03-28T10:13:30.069Z</time></trkpt><trkpt lat="43.814555" lon="10.728625"><ele>15.666666666666666</ele><time>2026-03-28T10:13:31.068Z</time></trkpt><trkpt lat="43.814565" lon="10.7287317"><ele>15.833333333333332</ele><time>2026-03-28T10:13:32.068Z</time></trkpt><trkpt lat="43.814595" lon="10.7288383"><ele>16.0</ele><time>2026-03-28T10:13:33.069Z</time></trkpt><trkpt lat="43.8146283" lon="10.728945"><ele>15.999999999999998</ele><time>2026-03-28T10:13:34.068Z</time></trkpt><trkpt lat="43.8146567" lon="10.7290633"><ele>16.0</ele><time>2026-03-28T10:13:35.068Z</time></trkpt><trkpt lat="43.8146817" lon="10.7291717"><ele>16.0</ele><time>2026-03-28T10:13:36.069Z</time></trkpt><trkpt lat="43.8147117" lon="10.7292767"><ele>16.0</ele><time>2026-03-28T10:13:37.069Z</time></trkpt><trkpt lat="43.8147417" lon="10.72938"><ele>15.999999999999998</ele><time>2026-03-28T10:13:38.069Z</time></trkpt><trkpt lat="43.8147667" lon="10.7294867"><ele>16.0</ele><time>2026-03-28T10:13:39.069Z</time></trkpt><trkpt lat="43.81479" lon="10.7295917"><ele>15.8</ele><time>2026-03-28T10:13:40.069Z</time></trkpt><trkpt lat="43.81482" lon="10.729705"><ele>15.600000000000001</ele><time>2026-03-28T10:13:41.068Z</time></trkpt><trkpt lat="43.8148533" lon="10.7298233"><ele>15.4</ele><time>2026-03-28T10:13:42.069Z</time></trkpt><trkpt lat="43.8148867" lon="10.729945"><ele>15.2</ele><time>2026-03-28T10:13:43.069Z</time></trkpt><trkpt lat="43.8149183" lon="10.73007"><ele>15.0</ele><time>2026-03-28T10:13:44.069Z</time></trkpt><trkpt lat="43.814945" lon="10.730195"><ele>14.8</ele><time>2026-03-28T10:13:45.069Z</time></trkpt><trkpt lat="43.8149667" lon="10.7303183"><ele>14.6</ele><time>2026-03-28T10:13:46.069Z</time></trkpt><trkpt lat="43.8149867" lon="10.7304383"><ele>14.399999999999999</ele><time>2026-03-28T10:13:47.069Z</time></trkpt><trkpt lat="43.8150067" lon="10.7305667"><ele>14.2</ele><time>2026-03-28T10:13:48.069Z</time></trkpt><trkpt lat="43.81503" lon="10.730705"><ele>14.0</ele><time>2026-03-28T10:13:49.069Z</time></trkpt><trkpt lat="43.8150533" lon="10.730845"><ele>14.0</ele><time>2026-03-28T10:13:50.069Z</time></trkpt><trkpt lat="43.8150717" lon="10.7309783"><ele>13.999999999999998</ele><time>2026-03-28T10:13:51.069Z</time></trkpt><trkpt lat="43.81509" lon="10.73112"><ele>13.999999999999998</ele><time>2026-03-28T10:13:52.069Z</time></trkpt><trkpt lat="43.8151133" lon="10.73126"><ele>14.0</ele><time>2026-03-28T10:13:53.068Z</time></trkpt><trkpt lat="43.8151317" lon="10.731405"><ele>14.0</ele><time>2026-03-28T10:13:54.069Z</time></trkpt><trkpt lat="43.8151483" lon="10.731535"><ele>14.333333333333334</ele><time>2026-03-28T10:13:55.069Z</time></trkpt><trkpt lat="43.8151617" lon="10.731665"><ele>14.666666666666668</ele><time>2026-03-28T10:13:56.068Z</time></trkpt><trkpt lat="43.8151683" lon="10.7317933"><ele>15.0</ele><time>2026-03-28T10:13:57.068Z</time></trkpt><trkpt lat="43.8151667" lon="10.7319117"><ele>15.333333333333332</ele><time>2026-03-28T10:13:58.069Z</time></trkpt><trkpt lat="43.8151583" lon="10.7320183"><ele>15.666666666666666</ele><time>2026-03-28T10:13:59.068Z</time></trkpt><trkpt lat="43.8151417" lon="10.73213"><ele>16.0</ele><time>2026-03-28T10:14:00.069Z</time></trkpt><trkpt lat="43.8151067" lon="10.732235"><ele>15.999999999999998</ele><time>2026-03-28T10:14:01.069Z</time></trkpt><trkpt lat="43.81505" lon="10.732325"><ele>16.0</ele><time>2026-03-28T10:14:02.069Z</time></trkpt><trkpt lat="43.8149717" lon="10.7324033"><ele>16.0</ele><time>2026-03-28T10:14:03.069Z</time></trkpt><trkpt lat="43.8149017" lon="10.7324733"><ele>16.0</ele><time>2026-03-28T10:14:04.068Z</time></trkpt><trkpt lat="43.8148433" lon="10.7325283"><ele>15.999999999999998</ele><time>2026-03-28T10:14:05.069Z</time></trkpt><trkpt lat="43.8147867" lon="10.7325683"><ele>16.0</ele><time>2026-03-28T10:14:06.069Z</time></trkpt><trkpt lat="43.814685" lon="10.7326933"><ele>15.666666666666666</ele><time>2026-03-28T10:14:08.068Z</time></trkpt><trkpt lat="43.8146383" lon="10.7327717"><ele>15.333333333333332</ele><time>2026-03-28T10:14:09.068Z</time></trkpt><trkpt lat="43.8145917" lon="10.732855"><ele>15.0</ele><time>2026-03-28T10:14:10.069Z</time></trkpt><trkpt lat="43.8145383" lon="10.7329617"><ele>14.666666666666668</ele><time>2026-03-28T10:14:11.069Z</time></trkpt><trkpt lat="43.8144933" lon="10.7330767"><ele>14.333333333333334</ele><time>2026-03-28T10:14:12.069Z</time></trkpt><trkpt lat="43.8144517" lon="10.733195"><ele>14.0</ele><time>2026-03-28T10:14:13.069Z</time></trkpt><trkpt lat="43.81442" lon="10.7333267"><ele>14.0</ele><time>2026-03-28T10:14:14.069Z</time></trkpt><trkpt lat="43.8144033" lon="10.7334583"><ele>13.999999999999998</ele><time>2026-03-28T10:14:15.068Z</time></trkpt><trkpt lat="43.814375" lon="10.733615"><ele>13.999999999999998</ele><time>2026-03-28T10:14:16.069Z</time></trkpt><trkpt lat="43.81435" lon="10.73377"><ele>14.0</ele><time>2026-03-28T10:14:17.068Z</time></trkpt><trkpt lat="43.81433" lon="10.7339133"><ele>14.0</ele><time>2026-03-28T10:14:18.069Z</time></trkpt><trkpt lat="43.8143083" lon="10.7340567"><ele>14.2</ele><time>2026-03-28T10:14:19.069Z</time></trkpt><trkpt lat="43.8142867" lon="10.7341983"><ele>14.399999999999999</ele><time>2026-03-28T10:14:20.069Z</time></trkpt><trkpt lat="43.8142533" lon="10.7343333"><ele>14.6</ele><time>2026-03-28T10:14:21.068Z</time></trkpt><trkpt lat="43.8142267" lon="10.73447"><ele>14.8</ele><time>2026-03-28T10:14:22.069Z</time></trkpt><trkpt lat="43.8142033" lon="10.7346033"><ele>15.0</ele><time>2026-03-28T10:14:23.069Z</time></trkpt><trkpt lat="43.8141767" lon="10.734745"><ele>15.0</ele><time>2026-03-28T10:14:24.069Z</time></trkpt><trkpt lat="43.8141467" lon="10.7348917"><ele>15.0</ele><time>2026-03-28T10:14:25.068Z</time></trkpt><trkpt lat="43.814115" lon="10.7350317"><ele>15.0</ele><time>2026-03-28T10:14:26.068Z</time></trkpt><trkpt lat="43.8140917" lon="10.7351633"><ele>15.0</ele><time>2026-03-28T10:14:27.069Z</time></trkpt><trkpt lat="43.8140683" lon="10.7352867"><ele>15.0</ele><time>2026-03-28T10:14:28.068Z</time></trkpt><trkpt lat="43.814035" lon="10.7354133"><ele>15.166666666666666</ele><time>2026-03-28T10:14:29.069Z</time></trkpt><trkpt lat="43.813995" lon="10.7355333"><ele>15.333333333333332</ele><time>2026-03-28T10:14:30.069Z</time></trkpt><trkpt lat="43.8139633" lon="10.7356367"><ele>15.5</ele><time>2026-03-28T10:14:31.068Z</time></trkpt><trkpt lat="43.8139367" lon="10.7357233"><ele>15.666666666666666</ele><time>2026-03-28T10:14:32.069Z</time></trkpt><trkpt lat="43.8139067" lon="10.7358233"><ele>15.833333333333332</ele><time>2026-03-28T10:14:34.068Z</time></trkpt><trkpt lat="43.813875" lon="10.73594"><ele>16.0</ele><time>2026-03-28T10:14:37.069Z</time></trkpt><trkpt lat="43.81385" lon="10.7360617"><ele>16.0</ele><time>2026-03-28T10:14:39.069Z</time></trkpt><trkpt lat="43.81383" lon="10.7362083"><ele>16.0</ele><time>2026-03-28T10:14:41.069Z</time></trkpt><trkpt lat="43.8137983" lon="10.736345"><ele>16.0</ele><time>2026-03-28T10:14:43.069Z</time></trkpt><trkpt lat="43.81376" lon="10.73648"><ele>16.0</ele><time>2026-03-28T10:14:45.068Z</time></trkpt><trkpt lat="43.8137283" lon="10.7366267"><ele>16.0</ele><time>2026-03-28T10:14:47.069Z</time></trkpt><trkpt lat="43.8136867" lon="10.7367667"><ele>15.75</ele><time>2026-03-28T10:14:49.069Z</time></trkpt><trkpt lat="43.8136467" lon="10.7369183"><ele>15.5</ele><time>2026-03-28T10:14:51.068Z</time></trkpt><trkpt lat="43.81361" lon="10.7370583"><ele>15.25</ele><time>2026-03-28T10:14:53.069Z</time></trkpt><trkpt lat="43.8135667" lon="10.7372133"><ele>15.0</ele><time>2026-03-28T10:14:55.069Z</time></trkpt><trkpt lat="43.8135267" lon="10.73736"><ele>15.25</ele><time>2026-03-28T10:14:57.069Z</time></trkpt><trkpt lat="43.813485" lon="10.7375267"><ele>15.5</ele><time>2026-03-28T10:14:59.069Z</time></trkpt><trkpt lat="43.8134433" lon="10.73768"><ele>15.75</ele><time>2026-03-28T10:15:01.069Z</time></trkpt><trkpt lat="43.8134" lon="10.7378333"><ele>16.0</ele><time>2026-03-28T10:15:03.069Z</time></trkpt><trkpt lat="43.81336" lon="10.7379817"><ele>16.0</ele><time>2026-03-28T10:15:05.068Z</time></trkpt><trkpt lat="43.8133233" lon="10.738145"><ele>16.0</ele><time>2026-03-28T10:15:07.069Z</time></trkpt><trkpt lat="43.81328" lon="10.7383"><ele>16.0</ele><time>2026-03-28T10:15:09.068Z</time></trkpt><trkpt lat="43.8132483" lon="10.7384633"><ele>16.0</ele><time>2026-03-28T10:15:11.069Z</time></trkpt><trkpt lat="43.8132" lon="10.7386117"><ele>16.25</ele><time>2026-03-28T10:15:13.069Z</time></trkpt><trkpt lat="43.8131517" lon="10.7387633"><ele>16.5</ele><time>2026-03-28T10:15:15.069Z</time></trkpt><trkpt lat="43.8131083" lon="10.7389217"><ele>16.75</ele><time>2026-03-28T10:15:17.068Z</time></trkpt><trkpt lat="43.8130483" lon="10.7391483"><ele>17.0</ele><time>2026-03-28T10:15:20.068Z</time></trkpt><trkpt lat="43.8129967" lon="10.7392883"><ele>17.0</ele><time>2026-03-28T10:15:22.069Z</time></trkpt><trkpt lat="43.8129417" lon="10.73943"><ele>17.0</ele><time>2026-03-28T10:15:24.068Z</time></trkpt><trkpt lat="43.8129067" lon="10.73953"><ele>17.0</ele><time>2026-03-28T10:15:26.069Z</time></trkpt><trkpt lat="43.812875" lon="10.73963"><ele>17.0</ele><time>2026-03-28T10:15:28.069Z</time></trkpt><trkpt lat="43.8128317" lon="10.7397533"><ele>17.0</ele><time>2026-03-28T10:15:31.069Z</time></trkpt><trkpt lat="43.8127883" lon="10.739875"><ele>17.0</ele><time>2026-03-28T10:15:33.069Z</time></trkpt><trkpt lat="43.8127517" lon="10.7399983"><ele>17.0</ele><time>2026-03-28T10:15:35.068Z</time></trkpt><trkpt lat="43.81271" lon="10.7401233"><ele>17.0</ele><time>2026-03-28T10:15:37.069Z</time></trkpt><trkpt lat="43.81267" lon="10.7402533"><ele>17.0</ele><time>2026-03-28T10:15:39.069Z</time></trkpt><trkpt lat="43.8126367" lon="10.7403917"><ele>17.0</ele><time>2026-03-28T10:15:41.069Z</time></trkpt><trkpt lat="43.8126017" lon="10.7405167"><ele>16.8</ele><time>2026-03-28T10:15:43.069Z</time></trkpt><trkpt lat="43.8125617" lon="10.7406433"><ele>16.6</ele><time>2026-03-28T10:15:45.069Z</time></trkpt><trkpt lat="43.8125117" lon="10.74079"><ele>16.400000000000002</ele><time>2026-03-28T10:15:47.068Z</time></trkpt><trkpt lat="43.8124667" lon="10.7409267"><ele>16.2</ele><time>2026-03-28T10:15:49.068Z</time></trkpt><trkpt lat="43.81242" lon="10.7410733"><ele>16.0</ele><time>2026-03-28T10:15:51.069Z</time></trkpt><trkpt lat="43.8123733" lon="10.741225"><ele>16.0</ele><time>2026-03-28T10:15:53.069Z</time></trkpt><trkpt lat="43.8123283" lon="10.741375"><ele>16.0</ele><time>2026-03-28T10:15:55.069Z</time></trkpt><trkpt lat="43.812295" lon="10.7414917"><ele>16.0</ele><time>2026-03-28T10:15:57.069Z</time></trkpt><trkpt lat="43.812235" lon="10.7416117"><ele>16.0</ele><time>2026-03-28T10:15:59.069Z</time></trkpt><trkpt lat="43.8121633" lon="10.7417517"><ele>16.0</ele><time>2026-03-28T10:16:01.069Z</time></trkpt><trkpt lat="43.8120983" lon="10.7419"><ele>16.0</ele><time>2026-03-28T10:16:03.069Z</time></trkpt><trkpt lat="43.8120367" lon="10.7420417"><ele>16.0</ele><time>2026-03-28T10:16:05.069Z</time></trkpt><trkpt lat="43.8119667" lon="10.7421767"><ele>16.0</ele><time>2026-03-28T10:16:07.069Z</time></trkpt><trkpt lat="43.81193" lon="10.7422533"><ele>16.0</ele><time>2026-03-28T10:16:08.068Z</time></trkpt><trkpt lat="43.8118667" lon="10.7423983"><ele>16.0</ele><time>2026-03-28T10:16:10.069Z</time></trkpt><trkpt lat="43.8118033" lon="10.7425283"><ele>16.0</ele><time>2026-03-28T10:16:12.069Z</time></trkpt><trkpt lat="43.811765" lon="10.7425983"><ele>16.0</ele><time>2026-03-28T10:16:13.069Z</time></trkpt><trkpt lat="43.811695" lon="10.7427317"><ele>16.0</ele><time>2026-03-28T10:16:15.069Z</time></trkpt><trkpt lat="43.81162" lon="10.742855"><ele>16.0</ele><time>2026-03-28T10:16:17.069Z</time></trkpt><trkpt lat="43.8115633" lon="10.7429667"><ele>16.0</ele><time>2026-03-28T10:16:19.069Z</time></trkpt><trkpt lat="43.8115117" lon="10.7430667"><ele>15.833333333333332</ele><time>2026-03-28T10:16:21.068Z</time></trkpt><trkpt lat="43.81147" lon="10.7431533"><ele>15.666666666666666</ele><time>2026-03-28T10:16:25.068Z</time></trkpt><trkpt lat="43.8114017" lon="10.7431933"><ele>15.5</ele><time>2026-03-28T10:16:29.069Z</time></trkpt><trkpt lat="43.8113217" lon="10.7431717"><ele>15.333333333333332</ele><time>2026-03-28T10:16:31.069Z</time></trkpt><trkpt lat="43.8112317" lon="10.743155"><ele>15.166666666666666</ele><time>2026-03-28T10:16:33.069Z</time></trkpt><trkpt lat="43.8111433" lon="10.7431433"><ele>15.0</ele><time>2026-03-28T10:16:35.069Z</time></trkpt><trkpt lat="43.811055" lon="10.7431233"><ele>15.0</ele><time>2026-03-28T10:16:37.068Z</time></trkpt><trkpt lat="43.81097" lon="10.7431033"><ele>15.0</ele><time>2026-03-28T10:16:39.069Z</time></trkpt><trkpt lat="43.8108833" lon="10.743095"><ele>15.0</ele><time>2026-03-28T10:16:41.069Z</time></trkpt><trkpt lat="43.810795" lon="10.7430833"><ele>15.0</ele><time>2026-03-28T10:16:43.068Z</time></trkpt><trkpt lat="43.81071" lon="10.7430717"><ele>15.0</ele><time>2026-03-28T10:16:45.069Z</time></trkpt><trkpt lat="43.8106267" lon="10.7430533"><ele>15.0</ele><time>2026-03-28T10:16:47.069Z</time></trkpt><trkpt lat="43.8105317" lon="10.7430367"><ele>15.0</ele><time>2026-03-28T10:16:49.069Z</time></trkpt><trkpt lat="43.81044" lon="10.7430217"><ele>15.0</ele><time>2026-03-28T10:16:51.069Z</time></trkpt><trkpt lat="43.810345" lon="10.74301"><ele>15.0</ele><time>2026-03-28T10:16:53.068Z</time></trkpt><trkpt lat="43.8102567" lon="10.7429883"><ele>15.0</ele><time>2026-03-28T10:16:55.069Z</time></trkpt><trkpt lat="43.8101717" lon="10.74297"><ele>15.0</ele><time>2026-03-28T10:16:57.069Z</time></trkpt><trkpt lat="43.810085" lon="10.742955"><ele>15.333333333333334</ele><time>2026-03-28T10:16:59.068Z</time></trkpt><trkpt lat="43.8099838" lon="10.7429497"><ele>15.666666666666668</ele><time>2026-03-28T10:17:01.139Z</time></trkpt><trkpt lat="43.8098997" lon="10.7429097"><ele>16.0</ele><time>2026-03-28T10:17:03.133Z</time></trkpt><trkpt lat="43.809814" lon="10.7428917"><ele>16.333333333333336</ele><time>2026-03-28T10:17:05.064Z</time></trkpt><trkpt lat="43.8097305" lon="10.7428779"><ele>16.666666666666668</ele><time>2026-03-28T10:17:07.069Z</time></trkpt><trkpt lat="43.8096575" lon="10.7428769"><ele>17.0</ele><time>2026-03-28T10:17:09.069Z</time></trkpt><trkpt lat="43.8095683" lon="10.7428683"><ele>17.0</ele><time>2026-03-28T10:17:38.069Z</time></trkpt><trkpt lat="43.8095033" lon="10.7428483"><ele>17.0</ele><time>2026-03-28T10:17:40.068Z</time></trkpt><trkpt lat="43.8094483" lon="10.7429367"><ele>17.0</ele><time>2026-03-28T10:18:20.069Z</time></trkpt><trkpt lat="43.80941" lon="10.74302"><ele>17.0</ele><time>2026-03-28T10:18:22.069Z</time></trkpt><trkpt lat="43.8093767" lon="10.7431017"><ele>17.0</ele><time>2026-03-28T10:18:24.069Z</time></trkpt><trkpt lat="43.8093467" lon="10.7431933"><ele>17.0</ele><time>2026-03-28T10:18:26.068Z</time></trkpt><trkpt lat="43.8093067" lon="10.7433283"><ele>17.166666666666668</ele><time>2026-03-28T10:18:29.069Z</time></trkpt><trkpt lat="43.8092717" lon="10.7434467"><ele>17.333333333333336</ele><time>2026-03-28T10:18:31.069Z</time></trkpt><trkpt lat="43.8092467" lon="10.7435367"><ele>17.5</ele><time>2026-03-28T10:18:33.069Z</time></trkpt><trkpt lat="43.80922" lon="10.74362"><ele>17.666666666666668</ele><time>2026-03-28T10:18:35.069Z</time></trkpt><trkpt lat="43.8091833" lon="10.7437333"><ele>17.833333333333332</ele><time>2026-03-28T10:18:38.069Z</time></trkpt><trkpt lat="43.8091517" lon="10.7438183"><ele>18.0</ele><time>2026-03-28T10:18:40.068Z</time></trkpt><trkpt lat="43.809115" lon="10.743915"><ele>18.0</ele><time>2026-03-28T10:18:42.068Z</time></trkpt><trkpt lat="43.8090767" lon="10.74402"><ele>18.0</ele><time>2026-03-28T10:18:44.068Z</time></trkpt><trkpt lat="43.809035" lon="10.7441317"><ele>18.0</ele><time>2026-03-28T10:18:46.069Z</time></trkpt><trkpt lat="43.8090017" lon="10.74423"><ele>18.0</ele><time>2026-03-28T10:18:48.069Z</time></trkpt><trkpt lat="43.80897" lon="10.7443317"><ele>18.0</ele><time>2026-03-28T10:18:50.069Z</time></trkpt><trkpt lat="43.8089283" lon="10.7444433"><ele>18.0</ele><time>2026-03-28T10:18:52.069Z</time></trkpt><trkpt lat="43.8089" lon="10.7445383"><ele>17.833333333333332</ele><time>2026-03-28T10:18:54.069Z</time></trkpt><trkpt lat="43.8088733" lon="10.7446383"><ele>17.666666666666668</ele><time>2026-03-28T10:18:56.069Z</time></trkpt><trkpt lat="43.8088367" lon="10.7447683"><ele>17.5</ele><time>2026-03-28T10:18:58.069Z</time></trkpt><trkpt lat="43.8088167" lon="10.7448583"><ele>17.333333333333336</ele><time>2026-03-28T10:19:00.069Z</time></trkpt><trkpt lat="43.8087833" lon="10.7449933"><ele>17.166666666666668</ele><time>2026-03-28T10:19:02.069Z</time></trkpt><trkpt lat="43.8087433" lon="10.7450867"><ele>17.0</ele><time>2026-03-28T10:19:03.069Z</time></trkpt><trkpt lat="43.8087267" lon="10.7452067"><ele>16.666666666666668</ele><time>2026-03-28T10:19:06.068Z</time></trkpt><trkpt lat="43.80871" lon="10.7452983"><ele>16.333333333333336</ele><time>2026-03-28T10:19:08.069Z</time></trkpt><trkpt lat="43.8086833" lon="10.74542"><ele>16.0</ele><time>2026-03-28T10:19:10.069Z</time></trkpt><trkpt lat="43.8086617" lon="10.74551"><ele>15.666666666666668</ele><time>2026-03-28T10:19:12.069Z</time></trkpt><trkpt lat="43.80862" lon="10.745605"><ele>15.333333333333334</ele><time>2026-03-28T10:19:14.068Z</time></trkpt><trkpt lat="43.808575" lon="10.7457083"><ele>15.0</ele><time>2026-03-28T10:19:15.068Z</time></trkpt><trkpt lat="43.808545" lon="10.7457867"><ele>15.0</ele><time>2026-03-28T10:19:17.069Z</time></trkpt><trkpt lat="43.8084983" lon="10.745885"><ele>15.0</ele><time>2026-03-28T10:19:19.068Z</time></trkpt><trkpt lat="43.8084267" lon="10.746015"><ele>15.0</ele><time>2026-03-28T10:19:21.068Z</time></trkpt><trkpt lat="43.8083517" lon="10.746145"><ele>15.0</ele><time>2026-03-28T10:19:24.068Z</time></trkpt><trkpt lat="43.8082817" lon="10.746285"><ele>15.0</ele><time>2026-03-28T10:19:27.068Z</time></trkpt><trkpt lat="43.808235" lon="10.7463783"><ele>15.0</ele><time>2026-03-28T10:19:29.068Z</time></trkpt><trkpt lat="43.8081767" lon="10.7464967"><ele>15.0</ele><time>2026-03-28T10:19:31.069Z</time></trkpt><trkpt lat="43.80814" lon="10.7465783"><ele>15.0</ele><time>2026-03-28T10:19:33.069Z</time></trkpt><trkpt lat="43.8080867" lon="10.7466867"><ele>15.0</ele><time>2026-03-28T10:19:35.069Z</time></trkpt><trkpt lat="43.80805" lon="10.7467667"><ele>15.0</ele><time>2026-03-28T10:19:37.069Z</time></trkpt><trkpt lat="43.8079733" lon="10.7469033"><ele>15.0</ele><time>2026-03-28T10:19:39.069Z</time></trkpt><trkpt lat="43.80792" lon="10.7469767"><ele>15.0</ele><time>2026-03-28T10:19:41.069Z</time></trkpt><trkpt lat="43.8078683" lon="10.74705"><ele>15.0</ele><time>2026-03-28T10:19:43.069Z</time></trkpt><trkpt lat="43.8078167" lon="10.74713"><ele>15.0</ele><time>2026-03-28T10:19:45.069Z</time></trkpt><trkpt lat="43.80776" lon="10.7472283"><ele>15.0</ele><time>2026-03-28T10:19:47.069Z</time></trkpt><trkpt lat="43.8077117" lon="10.7473217"><ele>15.0</ele><time>2026-03-28T10:19:48.069Z</time></trkpt><trkpt lat="43.807645" lon="10.7474317"><ele>15.0</ele><time>2026-03-28T10:19:50.069Z</time></trkpt><trkpt lat="43.80758" lon="10.747545"><ele>15.0</ele><time>2026-03-28T10:19:52.068Z</time></trkpt><trkpt lat="43.807515" lon="10.747665"><ele>15.0</ele><time>2026-03-28T10:19:54.069Z</time></trkpt><trkpt lat="43.8074517" lon="10.7477817"><ele>15.0</ele><time>2026-03-28T10:19:56.068Z</time></trkpt><trkpt lat="43.8074" lon="10.7478717"><ele>15.0</ele><time>2026-03-28T10:19:58.068Z</time></trkpt><trkpt lat="43.8073533" lon="10.7479533"><ele>15.0</ele><time>2026-03-28T10:20:00.069Z</time></trkpt><trkpt lat="43.8073017" lon="10.7480267"><ele>15.0</ele><time>2026-03-28T10:20:03.069Z</time></trkpt><trkpt lat="43.8072467" lon="10.748105"><ele>15.0</ele><time>2026-03-28T10:20:05.069Z</time></trkpt><trkpt lat="43.807195" lon="10.74818"><ele>15.0</ele><time>2026-03-28T10:20:07.069Z</time></trkpt><trkpt lat="43.80714" lon="10.7482717"><ele>15.0</ele><time>2026-03-28T10:20:09.069Z</time></trkpt><trkpt lat="43.8070867" lon="10.7483567"><ele>15.0</ele><time>2026-03-28T10:20:11.069Z</time></trkpt><trkpt lat="43.8070583" lon="10.74845"><ele>15.0</ele><time>2026-03-28T10:20:13.068Z</time></trkpt><trkpt lat="43.80703" lon="10.74858"><ele>15.0</ele><time>2026-03-28T10:20:15.069Z</time></trkpt><trkpt lat="43.8070083" lon="10.7487183"><ele>15.0</ele><time>2026-03-28T10:20:17.069Z</time></trkpt><trkpt lat="43.8069883" lon="10.74884"><ele>15.0</ele><time>2026-03-28T10:20:19.069Z</time></trkpt><trkpt lat="43.8069683" lon="10.7489467"><ele>15.0</ele><time>2026-03-28T10:20:21.069Z</time></trkpt><trkpt lat="43.8069483" lon="10.74908"><ele>15.0</ele><time>2026-03-28T10:20:24.068Z</time></trkpt><trkpt lat="43.8069267" lon="10.7492217"><ele>15.0</ele><time>2026-03-28T10:20:26.069Z</time></trkpt><trkpt lat="43.8069" lon="10.7493683"><ele>15.0</ele><time>2026-03-28T10:20:28.069Z</time></trkpt><trkpt lat="43.80687" lon="10.7495283"><ele>15.0</ele><time>2026-03-28T10:20:30.069Z</time></trkpt><trkpt lat="43.8068467" lon="10.749675"><ele>15.0</ele><time>2026-03-28T10:20:32.069Z</time></trkpt><trkpt lat="43.806825" lon="10.7497983"><ele>15.8</ele><time>2026-03-28T10:20:34.069Z</time></trkpt><trkpt lat="43.806805" lon="10.7499317"><ele>16.6</ele><time>2026-03-28T10:20:36.069Z</time></trkpt><trkpt lat="43.8067917" lon="10.7500683"><ele>17.4</ele><time>2026-03-28T10:20:38.069Z</time></trkpt><trkpt lat="43.806775" lon="10.750205"><ele>18.2</ele><time>2026-03-28T10:20:40.069Z</time></trkpt><trkpt lat="43.8067533" lon="10.7503417"><ele>19.0</ele><time>2026-03-28T10:20:42.069Z</time></trkpt><trkpt lat="43.806735" lon="10.7504733"><ele>19.0</ele><time>2026-03-28T10:20:44.069Z</time></trkpt><trkpt lat="43.8067067" lon="10.7506033"><ele>19.0</ele><time>2026-03-28T10:20:46.068Z</time></trkpt><trkpt lat="43.8066817" lon="10.7507417"><ele>19.0</ele><time>2026-03-28T10:20:48.069Z</time></trkpt><trkpt lat="43.8066517" lon="10.7508667"><ele>19.0</ele><time>2026-03-28T10:20:50.068Z</time></trkpt><trkpt lat="43.8066017" lon="10.75101"><ele>19.0</ele><time>2026-03-28T10:20:52.069Z</time></trkpt><trkpt lat="43.80657" lon="10.7511117"><ele>18.333333333333332</ele><time>2026-03-28T10:20:54.069Z</time></trkpt><trkpt lat="43.8065383" lon="10.7512133"><ele>17.666666666666664</ele><time>2026-03-28T10:20:56.068Z</time></trkpt><trkpt lat="43.8065083" lon="10.7513133"><ele>17.0</ele><time>2026-03-28T10:20:58.069Z</time></trkpt><trkpt lat="43.80647" lon="10.7514083"><ele>16.333333333333332</ele><time>2026-03-28T10:21:00.069Z</time></trkpt><trkpt lat="43.8064217" lon="10.75149"><ele>15.666666666666666</ele><time>2026-03-28T10:21:02.068Z</time></trkpt><trkpt lat="43.8063567" lon="10.7515767"><ele>15.0</ele><time>2026-03-28T10:21:04.069Z</time></trkpt><trkpt lat="43.8062967" lon="10.7516967"><ele>15.0</ele><time>2026-03-28T10:21:06.068Z</time></trkpt><trkpt lat="43.806245" lon="10.7518267"><ele>15.0</ele><time>2026-03-28T10:21:08.069Z</time></trkpt><trkpt lat="43.8062083" lon="10.7519567"><ele>15.0</ele><time>2026-03-28T10:21:10.069Z</time></trkpt><trkpt lat="43.8061883" lon="10.75208"><ele>15.0</ele><time>2026-03-28T10:21:12.068Z</time></trkpt><trkpt lat="43.8061683" lon="10.7522033"><ele>15.0</ele><time>2026-03-28T10:21:14.069Z</time></trkpt><trkpt lat="43.8061483" lon="10.752325"><ele>15.0</ele><time>2026-03-28T10:21:16.069Z</time></trkpt><trkpt lat="43.80612" lon="10.7524583"><ele>15.0</ele><time>2026-03-28T10:21:18.069Z</time></trkpt><trkpt lat="43.80609" lon="10.7525983"><ele>15.0</ele><time>2026-03-28T10:21:20.068Z</time></trkpt><trkpt lat="43.806065" lon="10.75271"><ele>15.0</ele><time>2026-03-28T10:21:22.069Z</time></trkpt><trkpt lat="43.80605" lon="10.752795"><ele>15.0</ele><time>2026-03-28T10:21:24.068Z</time></trkpt><trkpt lat="43.8060317" lon="10.752905"><ele>15.0</ele><time>2026-03-28T10:21:26.069Z</time></trkpt><trkpt lat="43.8059933" lon="10.7530367"><ele>15.4</ele><time>2026-03-28T10:21:28.069Z</time></trkpt><trkpt lat="43.805985" lon="10.7531667"><ele>15.8</ele><time>2026-03-28T10:21:30.069Z</time></trkpt><trkpt lat="43.8059683" lon="10.7532783"><ele>16.2</ele><time>2026-03-28T10:21:32.069Z</time></trkpt><trkpt lat="43.8059383" lon="10.7534067"><ele>16.6</ele><time>2026-03-28T10:21:34.069Z</time></trkpt><trkpt lat="43.805895" lon="10.7535067"><ele>17.0</ele><time>2026-03-28T10:21:36.069Z</time></trkpt><trkpt lat="43.8058267" lon="10.7536167"><ele>17.0</ele><time>2026-03-28T10:21:38.069Z</time></trkpt><trkpt lat="43.8057633" lon="10.753735"><ele>17.0</ele><time>2026-03-28T10:21:40.069Z</time></trkpt><trkpt lat="43.8057233" lon="10.7538683"><ele>17.0</ele><time>2026-03-28T10:21:42.068Z</time></trkpt><trkpt lat="43.805685" lon="10.7540333"><ele>17.0</ele><time>2026-03-28T10:21:44.069Z</time></trkpt><trkpt lat="43.80565" lon="10.7541783"><ele>17.0</ele><time>2026-03-28T10:21:46.068Z</time></trkpt><trkpt lat="43.8056217" lon="10.7543067"><ele>16.666666666666668</ele><time>2026-03-28T10:21:48.069Z</time></trkpt><trkpt lat="43.8055967" lon="10.7544317"><ele>16.333333333333336</ele><time>2026-03-28T10:21:50.069Z</time></trkpt><trkpt lat="43.805575" lon="10.754535"><ele>16.0</ele><time>2026-03-28T10:21:52.068Z</time></trkpt><trkpt lat="43.8055533" lon="10.7546367"><ele>15.666666666666668</ele><time>2026-03-28T10:21:54.069Z</time></trkpt><trkpt lat="43.8055189" lon="10.7547655"><ele>15.333333333333334</ele><time>2026-03-28T10:21:57.085Z</time></trkpt><trkpt lat="43.8054998" lon="10.7548556"><ele>15.0</ele><time>2026-03-28T10:21:58.144Z</time></trkpt><trkpt lat="43.8054438" lon="10.7549895"><ele>15.0</ele><time>2026-03-28T10:22:00.069Z</time></trkpt><trkpt lat="43.8053977" lon="10.7551173"><ele>15.0</ele><time>2026-03-28T10:22:02.069Z</time></trkpt><trkpt lat="43.8053475" lon="10.7552382"><ele>15.0</ele><time>2026-03-28T10:22:04.069Z</time></trkpt><trkpt lat="43.8052979" lon="10.7553522"><ele>15.0</ele><time>2026-03-28T10:22:06.068Z</time></trkpt><trkpt lat="43.8052457" lon="10.7554662"><ele>15.0</ele><time>2026-03-28T10:22:08.069Z</time></trkpt><trkpt lat="43.8051926" lon="10.7555959"><ele>15.2</ele><time>2026-03-28T10:22:10.069Z</time></trkpt><trkpt lat="43.8051428" lon="10.7557385"><ele>15.4</ele><time>2026-03-28T10:22:12.069Z</time></trkpt><trkpt lat="43.805095" lon="10.7558709"><ele>15.600000000000001</ele><time>2026-03-28T10:22:14.068Z</time></trkpt><trkpt lat="43.8050424" lon="10.7560043"><ele>15.8</ele><time>2026-03-28T10:22:16.069Z</time></trkpt><trkpt lat="43.8049895" lon="10.7561369"><ele>16.0</ele><time>2026-03-28T10:22:18.068Z</time></trkpt><trkpt lat="43.804933" lon="10.7562712"><ele>15.600000000000001</ele><time>2026-03-28T10:22:20.069Z</time></trkpt><trkpt lat="43.8048843" lon="10.7564092"><ele>15.200000000000001</ele><time>2026-03-28T10:22:22.069Z</time></trkpt><trkpt lat="43.8048325" lon="10.756542"><ele>14.799999999999999</ele><time>2026-03-28T10:22:24.069Z</time></trkpt><trkpt lat="43.8047832" lon="10.7566721"><ele>14.399999999999999</ele><time>2026-03-28T10:22:26.069Z</time></trkpt><trkpt lat="43.8047319" lon="10.7568065"><ele>14.0</ele><time>2026-03-28T10:22:28.069Z</time></trkpt><trkpt lat="43.8046811" lon="10.7569411"><ele>14.0</ele><time>2026-03-28T10:22:30.068Z</time></trkpt><trkpt lat="43.8046349" lon="10.7570808"><ele>13.999999999999998</ele><time>2026-03-28T10:22:32.069Z</time></trkpt><trkpt lat="43.804596" lon="10.7572252"><ele>13.999999999999998</ele><time>2026-03-28T10:22:34.069Z</time></trkpt><trkpt lat="43.8045574" lon="10.7573655"><ele>14.0</ele><time>2026-03-28T10:22:36.069Z</time></trkpt><trkpt lat="43.8045306" lon="10.7574859"><ele>14.0</ele><time>2026-03-28T10:22:38.069Z</time></trkpt><trkpt lat="43.8045184" lon="10.7575822"><ele>14.0</ele><time>2026-03-28T10:22:41.069Z</time></trkpt><trkpt lat="43.8044106" lon="10.7576003"><ele>13.999999999999998</ele><time>2026-03-28T10:22:45.069Z</time></trkpt><trkpt lat="43.8042927" lon="10.7575962"><ele>13.999999999999998</ele><time>2026-03-28T10:22:47.069Z</time></trkpt><trkpt lat="43.8042267" lon="10.7575883"><ele>14.0</ele><time>2026-03-28T10:22:48.068Z</time></trkpt><trkpt lat="43.8041033" lon="10.7575883"><ele>14.0</ele><time>2026-03-28T10:22:50.069Z</time></trkpt><trkpt lat="43.8040367" lon="10.757605"><ele>14.500000000000002</ele><time>2026-03-28T10:22:51.069Z</time></trkpt><trkpt lat="43.8039717" lon="10.75763"><ele>15.0</ele><time>2026-03-28T10:22:52.069Z</time></trkpt><trkpt lat="43.80391" lon="10.7576667"><ele>15.5</ele><time>2026-03-28T10:22:53.069Z</time></trkpt><trkpt lat="43.8038567" lon="10.75774"><ele>16.0</ele><time>2026-03-28T10:22:54.069Z</time></trkpt><trkpt lat="43.8038067" lon="10.75784"><ele>16.5</ele><time>2026-03-28T10:22:55.069Z</time></trkpt><trkpt lat="43.8037617" lon="10.7579317"><ele>17.0</ele><time>2026-03-28T10:22:56.069Z</time></trkpt><trkpt lat="43.80372" lon="10.7580283"><ele>17.0</ele><time>2026-03-28T10:22:57.069Z</time></trkpt><trkpt lat="43.803685" lon="10.75813"><ele>17.0</ele><time>2026-03-28T10:22:58.069Z</time></trkpt><trkpt lat="43.8036483" lon="10.7582317"><ele>17.0</ele><time>2026-03-28T10:22:59.068Z</time></trkpt><trkpt lat="43.8036067" lon="10.7583417"><ele>17.0</ele><time>2026-03-28T10:23:00.069Z</time></trkpt><trkpt lat="43.80356" lon="10.758445"><ele>17.0</ele><time>2026-03-28T10:23:01.069Z</time></trkpt><trkpt lat="43.8035133" lon="10.7585483"><ele>17.0</ele><time>2026-03-28T10:23:02.068Z</time></trkpt><trkpt lat="43.803475" lon="10.758655"><ele>17.0</ele><time>2026-03-28T10:23:03.068Z</time></trkpt><trkpt lat="43.80344" lon="10.75876"><ele>17.0</ele><time>2026-03-28T10:23:04.069Z</time></trkpt><trkpt lat="43.8034067" lon="10.7588683"><ele>17.0</ele><time>2026-03-28T10:23:05.068Z</time></trkpt><trkpt lat="43.8033617" lon="10.758985"><ele>17.0</ele><time>2026-03-28T10:23:06.069Z</time></trkpt><trkpt lat="43.8033133" lon="10.759095"><ele>17.0</ele><time>2026-03-28T10:23:07.068Z</time></trkpt><trkpt lat="43.8032617" lon="10.7591967"><ele>17.0</ele><time>2026-03-28T10:23:08.069Z</time></trkpt><trkpt lat="43.8032033" lon="10.759295"><ele>16.6</ele><time>2026-03-28T10:23:09.069Z</time></trkpt><trkpt lat="43.8031383" lon="10.7593917"><ele>16.2</ele><time>2026-03-28T10:23:10.069Z</time></trkpt><trkpt lat="43.8030733" lon="10.7594817"><ele>15.8</ele><time>2026-03-28T10:23:11.068Z</time></trkpt><trkpt lat="43.8029933" lon="10.7595667"><ele>15.4</ele><time>2026-03-28T10:23:12.068Z</time></trkpt><trkpt lat="43.8029133" lon="10.7596567"><ele>15.0</ele><time>2026-03-28T10:23:13.069Z</time></trkpt><trkpt lat="43.802835" lon="10.7597483"><ele>15.0</ele><time>2026-03-28T10:23:14.069Z</time></trkpt><trkpt lat="43.80275" lon="10.7598467"><ele>15.0</ele><time>2026-03-28T10:23:15.068Z</time></trkpt><trkpt lat="43.8026667" lon="10.75994"><ele>15.0</ele><time>2026-03-28T10:23:16.069Z</time></trkpt><trkpt lat="43.8025867" lon="10.7600267"><ele>15.0</ele><time>2026-03-28T10:23:17.069Z</time></trkpt><trkpt lat="43.8025067" lon="10.7601133"><ele>15.0</ele><time>2026-03-28T10:23:18.069Z</time></trkpt><trkpt lat="43.80243" lon="10.7601933"><ele>15.666666666666666</ele><time>2026-03-28T10:23:19.069Z</time></trkpt><trkpt lat="43.8023567" lon="10.760275"><ele>16.333333333333332</ele><time>2026-03-28T10:23:20.069Z</time></trkpt><trkpt lat="43.802295" lon="10.7603633"><ele>17.0</ele><time>2026-03-28T10:23:21.068Z</time></trkpt><trkpt lat="43.8022583" lon="10.76047"><ele>17.666666666666664</ele><time>2026-03-28T10:23:22.069Z</time></trkpt><trkpt lat="43.8022383" lon="10.76058"><ele>18.333333333333332</ele><time>2026-03-28T10:23:23.068Z</time></trkpt><trkpt lat="43.8022433" lon="10.7606933"><ele>19.0</ele><time>2026-03-28T10:23:24.068Z</time></trkpt><trkpt lat="43.8022667" lon="10.7608117"><ele>19.0</ele><time>2026-03-28T10:23:25.069Z</time></trkpt><trkpt lat="43.8023233" lon="10.7609267"><ele>19.0</ele><time>2026-03-28T10:23:26.069Z</time></trkpt><trkpt lat="43.8023817" lon="10.7610333"><ele>19.0</ele><time>2026-03-28T10:23:27.068Z</time></trkpt><trkpt lat="43.80244" lon="10.7611533"><ele>19.0</ele><time>2026-03-28T10:23:28.069Z</time></trkpt><trkpt lat="43.802495" lon="10.7612767"><ele>19.0</ele><time>2026-03-28T10:23:29.069Z</time></trkpt><trkpt lat="43.8025417" lon="10.7614083"><ele>18.599999999999998</ele><time>2026-03-28T10:23:30.069Z</time></trkpt><trkpt lat="43.8025883" lon="10.7615383"><ele>18.2</ele><time>2026-03-28T10:23:31.069Z</time></trkpt><trkpt lat="43.8026233" lon="10.76168"><ele>17.799999999999997</ele><time>2026-03-28T10:23:32.068Z</time></trkpt><trkpt lat="43.8026517" lon="10.7618317"><ele>17.4</ele><time>2026-03-28T10:23:33.068Z</time></trkpt><trkpt lat="43.8026733" lon="10.7619783"><ele>17.0</ele><time>2026-03-28T10:23:34.069Z</time></trkpt><trkpt lat="43.80268" lon="10.7621333"><ele>17.0</ele><time>2026-03-28T10:23:35.068Z</time></trkpt><trkpt lat="43.8026767" lon="10.76229"><ele>17.0</ele><time>2026-03-28T10:23:36.068Z</time></trkpt><trkpt lat="43.80266" lon="10.7624483"><ele>17.0</ele><time>2026-03-28T10:23:37.069Z</time></trkpt><trkpt lat="43.8026367" lon="10.762595"><ele>17.0</ele><time>2026-03-28T10:23:38.069Z</time></trkpt><trkpt lat="43.8026133" lon="10.7627433"><ele>17.0</ele><time>2026-03-28T10:23:39.069Z</time></trkpt><trkpt lat="43.8025883" lon="10.7628933"><ele>19.0</ele><time>2026-03-28T10:23:40.069Z</time></trkpt><trkpt lat="43.802565" lon="10.763045"><ele>21.0</ele><time>2026-03-28T10:23:41.069Z</time></trkpt><trkpt lat="43.8025433" lon="10.7632017"><ele>23.0</ele><time>2026-03-28T10:23:42.069Z</time></trkpt><trkpt lat="43.80252" lon="10.7633583"><ele>25.0</ele><time>2026-03-28T10:23:43.069Z</time></trkpt><trkpt lat="43.8024983" lon="10.7635133"><ele>25.25</ele><time>2026-03-28T10:23:44.068Z</time></trkpt><trkpt lat="43.80247" lon="10.76367"><ele>25.5</ele><time>2026-03-28T10:23:45.068Z</time></trkpt><trkpt lat="43.8024283" lon="10.7638167"><ele>25.75</ele><time>2026-03-28T10:23:46.069Z</time></trkpt><trkpt lat="43.80239" lon="10.763965"><ele>26.0</ele><time>2026-03-28T10:23:47.068Z</time></trkpt><trkpt lat="43.802335" lon="10.764095"><ele>26.0</ele><time>2026-03-28T10:23:48.068Z</time></trkpt><trkpt lat="43.8022733" lon="10.7642233"><ele>26.0</ele><time>2026-03-28T10:23:49.069Z</time></trkpt><trkpt lat="43.8021967" lon="10.764345"><ele>26.0</ele><time>2026-03-28T10:23:50.069Z</time></trkpt><trkpt lat="43.8021183" lon="10.7644717"><ele>26.0</ele><time>2026-03-28T10:23:51.069Z</time></trkpt><trkpt lat="43.8020333" lon="10.7645917"><ele>26.25</ele><time>2026-03-28T10:23:52.069Z</time></trkpt><trkpt lat="43.8019367" lon="10.7647133"><ele>26.5</ele><time>2026-03-28T10:23:53.068Z</time></trkpt><trkpt lat="43.80186" lon="10.76483"><ele>26.75</ele><time>2026-03-28T10:23:54.069Z</time></trkpt><trkpt lat="43.8017833" lon="10.7649417"><ele>27.0</ele><time>2026-03-28T10:23:55.068Z</time></trkpt><trkpt lat="43.8017" lon="10.7650467"><ele>27.0</ele><time>2026-03-28T10:23:56.068Z</time></trkpt><trkpt lat="43.8015967" lon="10.7651417"><ele>27.0</ele><time>2026-03-28T10:23:57.069Z</time></trkpt><trkpt lat="43.8014867" lon="10.7652233"><ele>27.0</ele><time>2026-03-28T10:23:58.069Z</time></trkpt><trkpt lat="43.8013767" lon="10.765295"><ele>27.0</ele><time>2026-03-28T10:23:59.068Z</time></trkpt><trkpt lat="43.80127" lon="10.765355"><ele>25.0</ele><time>2026-03-28T10:24:00.069Z</time></trkpt><trkpt lat="43.8011583" lon="10.765405"><ele>23.0</ele><time>2026-03-28T10:24:01.069Z</time></trkpt><trkpt lat="43.8010467" lon="10.7654417"><ele>21.0</ele><time>2026-03-28T10:24:02.069Z</time></trkpt><trkpt lat="43.8009333" lon="10.7654717"><ele>19.0</ele><time>2026-03-28T10:24:03.069Z</time></trkpt><trkpt lat="43.8008167" lon="10.7655"><ele>19.0</ele><time>2026-03-28T10:24:04.069Z</time></trkpt><trkpt lat="43.8007" lon="10.7655367"><ele>19.0</ele><time>2026-03-28T10:24:05.069Z</time></trkpt><trkpt lat="43.800585" lon="10.7655783"><ele>19.0</ele><time>2026-03-28T10:24:06.069Z</time></trkpt><trkpt lat="43.8004783" lon="10.7656133"><ele>19.0</ele><time>2026-03-28T10:24:07.068Z</time></trkpt><trkpt lat="43.800375" lon="10.7656367"><ele>19.0</ele><time>2026-03-28T10:24:08.068Z</time></trkpt><trkpt lat="43.8002667" lon="10.7656767"><ele>19.0</ele><time>2026-03-28T10:24:09.069Z</time></trkpt><trkpt lat="43.8001583" lon="10.765735"><ele>19.0</ele><time>2026-03-28T10:24:10.069Z</time></trkpt><trkpt lat="43.8000667" lon="10.765815"><ele>19.0</ele><time>2026-03-28T10:24:11.069Z</time></trkpt><trkpt lat="43.799995" lon="10.76592"><ele>19.0</ele><time>2026-03-28T10:24:12.069Z</time></trkpt><trkpt lat="43.7999317" lon="10.766035"><ele>18.8</ele><time>2026-03-28T10:24:13.068Z</time></trkpt><trkpt lat="43.7998767" lon="10.76616"><ele>18.599999999999998</ele><time>2026-03-28T10:24:14.069Z</time></trkpt><trkpt lat="43.799835" lon="10.7663"><ele>18.4</ele><time>2026-03-28T10:24:15.068Z</time></trkpt><trkpt lat="43.799805" lon="10.7664467"><ele>18.2</ele><time>2026-03-28T10:24:16.069Z</time></trkpt><trkpt lat="43.7997633" lon="10.766595"><ele>18.0</ele><time>2026-03-28T10:24:17.069Z</time></trkpt><trkpt lat="43.7997317" lon="10.7667517"><ele>17.25</ele><time>2026-03-28T10:24:18.069Z</time></trkpt><trkpt lat="43.799705" lon="10.766905"><ele>16.5</ele><time>2026-03-28T10:24:19.069Z</time></trkpt><trkpt lat="43.79967" lon="10.7670683"><ele>15.75</ele><time>2026-03-28T10:24:20.069Z</time></trkpt><trkpt lat="43.7996367" lon="10.767225"><ele>15.0</ele><time>2026-03-28T10:24:21.069Z</time></trkpt><trkpt lat="43.7996117" lon="10.767385"><ele>15.0</ele><time>2026-03-28T10:24:22.069Z</time></trkpt><trkpt lat="43.799595" lon="10.767545"><ele>15.0</ele><time>2026-03-28T10:24:23.069Z</time></trkpt><trkpt lat="43.7995767" lon="10.76771"><ele>15.0</ele><time>2026-03-28T10:24:24.068Z</time></trkpt><trkpt lat="43.7995767" lon="10.767875"><ele>15.0</ele><time>2026-03-28T10:24:25.068Z</time></trkpt><trkpt lat="43.7995817" lon="10.7680333"><ele>15.25</ele><time>2026-03-28T10:24:26.069Z</time></trkpt><trkpt lat="43.79959" lon="10.76819"><ele>15.5</ele><time>2026-03-28T10:24:27.068Z</time></trkpt><trkpt lat="43.799605" lon="10.7683467"><ele>15.75</ele><time>2026-03-28T10:24:28.069Z</time></trkpt><trkpt lat="43.7996217" lon="10.7685033"><ele>16.0</ele><time>2026-03-28T10:24:29.069Z</time></trkpt><trkpt lat="43.79963" lon="10.7686617"><ele>16.25</ele><time>2026-03-28T10:24:30.068Z</time></trkpt><trkpt lat="43.7996367" lon="10.76882"><ele>16.5</ele><time>2026-03-28T10:24:31.068Z</time></trkpt><trkpt lat="43.7996367" lon="10.7689833"><ele>16.75</ele><time>2026-03-28T10:24:32.069Z</time></trkpt><trkpt lat="43.79963" lon="10.76914"><ele>17.0</ele><time>2026-03-28T10:24:33.069Z</time></trkpt><trkpt lat="43.79961" lon="10.7693017"><ele>16.75</ele><time>2026-03-28T10:24:34.069Z</time></trkpt><trkpt lat="43.7995867" lon="10.7694717"><ele>16.5</ele><time>2026-03-28T10:24:35.068Z</time></trkpt><trkpt lat="43.7995633" lon="10.76963"><ele>16.25</ele><time>2026-03-28T10:24:36.069Z</time></trkpt><trkpt lat="43.7995333" lon="10.7697833"><ele>16.0</ele><time>2026-03-28T10:24:37.068Z</time></trkpt><trkpt lat="43.7995117" lon="10.769915"><ele>16.0</ele><time>2026-03-28T10:24:38.069Z</time></trkpt><trkpt lat="43.7995" lon="10.7700467"><ele>16.0</ele><time>2026-03-28T10:24:39.068Z</time></trkpt><trkpt lat="43.799495" lon="10.7701617"><ele>16.0</ele><time>2026-03-28T10:24:40.069Z</time></trkpt><trkpt lat="43.7994983" lon="10.7702583"><ele>16.0</ele><time>2026-03-28T10:24:41.068Z</time></trkpt><trkpt lat="43.7995533" lon="10.7704083"><ele>16.0</ele><time>2026-03-28T10:24:43.069Z</time></trkpt><trkpt lat="43.7996117" lon="10.7704833"><ele>16.0</ele><time>2026-03-28T10:24:44.068Z</time></trkpt><trkpt lat="43.7996867" lon="10.7705533"><ele>16.0</ele><time>2026-03-28T10:24:45.069Z</time></trkpt><trkpt lat="43.7997717" lon="10.7706083"><ele>16.0</ele><time>2026-03-28T10:24:46.069Z</time></trkpt><trkpt lat="43.799855" lon="10.7706617"><ele>16.0</ele><time>2026-03-28T10:24:47.069Z</time></trkpt><trkpt lat="43.799965" lon="10.7707317"><ele>16.0</ele><time>2026-03-28T10:24:48.069Z</time></trkpt><trkpt lat="43.800075" lon="10.770805"><ele>16.0</ele><time>2026-03-28T10:24:49.069Z</time></trkpt><trkpt lat="43.80017" lon="10.7708617"><ele>16.0</ele><time>2026-03-28T10:24:50.069Z</time></trkpt><trkpt lat="43.800255" lon="10.770905"><ele>16.0</ele><time>2026-03-28T10:24:51.069Z</time></trkpt><trkpt lat="43.8003333" lon="10.770965"><ele>16.0</ele><time>2026-03-28T10:24:52.069Z</time></trkpt><trkpt lat="43.800415" lon="10.7710333"><ele>16.0</ele><time>2026-03-28T10:24:53.068Z</time></trkpt><trkpt lat="43.8005067" lon="10.7711"><ele>16.5</ele><time>2026-03-28T10:24:54.068Z</time></trkpt><trkpt lat="43.8006167" lon="10.7711767"><ele>17.0</ele><time>2026-03-28T10:24:55.069Z</time></trkpt><trkpt lat="43.8007267" lon="10.7712417"><ele>17.5</ele><time>2026-03-28T10:24:56.068Z</time></trkpt><trkpt lat="43.800835" lon="10.7712967"><ele>18.0</ele><time>2026-03-28T10:24:57.069Z</time></trkpt><trkpt lat="43.8009433" lon="10.771355"><ele>17.4</ele><time>2026-03-28T10:24:58.069Z</time></trkpt><trkpt lat="43.8010367" lon="10.7714267"><ele>16.8</ele><time>2026-03-28T10:24:59.069Z</time></trkpt><trkpt lat="43.801135" lon="10.7714967"><ele>16.2</ele><time>2026-03-28T10:25:00.068Z</time></trkpt><trkpt lat="43.8012367" lon="10.7715633"><ele>15.6</ele><time>2026-03-28T10:25:01.069Z</time></trkpt><trkpt lat="43.8013433" lon="10.7716383"><ele>15.0</ele><time>2026-03-28T10:25:02.068Z</time></trkpt><trkpt lat="43.801445" lon="10.7717017"><ele>15.0</ele><time>2026-03-28T10:25:03.069Z</time></trkpt><trkpt lat="43.8015433" lon="10.77177"><ele>15.0</ele><time>2026-03-28T10:25:04.068Z</time></trkpt><trkpt lat="43.8016433" lon="10.7718383"><ele>15.0</ele><time>2026-03-28T10:25:05.068Z</time></trkpt><trkpt lat="43.80179" lon="10.7719317"><ele>15.0</ele><time>2026-03-28T10:25:06.069Z</time></trkpt><trkpt lat="43.8019617" lon="10.7720333"><ele>15.0</ele><time>2026-03-28T10:25:07.068Z</time></trkpt><trkpt lat="43.8021017" lon="10.7721183"><ele>15.0</ele><time>2026-03-28T10:25:08.069Z</time></trkpt><trkpt lat="43.80222" lon="10.7722017"><ele>15.0</ele><time>2026-03-28T10:25:09.069Z</time></trkpt><trkpt lat="43.8023233" lon="10.7722633"><ele>15.0</ele><time>2026-03-28T10:25:10.068Z</time></trkpt><trkpt lat="43.802405" lon="10.7723"><ele>15.0</ele><time>2026-03-28T10:25:11.069Z</time></trkpt><trkpt lat="43.8024767" lon="10.7723167"><ele>15.0</ele><time>2026-03-28T10:25:12.069Z</time></trkpt><trkpt lat="43.8025417" lon="10.77232"><ele>15.0</ele><time>2026-03-28T10:25:13.069Z</time></trkpt><trkpt lat="43.8026167" lon="10.7722833"><ele>15.0</ele><time>2026-03-28T10:25:14.069Z</time></trkpt><trkpt lat="43.8026733" lon="10.7721933"><ele>15.0</ele><time>2026-03-28T10:25:15.068Z</time></trkpt><trkpt lat="43.802745" lon="10.7720533"><ele>15.0</ele><time>2026-03-28T10:25:16.069Z</time></trkpt><trkpt lat="43.8028233" lon="10.7718883"><ele>15.0</ele><time>2026-03-28T10:25:17.069Z</time></trkpt><trkpt lat="43.8029067" lon="10.7716933"><ele>15.0</ele><time>2026-03-28T10:25:18.069Z</time></trkpt><trkpt lat="43.8029917" lon="10.771505"><ele>15.0</ele><time>2026-03-28T10:25:19.069Z</time></trkpt><trkpt lat="43.80307" lon="10.7713367"><ele>15.0</ele><time>2026-03-28T10:25:20.069Z</time></trkpt><trkpt lat="43.8031383" lon="10.7711883"><ele>15.0</ele><time>2026-03-28T10:25:21.069Z</time></trkpt><trkpt lat="43.8032017" lon="10.7710483"><ele>15.0</ele><time>2026-03-28T10:25:22.069Z</time></trkpt><trkpt lat="43.803265" lon="10.7709233"><ele>15.0</ele><time>2026-03-28T10:25:23.068Z</time></trkpt><trkpt lat="43.80332" lon="10.7708117"><ele>14.8</ele><time>2026-03-28T10:25:24.068Z</time></trkpt><trkpt lat="43.8033767" lon="10.7707017"><ele>14.6</ele><time>2026-03-28T10:25:25.069Z</time></trkpt><trkpt lat="43.803425" lon="10.7705867"><ele>14.399999999999999</ele><time>2026-03-28T10:25:26.069Z</time></trkpt><trkpt lat="43.8034817" lon="10.7704817"><ele>14.2</ele><time>2026-03-28T10:25:27.069Z</time></trkpt><trkpt lat="43.8035333" lon="10.77038"><ele>14.0</ele><time>2026-03-28T10:25:28.068Z</time></trkpt><trkpt lat="43.8035817" lon="10.7702617"><ele>13.6</ele><time>2026-03-28T10:25:29.069Z</time></trkpt><trkpt lat="43.8036267" lon="10.7701517"><ele>13.2</ele><time>2026-03-28T10:25:30.069Z</time></trkpt><trkpt lat="43.8036717" lon="10.7700467"><ele>12.799999999999999</ele><time>2026-03-28T10:25:31.068Z</time></trkpt><trkpt lat="43.8037167" lon="10.769935"><ele>12.399999999999999</ele><time>2026-03-28T10:25:32.068Z</time></trkpt><trkpt lat="43.8037667" lon="10.7698233"><ele>12.0</ele><time>2026-03-28T10:25:33.068Z</time></trkpt><trkpt lat="43.80382" lon="10.76971"><ele>12.0</ele><time>2026-03-28T10:25:34.069Z</time></trkpt><trkpt lat="43.8038833" lon="10.7696033"><ele>12.0</ele><time>2026-03-28T10:25:35.069Z</time></trkpt><trkpt lat="43.8039417" lon="10.7694883"><ele>12.0</ele><time>2026-03-28T10:25:36.069Z</time></trkpt><trkpt lat="43.8040083" lon="10.7693733"><ele>12.0</ele><time>2026-03-28T10:25:37.069Z</time></trkpt><trkpt lat="43.8040767" lon="10.76924"><ele>12.0</ele><time>2026-03-28T10:25:38.069Z</time></trkpt><trkpt lat="43.8041383" lon="10.7691083"><ele>12.2</ele><time>2026-03-28T10:25:39.069Z</time></trkpt><trkpt lat="43.8041933" lon="10.768975"><ele>12.399999999999999</ele><time>2026-03-28T10:25:40.069Z</time></trkpt><trkpt lat="43.804255" lon="10.7688433"><ele>12.600000000000001</ele><time>2026-03-28T10:25:41.068Z</time></trkpt><trkpt lat="43.80431" lon="10.768705"><ele>12.8</ele><time>2026-03-28T10:25:42.068Z</time></trkpt><trkpt lat="43.8043683" lon="10.7685767"><ele>13.0</ele><time>2026-03-28T10:25:43.069Z</time></trkpt><trkpt lat="43.80443" lon="10.76845"><ele>13.0</ele><time>2026-03-28T10:25:44.068Z</time></trkpt><trkpt lat="43.8045017" lon="10.7683283"><ele>13.0</ele><time>2026-03-28T10:25:45.068Z</time></trkpt><trkpt lat="43.80457" lon="10.768195"><ele>13.0</ele><time>2026-03-28T10:25:46.069Z</time></trkpt><trkpt lat="43.8046467" lon="10.7680233"><ele>13.0</ele><time>2026-03-28T10:25:47.069Z</time></trkpt><trkpt lat="43.8047417" lon="10.7678233"><ele>13.0</ele><time>2026-03-28T10:25:48.069Z</time></trkpt><trkpt lat="43.8048483" lon="10.7675933"><ele>13.0</ele><time>2026-03-28T10:25:49.069Z</time></trkpt><trkpt lat="43.8049517" lon="10.7673717"><ele>13.0</ele><time>2026-03-28T10:25:50.069Z</time></trkpt><trkpt lat="43.8050467" lon="10.76718"><ele>13.0</ele><time>2026-03-28T10:25:51.068Z</time></trkpt><trkpt lat="43.8051267" lon="10.7670083"><ele>13.0</ele><time>2026-03-28T10:25:52.069Z</time></trkpt><trkpt lat="43.8052017" lon="10.7668433"><ele>13.0</ele><time>2026-03-28T10:25:53.069Z</time></trkpt><trkpt lat="43.805275" lon="10.76669"><ele>13.0</ele><time>2026-03-28T10:25:54.069Z</time></trkpt><trkpt lat="43.8053567" lon="10.7665367"><ele>13.0</ele><time>2026-03-28T10:25:55.068Z</time></trkpt><trkpt lat="43.8054667" lon="10.76637"><ele>13.0</ele><time>2026-03-28T10:25:56.068Z</time></trkpt><trkpt lat="43.8055833" lon="10.7662067"><ele>13.0</ele><time>2026-03-28T10:25:57.069Z</time></trkpt><trkpt lat="43.8056933" lon="10.7660583"><ele>13.25</ele><time>2026-03-28T10:25:58.069Z</time></trkpt><trkpt lat="43.805795" lon="10.7659167"><ele>13.5</ele><time>2026-03-28T10:25:59.069Z</time></trkpt><trkpt lat="43.805885" lon="10.765775"><ele>13.75</ele><time>2026-03-28T10:26:00.068Z</time></trkpt><trkpt lat="43.8059633" lon="10.7656367"><ele>14.0</ele><time>2026-03-28T10:26:01.069Z</time></trkpt><trkpt lat="43.8060333" lon="10.7655083"><ele>13.799999999999999</ele><time>2026-03-28T10:26:02.069Z</time></trkpt><trkpt lat="43.8061067" lon="10.76538"><ele>13.599999999999998</ele><time>2026-03-28T10:26:03.069Z</time></trkpt><trkpt lat="43.8061833" lon="10.7652583"><ele>13.4</ele><time>2026-03-28T10:26:04.069Z</time></trkpt><trkpt lat="43.80626" lon="10.7651533"><ele>13.2</ele><time>2026-03-28T10:26:05.068Z</time></trkpt><trkpt lat="43.8063333" lon="10.7650617"><ele>13.0</ele><time>2026-03-28T10:26:06.069Z</time></trkpt><trkpt lat="43.8064033" lon="10.7649483"><ele>13.0</ele><time>2026-03-28T10:26:07.069Z</time></trkpt><trkpt lat="43.8064733" lon="10.76483"><ele>13.0</ele><time>2026-03-28T10:26:08.068Z</time></trkpt><trkpt lat="43.80655" lon="10.7647117"><ele>13.0</ele><time>2026-03-28T10:26:09.069Z</time></trkpt><trkpt lat="43.8066317" lon="10.7645867"><ele>13.0</ele><time>2026-03-28T10:26:10.069Z</time></trkpt><trkpt lat="43.8067083" lon="10.7644633"><ele>13.25</ele><time>2026-03-28T10:26:11.069Z</time></trkpt><trkpt lat="43.8067883" lon="10.7643433"><ele>13.5</ele><time>2026-03-28T10:26:12.069Z</time></trkpt><trkpt lat="43.8068683" lon="10.7642383"><ele>13.75</ele><time>2026-03-28T10:26:13.069Z</time></trkpt><trkpt lat="43.8069417" lon="10.7641183"><ele>14.0</ele><time>2026-03-28T10:26:14.069Z</time></trkpt><trkpt lat="43.8070167" lon="10.7639917"><ele>13.75</ele><time>2026-03-28T10:26:15.068Z</time></trkpt><trkpt lat="43.8070883" lon="10.7638567"><ele>13.5</ele><time>2026-03-28T10:26:16.068Z</time></trkpt><trkpt lat="43.8071533" lon="10.763745"><ele>13.25</ele><time>2026-03-28T10:26:17.068Z</time></trkpt><trkpt lat="43.8072217" lon="10.7636233"><ele>13.0</ele><time>2026-03-28T10:26:18.069Z</time></trkpt><trkpt lat="43.8073033" lon="10.7634933"><ele>13.0</ele><time>2026-03-28T10:26:19.069Z</time></trkpt><trkpt lat="43.80739" lon="10.76339"><ele>13.0</ele><time>2026-03-28T10:26:20.068Z</time></trkpt><trkpt lat="43.807465" lon="10.7632717"><ele>13.0</ele><time>2026-03-28T10:26:21.069Z</time></trkpt><trkpt lat="43.807535" lon="10.76315"><ele>13.0</ele><time>2026-03-28T10:26:22.068Z</time></trkpt><trkpt lat="43.8076117" lon="10.763025"><ele>13.0</ele><time>2026-03-28T10:26:23.068Z</time></trkpt><trkpt lat="43.807685" lon="10.7629167"><ele>13.0</ele><time>2026-03-28T10:26:24.069Z</time></trkpt><trkpt lat="43.80776" lon="10.7628067"><ele>13.0</ele><time>2026-03-28T10:26:25.069Z</time></trkpt><trkpt lat="43.8078233" lon="10.7626867"><ele>13.0</ele><time>2026-03-28T10:26:26.069Z</time></trkpt><trkpt lat="43.807895" lon="10.7625717"><ele>13.0</ele><time>2026-03-28T10:26:27.068Z</time></trkpt><trkpt lat="43.8079683" lon="10.7624533"><ele>13.0</ele><time>2026-03-28T10:26:28.069Z</time></trkpt><trkpt lat="43.8080483" lon="10.762365"><ele>13.0</ele><time>2026-03-28T10:26:29.069Z</time></trkpt><trkpt lat="43.8081383" lon="10.7622867"><ele>13.0</ele><time>2026-03-28T10:26:30.068Z</time></trkpt><trkpt lat="43.808225" lon="10.7622183"><ele>13.0</ele><time>2026-03-28T10:26:31.069Z</time></trkpt><trkpt lat="43.8083133" lon="10.7621617"><ele>13.0</ele><time>2026-03-28T10:26:32.069Z</time></trkpt><trkpt lat="43.8083917" lon="10.76212"><ele>12.999999999999998</ele><time>2026-03-28T10:26:33.069Z</time></trkpt><trkpt lat="43.808465" lon="10.7620883"><ele>13.0</ele><time>2026-03-28T10:26:34.069Z</time></trkpt><trkpt lat="43.8085317" lon="10.7620633"><ele>13.0</ele><time>2026-03-28T10:26:35.069Z</time></trkpt><trkpt lat="43.8086333" lon="10.762005"><ele>13.0</ele><time>2026-03-28T10:26:37.068Z</time></trkpt><trkpt lat="43.8087083" lon="10.76199"><ele>12.999999999999998</ele><time>2026-03-28T10:26:39.068Z</time></trkpt><trkpt lat="43.8087617" lon="10.7620383"><ele>13.0</ele><time>2026-03-28T10:26:41.069Z</time></trkpt><trkpt lat="43.80882" lon="10.7621667"><ele>13.166666666666666</ele><time>2026-03-28T10:26:43.068Z</time></trkpt><trkpt lat="43.8088817" lon="10.76231"><ele>13.333333333333332</ele><time>2026-03-28T10:26:45.069Z</time></trkpt><trkpt lat="43.8089267" lon="10.7623767"><ele>13.5</ele><time>2026-03-28T10:26:46.069Z</time></trkpt><trkpt lat="43.8089767" lon="10.76244"><ele>13.666666666666668</ele><time>2026-03-28T10:26:47.069Z</time></trkpt><trkpt lat="43.809025" lon="10.76251"><ele>13.833333333333334</ele><time>2026-03-28T10:26:48.068Z</time></trkpt><trkpt lat="43.8090767" lon="10.7625833"><ele>14.0</ele><time>2026-03-28T10:26:49.069Z</time></trkpt><trkpt lat="43.8091317" lon="10.76266"><ele>13.857142857142858</ele><time>2026-03-28T10:26:50.069Z</time></trkpt><trkpt lat="43.809185" lon="10.7627317"><ele>13.714285714285715</ele><time>2026-03-28T10:26:51.069Z</time></trkpt><trkpt lat="43.8092317" lon="10.762805"><ele>13.571428571428571</ele><time>2026-03-28T10:26:52.069Z</time></trkpt><trkpt lat="43.8092783" lon="10.7628683"><ele>13.428571428571429</ele><time>2026-03-28T10:26:53.068Z</time></trkpt><trkpt lat="43.8093333" lon="10.7629367"><ele>13.285714285714286</ele><time>2026-03-28T10:26:54.069Z</time></trkpt><trkpt lat="43.8093867" lon="10.7630083"><ele>13.142857142857142</ele><time>2026-03-28T10:26:55.069Z</time></trkpt><trkpt lat="43.8094433" lon="10.7630883"><ele>13.0</ele><time>2026-03-28T10:26:56.068Z</time></trkpt><trkpt lat="43.8094917" lon="10.7631583"><ele>13.0</ele><time>2026-03-28T10:26:57.068Z</time></trkpt><trkpt lat="43.8095333" lon="10.7632267"><ele>13.0</ele><time>2026-03-28T10:26:58.068Z</time></trkpt><trkpt lat="43.80958" lon="10.763295"><ele>13.0</ele><time>2026-03-28T10:26:59.068Z</time></trkpt><trkpt lat="43.809635" lon="10.7633683"><ele>13.0</ele><time>2026-03-28T10:27:00.068Z</time></trkpt><trkpt lat="43.8096883" lon="10.76344"><ele>13.0</ele><time>2026-03-28T10:27:01.068Z</time></trkpt><trkpt lat="43.80974" lon="10.7635067"><ele>13.0</ele><time>2026-03-28T10:27:02.068Z</time></trkpt><trkpt lat="43.809795" lon="10.7635783"><ele>13.0</ele><time>2026-03-28T10:27:03.068Z</time></trkpt><trkpt lat="43.8098467" lon="10.7636517"><ele>13.0</ele><time>2026-03-28T10:27:04.069Z</time></trkpt><trkpt lat="43.8098967" lon="10.763725"><ele>13.0</ele><time>2026-03-28T10:27:05.068Z</time></trkpt><trkpt lat="43.8099383" lon="10.7637983"><ele>13.0</ele><time>2026-03-28T10:27:06.068Z</time></trkpt><trkpt lat="43.80999" lon="10.7638633"><ele>13.0</ele><time>2026-03-28T10:27:07.068Z</time></trkpt><trkpt lat="43.81004" lon="10.7639333"><ele>13.0</ele><time>2026-03-28T10:27:08.069Z</time></trkpt><trkpt lat="43.810095" lon="10.7640033"><ele>13.0</ele><time>2026-03-28T10:27:09.069Z</time></trkpt><trkpt lat="43.8101467" lon="10.7640667"><ele>13.0</ele><time>2026-03-28T10:27:10.068Z</time></trkpt><trkpt lat="43.810195" lon="10.7641317"><ele>13.0</ele><time>2026-03-28T10:27:11.069Z</time></trkpt><trkpt lat="43.81028" lon="10.7642383"><ele>13.0</ele><time>2026-03-28T10:27:13.069Z</time></trkpt><trkpt lat="43.8103483" lon="10.76434"><ele>13.0</ele><time>2026-03-28T10:27:15.068Z</time></trkpt><trkpt lat="43.810405" lon="10.7644383"><ele>13.0</ele><time>2026-03-28T10:27:17.069Z</time></trkpt><trkpt lat="43.81047" lon="10.7645217"><ele>13.0</ele><time>2026-03-28T10:27:19.068Z</time></trkpt><trkpt lat="43.810535" lon="10.7645933"><ele>12.833333333333332</ele><time>2026-03-28T10:27:21.068Z</time></trkpt><trkpt lat="43.8105883" lon="10.7646683"><ele>12.666666666666666</ele><time>2026-03-28T10:27:23.069Z</time></trkpt><trkpt lat="43.810645" lon="10.7647467"><ele>12.5</ele><time>2026-03-28T10:27:25.069Z</time></trkpt><trkpt lat="43.8107083" lon="10.7648367"><ele>12.333333333333332</ele><time>2026-03-28T10:27:27.069Z</time></trkpt><trkpt lat="43.81078" lon="10.7649633"><ele>12.166666666666666</ele><time>2026-03-28T10:27:29.068Z</time></trkpt><trkpt lat="43.8108383" lon="10.7650333"><ele>12.0</ele><time>2026-03-28T10:27:30.069Z</time></trkpt><trkpt lat="43.8109017" lon="10.7651067"><ele>12.0</ele><time>2026-03-28T10:27:31.069Z</time></trkpt><trkpt lat="43.8109567" lon="10.7651833"><ele>12.0</ele><time>2026-03-28T10:27:32.068Z</time></trkpt><trkpt lat="43.8110183" lon="10.7652683"><ele>12.0</ele><time>2026-03-28T10:27:33.069Z</time></trkpt><trkpt lat="43.8110733" lon="10.7653433"><ele>12.0</ele><time>2026-03-28T10:27:34.069Z</time></trkpt><trkpt lat="43.811125" lon="10.7654167"><ele>12.0</ele><time>2026-03-28T10:27:35.068Z</time></trkpt><trkpt lat="43.811175" lon="10.7654933"><ele>12.0</ele><time>2026-03-28T10:27:36.069Z</time></trkpt><trkpt lat="43.811225" lon="10.765575"><ele>11.999999999999998</ele><time>2026-03-28T10:27:37.069Z</time></trkpt><trkpt lat="43.8112733" lon="10.765655"><ele>12.0</ele><time>2026-03-28T10:27:38.069Z</time></trkpt><trkpt lat="43.8113283" lon="10.7657367"><ele>12.0</ele><time>2026-03-28T10:27:39.069Z</time></trkpt><trkpt lat="43.8113783" lon="10.7658167"><ele>12.0</ele><time>2026-03-28T10:27:40.068Z</time></trkpt><trkpt lat="43.8114267" lon="10.7658833"><ele>12.0</ele><time>2026-03-28T10:27:41.068Z</time></trkpt><trkpt lat="43.81147" lon="10.7659467"><ele>11.999999999999998</ele><time>2026-03-28T10:27:42.069Z</time></trkpt><trkpt lat="43.8115295" lon="10.7660181"><ele>12.0</ele><time>2026-03-28T10:27:43.068Z</time></trkpt><trkpt lat="43.8115975" lon="10.7661127"><ele>12.0</ele><time>2026-03-28T10:27:44.069Z</time></trkpt><trkpt lat="43.811663" lon="10.7662123"><ele>12.0</ele><time>2026-03-28T10:27:45.068Z</time></trkpt><trkpt lat="43.8117189" lon="10.7662995"><ele>12.0</ele><time>2026-03-28T10:27:46.069Z</time></trkpt><trkpt lat="43.8117666" lon="10.7663771"><ele>12.0</ele><time>2026-03-28T10:27:47.069Z</time></trkpt><trkpt lat="43.8118524" lon="10.7664986"><ele>12.0</ele><time>2026-03-28T10:27:49.069Z</time></trkpt><trkpt lat="43.8119142" lon="10.7665919"><ele>12.333333333333334</ele><time>2026-03-28T10:27:51.068Z</time></trkpt><trkpt lat="43.8119591" lon="10.7666994"><ele>12.666666666666668</ele><time>2026-03-28T10:27:53.069Z</time></trkpt><trkpt lat="43.8120177" lon="10.7668638"><ele>13.0</ele><time>2026-03-28T10:27:55.069Z</time></trkpt><trkpt lat="43.8120483" lon="10.7669606"><ele>13.333333333333334</ele><time>2026-03-28T10:27:56.069Z</time></trkpt><trkpt lat="43.8120756" lon="10.7670552"><ele>13.666666666666668</ele><time>2026-03-28T10:27:57.068Z</time></trkpt><trkpt lat="43.8120999" lon="10.767152"><ele>14.0</ele><time>2026-03-28T10:27:58.069Z</time></trkpt><trkpt lat="43.8121185" lon="10.767252"><ele>14.0</ele><time>2026-03-28T10:27:59.069Z</time></trkpt><trkpt lat="43.8121376" lon="10.767351"><ele>14.0</ele><time>2026-03-28T10:28:00.069Z</time></trkpt><trkpt lat="43.8121542" lon="10.7674467"><ele>14.0</ele><time>2026-03-28T10:28:01.069Z</time></trkpt><trkpt lat="43.8121668" lon="10.7675469"><ele>14.0</ele><time>2026-03-28T10:28:02.069Z</time></trkpt><trkpt lat="43.8121821" lon="10.7676437"><ele>14.0</ele><time>2026-03-28T10:28:03.069Z</time></trkpt><trkpt lat="43.8122" lon="10.767743"><ele>14.0</ele><time>2026-03-28T10:28:04.068Z</time></trkpt><trkpt lat="43.8122223" lon="10.7678448"><ele>14.0</ele><time>2026-03-28T10:28:05.069Z</time></trkpt><trkpt lat="43.8122417" lon="10.7679352"><ele>13.666666666666668</ele><time>2026-03-28T10:28:06.069Z</time></trkpt><trkpt lat="43.8122597" lon="10.7680519"><ele>13.333333333333332</ele><time>2026-03-28T10:28:08.068Z</time></trkpt><trkpt lat="43.812348" lon="10.7683214"><ele>13.0</ele><time>2026-03-28T10:29:50.143Z</time></trkpt><trkpt lat="43.8123963" lon="10.7685481"><ele>13.0</ele><time>2026-03-28T10:29:51.067Z</time></trkpt><trkpt lat="43.8124263" lon="10.7686991"><ele>13.0</ele><time>2026-03-28T10:29:52.067Z</time></trkpt><trkpt lat="43.8124538" lon="10.7688233"><ele>13.0</ele><time>2026-03-28T10:29:53.067Z</time></trkpt><trkpt lat="43.8124823" lon="10.7689449"><ele>13.0</ele><time>2026-03-28T10:29:54.067Z</time></trkpt><trkpt lat="43.8125092" lon="10.7690705"><ele>13.0</ele><time>2026-03-28T10:29:55.067Z</time></trkpt><trkpt lat="43.8125389" lon="10.7691975"><ele>13.0</ele><time>2026-03-28T10:29:56.067Z</time></trkpt><trkpt lat="43.8125674" lon="10.7693217"><ele>13.0</ele><time>2026-03-28T10:29:57.067Z</time></trkpt><trkpt lat="43.8125954" lon="10.7694475"><ele>13.0</ele><time>2026-03-28T10:29:58.067Z</time></trkpt><trkpt lat="43.8126233" lon="10.7695717"><ele>13.0</ele><time>2026-03-28T10:29:59.067Z</time></trkpt><trkpt lat="43.8126483" lon="10.769695"><ele>13.0</ele><time>2026-03-28T10:30:00.067Z</time></trkpt><trkpt lat="43.8126783" lon="10.76981"><ele>13.0</ele><time>2026-03-28T10:30:01.066Z</time></trkpt><trkpt lat="43.8127067" lon="10.769925"><ele>13.0</ele><time>2026-03-28T10:30:02.067Z</time></trkpt><trkpt lat="43.8127283" lon="10.7700417"><ele>13.0</ele><time>2026-03-28T10:30:03.067Z</time></trkpt><trkpt lat="43.8127567" lon="10.7701567"><ele>13.0</ele><time>2026-03-28T10:30:04.067Z</time></trkpt><trkpt lat="43.8127883" lon="10.7702767"><ele>13.0</ele><time>2026-03-28T10:30:05.066Z</time></trkpt><trkpt lat="43.8128167" lon="10.7704117"><ele>13.2</ele><time>2026-03-28T10:30:06.067Z</time></trkpt><trkpt lat="43.812845" lon="10.770545"><ele>13.4</ele><time>2026-03-28T10:30:07.066Z</time></trkpt><trkpt lat="43.81287" lon="10.7706717"><ele>13.599999999999998</ele><time>2026-03-28T10:30:08.066Z</time></trkpt><trkpt lat="43.812895" lon="10.7707967"><ele>13.799999999999999</ele><time>2026-03-28T10:30:09.067Z</time></trkpt><trkpt lat="43.8129167" lon="10.770915"><ele>14.0</ele><time>2026-03-28T10:30:10.067Z</time></trkpt><trkpt lat="43.8129383" lon="10.7710167"><ele>14.000000000000002</ele><time>2026-03-28T10:30:11.066Z</time></trkpt><trkpt lat="43.812955" lon="10.7711167"><ele>14.0</ele><time>2026-03-28T10:30:12.066Z</time></trkpt><trkpt lat="43.8129717" lon="10.7712117"><ele>14.0</ele><time>2026-03-28T10:30:13.067Z</time></trkpt><trkpt lat="43.8129883" lon="10.77135"><ele>14.0</ele><time>2026-03-28T10:30:15.066Z</time></trkpt><trkpt lat="43.8129983" lon="10.7714567"><ele>14.000000000000002</ele><time>2026-03-28T10:30:18.067Z</time></trkpt><trkpt lat="43.8130333" lon="10.7715317"><ele>14.0</ele><time>2026-03-28T10:30:21.067Z</time></trkpt><trkpt lat="43.8130233" lon="10.7716417"><ele>14.0</ele><time>2026-03-28T10:30:24.067Z</time></trkpt><trkpt lat="43.812965" lon="10.771705"><ele>13.999999999999998</ele><time>2026-03-28T10:30:27.067Z</time></trkpt><trkpt lat="43.8130333" lon="10.77164"><ele>13.999999999999998</ele><time>2026-03-28T10:30:54.067Z</time></trkpt><trkpt lat="43.8131133" lon="10.7716683"><ele>14.0</ele><time>2026-03-28T10:30:56.067Z</time></trkpt><trkpt lat="43.8131533" lon="10.7717833"><ele>14.0</ele><time>2026-03-28T10:30:58.067Z</time></trkpt><trkpt lat="43.81312" lon="10.7719433"><ele>14.25</ele><time>2026-03-28T10:31:00.067Z</time></trkpt><trkpt lat="43.813065" lon="10.7720333"><ele>14.5</ele><time>2026-03-28T10:31:01.067Z</time></trkpt><trkpt lat="43.8129867" lon="10.7721367"><ele>14.75</ele><time>2026-03-28T10:31:02.067Z</time></trkpt><trkpt lat="43.8128833" lon="10.77226"><ele>15.0</ele><time>2026-03-28T10:31:03.067Z</time></trkpt><trkpt lat="43.8127733" lon="10.7723783"><ele>15.0</ele><time>2026-03-28T10:31:04.066Z</time></trkpt><trkpt lat="43.8126733" lon="10.7724767"><ele>15.0</ele><time>2026-03-28T10:31:05.067Z</time></trkpt><trkpt lat="43.8126" lon="10.7725533"><ele>15.0</ele><time>2026-03-28T10:31:06.067Z</time></trkpt><trkpt lat="43.812525" lon="10.7726283"><ele>15.0</ele><time>2026-03-28T10:31:07.067Z</time></trkpt><trkpt lat="43.812465" lon="10.7726933"><ele>15.0</ele><time>2026-03-28T10:31:08.067Z</time></trkpt><trkpt lat="43.8124133" lon="10.7727533"><ele>14.6</ele><time>2026-03-28T10:31:09.066Z</time></trkpt><trkpt lat="43.8123183" lon="10.772855"><ele>14.2</ele><time>2026-03-28T10:31:11.067Z</time></trkpt><trkpt lat="43.8122583" lon="10.7729367"><ele>13.8</ele><time>2026-03-28T10:31:13.066Z</time></trkpt><trkpt lat="43.8121717" lon="10.77304"><ele>13.4</ele><time>2026-03-28T10:31:48.066Z</time></trkpt><trkpt lat="43.8120733" lon="10.77315"><ele>13.0</ele><time>2026-03-28T10:31:50.066Z</time></trkpt><trkpt lat="43.812015" lon="10.7732067"><ele>12.999999999999998</ele><time>2026-03-28T10:31:51.067Z</time></trkpt><trkpt lat="43.8119517" lon="10.77327"><ele>13.0</ele><time>2026-03-28T10:31:52.066Z</time></trkpt><trkpt lat="43.8118917" lon="10.7733367"><ele>13.0</ele><time>2026-03-28T10:31:53.067Z</time></trkpt><trkpt lat="43.811825" lon="10.7734"><ele>13.0</ele><time>2026-03-28T10:31:54.067Z</time></trkpt><trkpt lat="43.81177" lon="10.77346"><ele>12.999999999999998</ele><time>2026-03-28T10:31:55.067Z</time></trkpt><trkpt lat="43.8117133" lon="10.7735217"><ele>13.0</ele><time>2026-03-28T10:31:56.067Z</time></trkpt><trkpt lat="43.8116467" lon="10.7735883"><ele>12.200000000000001</ele><time>2026-03-28T10:31:57.066Z</time></trkpt><trkpt lat="43.8115817" lon="10.7736583"><ele>11.4</ele><time>2026-03-28T10:31:58.066Z</time></trkpt><trkpt lat="43.8115217" lon="10.7737267"><ele>10.600000000000001</ele><time>2026-03-28T10:31:59.067Z</time></trkpt><trkpt lat="43.8114517" lon="10.773805"><ele>9.8</ele><time>2026-03-28T10:32:00.067Z</time></trkpt><trkpt lat="43.8113683" lon="10.7738933"><ele>9.0</ele><time>2026-03-28T10:32:01.066Z</time></trkpt><trkpt lat="43.8112833" lon="10.7739867"><ele>9.0</ele><time>2026-03-28T10:32:02.067Z</time></trkpt><trkpt lat="43.8112033" lon="10.7740783"><ele>9.0</ele><time>2026-03-28T10:32:03.066Z</time></trkpt><trkpt lat="43.8111167" lon="10.7741767"><ele>9.0</ele><time>2026-03-28T10:32:04.067Z</time></trkpt><trkpt lat="43.8110333" lon="10.7742717"><ele>9.0</ele><time>2026-03-28T10:32:05.067Z</time></trkpt><trkpt lat="43.8109517" lon="10.7743617"><ele>9.0</ele><time>2026-03-28T10:32:06.067Z</time></trkpt><trkpt lat="43.8108667" lon="10.7744567"><ele>9.2</ele><time>2026-03-28T10:32:07.067Z</time></trkpt><trkpt lat="43.8107883" lon="10.7745417"><ele>9.4</ele><time>2026-03-28T10:32:08.067Z</time></trkpt><trkpt lat="43.810705" lon="10.7746333"><ele>9.6</ele><time>2026-03-28T10:32:09.067Z</time></trkpt><trkpt lat="43.810615" lon="10.7747317"><ele>9.8</ele><time>2026-03-28T10:32:10.066Z</time></trkpt><trkpt lat="43.8105333" lon="10.77483"><ele>10.0</ele><time>2026-03-28T10:32:11.067Z</time></trkpt><trkpt lat="43.8104533" lon="10.774915"><ele>10.0</ele><time>2026-03-28T10:32:12.066Z</time></trkpt><trkpt lat="43.8103733" lon="10.7750133"><ele>10.0</ele><time>2026-03-28T10:32:13.067Z</time></trkpt><trkpt lat="43.810295" lon="10.7751083"><ele>10.0</ele><time>2026-03-28T10:32:14.066Z</time></trkpt><trkpt lat="43.810215" lon="10.7752"><ele>10.0</ele><time>2026-03-28T10:32:15.067Z</time></trkpt><trkpt lat="43.8101417" lon="10.7752783"><ele>10.0</ele><time>2026-03-28T10:32:16.066Z</time></trkpt><trkpt lat="43.8100717" lon="10.775345"><ele>10.333333333333334</ele><time>2026-03-28T10:32:17.066Z</time></trkpt><trkpt lat="43.8100167" lon="10.7754"><ele>10.666666666666668</ele><time>2026-03-28T10:32:18.067Z</time></trkpt><trkpt lat="43.8099517" lon="10.77546"><ele>11.0</ele><time>2026-03-28T10:32:19.067Z</time></trkpt><trkpt lat="43.809895" lon="10.7755367"><ele>11.333333333333334</ele><time>2026-03-28T10:32:20.066Z</time></trkpt><trkpt lat="43.809815" lon="10.775625"><ele>11.666666666666666</ele><time>2026-03-28T10:32:21.067Z</time></trkpt><trkpt lat="43.8097367" lon="10.7757133"><ele>12.0</ele><time>2026-03-28T10:32:22.067Z</time></trkpt><trkpt lat="43.8096667" lon="10.775805"><ele>11.999999999999998</ele><time>2026-03-28T10:32:23.066Z</time></trkpt><trkpt lat="43.8095983" lon="10.77588"><ele>12.0</ele><time>2026-03-28T10:32:24.066Z</time></trkpt><trkpt lat="43.8095383" lon="10.7759417"><ele>12.0</ele><time>2026-03-28T10:32:25.066Z</time></trkpt><trkpt lat="43.8094833" lon="10.7759983"><ele>12.0</ele><time>2026-03-28T10:32:26.066Z</time></trkpt><trkpt lat="43.809435" lon="10.776055"><ele>12.0</ele><time>2026-03-28T10:32:27.066Z</time></trkpt><trkpt lat="43.8093767" lon="10.7761233"><ele>11.999999999999998</ele><time>2026-03-28T10:32:28.067Z</time></trkpt><trkpt lat="43.8093183" lon="10.77619"><ele>12.0</ele><time>2026-03-28T10:32:29.066Z</time></trkpt><trkpt lat="43.80926" lon="10.7762483"><ele>11.666666666666666</ele><time>2026-03-28T10:32:30.067Z</time></trkpt><trkpt lat="43.80921" lon="10.776315"><ele>11.333333333333334</ele><time>2026-03-28T10:32:31.066Z</time></trkpt><trkpt lat="43.8091617" lon="10.7763717"><ele>11.0</ele><time>2026-03-28T10:32:32.067Z</time></trkpt><trkpt lat="43.809095" lon="10.7764567"><ele>10.666666666666668</ele><time>2026-03-28T10:32:34.067Z</time></trkpt><trkpt lat="43.808995" lon="10.7765417"><ele>10.333333333333334</ele><time>2026-03-28T10:32:36.067Z</time></trkpt><trkpt lat="43.8089333" lon="10.776605"><ele>10.0</ele><time>2026-03-28T10:32:37.067Z</time></trkpt><trkpt lat="43.8088567" lon="10.7767033"><ele>10.0</ele><time>2026-03-28T10:32:38.066Z</time></trkpt><trkpt lat="43.8087567" lon="10.7768133"><ele>10.0</ele><time>2026-03-28T10:32:39.067Z</time></trkpt><trkpt lat="43.808655" lon="10.776915"><ele>10.0</ele><time>2026-03-28T10:32:40.067Z</time></trkpt><trkpt lat="43.8085733" lon="10.7770167"><ele>10.0</ele><time>2026-03-28T10:32:41.066Z</time></trkpt><trkpt lat="43.8085033" lon="10.777095"><ele>10.0</ele><time>2026-03-28T10:32:42.067Z</time></trkpt><trkpt lat="43.8084533" lon="10.7771517"><ele>10.0</ele><time>2026-03-28T10:32:43.067Z</time></trkpt><trkpt lat="43.808365" lon="10.7772517"><ele>10.0</ele><time>2026-03-28T10:32:45.067Z</time></trkpt><trkpt lat="43.80831" lon="10.7773083"><ele>10.0</ele><time>2026-03-28T10:32:46.067Z</time></trkpt><trkpt lat="43.80825" lon="10.7773733"><ele>10.0</ele><time>2026-03-28T10:32:47.066Z</time></trkpt><trkpt lat="43.8081933" lon="10.7774433"><ele>10.0</ele><time>2026-03-28T10:32:48.067Z</time></trkpt><trkpt lat="43.80813" lon="10.7775067"><ele>10.0</ele><time>2026-03-28T10:32:49.067Z</time></trkpt><trkpt lat="43.8080683" lon="10.777565"><ele>10.0</ele><time>2026-03-28T10:32:50.067Z</time></trkpt><trkpt lat="43.8080133" lon="10.7776417"><ele>10.0</ele><time>2026-03-28T10:32:51.066Z</time></trkpt><trkpt lat="43.8079533" lon="10.7777183"><ele>10.0</ele><time>2026-03-28T10:32:52.067Z</time></trkpt><trkpt lat="43.8078867" lon="10.7777817"><ele>10.0</ele><time>2026-03-28T10:32:53.067Z</time></trkpt><trkpt lat="43.807815" lon="10.77785"><ele>10.0</ele><time>2026-03-28T10:32:54.067Z</time></trkpt><trkpt lat="43.8077517" lon="10.777915"><ele>10.0</ele><time>2026-03-28T10:32:55.067Z</time></trkpt><trkpt lat="43.8076883" lon="10.7779917"><ele>10.0</ele><time>2026-03-28T10:32:56.067Z</time></trkpt><trkpt lat="43.8076283" lon="10.778055"><ele>10.0</ele><time>2026-03-28T10:32:57.066Z</time></trkpt><trkpt lat="43.80757" lon="10.778125"><ele>10.0</ele><time>2026-03-28T10:32:58.066Z</time></trkpt><trkpt lat="43.8075117" lon="10.7782017"><ele>10.0</ele><time>2026-03-28T10:32:59.067Z</time></trkpt><trkpt lat="43.80744" lon="10.778275"><ele>10.0</ele><time>2026-03-28T10:33:00.067Z</time></trkpt><trkpt lat="43.80737" lon="10.7783417"><ele>10.4</ele><time>2026-03-28T10:33:01.067Z</time></trkpt><trkpt lat="43.8072983" lon="10.7784067"><ele>10.8</ele><time>2026-03-28T10:33:02.066Z</time></trkpt><trkpt lat="43.8072267" lon="10.77848"><ele>11.2</ele><time>2026-03-28T10:33:03.066Z</time></trkpt><trkpt lat="43.8071567" lon="10.7785483"><ele>11.6</ele><time>2026-03-28T10:33:04.067Z</time></trkpt><trkpt lat="43.8070783" lon="10.7786267"><ele>12.0</ele><time>2026-03-28T10:33:05.066Z</time></trkpt><trkpt lat="43.8069983" lon="10.7787133"><ele>12.0</ele><time>2026-03-28T10:33:06.067Z</time></trkpt><trkpt lat="43.8069217" lon="10.7788033"><ele>12.0</ele><time>2026-03-28T10:33:07.067Z</time></trkpt><trkpt lat="43.8068467" lon="10.7788933"><ele>12.0</ele><time>2026-03-28T10:33:08.067Z</time></trkpt><trkpt lat="43.8067767" lon="10.7789717"><ele>12.0</ele><time>2026-03-28T10:33:09.067Z</time></trkpt><trkpt lat="43.80671" lon="10.77904"><ele>12.0</ele><time>2026-03-28T10:33:10.067Z</time></trkpt><trkpt lat="43.8066617" lon="10.7790967"><ele>12.0</ele><time>2026-03-28T10:33:11.067Z</time></trkpt><trkpt lat="43.806605" lon="10.77916"><ele>12.399999999999999</ele><time>2026-03-28T10:33:13.066Z</time></trkpt><trkpt lat="43.8065433" lon="10.7792183"><ele>12.799999999999999</ele><time>2026-03-28T10:33:16.067Z</time></trkpt><trkpt lat="43.8064717" lon="10.77929"><ele>13.2</ele><time>2026-03-28T10:33:18.066Z</time></trkpt><trkpt lat="43.806395" lon="10.7793917"><ele>13.6</ele><time>2026-03-28T10:33:20.067Z</time></trkpt><trkpt lat="43.8063033" lon="10.77949"><ele>14.0</ele><time>2026-03-28T10:33:22.067Z</time></trkpt><trkpt lat="43.8062183" lon="10.7795917"><ele>14.000000000000002</ele><time>2026-03-28T10:33:24.066Z</time></trkpt><trkpt lat="43.8061233" lon="10.779685"><ele>14.0</ele><time>2026-03-28T10:33:26.066Z</time></trkpt><trkpt lat="43.8060667" lon="10.7797383"><ele>14.0</ele><time>2026-03-28T10:33:27.067Z</time></trkpt><trkpt lat="43.8060133" lon="10.7797933"><ele>14.0</ele><time>2026-03-28T10:33:28.067Z</time></trkpt><trkpt lat="43.8059517" lon="10.7798633"><ele>14.000000000000002</ele><time>2026-03-28T10:33:29.067Z</time></trkpt><trkpt lat="43.8058883" lon="10.7799317"><ele>14.0</ele><time>2026-03-28T10:33:30.066Z</time></trkpt><trkpt lat="43.80583" lon="10.780005"><ele>14.000000000000002</ele><time>2026-03-28T10:33:31.066Z</time></trkpt><trkpt lat="43.8057617" lon="10.7800817"><ele>14.0</ele><time>2026-03-28T10:33:32.067Z</time></trkpt><trkpt lat="43.8057017" lon="10.7801617"><ele>14.0</ele><time>2026-03-28T10:33:33.067Z</time></trkpt><trkpt lat="43.8056383" lon="10.78023"><ele>14.0</ele><time>2026-03-28T10:33:34.067Z</time></trkpt><trkpt lat="43.80558" lon="10.7803"><ele>14.000000000000002</ele><time>2026-03-28T10:33:35.067Z</time></trkpt><trkpt lat="43.8055217" lon="10.7803617"><ele>14.0</ele><time>2026-03-28T10:33:36.066Z</time></trkpt><trkpt lat="43.8054633" lon="10.7804217"><ele>13.833333333333334</ele><time>2026-03-28T10:33:37.067Z</time></trkpt><trkpt lat="43.8054117" lon="10.7804817"><ele>13.666666666666668</ele><time>2026-03-28T10:33:38.066Z</time></trkpt><trkpt lat="43.8053567" lon="10.7805467"><ele>13.5</ele><time>2026-03-28T10:33:39.067Z</time></trkpt><trkpt lat="43.8052917" lon="10.7806183"><ele>13.333333333333332</ele><time>2026-03-28T10:33:40.067Z</time></trkpt><trkpt lat="43.8052283" lon="10.7806883"><ele>13.166666666666666</ele><time>2026-03-28T10:33:41.067Z</time></trkpt><trkpt lat="43.8051617" lon="10.7807667"><ele>13.0</ele><time>2026-03-28T10:33:42.067Z</time></trkpt><trkpt lat="43.8050833" lon="10.7808383"><ele>12.999999999999998</ele><time>2026-03-28T10:33:43.066Z</time></trkpt><trkpt lat="43.80501" lon="10.7809083"><ele>13.0</ele><time>2026-03-28T10:33:44.066Z</time></trkpt><trkpt lat="43.804945" lon="10.7809767"><ele>13.0</ele><time>2026-03-28T10:33:45.066Z</time></trkpt><trkpt lat="43.8048783" lon="10.7810517"><ele>13.0</ele><time>2026-03-28T10:33:46.067Z</time></trkpt><trkpt lat="43.804815" lon="10.78112"><ele>12.999999999999998</ele><time>2026-03-28T10:33:47.067Z</time></trkpt><trkpt lat="43.804755" lon="10.781185"><ele>13.0</ele><time>2026-03-28T10:33:48.067Z</time></trkpt><trkpt lat="43.80469" lon="10.7812517"><ele>13.333333333333332</ele><time>2026-03-28T10:33:49.067Z</time></trkpt><trkpt lat="43.804635" lon="10.7813233"><ele>13.666666666666666</ele><time>2026-03-28T10:33:50.067Z</time></trkpt><trkpt lat="43.804575" lon="10.7813983"><ele>14.0</ele><time>2026-03-28T10:33:51.066Z</time></trkpt><trkpt lat="43.8045117" lon="10.7814667"><ele>14.333333333333332</ele><time>2026-03-28T10:33:52.067Z</time></trkpt><trkpt lat="43.804445" lon="10.7815333"><ele>14.666666666666666</ele><time>2026-03-28T10:33:53.067Z</time></trkpt><trkpt lat="43.8043733" lon="10.7816083"><ele>15.0</ele><time>2026-03-28T10:33:54.067Z</time></trkpt><trkpt lat="43.8043017" lon="10.7816883"><ele>15.0</ele><time>2026-03-28T10:33:55.067Z</time></trkpt><trkpt lat="43.80423" lon="10.78176"><ele>15.0</ele><time>2026-03-28T10:33:56.067Z</time></trkpt><trkpt lat="43.8041717" lon="10.7818317"><ele>15.0</ele><time>2026-03-28T10:33:57.067Z</time></trkpt><trkpt lat="43.80411" lon="10.7819067"><ele>15.0</ele><time>2026-03-28T10:33:58.067Z</time></trkpt><trkpt lat="43.80404" lon="10.7819767"><ele>15.0</ele><time>2026-03-28T10:33:59.067Z</time></trkpt><trkpt lat="43.80397" lon="10.782045"><ele>15.0</ele><time>2026-03-28T10:34:00.067Z</time></trkpt><trkpt lat="43.8039033" lon="10.7821183"><ele>14.833333333333334</ele><time>2026-03-28T10:34:01.067Z</time></trkpt><trkpt lat="43.8038333" lon="10.7821983"><ele>14.666666666666668</ele><time>2026-03-28T10:34:02.067Z</time></trkpt><trkpt lat="43.8037667" lon="10.78228"><ele>14.5</ele><time>2026-03-28T10:34:03.066Z</time></trkpt><trkpt lat="43.8036967" lon="10.782355"><ele>14.333333333333334</ele><time>2026-03-28T10:34:04.067Z</time></trkpt><trkpt lat="43.8036367" lon="10.782425"><ele>14.166666666666668</ele><time>2026-03-28T10:34:05.067Z</time></trkpt><trkpt lat="43.8035783" lon="10.782495"><ele>14.0</ele><time>2026-03-28T10:34:06.067Z</time></trkpt><trkpt lat="43.80352" lon="10.7825617"><ele>14.166666666666668</ele><time>2026-03-28T10:34:07.067Z</time></trkpt><trkpt lat="43.8034567" lon="10.7826267"><ele>14.333333333333334</ele><time>2026-03-28T10:34:08.067Z</time></trkpt><trkpt lat="43.8033983" lon="10.7826967"><ele>14.5</ele><time>2026-03-28T10:34:09.067Z</time></trkpt><trkpt lat="43.803345" lon="10.7827517"><ele>14.666666666666668</ele><time>2026-03-28T10:34:10.066Z</time></trkpt><trkpt lat="43.80329" lon="10.7828167"><ele>14.833333333333334</ele><time>2026-03-28T10:34:11.066Z</time></trkpt><trkpt lat="43.8032083" lon="10.78293"><ele>15.0</ele><time>2026-03-28T10:34:13.067Z</time></trkpt><trkpt lat="43.80312" lon="10.78303"><ele>15.166666666666666</ele><time>2026-03-28T10:34:15.067Z</time></trkpt><trkpt lat="43.8030483" lon="10.7831117"><ele>15.333333333333332</ele><time>2026-03-28T10:34:17.066Z</time></trkpt><trkpt lat="43.8029828" lon="10.7831817"><ele>15.5</ele><time>2026-03-28T10:34:19.066Z</time></trkpt><trkpt lat="43.8029153" lon="10.7832513"><ele>15.666666666666666</ele><time>2026-03-28T10:34:21.067Z</time></trkpt><trkpt lat="43.8028594" lon="10.7832991"><ele>15.833333333333332</ele><time>2026-03-28T10:34:23.067Z</time></trkpt><trkpt lat="43.8028067" lon="10.78336"><ele>16.0</ele><time>2026-03-28T10:35:41.067Z</time></trkpt><trkpt lat="43.8028517" lon="10.7832717"><ele>15.999999999999998</ele><time>2026-03-28T10:36:14.067Z</time></trkpt><trkpt lat="43.8029183" lon="10.78321"><ele>16.0</ele><time>2026-03-28T10:36:16.066Z</time></trkpt><trkpt lat="43.80298" lon="10.7831467"><ele>16.0</ele><time>2026-03-28T10:36:18.066Z</time></trkpt><trkpt lat="43.8030483" lon="10.7830867"><ele>16.0</ele><time>2026-03-28T10:36:20.067Z</time></trkpt><trkpt lat="43.8031033" lon="10.783015"><ele>15.999999999999998</ele><time>2026-03-28T10:36:22.066Z</time></trkpt><trkpt lat="43.80317" lon="10.7829433"><ele>16.0</ele><time>2026-03-28T10:36:24.066Z</time></trkpt><trkpt lat="43.8032367" lon="10.7828767"><ele>16.0</ele><time>2026-03-28T10:36:26.067Z</time></trkpt><trkpt lat="43.8033117" lon="10.782805"><ele>16.0</ele><time>2026-03-28T10:36:27.067Z</time></trkpt><trkpt lat="43.8033717" lon="10.78274"><ele>16.0</ele><time>2026-03-28T10:36:29.066Z</time></trkpt><trkpt lat="43.8034417" lon="10.7826683"><ele>16.0</ele><time>2026-03-28T10:36:30.067Z</time></trkpt><trkpt lat="43.8035417" lon="10.7825683"><ele>16.0</ele><time>2026-03-28T10:36:32.066Z</time></trkpt><trkpt lat="43.8036117" lon="10.782485"><ele>15.600000000000001</ele><time>2026-03-28T10:36:34.067Z</time></trkpt><trkpt lat="43.8036983" lon="10.7823933"><ele>15.200000000000001</ele><time>2026-03-28T10:36:36.067Z</time></trkpt><trkpt lat="43.803785" lon="10.7823033"><ele>14.799999999999999</ele><time>2026-03-28T10:36:38.067Z</time></trkpt><trkpt lat="43.803855" lon="10.7822233"><ele>14.399999999999999</ele><time>2026-03-28T10:36:40.067Z</time></trkpt><trkpt lat="43.803935" lon="10.7821283"><ele>14.0</ele><time>2026-03-28T10:36:42.067Z</time></trkpt><trkpt lat="43.8040083" lon="10.782035"><ele>14.0</ele><time>2026-03-28T10:36:43.067Z</time></trkpt><trkpt lat="43.80409" lon="10.781935"><ele>13.999999999999998</ele><time>2026-03-28T10:36:45.067Z</time></trkpt><trkpt lat="43.804155" lon="10.781865"><ele>13.999999999999998</ele><time>2026-03-28T10:36:47.067Z</time></trkpt><trkpt lat="43.804235" lon="10.7817867"><ele>14.0</ele><time>2026-03-28T10:36:49.067Z</time></trkpt><trkpt lat="43.80434" lon="10.78168"><ele>14.0</ele><time>2026-03-28T10:36:51.067Z</time></trkpt><trkpt lat="43.8043883" lon="10.7816183"><ele>14.166666666666668</ele><time>2026-03-28T10:36:52.067Z</time></trkpt><trkpt lat="43.80445" lon="10.7815517"><ele>14.333333333333334</ele><time>2026-03-28T10:36:53.067Z</time></trkpt><trkpt lat="43.8045183" lon="10.7814717"><ele>14.5</ele><time>2026-03-28T10:36:54.067Z</time></trkpt><trkpt lat="43.8045867" lon="10.7813833"><ele>14.666666666666668</ele><time>2026-03-28T10:36:55.067Z</time></trkpt><trkpt lat="43.8046533" lon="10.7812983"><ele>14.833333333333334</ele><time>2026-03-28T10:36:56.067Z</time></trkpt><trkpt lat="43.8047217" lon="10.7812167"><ele>15.0</ele><time>2026-03-28T10:36:57.067Z</time></trkpt><trkpt lat="43.8048" lon="10.781135"><ele>15.0</ele><time>2026-03-28T10:36:58.067Z</time></trkpt><trkpt lat="43.8048783" lon="10.78106"><ele>15.0</ele><time>2026-03-28T10:36:59.067Z</time></trkpt><trkpt lat="43.8049567" lon="10.7809717"><ele>15.0</ele><time>2026-03-28T10:37:00.067Z</time></trkpt><trkpt lat="43.8050433" lon="10.7808717"><ele>15.0</ele><time>2026-03-28T10:37:01.067Z</time></trkpt><trkpt lat="43.80513" lon="10.7807783"><ele>15.0</ele><time>2026-03-28T10:37:02.066Z</time></trkpt><trkpt lat="43.805215" lon="10.7806917"><ele>14.4</ele><time>2026-03-28T10:37:03.067Z</time></trkpt><trkpt lat="43.8052894" lon="10.7806011"><ele>13.8</ele><time>2026-03-28T10:37:04.067Z</time></trkpt><trkpt lat="43.8053623" lon="10.7805159"><ele>13.2</ele><time>2026-03-28T10:37:05.067Z</time></trkpt><trkpt lat="43.8054371" lon="10.7804341"><ele>12.6</ele><time>2026-03-28T10:37:06.066Z</time></trkpt><trkpt lat="43.8055167" lon="10.7803521"><ele>12.0</ele><time>2026-03-28T10:37:07.067Z</time></trkpt><trkpt lat="43.8056002" lon="10.7802666"><ele>12.399999999999999</ele><time>2026-03-28T10:37:08.066Z</time></trkpt><trkpt lat="43.8056855" lon="10.7801754"><ele>12.799999999999999</ele><time>2026-03-28T10:37:09.067Z</time></trkpt><trkpt lat="43.8057665" lon="10.7800962"><ele>13.2</ele><time>2026-03-28T10:37:10.067Z</time></trkpt><trkpt lat="43.8058443" lon="10.7800222"><ele>13.6</ele><time>2026-03-28T10:37:11.066Z</time></trkpt><trkpt lat="43.8059195" lon="10.7799396"><ele>14.0</ele><time>2026-03-28T10:37:12.066Z</time></trkpt><trkpt lat="43.8059975" lon="10.7798435"><ele>14.0</ele><time>2026-03-28T10:37:13.067Z</time></trkpt><trkpt lat="43.8060809" lon="10.7797448"><ele>13.999999999999998</ele><time>2026-03-28T10:37:14.067Z</time></trkpt><trkpt lat="43.8061705" lon="10.7796435"><ele>13.999999999999998</ele><time>2026-03-28T10:37:15.067Z</time></trkpt><trkpt lat="43.8062578" lon="10.7795532"><ele>14.0</ele><time>2026-03-28T10:37:16.067Z</time></trkpt><trkpt lat="43.8063407" lon="10.7794647"><ele>14.0</ele><time>2026-03-28T10:37:17.066Z</time></trkpt><trkpt lat="43.8064153" lon="10.7793698"><ele>14.166666666666668</ele><time>2026-03-28T10:37:18.067Z</time></trkpt><trkpt lat="43.8064871" lon="10.7792892"><ele>14.333333333333334</ele><time>2026-03-28T10:37:19.067Z</time></trkpt><trkpt lat="43.8065537" lon="10.7792353"><ele>14.5</ele><time>2026-03-28T10:37:20.067Z</time></trkpt><trkpt lat="43.8066085" lon="10.7791874"><ele>14.666666666666668</ele><time>2026-03-28T10:37:21.067Z</time></trkpt><trkpt lat="43.8066559" lon="10.7791238"><ele>14.833333333333334</ele><time>2026-03-28T10:37:22.067Z</time></trkpt><trkpt lat="43.8067134" lon="10.779041"><ele>15.0</ele><time>2026-03-28T10:37:23.067Z</time></trkpt><trkpt lat="43.806793" lon="10.7789471"><ele>14.25</ele><time>2026-03-28T10:37:24.067Z</time></trkpt><trkpt lat="43.8068816" lon="10.7788457"><ele>13.5</ele><time>2026-03-28T10:37:25.067Z</time></trkpt><trkpt lat="43.8069706" lon="10.7787418"><ele>12.75</ele><time>2026-03-28T10:37:26.067Z</time></trkpt><trkpt lat="43.8070644" lon="10.7786383"><ele>12.0</ele><time>2026-03-28T10:37:27.067Z</time></trkpt><trkpt lat="43.8071669" lon="10.7785412"><ele>12.0</ele><time>2026-03-28T10:37:28.067Z</time></trkpt><trkpt lat="43.8072654" lon="10.7784511"><ele>12.0</ele><time>2026-03-28T10:37:29.066Z</time></trkpt><trkpt lat="43.8073474" lon="10.7783698"><ele>12.0</ele><time>2026-03-28T10:37:30.066Z</time></trkpt><trkpt lat="43.8074163" lon="10.7782995"><ele>12.0</ele><time>2026-03-28T10:37:31.067Z</time></trkpt><trkpt lat="43.8074781" lon="10.778236"><ele>12.0</ele><time>2026-03-28T10:37:32.067Z</time></trkpt><trkpt lat="43.8075382" lon="10.7781703"><ele>12.0</ele><time>2026-03-28T10:37:33.066Z</time></trkpt><trkpt lat="43.8076023" lon="10.7780891"><ele>12.0</ele><time>2026-03-28T10:37:34.067Z</time></trkpt><trkpt lat="43.8076693" lon="10.777992"><ele>12.0</ele><time>2026-03-28T10:37:35.067Z</time></trkpt><trkpt lat="43.8077327" lon="10.7778922"><ele>12.0</ele><time>2026-03-28T10:37:36.066Z</time></trkpt><trkpt lat="43.8077923" lon="10.7778161"><ele>12.0</ele><time>2026-03-28T10:37:37.067Z</time></trkpt><trkpt lat="43.8078597" lon="10.7777551"><ele>12.0</ele><time>2026-03-28T10:37:38.067Z</time></trkpt><trkpt lat="43.8079362" lon="10.7776877"><ele>11.6</ele><time>2026-03-28T10:37:39.067Z</time></trkpt><trkpt lat="43.8080123" lon="10.7776072"><ele>11.2</ele><time>2026-03-28T10:37:40.067Z</time></trkpt><trkpt lat="43.808091" lon="10.7775176"><ele>10.8</ele><time>2026-03-28T10:37:41.066Z</time></trkpt><trkpt lat="43.8081737" lon="10.7774284"><ele>10.4</ele><time>2026-03-28T10:37:42.066Z</time></trkpt><trkpt lat="43.8082539" lon="10.7773433"><ele>10.0</ele><time>2026-03-28T10:37:43.067Z</time></trkpt><trkpt lat="43.8083235" lon="10.7772648"><ele>10.0</ele><time>2026-03-28T10:37:44.067Z</time></trkpt><trkpt lat="43.8083854" lon="10.7771943"><ele>10.0</ele><time>2026-03-28T10:37:45.067Z</time></trkpt><trkpt lat="43.8084399" lon="10.7771299"><ele>10.0</ele><time>2026-03-28T10:37:46.067Z</time></trkpt><trkpt lat="43.8084964" lon="10.7770716"><ele>10.0</ele><time>2026-03-28T10:37:47.066Z</time></trkpt><trkpt lat="43.8085588" lon="10.7770077"><ele>10.0</ele><time>2026-03-28T10:37:48.067Z</time></trkpt><trkpt lat="43.8086314" lon="10.77693"><ele>10.0</ele><time>2026-03-28T10:37:49.067Z</time></trkpt><trkpt lat="43.8087121" lon="10.7768422"><ele>10.0</ele><time>2026-03-28T10:37:50.066Z</time></trkpt><trkpt lat="43.8087963" lon="10.7767467"><ele>10.0</ele><time>2026-03-28T10:37:51.067Z</time></trkpt><trkpt lat="43.8088774" lon="10.7766583"><ele>10.0</ele><time>2026-03-28T10:37:52.067Z</time></trkpt><trkpt lat="43.8089505" lon="10.7765796"><ele>10.0</ele><time>2026-03-28T10:37:53.067Z</time></trkpt><trkpt lat="43.8090157" lon="10.7765161"><ele>10.0</ele><time>2026-03-28T10:37:54.067Z</time></trkpt><trkpt lat="43.80907" lon="10.7764671"><ele>10.0</ele><time>2026-03-28T10:37:55.067Z</time></trkpt><trkpt lat="43.8091529" lon="10.7763985"><ele>10.0</ele><time>2026-03-28T10:37:57.067Z</time></trkpt><trkpt lat="43.8092349" lon="10.7763083"><ele>10.0</ele><time>2026-03-28T10:37:59.066Z</time></trkpt><trkpt lat="43.8092857" lon="10.7762407"><ele>10.0</ele><time>2026-03-28T10:38:00.066Z</time></trkpt><trkpt lat="43.8093405" lon="10.776167"><ele>10.0</ele><time>2026-03-28T10:38:01.066Z</time></trkpt><trkpt lat="43.8093965" lon="10.7761009"><ele>10.0</ele><time>2026-03-28T10:38:02.067Z</time></trkpt><trkpt lat="43.8094505" lon="10.7760428"><ele>10.0</ele><time>2026-03-28T10:38:03.066Z</time></trkpt><trkpt lat="43.8095033" lon="10.7759824"><ele>10.333333333333334</ele><time>2026-03-28T10:38:04.066Z</time></trkpt><trkpt lat="43.8095576" lon="10.7759239"><ele>10.666666666666668</ele><time>2026-03-28T10:38:05.067Z</time></trkpt><trkpt lat="43.8096145" lon="10.7758694"><ele>11.0</ele><time>2026-03-28T10:38:06.067Z</time></trkpt><trkpt lat="43.8096749" lon="10.7758046"><ele>11.333333333333334</ele><time>2026-03-28T10:38:07.067Z</time></trkpt><trkpt lat="43.8097376" lon="10.7757351"><ele>11.666666666666666</ele><time>2026-03-28T10:38:08.066Z</time></trkpt><trkpt lat="43.8098007" lon="10.7756611"><ele>12.0</ele><time>2026-03-28T10:38:09.066Z</time></trkpt><trkpt lat="43.809864" lon="10.7755898"><ele>11.999999999999998</ele><time>2026-03-28T10:38:10.067Z</time></trkpt><trkpt lat="43.8099216" lon="10.7755186"><ele>12.0</ele><time>2026-03-28T10:38:11.067Z</time></trkpt><trkpt lat="43.8099738" lon="10.7754522"><ele>12.0</ele><time>2026-03-28T10:38:12.067Z</time></trkpt><trkpt lat="43.8100231" lon="10.7753881"><ele>12.0</ele><time>2026-03-28T10:38:13.066Z</time></trkpt><trkpt lat="43.8100771" lon="10.7753259"><ele>12.0</ele><time>2026-03-28T10:38:14.067Z</time></trkpt><trkpt lat="43.8101361" lon="10.7752665"><ele>11.999999999999998</ele><time>2026-03-28T10:38:15.067Z</time></trkpt><trkpt lat="43.8102007" lon="10.7752036"><ele>12.0</ele><time>2026-03-28T10:38:16.066Z</time></trkpt><trkpt lat="43.810271" lon="10.7751298"><ele>11.6</ele><time>2026-03-28T10:38:17.067Z</time></trkpt><trkpt lat="43.8103433" lon="10.7750483"><ele>11.2</ele><time>2026-03-28T10:38:18.067Z</time></trkpt><trkpt lat="43.8104181" lon="10.7749571"><ele>10.8</ele><time>2026-03-28T10:38:19.067Z</time></trkpt><trkpt lat="43.8104977" lon="10.7748641"><ele>10.4</ele><time>2026-03-28T10:38:20.067Z</time></trkpt><trkpt lat="43.8105791" lon="10.7747719"><ele>10.0</ele><time>2026-03-28T10:38:21.067Z</time></trkpt><trkpt lat="43.8106622" lon="10.7746786"><ele>10.0</ele><time>2026-03-28T10:38:22.067Z</time></trkpt><trkpt lat="43.8107455" lon="10.7745848"><ele>10.0</ele><time>2026-03-28T10:38:23.066Z</time></trkpt><trkpt lat="43.81083" lon="10.7744896"><ele>10.0</ele><time>2026-03-28T10:38:24.067Z</time></trkpt><trkpt lat="43.8109142" lon="10.7743989"><ele>10.0</ele><time>2026-03-28T10:38:25.066Z</time></trkpt><trkpt lat="43.8109958" lon="10.7743051"><ele>10.0</ele><time>2026-03-28T10:38:26.066Z</time></trkpt><trkpt lat="43.8110749" lon="10.7742056"><ele>9.8</ele><time>2026-03-28T10:38:27.067Z</time></trkpt><trkpt lat="43.8111586" lon="10.7741088"><ele>9.6</ele><time>2026-03-28T10:38:28.067Z</time></trkpt><trkpt lat="43.8112425" lon="10.7740272"><ele>9.4</ele><time>2026-03-28T10:38:29.067Z</time></trkpt><trkpt lat="43.8113278" lon="10.7739464"><ele>9.2</ele><time>2026-03-28T10:38:30.066Z</time></trkpt><trkpt lat="43.8114084" lon="10.7738673"><ele>9.0</ele><time>2026-03-28T10:38:31.066Z</time></trkpt><trkpt lat="43.8114854" lon="10.7737889"><ele>9.0</ele><time>2026-03-28T10:38:32.067Z</time></trkpt><trkpt lat="43.8115605" lon="10.7737037"><ele>9.0</ele><time>2026-03-28T10:38:33.067Z</time></trkpt><trkpt lat="43.8116332" lon="10.7736207"><ele>9.0</ele><time>2026-03-28T10:38:34.067Z</time></trkpt><trkpt lat="43.8117111" lon="10.7735359"><ele>9.0</ele><time>2026-03-28T10:38:35.067Z</time></trkpt><trkpt lat="43.8117873" lon="10.7734492"><ele>9.0</ele><time>2026-03-28T10:38:36.067Z</time></trkpt><trkpt lat="43.8118613" lon="10.7733681"><ele>9.666666666666666</ele><time>2026-03-28T10:38:37.067Z</time></trkpt><trkpt lat="43.8119296" lon="10.7732918"><ele>10.333333333333332</ele><time>2026-03-28T10:38:38.067Z</time></trkpt><trkpt lat="43.8119975" lon="10.7732139"><ele>11.0</ele><time>2026-03-28T10:38:39.067Z</time></trkpt><trkpt lat="43.8120657" lon="10.7731369"><ele>11.666666666666666</ele><time>2026-03-28T10:38:40.067Z</time></trkpt><trkpt lat="43.8121325" lon="10.773059"><ele>12.333333333333332</ele><time>2026-03-28T10:38:41.067Z</time></trkpt><trkpt lat="43.8121948" lon="10.7729888"><ele>13.0</ele><time>2026-03-28T10:38:42.067Z</time></trkpt><trkpt lat="43.8122525" lon="10.772937"><ele>13.0</ele><time>2026-03-28T10:38:43.067Z</time></trkpt><trkpt lat="43.8123076" lon="10.7728834"><ele>13.0</ele><time>2026-03-28T10:38:44.066Z</time></trkpt><trkpt lat="43.8123637" lon="10.7728323"><ele>13.0</ele><time>2026-03-28T10:38:45.067Z</time></trkpt><trkpt lat="43.812419" lon="10.7727815"><ele>13.0</ele><time>2026-03-28T10:38:46.067Z</time></trkpt><trkpt lat="43.8124803" lon="10.7727246"><ele>13.0</ele><time>2026-03-28T10:38:47.067Z</time></trkpt><trkpt lat="43.8125499" lon="10.772662"><ele>13.0</ele><time>2026-03-28T10:38:48.067Z</time></trkpt><trkpt lat="43.8126184" lon="10.7725897"><ele>13.0</ele><time>2026-03-28T10:38:49.067Z</time></trkpt><trkpt lat="43.8126885" lon="10.7725057"><ele>13.333333333333332</ele><time>2026-03-28T10:38:50.067Z</time></trkpt><trkpt lat="43.8127562" lon="10.7724223"><ele>13.666666666666666</ele><time>2026-03-28T10:38:51.066Z</time></trkpt><trkpt lat="43.8128233" lon="10.7723471"><ele>14.0</ele><time>2026-03-28T10:38:52.067Z</time></trkpt><trkpt lat="43.8128906" lon="10.7722666"><ele>14.333333333333332</ele><time>2026-03-28T10:38:53.067Z</time></trkpt><trkpt lat="43.8129565" lon="10.7721839"><ele>14.666666666666666</ele><time>2026-03-28T10:38:54.066Z</time></trkpt><trkpt lat="43.8130193" lon="10.7721063"><ele>15.0</ele><time>2026-03-28T10:38:55.067Z</time></trkpt><trkpt lat="43.8130727" lon="10.7720424"><ele>15.0</ele><time>2026-03-28T10:38:56.067Z</time></trkpt><trkpt lat="43.813139" lon="10.7719372"><ele>15.0</ele><time>2026-03-28T10:38:58.067Z</time></trkpt><trkpt lat="43.8131633" lon="10.7718567"><ele>15.0</ele><time>2026-03-28T10:39:00.066Z</time></trkpt><trkpt lat="43.8131567" lon="10.77175"><ele>15.0</ele><time>2026-03-28T10:39:04.067Z</time></trkpt><trkpt lat="43.8131333" lon="10.77165"><ele>15.0</ele><time>2026-03-28T10:39:34.067Z</time></trkpt><trkpt lat="43.8131167" lon="10.7715633"><ele>15.0</ele><time>2026-03-28T10:39:36.066Z</time></trkpt><trkpt lat="43.8130583" lon="10.7714483"><ele>14.8</ele><time>2026-03-28T10:46:09.066Z</time></trkpt><trkpt lat="43.813" lon="10.77141"><ele>14.6</ele><time>2026-03-28T10:46:12.066Z</time></trkpt><trkpt lat="43.8129817" lon="10.7712683"><ele>14.399999999999999</ele><time>2026-03-28T10:46:21.067Z</time></trkpt><trkpt lat="43.8129583" lon="10.7710667"><ele>14.2</ele><time>2026-03-28T10:46:23.066Z</time></trkpt><trkpt lat="43.812935" lon="10.7709233"><ele>14.0</ele><time>2026-03-28T10:46:24.067Z</time></trkpt><trkpt lat="43.81291" lon="10.7707833"><ele>14.0</ele><time>2026-03-28T10:46:25.067Z</time></trkpt><trkpt lat="43.812885" lon="10.7706383"><ele>13.999999999999998</ele><time>2026-03-28T10:46:26.066Z</time></trkpt><trkpt lat="43.8128533" lon="10.7705"><ele>13.999999999999998</ele><time>2026-03-28T10:46:27.067Z</time></trkpt><trkpt lat="43.8128267" lon="10.77037"><ele>14.0</ele><time>2026-03-28T10:46:28.066Z</time></trkpt><trkpt lat="43.812795" lon="10.7702467"><ele>14.0</ele><time>2026-03-28T10:46:29.067Z</time></trkpt><trkpt lat="43.8127667" lon="10.7701183"><ele>13.799999999999999</ele><time>2026-03-28T10:46:30.067Z</time></trkpt><trkpt lat="43.81274" lon="10.769985"><ele>13.599999999999998</ele><time>2026-03-28T10:46:31.066Z</time></trkpt><trkpt lat="43.812715" lon="10.7698517"><ele>13.4</ele><time>2026-03-28T10:46:32.067Z</time></trkpt><trkpt lat="43.812685" lon="10.7697217"><ele>13.2</ele><time>2026-03-28T10:46:33.066Z</time></trkpt><trkpt lat="43.8126483" lon="10.769585"><ele>13.0</ele><time>2026-03-28T10:46:34.066Z</time></trkpt><trkpt lat="43.8126133" lon="10.7694533"><ele>13.0</ele><time>2026-03-28T10:46:35.066Z</time></trkpt><trkpt lat="43.81259" lon="10.7693167"><ele>13.0</ele><time>2026-03-28T10:46:36.067Z</time></trkpt><trkpt lat="43.8125583" lon="10.7691833"><ele>13.0</ele><time>2026-03-28T10:46:37.067Z</time></trkpt><trkpt lat="43.8125267" lon="10.7690483"><ele>13.0</ele><time>2026-03-28T10:46:38.067Z</time></trkpt><trkpt lat="43.8124983" lon="10.76892"><ele>13.0</ele><time>2026-03-28T10:46:39.066Z</time></trkpt><trkpt lat="43.8124667" lon="10.7688"><ele>13.0</ele><time>2026-03-28T10:46:40.067Z</time></trkpt><trkpt lat="43.8124317" lon="10.7686767"><ele>13.0</ele><time>2026-03-28T10:46:41.067Z</time></trkpt><trkpt lat="43.812405" lon="10.7685533"><ele>13.0</ele><time>2026-03-28T10:46:42.066Z</time></trkpt><trkpt lat="43.812375" lon="10.7684233"><ele>13.0</ele><time>2026-03-28T10:46:43.067Z</time></trkpt><trkpt lat="43.8123433" lon="10.7682967"><ele>13.0</ele><time>2026-03-28T10:46:44.067Z</time></trkpt><trkpt lat="43.8123083" lon="10.7681717"><ele>13.0</ele><time>2026-03-28T10:46:45.067Z</time></trkpt><trkpt lat="43.812285" lon="10.7680367"><ele>13.0</ele><time>2026-03-28T10:46:46.067Z</time></trkpt><trkpt lat="43.8122633" lon="10.7679033"><ele>13.0</ele><time>2026-03-28T10:46:47.066Z</time></trkpt><trkpt lat="43.8122383" lon="10.7677767"><ele>13.0</ele><time>2026-03-28T10:46:48.067Z</time></trkpt><trkpt lat="43.8122083" lon="10.7676583"><ele>13.0</ele><time>2026-03-28T10:46:49.067Z</time></trkpt><trkpt lat="43.8121817" lon="10.7675317"><ele>13.2</ele><time>2026-03-28T10:46:50.066Z</time></trkpt><trkpt lat="43.812155" lon="10.7673967"><ele>13.4</ele><time>2026-03-28T10:46:51.067Z</time></trkpt><trkpt lat="43.8121267" lon="10.7672683"><ele>13.599999999999998</ele><time>2026-03-28T10:46:52.067Z</time></trkpt><trkpt lat="43.8121033" lon="10.7671317"><ele>13.799999999999999</ele><time>2026-03-28T10:46:53.066Z</time></trkpt><trkpt lat="43.8120767" lon="10.767005"><ele>14.0</ele><time>2026-03-28T10:46:54.067Z</time></trkpt><trkpt lat="43.8120517" lon="10.766885"><ele>14.000000000000002</ele><time>2026-03-28T10:46:55.067Z</time></trkpt><trkpt lat="43.8120233" lon="10.76678"><ele>14.0</ele><time>2026-03-28T10:46:56.067Z</time></trkpt><trkpt lat="43.81199" lon="10.76669"><ele>14.0</ele><time>2026-03-28T10:46:57.067Z</time></trkpt><trkpt lat="43.81196" lon="10.7666117"><ele>14.0</ele><time>2026-03-28T10:46:58.067Z</time></trkpt><trkpt lat="43.8118833" lon="10.76648"><ele>14.000000000000002</ele><time>2026-03-28T10:47:00.067Z</time></trkpt><trkpt lat="43.811835" lon="10.76642"><ele>14.0</ele><time>2026-03-28T10:47:01.067Z</time></trkpt><trkpt lat="43.81178" lon="10.766355"><ele>13.666666666666668</ele><time>2026-03-28T10:47:02.067Z</time></trkpt><trkpt lat="43.811725" lon="10.7662883"><ele>13.333333333333334</ele><time>2026-03-28T10:47:03.067Z</time></trkpt><trkpt lat="43.81167" lon="10.7662167"><ele>13.0</ele><time>2026-03-28T10:47:04.066Z</time></trkpt><trkpt lat="43.8116283" lon="10.766145"><ele>12.666666666666668</ele><time>2026-03-28T10:47:05.066Z</time></trkpt><trkpt lat="43.81155" lon="10.7660183"><ele>12.333333333333334</ele><time>2026-03-28T10:47:07.067Z</time></trkpt><trkpt lat="43.8114667" lon="10.7659117"><ele>12.0</ele><time>2026-03-28T10:47:09.066Z</time></trkpt><trkpt lat="43.8114133" lon="10.7658"><ele>11.999999999999998</ele><time>2026-03-28T10:47:11.067Z</time></trkpt><trkpt lat="43.8113567" lon="10.7657117"><ele>12.0</ele><time>2026-03-28T10:47:13.066Z</time></trkpt><trkpt lat="43.8113067" lon="10.765655"><ele>12.0</ele><time>2026-03-28T10:47:14.067Z</time></trkpt><trkpt lat="43.811255" lon="10.765585"><ele>12.0</ele><time>2026-03-28T10:47:15.067Z</time></trkpt><trkpt lat="43.8112017" lon="10.76551"><ele>12.0</ele><time>2026-03-28T10:47:16.067Z</time></trkpt><trkpt lat="43.8111517" lon="10.7654333"><ele>11.999999999999998</ele><time>2026-03-28T10:47:17.067Z</time></trkpt><trkpt lat="43.8111" lon="10.7653683"><ele>12.0</ele><time>2026-03-28T10:47:18.067Z</time></trkpt><trkpt lat="43.8110533" lon="10.765295"><ele>12.0</ele><time>2026-03-28T10:47:19.067Z</time></trkpt><trkpt lat="43.8110083" lon="10.765225"><ele>12.0</ele><time>2026-03-28T10:47:20.067Z</time></trkpt><trkpt lat="43.8109567" lon="10.7651583"><ele>12.0</ele><time>2026-03-28T10:47:21.067Z</time></trkpt><trkpt lat="43.8109017" lon="10.7650867"><ele>12.0</ele><time>2026-03-28T10:47:22.067Z</time></trkpt><trkpt lat="43.81085" lon="10.7650117"><ele>12.0</ele><time>2026-03-28T10:47:23.066Z</time></trkpt><trkpt lat="43.81079" lon="10.764935"><ele>12.0</ele><time>2026-03-28T10:47:24.067Z</time></trkpt><trkpt lat="43.8107333" lon="10.7648567"><ele>12.0</ele><time>2026-03-28T10:47:25.066Z</time></trkpt><trkpt lat="43.810675" lon="10.7647733"><ele>12.0</ele><time>2026-03-28T10:47:26.067Z</time></trkpt><trkpt lat="43.810615" lon="10.7646883"><ele>12.0</ele><time>2026-03-28T10:47:27.067Z</time></trkpt><trkpt lat="43.8105567" lon="10.7646017"><ele>12.0</ele><time>2026-03-28T10:47:28.066Z</time></trkpt><trkpt lat="43.8104917" lon="10.7645183"><ele>12.0</ele><time>2026-03-28T10:47:29.067Z</time></trkpt><trkpt lat="43.8104333" lon="10.7644367"><ele>12.0</ele><time>2026-03-28T10:47:30.067Z</time></trkpt><trkpt lat="43.810375" lon="10.7643517"><ele>12.166666666666666</ele><time>2026-03-28T10:47:31.067Z</time></trkpt><trkpt lat="43.8103133" lon="10.764265"><ele>12.333333333333332</ele><time>2026-03-28T10:47:32.067Z</time></trkpt><trkpt lat="43.810255" lon="10.7641783"><ele>12.5</ele><time>2026-03-28T10:47:33.067Z</time></trkpt><trkpt lat="43.8101967" lon="10.764095"><ele>12.666666666666666</ele><time>2026-03-28T10:47:34.067Z</time></trkpt><trkpt lat="43.810135" lon="10.764015"><ele>12.833333333333332</ele><time>2026-03-28T10:47:35.067Z</time></trkpt><trkpt lat="43.8100867" lon="10.763945"><ele>13.0</ele><time>2026-03-28T10:47:36.066Z</time></trkpt><trkpt lat="43.8100317" lon="10.76386"><ele>12.999999999999998</ele><time>2026-03-28T10:47:37.067Z</time></trkpt><trkpt lat="43.8099783" lon="10.7637833"><ele>13.0</ele><time>2026-03-28T10:47:38.067Z</time></trkpt><trkpt lat="43.8099183" lon="10.763705"><ele>13.0</ele><time>2026-03-28T10:47:39.067Z</time></trkpt><trkpt lat="43.8098567" lon="10.7636317"><ele>13.0</ele><time>2026-03-28T10:47:40.067Z</time></trkpt><trkpt lat="43.8097967" lon="10.76355"><ele>12.999999999999998</ele><time>2026-03-28T10:47:41.067Z</time></trkpt><trkpt lat="43.8097367" lon="10.7634683"><ele>13.0</ele><time>2026-03-28T10:47:42.067Z</time></trkpt><trkpt lat="43.8096817" lon="10.7633883"><ele>12.999999999999998</ele><time>2026-03-28T10:47:43.066Z</time></trkpt><trkpt lat="43.809625" lon="10.763315"><ele>13.0</ele><time>2026-03-28T10:47:44.067Z</time></trkpt><trkpt lat="43.8095733" lon="10.7632317"><ele>13.0</ele><time>2026-03-28T10:47:45.067Z</time></trkpt><trkpt lat="43.809515" lon="10.76315"><ele>13.0</ele><time>2026-03-28T10:47:46.067Z</time></trkpt><trkpt lat="43.809455" lon="10.76307"><ele>12.999999999999998</ele><time>2026-03-28T10:47:47.067Z</time></trkpt><trkpt lat="43.8093917" lon="10.7629883"><ele>13.0</ele><time>2026-03-28T10:47:48.067Z</time></trkpt><trkpt lat="43.8093367" lon="10.7628983"><ele>12.999999999999998</ele><time>2026-03-28T10:47:49.067Z</time></trkpt><trkpt lat="43.8092783" lon="10.7628217"><ele>13.0</ele><time>2026-03-28T10:47:50.067Z</time></trkpt><trkpt lat="43.8092217" lon="10.762735"><ele>13.0</ele><time>2026-03-28T10:47:51.067Z</time></trkpt><trkpt lat="43.80917" lon="10.7626567"><ele>13.0</ele><time>2026-03-28T10:47:52.066Z</time></trkpt><trkpt lat="43.8091217" lon="10.7625833"><ele>12.999999999999998</ele><time>2026-03-28T10:47:53.067Z</time></trkpt><trkpt lat="43.8090667" lon="10.7625117"><ele>13.0</ele><time>2026-03-28T10:47:54.067Z</time></trkpt><trkpt lat="43.8090167" lon="10.7624417"><ele>13.166666666666666</ele><time>2026-03-28T10:47:55.066Z</time></trkpt><trkpt lat="43.808965" lon="10.7623717"><ele>13.333333333333332</ele><time>2026-03-28T10:47:56.066Z</time></trkpt><trkpt lat="43.8089183" lon="10.7623033"><ele>13.5</ele><time>2026-03-28T10:47:57.067Z</time></trkpt><trkpt lat="43.8088733" lon="10.762235"><ele>13.666666666666668</ele><time>2026-03-28T10:47:58.067Z</time></trkpt><trkpt lat="43.808795" lon="10.7621217"><ele>13.833333333333334</ele><time>2026-03-28T10:48:00.067Z</time></trkpt><trkpt lat="43.8087517" lon="10.7620067"><ele>14.0</ele><time>2026-03-28T10:48:02.066Z</time></trkpt><trkpt lat="43.8087067" lon="10.7619133"><ele>14.0</ele><time>2026-03-28T10:48:04.067Z</time></trkpt><trkpt lat="43.8086217" lon="10.7619283"><ele>13.999999999999998</ele><time>2026-03-28T10:48:06.066Z</time></trkpt><trkpt lat="43.80855" lon="10.76197"><ele>13.999999999999998</ele><time>2026-03-28T10:48:07.067Z</time></trkpt><trkpt lat="43.8084483" lon="10.7620383"><ele>14.0</ele><time>2026-03-28T10:48:08.067Z</time></trkpt><trkpt lat="43.8083317" lon="10.762115"><ele>14.0</ele><time>2026-03-28T10:48:09.067Z</time></trkpt><trkpt lat="43.8082067" lon="10.7621983"><ele>13.75</ele><time>2026-03-28T10:48:10.067Z</time></trkpt><trkpt lat="43.8081017" lon="10.7622917"><ele>13.5</ele><time>2026-03-28T10:48:11.067Z</time></trkpt><trkpt lat="43.80801" lon="10.7623883"><ele>13.25</ele><time>2026-03-28T10:48:12.066Z</time></trkpt><trkpt lat="43.807915" lon="10.7625117"><ele>13.0</ele><time>2026-03-28T10:48:13.067Z</time></trkpt><trkpt lat="43.80781" lon="10.7626733"><ele>13.0</ele><time>2026-03-28T10:48:14.067Z</time></trkpt><trkpt lat="43.8076983" lon="10.76286"><ele>13.0</ele><time>2026-03-28T10:48:15.066Z</time></trkpt><trkpt lat="43.8075817" lon="10.763045"><ele>13.0</ele><time>2026-03-28T10:48:16.067Z</time></trkpt><trkpt lat="43.8074717" lon="10.7632183"><ele>13.0</ele><time>2026-03-28T10:48:17.066Z</time></trkpt><trkpt lat="43.807375" lon="10.76338"><ele>13.0</ele><time>2026-03-28T10:48:18.067Z</time></trkpt><trkpt lat="43.8072917" lon="10.7635333"><ele>13.0</ele><time>2026-03-28T10:48:19.067Z</time></trkpt><trkpt lat="43.8072117" lon="10.76367"><ele>13.0</ele><time>2026-03-28T10:48:20.067Z</time></trkpt><trkpt lat="43.8071283" lon="10.763785"><ele>12.8</ele><time>2026-03-28T10:48:21.067Z</time></trkpt><trkpt lat="43.8070517" lon="10.763905"><ele>12.600000000000001</ele><time>2026-03-28T10:48:22.067Z</time></trkpt><trkpt lat="43.80699" lon="10.76401"><ele>12.399999999999999</ele><time>2026-03-28T10:48:23.067Z</time></trkpt><trkpt lat="43.8069317" lon="10.764105"><ele>12.2</ele><time>2026-03-28T10:48:24.066Z</time></trkpt><trkpt lat="43.8068717" lon="10.7641933"><ele>12.0</ele><time>2026-03-28T10:48:25.067Z</time></trkpt><trkpt lat="43.806815" lon="10.76428"><ele>12.166666666666666</ele><time>2026-03-28T10:48:26.067Z</time></trkpt><trkpt lat="43.8067567" lon="10.764375"><ele>12.333333333333332</ele><time>2026-03-28T10:48:27.067Z</time></trkpt><trkpt lat="43.806705" lon="10.7644633"><ele>12.5</ele><time>2026-03-28T10:48:28.067Z</time></trkpt><trkpt lat="43.80664" lon="10.76456"><ele>12.666666666666666</ele><time>2026-03-28T10:48:29.067Z</time></trkpt><trkpt lat="43.80658" lon="10.7646517"><ele>12.833333333333332</ele><time>2026-03-28T10:48:30.067Z</time></trkpt><trkpt lat="43.8065183" lon="10.7647367"><ele>13.0</ele><time>2026-03-28T10:48:31.067Z</time></trkpt><trkpt lat="43.80646" lon="10.764825"><ele>12.999999999999998</ele><time>2026-03-28T10:48:32.067Z</time></trkpt><trkpt lat="43.8064033" lon="10.764915"><ele>13.0</ele><time>2026-03-28T10:48:33.067Z</time></trkpt><trkpt lat="43.8063567" lon="10.7650183"><ele>13.0</ele><time>2026-03-28T10:48:34.066Z</time></trkpt><trkpt lat="43.8063" lon="10.76511"><ele>13.0</ele><time>2026-03-28T10:48:35.067Z</time></trkpt><trkpt lat="43.80624" lon="10.765205"><ele>12.999999999999998</ele><time>2026-03-28T10:48:36.067Z</time></trkpt><trkpt lat="43.806175" lon="10.7652967"><ele>13.0</ele><time>2026-03-28T10:48:37.066Z</time></trkpt><trkpt lat="43.8061117" lon="10.7653883"><ele>12.8</ele><time>2026-03-28T10:48:38.066Z</time></trkpt><trkpt lat="43.806055" lon="10.76547"><ele>12.600000000000001</ele><time>2026-03-28T10:48:39.067Z</time></trkpt><trkpt lat="43.806" lon="10.7655517"><ele>12.399999999999999</ele><time>2026-03-28T10:48:40.067Z</time></trkpt><trkpt lat="43.8059333" lon="10.76565"><ele>12.2</ele><time>2026-03-28T10:48:41.067Z</time></trkpt><trkpt lat="43.805865" lon="10.7657483"><ele>12.0</ele><time>2026-03-28T10:48:42.067Z</time></trkpt><trkpt lat="43.805795" lon="10.765845"><ele>12.25</ele><time>2026-03-28T10:48:43.066Z</time></trkpt><trkpt lat="43.80572" lon="10.7659667"><ele>12.5</ele><time>2026-03-28T10:48:44.067Z</time></trkpt><trkpt lat="43.8056367" lon="10.766115"><ele>12.75</ele><time>2026-03-28T10:48:45.067Z</time></trkpt><trkpt lat="43.80555" lon="10.766255"><ele>13.0</ele><time>2026-03-28T10:48:46.067Z</time></trkpt><trkpt lat="43.8054683" lon="10.7663817"><ele>13.0</ele><time>2026-03-28T10:48:47.066Z</time></trkpt><trkpt lat="43.8053917" lon="10.7665017"><ele>13.0</ele><time>2026-03-28T10:48:48.067Z</time></trkpt><trkpt lat="43.8053133" lon="10.7666233"><ele>13.0</ele><time>2026-03-28T10:48:49.066Z</time></trkpt><trkpt lat="43.8052433" lon="10.766745"><ele>13.0</ele><time>2026-03-28T10:48:50.067Z</time></trkpt><trkpt lat="43.805195" lon="10.7668783"><ele>13.0</ele><time>2026-03-28T10:48:51.066Z</time></trkpt><trkpt lat="43.8051367" lon="10.767"><ele>13.0</ele><time>2026-03-28T10:48:52.066Z</time></trkpt><trkpt lat="43.8050783" lon="10.7671217"><ele>13.0</ele><time>2026-03-28T10:48:53.067Z</time></trkpt><trkpt lat="43.8050083" lon="10.767255"><ele>13.0</ele><time>2026-03-28T10:48:54.067Z</time></trkpt><trkpt lat="43.8049433" lon="10.7673933"><ele>13.0</ele><time>2026-03-28T10:48:55.066Z</time></trkpt><trkpt lat="43.8048767" lon="10.767535"><ele>13.0</ele><time>2026-03-28T10:48:56.066Z</time></trkpt><trkpt lat="43.8048133" lon="10.7676717"><ele>13.0</ele><time>2026-03-28T10:48:57.067Z</time></trkpt><trkpt lat="43.8047517" lon="10.7678033"><ele>13.0</ele><time>2026-03-28T10:48:58.067Z</time></trkpt><trkpt lat="43.80469" lon="10.7679283"><ele>13.0</ele><time>2026-03-28T10:48:59.066Z</time></trkpt><trkpt lat="43.804635" lon="10.7680467"><ele>13.0</ele><time>2026-03-28T10:49:00.067Z</time></trkpt><trkpt lat="43.8045833" lon="10.7681767"><ele>13.0</ele><time>2026-03-28T10:49:01.066Z</time></trkpt><trkpt lat="43.8045267" lon="10.7683083"><ele>13.0</ele><time>2026-03-28T10:49:02.066Z</time></trkpt><trkpt lat="43.8044683" lon="10.7684267"><ele>13.0</ele><time>2026-03-28T10:49:03.067Z</time></trkpt><trkpt lat="43.8044017" lon="10.768545"><ele>13.0</ele><time>2026-03-28T10:49:04.067Z</time></trkpt><trkpt lat="43.8043417" lon="10.768665"><ele>13.0</ele><time>2026-03-28T10:49:05.066Z</time></trkpt><trkpt lat="43.8042817" lon="10.768785"><ele>13.0</ele><time>2026-03-28T10:49:06.067Z</time></trkpt><trkpt lat="43.8042217" lon="10.768905"><ele>13.0</ele><time>2026-03-28T10:49:07.066Z</time></trkpt><trkpt lat="43.8041617" lon="10.7690267"><ele>13.0</ele><time>2026-03-28T10:49:08.067Z</time></trkpt><trkpt lat="43.804105" lon="10.7691483"><ele>13.0</ele><time>2026-03-28T10:49:09.067Z</time></trkpt><trkpt lat="43.8040467" lon="10.7692767"><ele>13.0</ele><time>2026-03-28T10:49:10.067Z</time></trkpt><trkpt lat="43.8039883" lon="10.7694167"><ele>12.8</ele><time>2026-03-28T10:49:11.067Z</time></trkpt><trkpt lat="43.8039283" lon="10.7695417"><ele>12.600000000000001</ele><time>2026-03-28T10:49:12.066Z</time></trkpt><trkpt lat="43.8038783" lon="10.7696517"><ele>12.399999999999999</ele><time>2026-03-28T10:49:13.066Z</time></trkpt><trkpt lat="43.8038267" lon="10.769755"><ele>12.2</ele><time>2026-03-28T10:49:14.067Z</time></trkpt><trkpt lat="43.8037783" lon="10.7698617"><ele>12.0</ele><time>2026-03-28T10:49:15.067Z</time></trkpt><trkpt lat="43.8037367" lon="10.76996"><ele>12.0</ele><time>2026-03-28T10:49:16.067Z</time></trkpt><trkpt lat="43.803685" lon="10.7700667"><ele>12.0</ele><time>2026-03-28T10:49:17.066Z</time></trkpt><trkpt lat="43.803635" lon="10.7701683"><ele>12.0</ele><time>2026-03-28T10:49:18.067Z</time></trkpt><trkpt lat="43.8035767" lon="10.7702667"><ele>12.0</ele><time>2026-03-28T10:49:19.066Z</time></trkpt><trkpt lat="43.8035167" lon="10.77037"><ele>12.0</ele><time>2026-03-28T10:49:20.067Z</time></trkpt><trkpt lat="43.803475" lon="10.7704917"><ele>12.399999999999999</ele><time>2026-03-28T10:49:21.067Z</time></trkpt><trkpt lat="43.8034217" lon="10.7706267"><ele>12.799999999999999</ele><time>2026-03-28T10:49:22.066Z</time></trkpt><trkpt lat="43.8033717" lon="10.770755"><ele>13.2</ele><time>2026-03-28T10:49:23.066Z</time></trkpt><trkpt lat="43.80332" lon="10.7708817"><ele>13.6</ele><time>2026-03-28T10:49:24.066Z</time></trkpt><trkpt lat="43.803265" lon="10.77101"><ele>14.0</ele><time>2026-03-28T10:49:25.066Z</time></trkpt><trkpt lat="43.80322" lon="10.7711333"><ele>14.2</ele><time>2026-03-28T10:49:26.067Z</time></trkpt><trkpt lat="43.8031633" lon="10.771255"><ele>14.399999999999999</ele><time>2026-03-28T10:49:27.067Z</time></trkpt><trkpt lat="43.8030983" lon="10.7713717"><ele>14.6</ele><time>2026-03-28T10:49:28.066Z</time></trkpt><trkpt lat="43.8030317" lon="10.7714933"><ele>14.8</ele><time>2026-03-28T10:49:29.066Z</time></trkpt><trkpt lat="43.8029767" lon="10.77161"><ele>15.0</ele><time>2026-03-28T10:49:30.067Z</time></trkpt><trkpt lat="43.8029267" lon="10.771725"><ele>15.0</ele><time>2026-03-28T10:49:31.066Z</time></trkpt><trkpt lat="43.80288" lon="10.77182"><ele>15.0</ele><time>2026-03-28T10:49:32.066Z</time></trkpt><trkpt lat="43.8028433" lon="10.7718983"><ele>15.0</ele><time>2026-03-28T10:49:33.067Z</time></trkpt><trkpt lat="43.8028" lon="10.771965"><ele>15.0</ele><time>2026-03-28T10:49:34.067Z</time></trkpt><trkpt lat="43.8027317" lon="10.7720717"><ele>15.0</ele><time>2026-03-28T10:49:36.067Z</time></trkpt><trkpt lat="43.8026767" lon="10.7721383"><ele>15.0</ele><time>2026-03-28T10:49:38.067Z</time></trkpt><trkpt lat="43.8026033" lon="10.772245"><ele>15.0</ele><time>2026-03-28T10:49:48.066Z</time></trkpt><trkpt lat="43.8025067" lon="10.7722967"><ele>15.0</ele><time>2026-03-28T10:49:50.067Z</time></trkpt><trkpt lat="43.8024317" lon="10.7722883"><ele>15.0</ele><time>2026-03-28T10:49:51.067Z</time></trkpt><trkpt lat="43.8023233" lon="10.7722367"><ele>15.0</ele><time>2026-03-28T10:49:52.066Z</time></trkpt><trkpt lat="43.8022017" lon="10.7721483"><ele>15.0</ele><time>2026-03-28T10:49:53.066Z</time></trkpt><trkpt lat="43.8020717" lon="10.7720583"><ele>15.0</ele><time>2026-03-28T10:49:54.067Z</time></trkpt><trkpt lat="43.801945" lon="10.77198"><ele>15.0</ele><time>2026-03-28T10:49:55.067Z</time></trkpt><trkpt lat="43.8018183" lon="10.7719"><ele>15.0</ele><time>2026-03-28T10:49:56.067Z</time></trkpt><trkpt lat="43.8017017" lon="10.7718267"><ele>15.0</ele><time>2026-03-28T10:49:57.067Z</time></trkpt><trkpt lat="43.801605" lon="10.7717633"><ele>15.0</ele><time>2026-03-28T10:49:58.067Z</time></trkpt><trkpt lat="43.8015033" lon="10.77171"><ele>15.0</ele><time>2026-03-28T10:49:59.067Z</time></trkpt><trkpt lat="43.801425" lon="10.771655"><ele>15.0</ele><time>2026-03-28T10:50:00.067Z</time></trkpt><trkpt lat="43.8013483" lon="10.7716"><ele>15.0</ele><time>2026-03-28T10:50:01.067Z</time></trkpt><trkpt lat="43.8012867" lon="10.7715483"><ele>15.0</ele><time>2026-03-28T10:50:02.067Z</time></trkpt><trkpt lat="43.8012233" lon="10.7715033"><ele>15.0</ele><time>2026-03-28T10:50:03.067Z</time></trkpt><trkpt lat="43.8011517" lon="10.7714583"><ele>15.0</ele><time>2026-03-28T10:50:04.067Z</time></trkpt><trkpt lat="43.8010767" lon="10.7714167"><ele>15.0</ele><time>2026-03-28T10:50:05.067Z</time></trkpt><trkpt lat="43.800995" lon="10.7713767"><ele>15.0</ele><time>2026-03-28T10:50:06.067Z</time></trkpt><trkpt lat="43.80091" lon="10.7713333"><ele>15.0</ele><time>2026-03-28T10:50:07.066Z</time></trkpt><trkpt lat="43.8008317" lon="10.77128"><ele>15.0</ele><time>2026-03-28T10:50:08.067Z</time></trkpt><trkpt lat="43.8007483" lon="10.771225"><ele>15.0</ele><time>2026-03-28T10:50:09.067Z</time></trkpt><trkpt lat="43.800675" lon="10.771165"><ele>15.166666666666666</ele><time>2026-03-28T10:50:10.066Z</time></trkpt><trkpt lat="43.8005917" lon="10.7711167"><ele>15.333333333333332</ele><time>2026-03-28T10:50:11.067Z</time></trkpt><trkpt lat="43.8005083" lon="10.7710583"><ele>15.5</ele><time>2026-03-28T10:50:12.067Z</time></trkpt><trkpt lat="43.8004217" lon="10.7710133"><ele>15.666666666666666</ele><time>2026-03-28T10:50:13.066Z</time></trkpt><trkpt lat="43.8003417" lon="10.770965"><ele>15.833333333333332</ele><time>2026-03-28T10:50:14.067Z</time></trkpt><trkpt lat="43.800265" lon="10.7709117"><ele>16.0</ele><time>2026-03-28T10:50:15.067Z</time></trkpt><trkpt lat="43.8001933" lon="10.770855"><ele>15.999999999999998</ele><time>2026-03-28T10:50:16.067Z</time></trkpt><trkpt lat="43.80012" lon="10.7708083"><ele>16.0</ele><time>2026-03-28T10:50:17.067Z</time></trkpt><trkpt lat="43.80005" lon="10.7707717"><ele>16.0</ele><time>2026-03-28T10:50:18.067Z</time></trkpt><trkpt lat="43.7999867" lon="10.7707283"><ele>16.0</ele><time>2026-03-28T10:50:19.067Z</time></trkpt><trkpt lat="43.79993" lon="10.77068"><ele>15.999999999999998</ele><time>2026-03-28T10:50:20.067Z</time></trkpt><trkpt lat="43.799825" lon="10.770605"><ele>16.0</ele><time>2026-03-28T10:50:22.067Z</time></trkpt><trkpt lat="43.7997683" lon="10.770565"><ele>15.999999999999998</ele><time>2026-03-28T10:50:23.067Z</time></trkpt><trkpt lat="43.7997033" lon="10.770525"><ele>16.0</ele><time>2026-03-28T10:50:24.067Z</time></trkpt><trkpt lat="43.79964" lon="10.770495"><ele>16.0</ele><time>2026-03-28T10:50:25.066Z</time></trkpt><trkpt lat="43.7995367" lon="10.770465"><ele>16.0</ele><time>2026-03-28T10:50:27.067Z</time></trkpt><trkpt lat="43.79945" lon="10.770495"><ele>15.999999999999998</ele><time>2026-03-28T10:50:29.067Z</time></trkpt><trkpt lat="43.7993683" lon="10.770575"><ele>16.0</ele><time>2026-03-28T10:50:31.067Z</time></trkpt><trkpt lat="43.7993267" lon="10.7706467"><ele>16.0</ele><time>2026-03-28T10:50:32.067Z</time></trkpt><trkpt lat="43.799275" lon="10.7707333"><ele>16.0</ele><time>2026-03-28T10:50:33.067Z</time></trkpt><trkpt lat="43.7992133" lon="10.7708333"><ele>16.0</ele><time>2026-03-28T10:50:34.066Z</time></trkpt><trkpt lat="43.799155" lon="10.7709217"><ele>16.0</ele><time>2026-03-28T10:50:35.067Z</time></trkpt><trkpt lat="43.7990867" lon="10.7710083"><ele>16.0</ele><time>2026-03-28T10:50:36.066Z</time></trkpt><trkpt lat="43.799005" lon="10.7711"><ele>16.0</ele><time>2026-03-28T10:50:37.067Z</time></trkpt><trkpt lat="43.7989167" lon="10.7712083"><ele>16.0</ele><time>2026-03-28T10:50:38.067Z</time></trkpt><trkpt lat="43.7988267" lon="10.771325"><ele>16.0</ele><time>2026-03-28T10:50:39.066Z</time></trkpt><trkpt lat="43.7987317" lon="10.7714533"><ele>16.0</ele><time>2026-03-28T10:50:40.067Z</time></trkpt><trkpt lat="43.7986517" lon="10.7715867"><ele>16.0</ele><time>2026-03-28T10:50:41.067Z</time></trkpt><trkpt lat="43.7985833" lon="10.77174"><ele>16.0</ele><time>2026-03-28T10:50:42.067Z</time></trkpt><trkpt lat="43.7985117" lon="10.7718867"><ele>16.0</ele><time>2026-03-28T10:50:43.067Z</time></trkpt><trkpt lat="43.798445" lon="10.7720417"><ele>16.0</ele><time>2026-03-28T10:50:44.067Z</time></trkpt><trkpt lat="43.7983883" lon="10.7721867"><ele>16.5</ele><time>2026-03-28T10:50:45.067Z</time></trkpt><trkpt lat="43.7983367" lon="10.772335"><ele>17.0</ele><time>2026-03-28T10:50:46.066Z</time></trkpt><trkpt lat="43.79829" lon="10.7724917"><ele>17.5</ele><time>2026-03-28T10:50:47.066Z</time></trkpt><trkpt lat="43.79824" lon="10.7726617"><ele>18.0</ele><time>2026-03-28T10:50:48.067Z</time></trkpt><trkpt lat="43.7982033" lon="10.77282"><ele>18.0</ele><time>2026-03-28T10:50:49.067Z</time></trkpt><trkpt lat="43.7981683" lon="10.7729683"><ele>18.0</ele><time>2026-03-28T10:50:50.067Z</time></trkpt><trkpt lat="43.7981367" lon="10.77313"><ele>18.0</ele><time>2026-03-28T10:50:51.067Z</time></trkpt><trkpt lat="43.7981117" lon="10.7732833"><ele>18.0</ele><time>2026-03-28T10:50:52.067Z</time></trkpt><trkpt lat="43.798095" lon="10.7734533"><ele>17.5</ele><time>2026-03-28T10:50:53.067Z</time></trkpt><trkpt lat="43.7980883" lon="10.773625"><ele>17.0</ele><time>2026-03-28T10:50:54.066Z</time></trkpt><trkpt lat="43.7980867" lon="10.7737917"><ele>16.5</ele><time>2026-03-28T10:50:55.067Z</time></trkpt><trkpt lat="43.7980883" lon="10.773955"><ele>16.0</ele><time>2026-03-28T10:50:56.067Z</time></trkpt><trkpt lat="43.798105" lon="10.7741183"><ele>16.0</ele><time>2026-03-28T10:50:57.067Z</time></trkpt><trkpt lat="43.7981233" lon="10.774285"><ele>16.0</ele><time>2026-03-28T10:50:58.067Z</time></trkpt><trkpt lat="43.7981483" lon="10.774455"><ele>16.0</ele><time>2026-03-28T10:50:59.067Z</time></trkpt><trkpt lat="43.7981833" lon="10.774625"><ele>16.0</ele><time>2026-03-28T10:51:00.067Z</time></trkpt><trkpt lat="43.798225" lon="10.7747883"><ele>17.5</ele><time>2026-03-28T10:51:01.067Z</time></trkpt><trkpt lat="43.7982733" lon="10.7749483"><ele>19.0</ele><time>2026-03-28T10:51:02.066Z</time></trkpt><trkpt lat="43.798315" lon="10.775105"><ele>20.5</ele><time>2026-03-28T10:51:03.066Z</time></trkpt><trkpt lat="43.79837" lon="10.7752583"><ele>22.0</ele><time>2026-03-28T10:51:04.067Z</time></trkpt><trkpt lat="43.7984333" lon="10.7754067"><ele>21.0</ele><time>2026-03-28T10:51:05.067Z</time></trkpt><trkpt lat="43.7984983" lon="10.77556"><ele>20.0</ele><time>2026-03-28T10:51:06.066Z</time></trkpt><trkpt lat="43.7985683" lon="10.7757117"><ele>19.0</ele><time>2026-03-28T10:51:07.067Z</time></trkpt><trkpt lat="43.7986383" lon="10.7758617"><ele>18.0</ele><time>2026-03-28T10:51:08.067Z</time></trkpt><trkpt lat="43.7987117" lon="10.776005"><ele>18.5</ele><time>2026-03-28T10:51:09.066Z</time></trkpt><trkpt lat="43.798785" lon="10.77616"><ele>19.0</ele><time>2026-03-28T10:51:10.067Z</time></trkpt><trkpt lat="43.7988383" lon="10.776325"><ele>19.5</ele><time>2026-03-28T10:51:11.067Z</time></trkpt><trkpt lat="43.7988933" lon="10.77649"><ele>20.0</ele><time>2026-03-28T10:51:12.067Z</time></trkpt><trkpt lat="43.7989333" lon="10.77666"><ele>20.0</ele><time>2026-03-28T10:51:13.067Z</time></trkpt><trkpt lat="43.798965" lon="10.77683"><ele>20.0</ele><time>2026-03-28T10:51:14.066Z</time></trkpt><trkpt lat="43.7989783" lon="10.77701"><ele>20.0</ele><time>2026-03-28T10:51:15.067Z</time></trkpt><trkpt lat="43.7989883" lon="10.7771933"><ele>20.0</ele><time>2026-03-28T10:51:16.067Z</time></trkpt><trkpt lat="43.7989967" lon="10.7773717"><ele>20.25</ele><time>2026-03-28T10:51:17.066Z</time></trkpt><trkpt lat="43.7990017" lon="10.77756"><ele>20.5</ele><time>2026-03-28T10:51:18.067Z</time></trkpt><trkpt lat="43.7990133" lon="10.7777583"><ele>20.75</ele><time>2026-03-28T10:51:19.066Z</time></trkpt><trkpt lat="43.7990117" lon="10.777955"><ele>21.0</ele><time>2026-03-28T10:51:20.067Z</time></trkpt><trkpt lat="43.7990183" lon="10.7781517"><ele>21.25</ele><time>2026-03-28T10:51:21.067Z</time></trkpt><trkpt lat="43.7990167" lon="10.77835"><ele>21.5</ele><time>2026-03-28T10:51:22.067Z</time></trkpt><trkpt lat="43.7990033" lon="10.7785517"><ele>21.75</ele><time>2026-03-28T10:51:23.067Z</time></trkpt><trkpt lat="43.79897" lon="10.7787467"><ele>22.0</ele><time>2026-03-28T10:51:24.067Z</time></trkpt><trkpt lat="43.79894" lon="10.7789367"><ele>21.25</ele><time>2026-03-28T10:51:25.066Z</time></trkpt><trkpt lat="43.7989" lon="10.7791217"><ele>20.5</ele><time>2026-03-28T10:51:26.066Z</time></trkpt><trkpt lat="43.7988517" lon="10.7793033"><ele>19.75</ele><time>2026-03-28T10:51:27.066Z</time></trkpt><trkpt lat="43.7988017" lon="10.7794733"><ele>19.0</ele><time>2026-03-28T10:51:28.066Z</time></trkpt><trkpt lat="43.7987483" lon="10.7796383"><ele>19.0</ele><time>2026-03-28T10:51:29.067Z</time></trkpt><trkpt lat="43.7986783" lon="10.7797967"><ele>19.0</ele><time>2026-03-28T10:51:30.067Z</time></trkpt><trkpt lat="43.7986083" lon="10.7799583"><ele>19.0</ele><time>2026-03-28T10:51:31.067Z</time></trkpt><trkpt lat="43.79854" lon="10.78012"><ele>19.0</ele><time>2026-03-28T10:51:32.066Z</time></trkpt><trkpt lat="43.7984783" lon="10.780285"><ele>19.0</ele><time>2026-03-28T10:51:33.067Z</time></trkpt><trkpt lat="43.7984117" lon="10.7804483"><ele>19.0</ele><time>2026-03-28T10:51:34.067Z</time></trkpt><trkpt lat="43.7983517" lon="10.78061"><ele>19.0</ele><time>2026-03-28T10:51:35.067Z</time></trkpt><trkpt lat="43.798295" lon="10.7807817"><ele>19.0</ele><time>2026-03-28T10:51:36.067Z</time></trkpt><trkpt lat="43.7982433" lon="10.7809533"><ele>18.5</ele><time>2026-03-28T10:51:37.066Z</time></trkpt><trkpt lat="43.7981817" lon="10.7811267"><ele>18.0</ele><time>2026-03-28T10:51:38.067Z</time></trkpt><trkpt lat="43.7981217" lon="10.7812933"><ele>17.5</ele><time>2026-03-28T10:51:39.066Z</time></trkpt><trkpt lat="43.7980633" lon="10.7814617"><ele>17.0</ele><time>2026-03-28T10:51:40.066Z</time></trkpt><trkpt lat="43.7980067" lon="10.7816283"><ele>17.0</ele><time>2026-03-28T10:51:41.066Z</time></trkpt><trkpt lat="43.7979533" lon="10.7817917"><ele>17.0</ele><time>2026-03-28T10:51:42.066Z</time></trkpt><trkpt lat="43.7978983" lon="10.781955"><ele>17.0</ele><time>2026-03-28T10:51:43.066Z</time></trkpt><trkpt lat="43.7978367" lon="10.78212"><ele>17.0</ele><time>2026-03-28T10:51:44.067Z</time></trkpt><trkpt lat="43.79778" lon="10.7822767"><ele>17.0</ele><time>2026-03-28T10:51:45.066Z</time></trkpt><trkpt lat="43.7977267" lon="10.7824317"><ele>17.0</ele><time>2026-03-28T10:51:46.067Z</time></trkpt><trkpt lat="43.7976667" lon="10.7825967"><ele>17.0</ele><time>2026-03-28T10:51:47.066Z</time></trkpt><trkpt lat="43.797605" lon="10.7827567"><ele>17.0</ele><time>2026-03-28T10:51:48.066Z</time></trkpt><trkpt lat="43.7975533" lon="10.7829183"><ele>17.0</ele><time>2026-03-28T10:51:49.066Z</time></trkpt><trkpt lat="43.7974983" lon="10.7830733"><ele>17.0</ele><time>2026-03-28T10:51:50.067Z</time></trkpt><trkpt lat="43.7974483" lon="10.783225"><ele>17.0</ele><time>2026-03-28T10:51:51.067Z</time></trkpt><trkpt lat="43.7974017" lon="10.7833833"><ele>17.0</ele><time>2026-03-28T10:51:52.066Z</time></trkpt><trkpt lat="43.7973517" lon="10.7835383"><ele>17.0</ele><time>2026-03-28T10:51:53.067Z</time></trkpt><trkpt lat="43.7973083" lon="10.78369"><ele>17.0</ele><time>2026-03-28T10:51:54.067Z</time></trkpt><trkpt lat="43.797255" lon="10.78384"><ele>17.0</ele><time>2026-03-28T10:51:55.066Z</time></trkpt><trkpt lat="43.7972067" lon="10.78399"><ele>17.0</ele><time>2026-03-28T10:51:56.067Z</time></trkpt><trkpt lat="43.7971783" lon="10.7841283"><ele>17.0</ele><time>2026-03-28T10:51:57.067Z</time></trkpt><trkpt lat="43.79714" lon="10.7842567"><ele>17.0</ele><time>2026-03-28T10:51:58.066Z</time></trkpt><trkpt lat="43.7971117" lon="10.78438"><ele>17.0</ele><time>2026-03-28T10:51:59.066Z</time></trkpt><trkpt lat="43.79709" lon="10.7844983"><ele>17.0</ele><time>2026-03-28T10:52:00.067Z</time></trkpt><trkpt lat="43.7970617" lon="10.7846033"><ele>17.0</ele><time>2026-03-28T10:52:01.067Z</time></trkpt><trkpt lat="43.7970217" lon="10.7846883"><ele>17.0</ele><time>2026-03-28T10:52:02.067Z</time></trkpt><trkpt lat="43.796965" lon="10.7847333"><ele>17.8</ele><time>2026-03-28T10:52:03.067Z</time></trkpt><trkpt lat="43.7968367" lon="10.78468"><ele>18.6</ele><time>2026-03-28T10:52:05.067Z</time></trkpt><trkpt lat="43.7967617" lon="10.7846067"><ele>19.400000000000002</ele><time>2026-03-28T10:52:06.067Z</time></trkpt><trkpt lat="43.7966867" lon="10.7845433"><ele>20.2</ele><time>2026-03-28T10:52:07.066Z</time></trkpt><trkpt lat="43.7966183" lon="10.7844917"><ele>21.0</ele><time>2026-03-28T10:52:08.067Z</time></trkpt><trkpt lat="43.7965483" lon="10.78446"><ele>21.666666666666668</ele><time>2026-03-28T10:52:09.067Z</time></trkpt><trkpt lat="43.7964783" lon="10.78445"><ele>22.333333333333336</ele><time>2026-03-28T10:52:10.067Z</time></trkpt><trkpt lat="43.796415" lon="10.7844967"><ele>23.0</ele><time>2026-03-28T10:52:11.066Z</time></trkpt><trkpt lat="43.7963617" lon="10.7845867"><ele>23.666666666666668</ele><time>2026-03-28T10:52:12.067Z</time></trkpt><trkpt lat="43.7963067" lon="10.7846933"><ele>24.333333333333336</ele><time>2026-03-28T10:52:13.067Z</time></trkpt><trkpt lat="43.7962617" lon="10.7847967"><ele>25.0</ele><time>2026-03-28T10:52:14.067Z</time></trkpt><trkpt lat="43.7961917" lon="10.7848817"><ele>25.0</ele><time>2026-03-28T10:52:15.067Z</time></trkpt><trkpt lat="43.7961067" lon="10.7849467"><ele>25.0</ele><time>2026-03-28T10:52:16.067Z</time></trkpt><trkpt lat="43.79601" lon="10.7849867"><ele>25.0</ele><time>2026-03-28T10:52:17.067Z</time></trkpt><trkpt lat="43.79591" lon="10.7850117"><ele>25.0</ele><time>2026-03-28T10:52:18.067Z</time></trkpt><trkpt lat="43.79581" lon="10.785025"><ele>25.0</ele><time>2026-03-28T10:52:19.067Z</time></trkpt><trkpt lat="43.7957167" lon="10.7850283"><ele>26.6</ele><time>2026-03-28T10:52:20.067Z</time></trkpt><trkpt lat="43.795625" lon="10.7849633"><ele>28.2</ele><time>2026-03-28T10:52:21.067Z</time></trkpt><trkpt lat="43.7955433" lon="10.7848717"><ele>29.799999999999997</ele><time>2026-03-28T10:52:22.067Z</time></trkpt><trkpt lat="43.795465" lon="10.7847783"><ele>31.4</ele><time>2026-03-28T10:52:23.067Z</time></trkpt><trkpt lat="43.7953767" lon="10.784675"><ele>33.0</ele><time>2026-03-28T10:52:24.067Z</time></trkpt><trkpt lat="43.7952783" lon="10.7845983"><ele>33.0</ele><time>2026-03-28T10:52:25.066Z</time></trkpt><trkpt lat="43.7951717" lon="10.7845567"><ele>33.0</ele><time>2026-03-28T10:52:26.066Z</time></trkpt><trkpt lat="43.79505" lon="10.7845583"><ele>33.0</ele><time>2026-03-28T10:52:27.067Z</time></trkpt><trkpt lat="43.7949267" lon="10.7845883"><ele>33.0</ele><time>2026-03-28T10:52:28.066Z</time></trkpt><trkpt lat="43.7947917" lon="10.7846283"><ele>35.75</ele><time>2026-03-28T10:52:29.066Z</time></trkpt><trkpt lat="43.794655" lon="10.7846717"><ele>38.5</ele><time>2026-03-28T10:52:30.066Z</time></trkpt><trkpt lat="43.79452" lon="10.784705"><ele>41.25</ele><time>2026-03-28T10:52:31.067Z</time></trkpt><trkpt lat="43.794415" lon="10.7847533"><ele>44.0</ele><time>2026-03-28T10:52:32.066Z</time></trkpt><trkpt lat="43.7943083" lon="10.7848033"><ele>45.0</ele><time>2026-03-28T10:52:33.067Z</time></trkpt><trkpt lat="43.794205" lon="10.784865"><ele>46.0</ele><time>2026-03-28T10:52:34.067Z</time></trkpt><trkpt lat="43.7941133" lon="10.7849383"><ele>47.0</ele><time>2026-03-28T10:52:35.067Z</time></trkpt><trkpt lat="43.79403" lon="10.7850167"><ele>48.0</ele><time>2026-03-28T10:52:36.067Z</time></trkpt><trkpt lat="43.7939333" lon="10.7851"><ele>49.0</ele><time>2026-03-28T10:52:37.067Z</time></trkpt><trkpt lat="43.7938433" lon="10.785185"><ele>51.0</ele><time>2026-03-28T10:52:38.066Z</time></trkpt><trkpt lat="43.7937567" lon="10.7852767"><ele>53.0</ele><time>2026-03-28T10:52:39.066Z</time></trkpt><trkpt lat="43.7936783" lon="10.7853667"><ele>55.00000000000001</ele><time>2026-03-28T10:52:40.067Z</time></trkpt><trkpt lat="43.7935917" lon="10.7854567"><ele>57.0</ele><time>2026-03-28T10:52:41.066Z</time></trkpt><trkpt lat="43.7935117" lon="10.7855417"><ele>59.0</ele><time>2026-03-28T10:52:42.067Z</time></trkpt><trkpt lat="43.7934433" lon="10.7856183"><ele>59.16666666666667</ele><time>2026-03-28T10:52:43.067Z</time></trkpt><trkpt lat="43.79338" lon="10.78567"><ele>59.333333333333336</ele><time>2026-03-28T10:52:44.067Z</time></trkpt><trkpt lat="43.7933117" lon="10.7857383"><ele>59.5</ele><time>2026-03-28T10:52:46.067Z</time></trkpt><trkpt lat="43.79331" lon="10.7858283"><ele>59.66666666666667</ele><time>2026-03-28T10:52:48.067Z</time></trkpt><trkpt lat="43.7933467" lon="10.78599"><ele>59.833333333333336</ele><time>2026-03-28T10:52:50.067Z</time></trkpt><trkpt lat="43.793375" lon="10.7860883"><ele>60.0</ele><time>2026-03-28T10:52:51.067Z</time></trkpt><trkpt lat="43.7933933" lon="10.786195"><ele>59.0</ele><time>2026-03-28T10:52:52.067Z</time></trkpt><trkpt lat="43.79341" lon="10.7863183"><ele>58.0</ele><time>2026-03-28T10:52:53.067Z</time></trkpt><trkpt lat="43.79343" lon="10.7864567"><ele>57.0</ele><time>2026-03-28T10:52:54.066Z</time></trkpt><trkpt lat="43.793445" lon="10.7866067"><ele>56.0</ele><time>2026-03-28T10:52:55.067Z</time></trkpt><trkpt lat="43.7934617" lon="10.7867617"><ele>55.0</ele><time>2026-03-28T10:52:56.066Z</time></trkpt><trkpt lat="43.7934767" lon="10.7868983"><ele>54.666666666666664</ele><time>2026-03-28T10:52:57.066Z</time></trkpt><trkpt lat="43.79349" lon="10.7870383"><ele>54.33333333333333</ele><time>2026-03-28T10:52:58.067Z</time></trkpt><trkpt lat="43.793515" lon="10.7871533"><ele>54.0</ele><time>2026-03-28T10:52:59.067Z</time></trkpt><trkpt lat="43.793535" lon="10.78726"><ele>53.66666666666667</ele><time>2026-03-28T10:53:00.067Z</time></trkpt><trkpt lat="43.7935433" lon="10.7873533"><ele>53.333333333333336</ele><time>2026-03-28T10:53:01.067Z</time></trkpt><trkpt lat="43.7935417" lon="10.787455"><ele>53.0</ele><time>2026-03-28T10:53:02.067Z</time></trkpt><trkpt lat="43.79352" lon="10.787605"><ele>51.00000000000001</ele><time>2026-03-28T10:53:04.066Z</time></trkpt><trkpt lat="43.7934683" lon="10.7877367"><ele>49.0</ele><time>2026-03-28T10:53:06.067Z</time></trkpt><trkpt lat="43.7933883" lon="10.7878383"><ele>47.0</ele><time>2026-03-28T10:53:08.067Z</time></trkpt><trkpt lat="43.79334" lon="10.787905"><ele>45.0</ele><time>2026-03-28T10:53:09.067Z</time></trkpt><trkpt lat="43.7932967" lon="10.7879767"><ele>43.0</ele><time>2026-03-28T10:53:10.066Z</time></trkpt><trkpt lat="43.793245" lon="10.7880483"><ele>41.0</ele><time>2026-03-28T10:53:11.066Z</time></trkpt><trkpt lat="43.7932033" lon="10.7881267"><ele>41.0</ele><time>2026-03-28T10:53:12.067Z</time></trkpt><trkpt lat="43.7931667" lon="10.7882617"><ele>41.0</ele><time>2026-03-28T10:53:14.067Z</time></trkpt><trkpt lat="43.793135" lon="10.7884033"><ele>41.0</ele><time>2026-03-28T10:53:16.066Z</time></trkpt><trkpt lat="43.7930933" lon="10.7885267"><ele>41.0</ele><time>2026-03-28T10:53:18.067Z</time></trkpt><trkpt lat="43.79303" lon="10.7886483"><ele>41.0</ele><time>2026-03-28T10:53:20.067Z</time></trkpt><trkpt lat="43.7929467" lon="10.78877"><ele>39.83333333333333</ele><time>2026-03-28T10:53:22.066Z</time></trkpt><trkpt lat="43.7928967" lon="10.788835"><ele>38.666666666666664</ele><time>2026-03-28T10:53:23.067Z</time></trkpt><trkpt lat="43.792805" lon="10.788945"><ele>37.5</ele><time>2026-03-28T10:53:25.067Z</time></trkpt><trkpt lat="43.7927233" lon="10.7890367"><ele>36.333333333333336</ele><time>2026-03-28T10:53:27.067Z</time></trkpt><trkpt lat="43.79267" lon="10.78909"><ele>35.16666666666667</ele><time>2026-03-28T10:53:28.067Z</time></trkpt><trkpt lat="43.7926117" lon="10.7891533"><ele>34.0</ele><time>2026-03-28T10:53:29.067Z</time></trkpt><trkpt lat="43.79256" lon="10.7892167"><ele>33.99999999999999</ele><time>2026-03-28T10:53:30.067Z</time></trkpt><trkpt lat="43.7925067" lon="10.7892817"><ele>34.0</ele><time>2026-03-28T10:53:31.067Z</time></trkpt><trkpt lat="43.792445" lon="10.78936"><ele>34.0</ele><time>2026-03-28T10:53:32.066Z</time></trkpt><trkpt lat="43.7923967" lon="10.7894317"><ele>34.0</ele><time>2026-03-28T10:53:33.066Z</time></trkpt><trkpt lat="43.7923433" lon="10.7895067"><ele>34.0</ele><time>2026-03-28T10:53:34.067Z</time></trkpt><trkpt lat="43.79229" lon="10.7895683"><ele>33.99999999999999</ele><time>2026-03-28T10:53:35.067Z</time></trkpt><trkpt lat="43.7922383" lon="10.7896267"><ele>34.0</ele><time>2026-03-28T10:53:36.067Z</time></trkpt><trkpt lat="43.792165" lon="10.7897017"><ele>33.5</ele><time>2026-03-28T10:53:38.067Z</time></trkpt><trkpt lat="43.79211" lon="10.78976"><ele>33.0</ele><time>2026-03-28T10:53:40.067Z</time></trkpt><trkpt lat="43.7920483" lon="10.7898417"><ele>32.5</ele><time>2026-03-28T10:53:43.067Z</time></trkpt><trkpt lat="43.79199" lon="10.7898783"><ele>32.0</ele><time>2026-03-28T10:53:45.066Z</time></trkpt><trkpt lat="43.7919267" lon="10.789945"><ele>31.500000000000004</ele><time>2026-03-28T10:53:47.066Z</time></trkpt><trkpt lat="43.7918667" lon="10.790025"><ele>31.0</ele><time>2026-03-28T10:53:49.066Z</time></trkpt><trkpt lat="43.7917967" lon="10.79012"><ele>29.4</ele><time>2026-03-28T10:53:51.067Z</time></trkpt><trkpt lat="43.79171" lon="10.79021"><ele>27.8</ele><time>2026-03-28T10:53:53.066Z</time></trkpt><trkpt lat="43.7916317" lon="10.7902967"><ele>26.2</ele><time>2026-03-28T10:53:55.066Z</time></trkpt><trkpt lat="43.7915567" lon="10.790345"><ele>24.599999999999998</ele><time>2026-03-28T10:53:57.066Z</time></trkpt><trkpt lat="43.7914833" lon="10.7904083"><ele>23.0</ele><time>2026-03-28T10:53:59.066Z</time></trkpt><trkpt lat="43.79142" lon="10.7904717"><ele>23.0</ele><time>2026-03-28T10:54:01.067Z</time></trkpt><trkpt lat="43.7913433" lon="10.7905433"><ele>23.0</ele><time>2026-03-28T10:54:03.067Z</time></trkpt><trkpt lat="43.7912583" lon="10.7906317"><ele>23.0</ele><time>2026-03-28T10:54:05.066Z</time></trkpt><trkpt lat="43.7911817" lon="10.7907217"><ele>23.0</ele><time>2026-03-28T10:54:07.067Z</time></trkpt><trkpt lat="43.7910717" lon="10.7908317"><ele>23.0</ele><time>2026-03-28T10:54:09.067Z</time></trkpt><trkpt lat="43.791015" lon="10.7908867"><ele>23.0</ele><time>2026-03-28T10:54:10.066Z</time></trkpt><trkpt lat="43.7909617" lon="10.7909333"><ele>23.0</ele><time>2026-03-28T10:54:11.067Z</time></trkpt><trkpt lat="43.7908933" lon="10.791005"><ele>23.0</ele><time>2026-03-28T10:54:13.066Z</time></trkpt><trkpt lat="43.790835" lon="10.791045"><ele>23.0</ele><time>2026-03-28T10:54:14.066Z</time></trkpt><trkpt lat="43.7907517" lon="10.7911083"><ele>23.0</ele><time>2026-03-28T10:54:16.067Z</time></trkpt><trkpt lat="43.790685" lon="10.791185"><ele>23.0</ele><time>2026-03-28T10:54:18.066Z</time></trkpt><trkpt lat="43.790625" lon="10.7912383"><ele>23.0</ele><time>2026-03-28T10:54:20.066Z</time></trkpt><trkpt lat="43.7905467" lon="10.79131"><ele>23.0</ele><time>2026-03-28T10:54:22.067Z</time></trkpt><trkpt lat="43.7904717" lon="10.791385"><ele>23.0</ele><time>2026-03-28T10:54:24.067Z</time></trkpt><trkpt lat="43.790385" lon="10.7914617"><ele>23.0</ele><time>2026-03-28T10:54:26.067Z</time></trkpt><trkpt lat="43.7902967" lon="10.7915517"><ele>23.0</ele><time>2026-03-28T10:54:28.066Z</time></trkpt><trkpt lat="43.7901933" lon="10.791645"><ele>23.333333333333336</ele><time>2026-03-28T10:54:30.067Z</time></trkpt><trkpt lat="43.7900933" lon="10.791745"><ele>23.666666666666668</ele><time>2026-03-28T10:54:32.067Z</time></trkpt><trkpt lat="43.7900417" lon="10.7918017"><ele>24.0</ele><time>2026-03-28T10:54:33.067Z</time></trkpt><trkpt lat="43.7899917" lon="10.791855"><ele>24.333333333333336</ele><time>2026-03-28T10:54:34.067Z</time></trkpt><trkpt lat="43.7899" lon="10.7919633"><ele>24.666666666666668</ele><time>2026-03-28T10:54:36.066Z</time></trkpt><trkpt lat="43.7898533" lon="10.7920267"><ele>25.0</ele><time>2026-03-28T10:54:37.067Z</time></trkpt><trkpt lat="43.7898033" lon="10.7920867"><ele>25.500000000000004</ele><time>2026-03-28T10:54:38.067Z</time></trkpt><trkpt lat="43.7897167" lon="10.7921917"><ele>26.0</ele><time>2026-03-28T10:54:40.066Z</time></trkpt><trkpt lat="43.789635" lon="10.7922717"><ele>26.5</ele><time>2026-03-28T10:54:42.067Z</time></trkpt><trkpt lat="43.78957" lon="10.792355"><ele>27.0</ele><time>2026-03-28T10:54:44.067Z</time></trkpt><trkpt lat="43.789535" lon="10.792435"><ele>27.500000000000004</ele><time>2026-03-28T10:54:46.067Z</time></trkpt><trkpt lat="43.789525" lon="10.7925417"><ele>28.0</ele><time>2026-03-28T10:54:48.067Z</time></trkpt><trkpt lat="43.78953" lon="10.7926633"><ele>27.799999999999997</ele><time>2026-03-28T10:54:50.066Z</time></trkpt><trkpt lat="43.7895283" lon="10.7928283"><ele>27.599999999999998</ele><time>2026-03-28T10:54:52.067Z</time></trkpt><trkpt lat="43.7895167" lon="10.7929217"><ele>27.400000000000002</ele><time>2026-03-28T10:54:53.067Z</time></trkpt><trkpt lat="43.7895067" lon="10.79301"><ele>27.200000000000003</ele><time>2026-03-28T10:54:54.067Z</time></trkpt><trkpt lat="43.7894883" lon="10.79319"><ele>27.0</ele><time>2026-03-28T10:54:56.067Z</time></trkpt><trkpt lat="43.7894917" lon="10.7933617"><ele>25.833333333333332</ele><time>2026-03-28T10:54:58.067Z</time></trkpt><trkpt lat="43.7894983" lon="10.7935467"><ele>24.666666666666668</ele><time>2026-03-28T10:55:00.067Z</time></trkpt><trkpt lat="43.7894983" lon="10.7936383"><ele>23.5</ele><time>2026-03-28T10:55:01.067Z</time></trkpt><trkpt lat="43.7894967" lon="10.7937317"><ele>22.333333333333336</ele><time>2026-03-28T10:55:02.067Z</time></trkpt><trkpt lat="43.7894867" lon="10.79382"><ele>21.166666666666668</ele><time>2026-03-28T10:55:03.067Z</time></trkpt><trkpt lat="43.7894483" lon="10.79397"><ele>20.0</ele><time>2026-03-28T10:55:05.067Z</time></trkpt><trkpt lat="43.7893783" lon="10.7940967"><ele>20.5</ele><time>2026-03-28T10:55:07.066Z</time></trkpt><trkpt lat="43.789305" lon="10.7942117"><ele>21.0</ele><time>2026-03-28T10:55:09.066Z</time></trkpt><trkpt lat="43.7892233" lon="10.7943267"><ele>21.5</ele><time>2026-03-28T10:55:11.066Z</time></trkpt><trkpt lat="43.7891767" lon="10.7943867"><ele>22.0</ele><time>2026-03-28T10:55:12.066Z</time></trkpt><trkpt lat="43.7891383" lon="10.7944583"><ele>22.5</ele><time>2026-03-28T10:55:13.067Z</time></trkpt><trkpt lat="43.7890967" lon="10.7945283"><ele>23.0</ele><time>2026-03-28T10:55:14.067Z</time></trkpt><trkpt lat="43.7890467" lon="10.7945983"><ele>23.0</ele><time>2026-03-28T10:55:15.067Z</time></trkpt><trkpt lat="43.789" lon="10.794665"><ele>23.0</ele><time>2026-03-28T10:55:16.067Z</time></trkpt><trkpt lat="43.7889133" lon="10.7947983"><ele>23.0</ele><time>2026-03-28T10:55:18.067Z</time></trkpt><trkpt lat="43.7888683" lon="10.794865"><ele>23.0</ele><time>2026-03-28T10:55:19.067Z</time></trkpt><trkpt lat="43.7888183" lon="10.79493"><ele>23.0</ele><time>2026-03-28T10:55:20.067Z</time></trkpt><trkpt lat="43.788765" lon="10.7950033"><ele>23.0</ele><time>2026-03-28T10:55:21.067Z</time></trkpt><trkpt lat="43.7887117" lon="10.7950833"><ele>23.0</ele><time>2026-03-28T10:55:22.067Z</time></trkpt><trkpt lat="43.7886567" lon="10.795165"><ele>23.0</ele><time>2026-03-28T10:55:23.067Z</time></trkpt><trkpt lat="43.7886" lon="10.79525"><ele>23.0</ele><time>2026-03-28T10:55:24.067Z</time></trkpt><trkpt lat="43.7885417" lon="10.7953417"><ele>23.0</ele><time>2026-03-28T10:55:25.067Z</time></trkpt><trkpt lat="43.7884767" lon="10.7954433"><ele>23.0</ele><time>2026-03-28T10:55:26.066Z</time></trkpt><trkpt lat="43.78841" lon="10.7955367"><ele>23.0</ele><time>2026-03-28T10:55:27.067Z</time></trkpt><trkpt lat="43.78835" lon="10.79563"><ele>21.833333333333336</ele><time>2026-03-28T10:55:28.067Z</time></trkpt><trkpt lat="43.788295" lon="10.795725"><ele>20.666666666666668</ele><time>2026-03-28T10:55:29.067Z</time></trkpt><trkpt lat="43.788235" lon="10.7958167"><ele>19.5</ele><time>2026-03-28T10:55:30.067Z</time></trkpt><trkpt lat="43.7881767" lon="10.7959033"><ele>18.333333333333332</ele><time>2026-03-28T10:55:31.067Z</time></trkpt><trkpt lat="43.7881183" lon="10.7960017"><ele>17.166666666666664</ele><time>2026-03-28T10:55:32.066Z</time></trkpt><trkpt lat="43.7880633" lon="10.796075"><ele>16.0</ele><time>2026-03-28T10:55:33.066Z</time></trkpt><trkpt lat="43.7880017" lon="10.7961417"><ele>15.666666666666666</ele><time>2026-03-28T10:55:34.067Z</time></trkpt><trkpt lat="43.7879333" lon="10.7961817"><ele>15.333333333333332</ele><time>2026-03-28T10:55:35.067Z</time></trkpt><trkpt lat="43.7878683" lon="10.7962"><ele>15.0</ele><time>2026-03-28T10:55:36.066Z</time></trkpt><trkpt lat="43.7877883" lon="10.796195"><ele>14.666666666666668</ele><time>2026-03-28T10:55:37.066Z</time></trkpt><trkpt lat="43.7877017" lon="10.79617"><ele>14.333333333333334</ele><time>2026-03-28T10:55:38.066Z</time></trkpt><trkpt lat="43.7876167" lon="10.796125"><ele>14.0</ele><time>2026-03-28T10:55:39.067Z</time></trkpt><trkpt lat="43.78753" lon="10.7960917"><ele>14.0</ele><time>2026-03-28T10:55:40.067Z</time></trkpt><trkpt lat="43.7874433" lon="10.796055"><ele>13.999999999999998</ele><time>2026-03-28T10:55:41.066Z</time></trkpt><trkpt lat="43.7873483" lon="10.79603"><ele>13.999999999999998</ele><time>2026-03-28T10:55:42.067Z</time></trkpt><trkpt lat="43.7872567" lon="10.7960083"><ele>14.0</ele><time>2026-03-28T10:55:43.067Z</time></trkpt><trkpt lat="43.7871717" lon="10.7959883"><ele>14.0</ele><time>2026-03-28T10:55:44.067Z</time></trkpt><trkpt lat="43.787085" lon="10.7959717"><ele>14.000000000000002</ele><time>2026-03-28T10:55:45.066Z</time></trkpt><trkpt lat="43.7870017" lon="10.795955"><ele>14.0</ele><time>2026-03-28T10:55:46.067Z</time></trkpt><trkpt lat="43.7869167" lon="10.79593"><ele>14.0</ele><time>2026-03-28T10:55:47.067Z</time></trkpt><trkpt lat="43.7868333" lon="10.795895"><ele>14.0</ele><time>2026-03-28T10:55:48.067Z</time></trkpt><trkpt lat="43.7867567" lon="10.795855"><ele>14.000000000000002</ele><time>2026-03-28T10:55:49.066Z</time></trkpt><trkpt lat="43.7866833" lon="10.7958183"><ele>14.0</ele><time>2026-03-28T10:55:50.066Z</time></trkpt><trkpt lat="43.7866233" lon="10.7957633"><ele>14.166666666666668</ele><time>2026-03-28T10:55:51.067Z</time></trkpt><trkpt lat="43.7865267" lon="10.79568"><ele>14.333333333333334</ele><time>2026-03-28T10:55:53.066Z</time></trkpt><trkpt lat="43.7864033" lon="10.795655"><ele>14.5</ele><time>2026-03-28T10:55:55.067Z</time></trkpt><trkpt lat="43.7863383" lon="10.7956617"><ele>14.666666666666668</ele><time>2026-03-28T10:55:56.067Z</time></trkpt><trkpt lat="43.7862717" lon="10.79568"><ele>14.833333333333334</ele><time>2026-03-28T10:55:57.067Z</time></trkpt><trkpt lat="43.7861967" lon="10.79569"><ele>15.0</ele><time>2026-03-28T10:55:58.067Z</time></trkpt><trkpt lat="43.7861233" lon="10.7957017"><ele>15.833333333333334</ele><time>2026-03-28T10:55:59.066Z</time></trkpt><trkpt lat="43.786005" lon="10.7957083"><ele>16.666666666666668</ele><time>2026-03-28T10:56:01.067Z</time></trkpt><trkpt lat="43.7859417" lon="10.7957133"><ele>17.5</ele><time>2026-03-28T10:56:02.067Z</time></trkpt><trkpt lat="43.7858683" lon="10.7957267"><ele>18.333333333333336</ele><time>2026-03-28T10:56:03.067Z</time></trkpt><trkpt lat="43.7858" lon="10.7957383"><ele>19.166666666666668</ele><time>2026-03-28T10:56:04.067Z</time></trkpt><trkpt lat="43.785725" lon="10.7957467"><ele>20.0</ele><time>2026-03-28T10:56:05.066Z</time></trkpt><trkpt lat="43.7856583" lon="10.795755"><ele>20.0</ele><time>2026-03-28T10:56:06.066Z</time></trkpt><trkpt lat="43.785595" lon="10.7957667"><ele>20.0</ele><time>2026-03-28T10:56:07.067Z</time></trkpt><trkpt lat="43.78553" lon="10.7957717"><ele>20.0</ele><time>2026-03-28T10:56:08.067Z</time></trkpt><trkpt lat="43.7854167" lon="10.7957683"><ele>20.0</ele><time>2026-03-28T10:56:10.066Z</time></trkpt><trkpt lat="43.7853267" lon="10.795775"><ele>20.0</ele><time>2026-03-28T10:56:12.067Z</time></trkpt><trkpt lat="43.785265" lon="10.795835"><ele>20.0</ele><time>2026-03-28T10:56:14.067Z</time></trkpt><trkpt lat="43.78521" lon="10.79595"><ele>19.5</ele><time>2026-03-28T10:56:16.066Z</time></trkpt><trkpt lat="43.78515" lon="10.79607"><ele>19.0</ele><time>2026-03-28T10:56:18.067Z</time></trkpt><trkpt lat="43.7850933" lon="10.79621"><ele>18.5</ele><time>2026-03-28T10:56:20.066Z</time></trkpt><trkpt lat="43.785035" lon="10.7963483"><ele>18.0</ele><time>2026-03-28T10:56:22.067Z</time></trkpt><trkpt lat="43.784965" lon="10.796485"><ele>18.0</ele><time>2026-03-28T10:56:24.067Z</time></trkpt><trkpt lat="43.7849017" lon="10.796625"><ele>18.0</ele><time>2026-03-28T10:56:26.067Z</time></trkpt><trkpt lat="43.7848417" lon="10.79675"><ele>18.0</ele><time>2026-03-28T10:56:28.067Z</time></trkpt><trkpt lat="43.784765" lon="10.796885"><ele>18.0</ele><time>2026-03-28T10:56:30.066Z</time></trkpt><trkpt lat="43.784735" lon="10.7969667"><ele>18.0</ele><time>2026-03-28T10:56:31.067Z</time></trkpt><trkpt lat="43.7847183" lon="10.7970567"><ele>18.5</ele><time>2026-03-28T10:56:32.067Z</time></trkpt><trkpt lat="43.7847133" lon="10.7971517"><ele>19.0</ele><time>2026-03-28T10:56:33.067Z</time></trkpt><trkpt lat="43.784715" lon="10.79728"><ele>19.5</ele><time>2026-03-28T10:56:34.066Z</time></trkpt><trkpt lat="43.7847267" lon="10.7974167"><ele>20.0</ele><time>2026-03-28T10:56:35.067Z</time></trkpt><trkpt lat="43.784745" lon="10.79755"><ele>20.5</ele><time>2026-03-28T10:56:36.067Z</time></trkpt><trkpt lat="43.7847517" lon="10.7976733"><ele>21.0</ele><time>2026-03-28T10:56:37.067Z</time></trkpt><trkpt lat="43.784755" lon="10.7977933"><ele>22.0</ele><time>2026-03-28T10:56:38.067Z</time></trkpt><trkpt lat="43.78476" lon="10.7978917"><ele>23.0</ele><time>2026-03-28T10:56:39.066Z</time></trkpt><trkpt lat="43.7847683" lon="10.7979917"><ele>24.0</ele><time>2026-03-28T10:56:40.067Z</time></trkpt><trkpt lat="43.7847717" lon="10.798085"><ele>25.0</ele><time>2026-03-28T10:56:41.067Z</time></trkpt><trkpt lat="43.7847817" lon="10.798255"><ele>26.0</ele><time>2026-03-28T10:56:43.066Z</time></trkpt><trkpt lat="43.7847533" lon="10.7983933"><ele>27.0</ele><time>2026-03-28T10:56:45.067Z</time></trkpt><trkpt lat="43.7847217" lon="10.7984783"><ele>27.5</ele><time>2026-03-28T10:56:47.067Z</time></trkpt><trkpt lat="43.784605" lon="10.7985583"><ele>28.0</ele><time>2026-03-28T10:56:49.066Z</time></trkpt><trkpt lat="43.784535" lon="10.7985967"><ele>28.5</ele><time>2026-03-28T10:56:50.067Z</time></trkpt><trkpt lat="43.7844633" lon="10.7986417"><ele>29.0</ele><time>2026-03-28T10:56:51.067Z</time></trkpt><trkpt lat="43.784395" lon="10.798685"><ele>29.5</ele><time>2026-03-28T10:56:52.067Z</time></trkpt><trkpt lat="43.78433" lon="10.7987267"><ele>30.0</ele><time>2026-03-28T10:56:53.067Z</time></trkpt><trkpt lat="43.7842633" lon="10.79877"><ele>30.0</ele><time>2026-03-28T10:56:54.066Z</time></trkpt><trkpt lat="43.7842033" lon="10.798805"><ele>30.0</ele><time>2026-03-28T10:56:55.067Z</time></trkpt><trkpt lat="43.7841467" lon="10.7988433"><ele>30.0</ele><time>2026-03-28T10:56:56.067Z</time></trkpt><trkpt lat="43.78408" lon="10.798885"><ele>30.0</ele><time>2026-03-28T10:56:57.067Z</time></trkpt><trkpt lat="43.7839633" lon="10.7989517"><ele>30.0</ele><time>2026-03-28T10:56:59.067Z</time></trkpt><trkpt lat="43.7839" lon="10.7989967"><ele>30.0</ele><time>2026-03-28T10:57:00.067Z</time></trkpt><trkpt lat="43.7838133" lon="10.7990383"><ele>30.0</ele><time>2026-03-28T10:57:02.067Z</time></trkpt><trkpt lat="43.783745" lon="10.7990617"><ele>30.0</ele><time>2026-03-28T10:57:04.066Z</time></trkpt><trkpt lat="43.7836766" lon="10.7991005"><ele>30.0</ele><time>2026-03-28T10:57:06.067Z</time></trkpt><trkpt lat="43.7835843" lon="10.7991262"><ele>30.0</ele><time>2026-03-28T10:57:08.067Z</time></trkpt><trkpt lat="43.7834719" lon="10.7991452"><ele>30.0</ele><time>2026-03-28T10:57:10.066Z</time></trkpt><trkpt lat="43.7833605" lon="10.7991402"><ele>30.8</ele><time>2026-03-28T10:57:12.067Z</time></trkpt><trkpt lat="43.7832564" lon="10.7991282"><ele>31.6</ele><time>2026-03-28T10:57:14.067Z</time></trkpt><trkpt lat="43.7831628" lon="10.799103"><ele>32.4</ele><time>2026-03-28T10:57:16.066Z</time></trkpt><trkpt lat="43.7830566" lon="10.7990614"><ele>33.2</ele><time>2026-03-28T10:57:18.067Z</time></trkpt><trkpt lat="43.7829381" lon="10.7990335"><ele>34.0</ele><time>2026-03-28T10:57:20.067Z</time></trkpt><trkpt lat="43.7828751" lon="10.7990148"><ele>34.0</ele><time>2026-03-28T10:57:21.066Z</time></trkpt><trkpt lat="43.7827487" lon="10.7990121"><ele>34.0</ele><time>2026-03-28T10:57:23.066Z</time></trkpt><trkpt lat="43.7826835" lon="10.799025"><ele>34.0</ele><time>2026-03-28T10:57:24.066Z</time></trkpt><trkpt lat="43.782622" lon="10.7990518"><ele>34.0</ele><time>2026-03-28T10:57:25.067Z</time></trkpt><trkpt lat="43.7825024" lon="10.7990935"><ele>34.0</ele><time>2026-03-28T10:57:27.067Z</time></trkpt><trkpt lat="43.7824344" lon="10.7991031"><ele>34.0</ele><time>2026-03-28T10:57:28.067Z</time></trkpt><trkpt lat="43.782365" lon="10.7991106"><ele>35.14285714285714</ele><time>2026-03-28T10:57:29.067Z</time></trkpt><trkpt lat="43.78229" lon="10.799124"><ele>36.285714285714285</ele><time>2026-03-28T10:57:30.066Z</time></trkpt><trkpt lat="43.7822168" lon="10.7991369"><ele>37.42857142857143</ele><time>2026-03-28T10:57:31.067Z</time></trkpt><trkpt lat="43.7821454" lon="10.7991456"><ele>38.57142857142857</ele><time>2026-03-28T10:57:32.067Z</time></trkpt><trkpt lat="43.7820747" lon="10.7991501"><ele>39.714285714285715</ele><time>2026-03-28T10:57:33.067Z</time></trkpt><trkpt lat="43.7820043" lon="10.799148"><ele>40.857142857142854</ele><time>2026-03-28T10:57:34.067Z</time></trkpt><trkpt lat="43.7819377" lon="10.7991452"><ele>42.0</ele><time>2026-03-28T10:57:35.067Z</time></trkpt><trkpt lat="43.7818746" lon="10.7991411"><ele>41.833333333333336</ele><time>2026-03-28T10:57:36.066Z</time></trkpt><trkpt lat="43.7818084" lon="10.7991373"><ele>41.666666666666664</ele><time>2026-03-28T10:57:37.066Z</time></trkpt><trkpt lat="43.7817438" lon="10.7991442"><ele>41.5</ele><time>2026-03-28T10:57:38.066Z</time></trkpt><trkpt lat="43.7816368" lon="10.7991834"><ele>41.33333333333333</ele><time>2026-03-28T10:57:40.067Z</time></trkpt><trkpt lat="43.7815704" lon="10.7992392"><ele>41.166666666666664</ele><time>2026-03-28T10:57:42.067Z</time></trkpt><trkpt lat="43.781501" lon="10.7992939"><ele>41.0</ele><time>2026-03-28T10:57:44.067Z</time></trkpt><trkpt lat="43.7814003" lon="10.7993232"><ele>41.0</ele><time>2026-03-28T10:57:46.066Z</time></trkpt><trkpt lat="43.7812865" lon="10.7993133"><ele>41.0</ele><time>2026-03-28T10:57:48.067Z</time></trkpt><trkpt lat="43.7811742" lon="10.7992629"><ele>41.0</ele><time>2026-03-28T10:57:50.067Z</time></trkpt><trkpt lat="43.7810753" lon="10.7991562"><ele>41.0</ele><time>2026-03-28T10:57:52.067Z</time></trkpt><trkpt lat="43.7810243" lon="10.7990984"><ele>41.0</ele><time>2026-03-28T10:57:53.067Z</time></trkpt><trkpt lat="43.7809364" lon="10.798993"><ele>42.0</ele><time>2026-03-28T10:57:55.067Z</time></trkpt><trkpt lat="43.7808788" lon="10.798925"><ele>43.0</ele><time>2026-03-28T10:57:57.067Z</time></trkpt><trkpt lat="43.7808117" lon="10.7990033"><ele>44.0</ele><time>2026-03-28T10:58:02.067Z</time></trkpt><trkpt lat="43.7807583" lon="10.7991367"><ele>45.0</ele><time>2026-03-28T10:58:04.067Z</time></trkpt><trkpt lat="43.7807383" lon="10.7992267"><ele>46.0</ele><time>2026-03-28T10:58:05.067Z</time></trkpt><trkpt lat="43.78072" lon="10.79932"><ele>47.0</ele><time>2026-03-28T10:58:06.067Z</time></trkpt><trkpt lat="43.7807083" lon="10.7994217"><ele>47.0</ele><time>2026-03-28T10:58:07.067Z</time></trkpt><trkpt lat="43.7806917" lon="10.7995217"><ele>47.0</ele><time>2026-03-28T10:58:08.067Z</time></trkpt><trkpt lat="43.7806733" lon="10.7996283"><ele>47.0</ele><time>2026-03-28T10:58:09.066Z</time></trkpt><trkpt lat="43.7806533" lon="10.79973"><ele>47.0</ele><time>2026-03-28T10:58:10.067Z</time></trkpt><trkpt lat="43.78063" lon="10.7998333"><ele>47.0</ele><time>2026-03-28T10:58:11.067Z</time></trkpt><trkpt lat="43.78061" lon="10.7999383"><ele>47.0</ele><time>2026-03-28T10:58:12.067Z</time></trkpt><trkpt lat="43.7805917" lon="10.8000517"><ele>47.0</ele><time>2026-03-28T10:58:13.067Z</time></trkpt><trkpt lat="43.7805683" lon="10.8001633"><ele>47.0</ele><time>2026-03-28T10:58:14.067Z</time></trkpt><trkpt lat="43.780545" lon="10.8002583"><ele>47.0</ele><time>2026-03-28T10:58:15.067Z</time></trkpt><trkpt lat="43.780485" lon="10.8003433"><ele>47.0</ele><time>2026-03-28T10:58:16.067Z</time></trkpt><trkpt lat="43.7804417" lon="10.800425"><ele>47.0</ele><time>2026-03-28T10:58:17.066Z</time></trkpt><trkpt lat="43.780385" lon="10.8005133"><ele>47.0</ele><time>2026-03-28T10:58:18.067Z</time></trkpt><trkpt lat="43.7803383" lon="10.80062"><ele>45.8</ele><time>2026-03-28T10:58:19.066Z</time></trkpt><trkpt lat="43.7802983" lon="10.80073"><ele>44.6</ele><time>2026-03-28T10:58:20.067Z</time></trkpt><trkpt lat="43.780265" lon="10.800845"><ele>43.4</ele><time>2026-03-28T10:58:21.067Z</time></trkpt><trkpt lat="43.780245" lon="10.800965"><ele>42.199999999999996</ele><time>2026-03-28T10:58:22.067Z</time></trkpt><trkpt lat="43.7802333" lon="10.801095"><ele>41.0</ele><time>2026-03-28T10:58:23.067Z</time></trkpt><trkpt lat="43.7802267" lon="10.8012283"><ele>41.33333333333333</ele><time>2026-03-28T10:58:24.067Z</time></trkpt><trkpt lat="43.7802183" lon="10.8013567"><ele>41.666666666666664</ele><time>2026-03-28T10:58:25.066Z</time></trkpt><trkpt lat="43.7802117" lon="10.8014817"><ele>42.0</ele><time>2026-03-28T10:58:26.067Z</time></trkpt><trkpt lat="43.7802" lon="10.8015933"><ele>42.333333333333336</ele><time>2026-03-28T10:58:27.067Z</time></trkpt><trkpt lat="43.7801917" lon="10.8016983"><ele>42.66666666666667</ele><time>2026-03-28T10:58:28.067Z</time></trkpt><trkpt lat="43.7801717" lon="10.8017883"><ele>43.0</ele><time>2026-03-28T10:58:29.066Z</time></trkpt><trkpt lat="43.78013" lon="10.80187"><ele>41.0</ele><time>2026-03-28T10:58:30.067Z</time></trkpt><trkpt lat="43.7800583" lon="10.8019133"><ele>39.0</ele><time>2026-03-28T10:58:31.067Z</time></trkpt><trkpt lat="43.77998" lon="10.8019583"><ele>37.0</ele><time>2026-03-28T10:58:32.066Z</time></trkpt><trkpt lat="43.7798833" lon="10.8019967"><ele>35.0</ele><time>2026-03-28T10:58:33.067Z</time></trkpt><trkpt lat="43.779785" lon="10.8020233"><ele>33.0</ele><time>2026-03-28T10:58:34.067Z</time></trkpt><trkpt lat="43.7796867" lon="10.8020717"><ele>33.0</ele><time>2026-03-28T10:58:35.067Z</time></trkpt><trkpt lat="43.7795933" lon="10.802105"><ele>33.0</ele><time>2026-03-28T10:58:36.067Z</time></trkpt><trkpt lat="43.7795017" lon="10.80214"><ele>33.0</ele><time>2026-03-28T10:58:37.067Z</time></trkpt><trkpt lat="43.7794033" lon="10.8021733"><ele>33.0</ele><time>2026-03-28T10:58:38.067Z</time></trkpt><trkpt lat="43.7793017" lon="10.80221"><ele>33.0</ele><time>2026-03-28T10:58:39.067Z</time></trkpt><trkpt lat="43.7791883" lon="10.8022433"><ele>33.199999999999996</ele><time>2026-03-28T10:58:40.067Z</time></trkpt><trkpt lat="43.77909" lon="10.8022767"><ele>33.4</ele><time>2026-03-28T10:58:41.066Z</time></trkpt><trkpt lat="43.77898" lon="10.8023033"><ele>33.599999999999994</ele><time>2026-03-28T10:58:42.066Z</time></trkpt><trkpt lat="43.7788683" lon="10.802345"><ele>33.8</ele><time>2026-03-28T10:58:43.067Z</time></trkpt><trkpt lat="43.7787667" lon="10.8023883"><ele>34.0</ele><time>2026-03-28T10:58:44.067Z</time></trkpt><trkpt lat="43.7786667" lon="10.80243"><ele>34.0</ele><time>2026-03-28T10:58:45.066Z</time></trkpt><trkpt lat="43.7785617" lon="10.80247"><ele>34.0</ele><time>2026-03-28T10:58:46.067Z</time></trkpt><trkpt lat="43.7784633" lon="10.802505"><ele>34.0</ele><time>2026-03-28T10:58:47.067Z</time></trkpt><trkpt lat="43.7783633" lon="10.802545"><ele>34.0</ele><time>2026-03-28T10:58:48.066Z</time></trkpt><trkpt lat="43.7782667" lon="10.8025917"><ele>34.0</ele><time>2026-03-28T10:58:49.067Z</time></trkpt><trkpt lat="43.7781733" lon="10.8026567"><ele>32.6</ele><time>2026-03-28T10:58:50.067Z</time></trkpt><trkpt lat="43.77809" lon="10.8027133"><ele>31.2</ele><time>2026-03-28T10:58:51.067Z</time></trkpt><trkpt lat="43.7780017" lon="10.80276"><ele>29.800000000000004</ele><time>2026-03-28T10:58:52.067Z</time></trkpt><trkpt lat="43.7779067" lon="10.802805"><ele>28.400000000000002</ele><time>2026-03-28T10:58:53.067Z</time></trkpt><trkpt lat="43.7778117" lon="10.8028683"><ele>27.0</ele><time>2026-03-28T10:58:54.066Z</time></trkpt><trkpt lat="43.777715" lon="10.8029217"><ele>29.75</ele><time>2026-03-28T10:58:55.067Z</time></trkpt><trkpt lat="43.7776117" lon="10.8029767"><ele>32.5</ele><time>2026-03-28T10:58:56.067Z</time></trkpt><trkpt lat="43.777505" lon="10.8030217"><ele>35.25</ele><time>2026-03-28T10:58:57.067Z</time></trkpt><trkpt lat="43.7773917" lon="10.8030617"><ele>38.0</ele><time>2026-03-28T10:58:58.067Z</time></trkpt><trkpt lat="43.7772667" lon="10.8031"><ele>38.0</ele><time>2026-03-28T10:58:59.066Z</time></trkpt><trkpt lat="43.7771533" lon="10.8031233"><ele>38.0</ele><time>2026-03-28T10:59:00.067Z</time></trkpt><trkpt lat="43.77703" lon="10.8031467"><ele>38.0</ele><time>2026-03-28T10:59:01.067Z</time></trkpt><trkpt lat="43.7769" lon="10.803175"><ele>38.0</ele><time>2026-03-28T10:59:02.066Z</time></trkpt><trkpt lat="43.7767667" lon="10.8032067"><ele>38.75</ele><time>2026-03-28T10:59:03.067Z</time></trkpt><trkpt lat="43.7766367" lon="10.80324"><ele>39.5</ele><time>2026-03-28T10:59:04.066Z</time></trkpt><trkpt lat="43.776525" lon="10.8032767"><ele>40.25</ele><time>2026-03-28T10:59:05.067Z</time></trkpt><trkpt lat="43.7764133" lon="10.803305"><ele>41.0</ele><time>2026-03-28T10:59:06.067Z</time></trkpt><trkpt lat="43.7763017" lon="10.8033217"><ele>41.0</ele><time>2026-03-28T10:59:07.067Z</time></trkpt><trkpt lat="43.77619" lon="10.8033333"><ele>41.0</ele><time>2026-03-28T10:59:08.066Z</time></trkpt><trkpt lat="43.7760883" lon="10.803325"><ele>41.0</ele><time>2026-03-28T10:59:09.067Z</time></trkpt><trkpt lat="43.7759783" lon="10.80329"><ele>41.0</ele><time>2026-03-28T10:59:10.067Z</time></trkpt><trkpt lat="43.77587" lon="10.8032583"><ele>41.0</ele><time>2026-03-28T10:59:11.067Z</time></trkpt><trkpt lat="43.775745" lon="10.8032433"><ele>41.5</ele><time>2026-03-28T10:59:12.066Z</time></trkpt><trkpt lat="43.775635" lon="10.80322"><ele>42.0</ele><time>2026-03-28T10:59:13.066Z</time></trkpt><trkpt lat="43.775525" lon="10.803235"><ele>42.5</ele><time>2026-03-28T10:59:14.067Z</time></trkpt><trkpt lat="43.7754167" lon="10.80328"><ele>43.0</ele><time>2026-03-28T10:59:15.066Z</time></trkpt><trkpt lat="43.7753117" lon="10.8033483"><ele>43.0</ele><time>2026-03-28T10:59:16.067Z</time></trkpt><trkpt lat="43.7752117" lon="10.803445"><ele>43.0</ele><time>2026-03-28T10:59:17.067Z</time></trkpt><trkpt lat="43.7751283" lon="10.8035567"><ele>43.0</ele><time>2026-03-28T10:59:18.067Z</time></trkpt><trkpt lat="43.7750633" lon="10.8036817"><ele>43.0</ele><time>2026-03-28T10:59:19.067Z</time></trkpt><trkpt lat="43.775" lon="10.8038233"><ele>43.0</ele><time>2026-03-28T10:59:20.067Z</time></trkpt><trkpt lat="43.7749633" lon="10.80397"><ele>43.0</ele><time>2026-03-28T10:59:21.067Z</time></trkpt><trkpt lat="43.774925" lon="10.8041267"><ele>43.0</ele><time>2026-03-28T10:59:22.066Z</time></trkpt><trkpt lat="43.7748867" lon="10.80429"><ele>43.0</ele><time>2026-03-28T10:59:23.066Z</time></trkpt><trkpt lat="43.7748617" lon="10.8044417"><ele>42.75</ele><time>2026-03-28T10:59:24.066Z</time></trkpt><trkpt lat="43.7748233" lon="10.8046167"><ele>42.5</ele><time>2026-03-28T10:59:25.067Z</time></trkpt><trkpt lat="43.7747917" lon="10.8047817"><ele>42.25</ele><time>2026-03-28T10:59:26.067Z</time></trkpt><trkpt lat="43.7747667" lon="10.8049483"><ele>42.0</ele><time>2026-03-28T10:59:27.066Z</time></trkpt><trkpt lat="43.7747383" lon="10.80513"><ele>40.0</ele><time>2026-03-28T10:59:28.067Z</time></trkpt><trkpt lat="43.774705" lon="10.8053133"><ele>38.0</ele><time>2026-03-28T10:59:29.067Z</time></trkpt><trkpt lat="43.774675" lon="10.8054933"><ele>36.0</ele><time>2026-03-28T10:59:30.067Z</time></trkpt><trkpt lat="43.77463" lon="10.8056617"><ele>34.0</ele><time>2026-03-28T10:59:31.067Z</time></trkpt><trkpt lat="43.7745783" lon="10.8058267"><ele>32.75</ele><time>2026-03-28T10:59:32.067Z</time></trkpt><trkpt lat="43.7745117" lon="10.8059983"><ele>31.5</ele><time>2026-03-28T10:59:33.067Z</time></trkpt><trkpt lat="43.774435" lon="10.8061533"><ele>30.25</ele><time>2026-03-28T10:59:34.067Z</time></trkpt><trkpt lat="43.77434" lon="10.8063083"><ele>29.0</ele><time>2026-03-28T10:59:35.067Z</time></trkpt><trkpt lat="43.7742417" lon="10.8064633"><ele>29.0</ele><time>2026-03-28T10:59:36.066Z</time></trkpt><trkpt lat="43.774145" lon="10.80662"><ele>29.0</ele><time>2026-03-28T10:59:37.067Z</time></trkpt><trkpt lat="43.77406" lon="10.8067633"><ele>29.0</ele><time>2026-03-28T10:59:38.067Z</time></trkpt><trkpt lat="43.7739767" lon="10.8069233"><ele>29.0</ele><time>2026-03-28T10:59:39.067Z</time></trkpt><trkpt lat="43.77389" lon="10.807065"><ele>28.25</ele><time>2026-03-28T10:59:40.066Z</time></trkpt><trkpt lat="43.7738167" lon="10.8072067"><ele>27.5</ele><time>2026-03-28T10:59:41.067Z</time></trkpt><trkpt lat="43.7737417" lon="10.8073533"><ele>26.75</ele><time>2026-03-28T10:59:42.067Z</time></trkpt><trkpt lat="43.7736867" lon="10.8075167"><ele>26.0</ele><time>2026-03-28T10:59:43.066Z</time></trkpt><trkpt lat="43.7736333" lon="10.807675"><ele>25.0</ele><time>2026-03-28T10:59:44.066Z</time></trkpt><trkpt lat="43.7735933" lon="10.80786"><ele>24.0</ele><time>2026-03-28T10:59:45.067Z</time></trkpt><trkpt lat="43.7735417" lon="10.80802"><ele>23.0</ele><time>2026-03-28T10:59:46.067Z</time></trkpt><trkpt lat="43.7734833" lon="10.8081717"><ele>22.0</ele><time>2026-03-28T10:59:47.067Z</time></trkpt><trkpt lat="43.7734233" lon="10.80832"><ele>22.0</ele><time>2026-03-28T10:59:48.067Z</time></trkpt><trkpt lat="43.7733517" lon="10.8084667"><ele>22.0</ele><time>2026-03-28T10:59:49.067Z</time></trkpt><trkpt lat="43.7732517" lon="10.80861"><ele>22.0</ele><time>2026-03-28T10:59:50.067Z</time></trkpt><trkpt lat="43.7731817" lon="10.8087133"><ele>22.0</ele><time>2026-03-28T10:59:51.066Z</time></trkpt><trkpt lat="43.7730733" lon="10.8088167"><ele>21.0</ele><time>2026-03-28T10:59:52.067Z</time></trkpt><trkpt lat="43.77295" lon="10.8088967"><ele>20.0</ele><time>2026-03-28T10:59:53.067Z</time></trkpt><trkpt lat="43.7728417" lon="10.8089667"><ele>19.0</ele><time>2026-03-28T10:59:54.067Z</time></trkpt><trkpt lat="43.772725" lon="10.8090483"><ele>18.0</ele><time>2026-03-28T10:59:55.066Z</time></trkpt><trkpt lat="43.7726283" lon="10.8091417"><ele>17.8</ele><time>2026-03-28T10:59:56.067Z</time></trkpt><trkpt lat="43.7725333" lon="10.8092333"><ele>17.6</ele><time>2026-03-28T10:59:57.066Z</time></trkpt><trkpt lat="43.7724517" lon="10.80931"><ele>17.4</ele><time>2026-03-28T10:59:58.067Z</time></trkpt><trkpt lat="43.7723667" lon="10.8093833"><ele>17.2</ele><time>2026-03-28T10:59:59.067Z</time></trkpt><trkpt lat="43.7722767" lon="10.8094433"><ele>17.0</ele><time>2026-03-28T11:00:00.067Z</time></trkpt><trkpt lat="43.772205" lon="10.8095217"><ele>16.833333333333336</ele><time>2026-03-28T11:00:01.067Z</time></trkpt><trkpt lat="43.77214" lon="10.80961"><ele>16.666666666666668</ele><time>2026-03-28T11:00:02.067Z</time></trkpt><trkpt lat="43.77209" lon="10.8096983"><ele>16.5</ele><time>2026-03-28T11:00:03.067Z</time></trkpt><trkpt lat="43.7720533" lon="10.8098017"><ele>16.333333333333332</ele><time>2026-03-28T11:00:04.067Z</time></trkpt><trkpt lat="43.7720233" lon="10.8099183"><ele>16.166666666666664</ele><time>2026-03-28T11:00:05.066Z</time></trkpt><trkpt lat="43.772005" lon="10.810055"><ele>16.0</ele><time>2026-03-28T11:00:06.067Z</time></trkpt><trkpt lat="43.771985" lon="10.8102"><ele>16.0</ele><time>2026-03-28T11:00:07.067Z</time></trkpt><trkpt lat="43.77196" lon="10.8103533"><ele>16.0</ele><time>2026-03-28T11:00:08.067Z</time></trkpt><trkpt lat="43.771935" lon="10.8105117"><ele>16.0</ele><time>2026-03-28T11:00:09.066Z</time></trkpt><trkpt lat="43.7719133" lon="10.8106783"><ele>16.0</ele><time>2026-03-28T11:00:10.067Z</time></trkpt><trkpt lat="43.7718867" lon="10.8108433"><ele>16.25</ele><time>2026-03-28T11:00:11.066Z</time></trkpt><trkpt lat="43.77186" lon="10.8110067"><ele>16.5</ele><time>2026-03-28T11:00:12.066Z</time></trkpt><trkpt lat="43.7718267" lon="10.8111783"><ele>16.75</ele><time>2026-03-28T11:00:13.067Z</time></trkpt><trkpt lat="43.7718033" lon="10.8113567"><ele>17.0</ele><time>2026-03-28T11:00:14.067Z</time></trkpt><trkpt lat="43.7717817" lon="10.8115317"><ele>16.25</ele><time>2026-03-28T11:00:15.066Z</time></trkpt><trkpt lat="43.7717583" lon="10.8117033"><ele>15.5</ele><time>2026-03-28T11:00:16.067Z</time></trkpt><trkpt lat="43.7717267" lon="10.81188"><ele>14.75</ele><time>2026-03-28T11:00:17.067Z</time></trkpt><trkpt lat="43.7716967" lon="10.8120567"><ele>14.0</ele><time>2026-03-28T11:00:18.067Z</time></trkpt><trkpt lat="43.7716667" lon="10.812235"><ele>14.0</ele><time>2026-03-28T11:00:19.067Z</time></trkpt><trkpt lat="43.77164" lon="10.81241"><ele>14.0</ele><time>2026-03-28T11:00:20.067Z</time></trkpt><trkpt lat="43.77161" lon="10.8125833"><ele>14.0</ele><time>2026-03-28T11:00:21.067Z</time></trkpt><trkpt lat="43.7715817" lon="10.8127633"><ele>14.0</ele><time>2026-03-28T11:00:22.067Z</time></trkpt><trkpt lat="43.771545" lon="10.8129483"><ele>13.75</ele><time>2026-03-28T11:00:23.067Z</time></trkpt><trkpt lat="43.7715117" lon="10.8131317"><ele>13.5</ele><time>2026-03-28T11:00:24.066Z</time></trkpt><trkpt lat="43.771485" lon="10.8133083"><ele>13.25</ele><time>2026-03-28T11:00:25.067Z</time></trkpt><trkpt lat="43.771455" lon="10.8134767"><ele>13.0</ele><time>2026-03-28T11:00:26.067Z</time></trkpt><trkpt lat="43.7714217" lon="10.8136517"><ele>13.0</ele><time>2026-03-28T11:00:27.067Z</time></trkpt><trkpt lat="43.7713967" lon="10.8138333"><ele>13.0</ele><time>2026-03-28T11:00:28.066Z</time></trkpt><trkpt lat="43.7713683" lon="10.8140117"><ele>13.0</ele><time>2026-03-28T11:00:29.067Z</time></trkpt><trkpt lat="43.7713383" lon="10.8141933"><ele>13.0</ele><time>2026-03-28T11:00:30.066Z</time></trkpt><trkpt lat="43.7713133" lon="10.8143683"><ele>13.0</ele><time>2026-03-28T11:00:31.067Z</time></trkpt><trkpt lat="43.7712883" lon="10.814545"><ele>13.0</ele><time>2026-03-28T11:00:32.067Z</time></trkpt><trkpt lat="43.7712633" lon="10.8147317"><ele>13.0</ele><time>2026-03-28T11:00:33.067Z</time></trkpt><trkpt lat="43.771235" lon="10.8149133"><ele>13.0</ele><time>2026-03-28T11:00:34.067Z</time></trkpt><trkpt lat="43.7712067" lon="10.8150917"><ele>13.25</ele><time>2026-03-28T11:00:35.067Z</time></trkpt><trkpt lat="43.7711783" lon="10.8152733"><ele>13.5</ele><time>2026-03-28T11:00:36.067Z</time></trkpt><trkpt lat="43.771155" lon="10.8154517"><ele>13.75</ele><time>2026-03-28T11:00:37.067Z</time></trkpt><trkpt lat="43.7711233" lon="10.815625"><ele>14.0</ele><time>2026-03-28T11:00:38.066Z</time></trkpt><trkpt lat="43.7710933" lon="10.8158017"><ele>14.0</ele><time>2026-03-28T11:00:39.067Z</time></trkpt><trkpt lat="43.7710633" lon="10.8159767"><ele>14.0</ele><time>2026-03-28T11:00:40.067Z</time></trkpt><trkpt lat="43.77103" lon="10.8161683"><ele>14.0</ele><time>2026-03-28T11:00:41.067Z</time></trkpt><trkpt lat="43.7709933" lon="10.816365"><ele>14.0</ele><time>2026-03-28T11:00:42.067Z</time></trkpt><trkpt lat="43.7709717" lon="10.8165583"><ele>14.0</ele><time>2026-03-28T11:00:43.067Z</time></trkpt><trkpt lat="43.7709417" lon="10.8167517"><ele>14.0</ele><time>2026-03-28T11:00:44.067Z</time></trkpt><trkpt lat="43.7709133" lon="10.816945"><ele>14.0</ele><time>2026-03-28T11:00:45.067Z</time></trkpt><trkpt lat="43.7708867" lon="10.8171217"><ele>14.0</ele><time>2026-03-28T11:00:46.067Z</time></trkpt><trkpt lat="43.7708567" lon="10.8173217"><ele>14.0</ele><time>2026-03-28T11:00:47.066Z</time></trkpt><trkpt lat="43.7708283" lon="10.8175267"><ele>14.0</ele><time>2026-03-28T11:00:48.067Z</time></trkpt><trkpt lat="43.7707917" lon="10.8177367"><ele>14.0</ele><time>2026-03-28T11:00:49.067Z</time></trkpt><trkpt lat="43.7707583" lon="10.8179367"><ele>14.0</ele><time>2026-03-28T11:00:50.067Z</time></trkpt><trkpt lat="43.7707317" lon="10.8181317"><ele>14.0</ele><time>2026-03-28T11:00:51.067Z</time></trkpt><trkpt lat="43.770715" lon="10.8183283"><ele>14.0</ele><time>2026-03-28T11:00:52.066Z</time></trkpt><trkpt lat="43.7707133" lon="10.8185167"><ele>14.0</ele><time>2026-03-28T11:00:53.067Z</time></trkpt><trkpt lat="43.7707233" lon="10.818705"><ele>14.5</ele><time>2026-03-28T11:00:54.067Z</time></trkpt><trkpt lat="43.770745" lon="10.8188933"><ele>15.0</ele><time>2026-03-28T11:00:55.066Z</time></trkpt><trkpt lat="43.7707883" lon="10.8190833"><ele>15.5</ele><time>2026-03-28T11:00:56.067Z</time></trkpt><trkpt lat="43.77083" lon="10.81926"><ele>16.0</ele><time>2026-03-28T11:00:57.067Z</time></trkpt><trkpt lat="43.7708683" lon="10.8194433"><ele>16.0</ele><time>2026-03-28T11:00:58.066Z</time></trkpt><trkpt lat="43.7709217" lon="10.81963"><ele>16.0</ele><time>2026-03-28T11:00:59.067Z</time></trkpt><trkpt lat="43.7709717" lon="10.8198117"><ele>16.0</ele><time>2026-03-28T11:01:00.067Z</time></trkpt><trkpt lat="43.77102" lon="10.819995"><ele>16.0</ele><time>2026-03-28T11:01:01.067Z</time></trkpt><trkpt lat="43.7710767" lon="10.82018"><ele>16.0</ele><time>2026-03-28T11:01:02.067Z</time></trkpt><trkpt lat="43.7711367" lon="10.8203733"><ele>16.0</ele><time>2026-03-28T11:01:03.066Z</time></trkpt><trkpt lat="43.7712017" lon="10.820565"><ele>16.0</ele><time>2026-03-28T11:01:04.066Z</time></trkpt><trkpt lat="43.7712517" lon="10.820765"><ele>16.0</ele><time>2026-03-28T11:01:05.067Z</time></trkpt><trkpt lat="43.7713033" lon="10.8209667"><ele>16.0</ele><time>2026-03-28T11:01:06.067Z</time></trkpt><trkpt lat="43.7713617" lon="10.8211583"><ele>16.0</ele><time>2026-03-28T11:01:07.067Z</time></trkpt><trkpt lat="43.77142" lon="10.8213517"><ele>15.666666666666666</ele><time>2026-03-28T11:01:08.066Z</time></trkpt><trkpt lat="43.7714733" lon="10.8215417"><ele>15.333333333333332</ele><time>2026-03-28T11:01:09.067Z</time></trkpt><trkpt lat="43.7715317" lon="10.8217367"><ele>15.0</ele><time>2026-03-28T11:01:10.067Z</time></trkpt><trkpt lat="43.77159" lon="10.821935"><ele>15.0</ele><time>2026-03-28T11:01:11.067Z</time></trkpt><trkpt lat="43.7716433" lon="10.8221417"><ele>15.0</ele><time>2026-03-28T11:01:12.067Z</time></trkpt><trkpt lat="43.771705" lon="10.8223433"><ele>15.0</ele><time>2026-03-28T11:01:13.067Z</time></trkpt><trkpt lat="43.7717633" lon="10.8225483"><ele>15.333333333333332</ele><time>2026-03-28T11:01:14.067Z</time></trkpt><trkpt lat="43.7718217" lon="10.822755"><ele>15.666666666666666</ele><time>2026-03-28T11:01:15.067Z</time></trkpt><trkpt lat="43.77188" lon="10.8229667"><ele>16.0</ele><time>2026-03-28T11:01:16.067Z</time></trkpt><trkpt lat="43.7719383" lon="10.82317"><ele>15.666666666666666</ele><time>2026-03-28T11:01:17.067Z</time></trkpt><trkpt lat="43.7719967" lon="10.823365"><ele>15.333333333333332</ele><time>2026-03-28T11:01:18.067Z</time></trkpt><trkpt lat="43.7720517" lon="10.8235633"><ele>15.0</ele><time>2026-03-28T11:01:19.067Z</time></trkpt><trkpt lat="43.7721" lon="10.823765"><ele>15.0</ele><time>2026-03-28T11:01:20.066Z</time></trkpt><trkpt lat="43.7721583" lon="10.8239633"><ele>15.0</ele><time>2026-03-28T11:01:21.067Z</time></trkpt><trkpt lat="43.7722133" lon="10.824165"><ele>15.0</ele><time>2026-03-28T11:01:22.066Z</time></trkpt><trkpt lat="43.7722667" lon="10.8243633"><ele>14.666666666666668</ele><time>2026-03-28T11:01:23.067Z</time></trkpt><trkpt lat="43.7723183" lon="10.8245667"><ele>14.333333333333334</ele><time>2026-03-28T11:01:24.066Z</time></trkpt><trkpt lat="43.7723733" lon="10.8247667"><ele>14.0</ele><time>2026-03-28T11:01:25.067Z</time></trkpt><trkpt lat="43.772435" lon="10.8249667"><ele>14.0</ele><time>2026-03-28T11:01:26.067Z</time></trkpt><trkpt lat="43.77249" lon="10.8251717"><ele>14.0</ele><time>2026-03-28T11:01:27.067Z</time></trkpt><trkpt lat="43.7725483" lon="10.825375"><ele>14.0</ele><time>2026-03-28T11:01:28.067Z</time></trkpt><trkpt lat="43.772605" lon="10.8255733"><ele>14.0</ele><time>2026-03-28T11:01:29.067Z</time></trkpt><trkpt lat="43.7726533" lon="10.8257767"><ele>14.0</ele><time>2026-03-28T11:01:30.067Z</time></trkpt><trkpt lat="43.7727117" lon="10.8259817"><ele>14.0</ele><time>2026-03-28T11:01:31.067Z</time></trkpt><trkpt lat="43.77277" lon="10.82618"><ele>14.333333333333334</ele><time>2026-03-28T11:01:32.067Z</time></trkpt><trkpt lat="43.77283" lon="10.8263733"><ele>14.666666666666668</ele><time>2026-03-28T11:01:33.067Z</time></trkpt><trkpt lat="43.7728883" lon="10.82657"><ele>15.0</ele><time>2026-03-28T11:01:34.067Z</time></trkpt><trkpt lat="43.7729433" lon="10.8267633"><ele>15.333333333333332</ele><time>2026-03-28T11:01:35.066Z</time></trkpt><trkpt lat="43.7729983" lon="10.826965"><ele>15.666666666666666</ele><time>2026-03-28T11:01:36.067Z</time></trkpt><trkpt lat="43.773055" lon="10.82716"><ele>16.0</ele><time>2026-03-28T11:01:37.067Z</time></trkpt><trkpt lat="43.7731117" lon="10.8273583"><ele>16.0</ele><time>2026-03-28T11:01:38.067Z</time></trkpt><trkpt lat="43.773165" lon="10.8275567"><ele>16.0</ele><time>2026-03-28T11:01:39.066Z</time></trkpt><trkpt lat="43.77322" lon="10.8277533"><ele>16.0</ele><time>2026-03-28T11:01:40.067Z</time></trkpt><trkpt lat="43.7732733" lon="10.8279483"><ele>16.333333333333332</ele><time>2026-03-28T11:01:41.067Z</time></trkpt><trkpt lat="43.7733317" lon="10.8281467"><ele>16.666666666666668</ele><time>2026-03-28T11:01:42.066Z</time></trkpt><trkpt lat="43.7733917" lon="10.828335"><ele>17.0</ele><time>2026-03-28T11:01:43.067Z</time></trkpt><trkpt lat="43.77345" lon="10.82853"><ele>17.0</ele><time>2026-03-28T11:01:44.067Z</time></trkpt><trkpt lat="43.7735017" lon="10.8287133"><ele>17.0</ele><time>2026-03-28T11:01:45.067Z</time></trkpt><trkpt lat="43.7735517" lon="10.8288867"><ele>17.0</ele><time>2026-03-28T11:01:46.066Z</time></trkpt><trkpt lat="43.7735967" lon="10.8290617"><ele>17.0</ele><time>2026-03-28T11:01:47.066Z</time></trkpt><trkpt lat="43.7736317" lon="10.8292267"><ele>17.0</ele><time>2026-03-28T11:01:48.067Z</time></trkpt><trkpt lat="43.77366" lon="10.829385"><ele>17.0</ele><time>2026-03-28T11:01:49.067Z</time></trkpt><trkpt lat="43.7736717" lon="10.8295467"><ele>17.0</ele><time>2026-03-28T11:01:50.067Z</time></trkpt><trkpt lat="43.77368" lon="10.829695"><ele>17.0</ele><time>2026-03-28T11:01:51.067Z</time></trkpt><trkpt lat="43.7736767" lon="10.8298467"><ele>17.0</ele><time>2026-03-28T11:01:52.067Z</time></trkpt><trkpt lat="43.7736667" lon="10.8299967"><ele>17.0</ele><time>2026-03-28T11:01:53.066Z</time></trkpt><trkpt lat="43.7736467" lon="10.8301517"><ele>17.0</ele><time>2026-03-28T11:01:54.067Z</time></trkpt><trkpt lat="43.7736183" lon="10.8302917"><ele>17.0</ele><time>2026-03-28T11:01:55.067Z</time></trkpt><trkpt lat="43.7735917" lon="10.830405"><ele>17.0</ele><time>2026-03-28T11:01:56.066Z</time></trkpt><trkpt lat="43.7735633" lon="10.8304983"><ele>17.333333333333336</ele><time>2026-03-28T11:01:57.067Z</time></trkpt><trkpt lat="43.7735067" lon="10.8306133"><ele>17.666666666666668</ele><time>2026-03-28T11:01:59.067Z</time></trkpt><trkpt lat="43.77343" lon="10.83064"><ele>18.0</ele><time>2026-03-28T11:02:12.067Z</time></trkpt><trkpt lat="43.7733283" lon="10.8306417"><ele>18.333333333333332</ele><time>2026-03-28T11:02:14.067Z</time></trkpt><trkpt lat="43.77326" lon="10.8306083"><ele>18.666666666666664</ele><time>2026-03-28T11:02:15.065Z</time></trkpt><trkpt lat="43.7731833" lon="10.8305717"><ele>19.0</ele><time>2026-03-28T11:02:16.067Z</time></trkpt><trkpt lat="43.7731" lon="10.83054"><ele>19.0</ele><time>2026-03-28T11:02:17.067Z</time></trkpt><trkpt lat="43.77302" lon="10.8305117"><ele>19.0</ele><time>2026-03-28T11:02:18.067Z</time></trkpt><trkpt lat="43.772945" lon="10.830485"><ele>19.0</ele><time>2026-03-28T11:02:19.066Z</time></trkpt><trkpt lat="43.7728817" lon="10.8304583"><ele>19.0</ele><time>2026-03-28T11:02:20.067Z</time></trkpt><trkpt lat="43.7727983" lon="10.8304167"><ele>19.0</ele><time>2026-03-28T11:02:22.066Z</time></trkpt><trkpt lat="43.7727217" lon="10.8304133"><ele>19.0</ele><time>2026-03-28T11:02:26.067Z</time></trkpt><trkpt lat="43.7726733" lon="10.8304983"><ele>19.0</ele><time>2026-03-28T11:02:30.067Z</time></trkpt><trkpt lat="43.77261" lon="10.830565"><ele>19.0</ele><time>2026-03-28T11:02:33.067Z</time></trkpt><trkpt lat="43.7725983" lon="10.830675"><ele>19.0</ele><time>2026-03-28T11:02:37.066Z</time></trkpt><trkpt lat="43.7726533" lon="10.8307767"><ele>19.0</ele><time>2026-03-28T11:02:39.067Z</time></trkpt><trkpt lat="43.77271" lon="10.8309183"><ele>19.0</ele><time>2026-03-28T11:02:41.067Z</time></trkpt><trkpt lat="43.7727633" lon="10.8310683"><ele>19.285714285714285</ele><time>2026-03-28T11:02:43.067Z</time></trkpt><trkpt lat="43.7727933" lon="10.8311467"><ele>19.571428571428573</ele><time>2026-03-28T11:02:44.067Z</time></trkpt><trkpt lat="43.7728233" lon="10.8312367"><ele>19.857142857142858</ele><time>2026-03-28T11:02:45.067Z</time></trkpt><trkpt lat="43.7728467" lon="10.8313283"><ele>20.142857142857142</ele><time>2026-03-28T11:02:46.067Z</time></trkpt><trkpt lat="43.7728633" lon="10.8314167"><ele>20.42857142857143</ele><time>2026-03-28T11:02:47.067Z</time></trkpt><trkpt lat="43.7728717" lon="10.831505"><ele>20.714285714285715</ele><time>2026-03-28T11:02:48.066Z</time></trkpt><trkpt lat="43.772885" lon="10.8315983"><ele>21.0</ele><time>2026-03-28T11:02:49.067Z</time></trkpt><trkpt lat="43.7728983" lon="10.831685"><ele>21.0</ele><time>2026-03-28T11:02:50.067Z</time></trkpt><trkpt lat="43.7729083" lon="10.8317767"><ele>21.0</ele><time>2026-03-28T11:02:51.066Z</time></trkpt><trkpt lat="43.7729167" lon="10.8318667"><ele>21.0</ele><time>2026-03-28T11:02:52.067Z</time></trkpt><trkpt lat="43.7729267" lon="10.8319533"><ele>21.0</ele><time>2026-03-28T11:02:53.066Z</time></trkpt><trkpt lat="43.7729417" lon="10.8320467"><ele>21.0</ele><time>2026-03-28T11:02:54.067Z</time></trkpt><trkpt lat="43.7729533" lon="10.8321367"><ele>21.0</ele><time>2026-03-28T11:02:55.066Z</time></trkpt><trkpt lat="43.772965" lon="10.832225"><ele>21.0</ele><time>2026-03-28T11:02:56.066Z</time></trkpt><trkpt lat="43.7729767" lon="10.832315"><ele>21.0</ele><time>2026-03-28T11:02:57.066Z</time></trkpt><trkpt lat="43.7729917" lon="10.8324033"><ele>21.0</ele><time>2026-03-28T11:02:58.067Z</time></trkpt><trkpt lat="43.7730067" lon="10.8325"><ele>21.0</ele><time>2026-03-28T11:02:59.067Z</time></trkpt><trkpt lat="43.7730167" lon="10.8325933"><ele>21.0</ele><time>2026-03-28T11:03:00.067Z</time></trkpt><trkpt lat="43.773035" lon="10.8327383"><ele>21.0</ele><time>2026-03-28T11:03:02.067Z</time></trkpt><trkpt lat="43.7730667" lon="10.832835"><ele>21.0</ele><time>2026-03-28T11:03:04.067Z</time></trkpt><trkpt lat="43.7731117" lon="10.832925"><ele>21.0</ele><time>2026-03-28T11:03:08.067Z</time></trkpt><trkpt lat="43.7731367" lon="10.83303"><ele>21.0</ele><time>2026-03-28T11:03:10.066Z</time></trkpt><trkpt lat="43.77315" lon="10.8331583"><ele>21.0</ele><time>2026-03-28T11:03:12.066Z</time></trkpt><trkpt lat="43.7731633" lon="10.8332783"><ele>21.0</ele><time>2026-03-28T11:03:14.067Z</time></trkpt><trkpt lat="43.77319" lon="10.8334017"><ele>21.0</ele><time>2026-03-28T11:03:16.066Z</time></trkpt><trkpt lat="43.7732167" lon="10.8335433"><ele>21.25</ele><time>2026-03-28T11:03:18.067Z</time></trkpt><trkpt lat="43.773235" lon="10.8337"><ele>21.5</ele><time>2026-03-28T11:03:20.067Z</time></trkpt><trkpt lat="43.7732483" lon="10.8338533"><ele>21.75</ele><time>2026-03-28T11:03:22.067Z</time></trkpt><trkpt lat="43.7732667" lon="10.8340033"><ele>22.0</ele><time>2026-03-28T11:03:24.067Z</time></trkpt><trkpt lat="43.7732917" lon="10.83416"><ele>22.333333333333332</ele><time>2026-03-28T11:03:26.067Z</time></trkpt><trkpt lat="43.7733217" lon="10.83432"><ele>22.666666666666664</ele><time>2026-03-28T11:03:28.067Z</time></trkpt><trkpt lat="43.7733383" lon="10.834405"><ele>23.0</ele><time>2026-03-28T11:03:29.067Z</time></trkpt><trkpt lat="43.7733567" lon="10.8345717"><ele>23.333333333333332</ele><time>2026-03-28T11:03:31.067Z</time></trkpt><trkpt lat="43.77337" lon="10.8346583"><ele>23.666666666666668</ele><time>2026-03-28T11:03:32.067Z</time></trkpt><trkpt lat="43.7733817" lon="10.83475"><ele>24.0</ele><time>2026-03-28T11:03:33.067Z</time></trkpt><trkpt lat="43.7733933" lon="10.83484"><ele>24.0</ele><time>2026-03-28T11:03:34.067Z</time></trkpt><trkpt lat="43.7734083" lon="10.83493"><ele>24.0</ele><time>2026-03-28T11:03:35.067Z</time></trkpt><trkpt lat="43.7734367" lon="10.835015"><ele>24.0</ele><time>2026-03-28T11:03:36.067Z</time></trkpt><trkpt lat="43.7734967" lon="10.8351717"><ele>24.0</ele><time>2026-03-28T11:03:38.066Z</time></trkpt><trkpt lat="43.7735267" lon="10.835255"><ele>24.0</ele><time>2026-03-28T11:03:39.067Z</time></trkpt><trkpt lat="43.77355" lon="10.8353417"><ele>24.0</ele><time>2026-03-28T11:03:40.067Z</time></trkpt><trkpt lat="43.773575" lon="10.8354267"><ele>26.75</ele><time>2026-03-28T11:03:41.066Z</time></trkpt><trkpt lat="43.7736233" lon="10.8355817"><ele>29.5</ele><time>2026-03-28T11:03:43.067Z</time></trkpt><trkpt lat="43.773675" lon="10.8357367"><ele>32.25</ele><time>2026-03-28T11:03:45.066Z</time></trkpt><trkpt lat="43.7737233" lon="10.8358967"><ele>35.0</ele><time>2026-03-28T11:03:47.066Z</time></trkpt><trkpt lat="43.7737633" lon="10.836035"><ele>36.8</ele><time>2026-03-28T11:03:49.067Z</time></trkpt><trkpt lat="43.7738117" lon="10.8361667"><ele>38.6</ele><time>2026-03-28T11:03:51.067Z</time></trkpt><trkpt lat="43.773875" lon="10.8362533"><ele>40.400000000000006</ele><time>2026-03-28T11:03:53.067Z</time></trkpt><trkpt lat="43.7739686" lon="10.8362847"><ele>42.2</ele><time>2026-03-28T11:03:56.066Z</time></trkpt><trkpt lat="43.7740362" lon="10.8363162"><ele>44.0</ele><time>2026-03-28T11:03:58.067Z</time></trkpt><trkpt lat="43.7741359" lon="10.836384"><ele>44.0</ele><time>2026-03-28T11:04:01.066Z</time></trkpt><trkpt lat="43.774197" lon="10.8364142"><ele>44.0</ele><time>2026-03-28T11:04:02.067Z</time></trkpt><trkpt lat="43.77431" lon="10.8364629"><ele>44.0</ele><time>2026-03-28T11:04:04.067Z</time></trkpt><trkpt lat="43.7744177" lon="10.8365103"><ele>44.0</ele><time>2026-03-28T11:04:06.067Z</time></trkpt><trkpt lat="43.7745131" lon="10.8365625"><ele>44.0</ele><time>2026-03-28T11:04:08.067Z</time></trkpt><trkpt lat="43.7745896" lon="10.8366346"><ele>44.0</ele><time>2026-03-28T11:04:10.067Z</time></trkpt><trkpt lat="43.7746527" lon="10.8367203"><ele>44.0</ele><time>2026-03-28T11:04:12.066Z</time></trkpt><trkpt lat="43.7747025" lon="10.8367953"><ele>44.0</ele><time>2026-03-28T11:04:14.067Z</time></trkpt><trkpt lat="43.7746934" lon="10.8368973"><ele>44.0</ele><time>2026-03-28T11:04:17.067Z</time></trkpt><trkpt lat="43.7746839" lon="10.8369884"><ele>44.0</ele><time>2026-03-28T11:04:20.066Z</time></trkpt><trkpt lat="43.7747209" lon="10.8370655"><ele>44.0</ele><time>2026-03-28T11:04:22.067Z</time></trkpt><trkpt lat="43.7747597" lon="10.8371496"><ele>44.0</ele><time>2026-03-28T11:04:24.067Z</time></trkpt><trkpt lat="43.774765" lon="10.8372417"><ele>44.285714285714285</ele><time>2026-03-28T11:04:26.067Z</time></trkpt><trkpt lat="43.77474" lon="10.837375"><ele>44.57142857142857</ele><time>2026-03-28T11:04:28.067Z</time></trkpt><trkpt lat="43.77472" lon="10.8374583"><ele>44.85714285714286</ele><time>2026-03-28T11:04:29.067Z</time></trkpt><trkpt lat="43.7747083" lon="10.8375483"><ele>45.14285714285714</ele><time>2026-03-28T11:04:30.067Z</time></trkpt><trkpt lat="43.7746933" lon="10.8376367"><ele>45.42857142857142</ele><time>2026-03-28T11:04:31.066Z</time></trkpt><trkpt lat="43.7746833" lon="10.8377317"><ele>45.714285714285715</ele><time>2026-03-28T11:04:32.066Z</time></trkpt><trkpt lat="43.7746683" lon="10.837825"><ele>46.0</ele><time>2026-03-28T11:04:33.067Z</time></trkpt><trkpt lat="43.7746483" lon="10.8379083"><ele>47.599999999999994</ele><time>2026-03-28T11:04:34.066Z</time></trkpt><trkpt lat="43.7746233" lon="10.8380717"><ele>49.2</ele><time>2026-03-28T11:04:36.067Z</time></trkpt><trkpt lat="43.7746067" lon="10.83821"><ele>50.800000000000004</ele><time>2026-03-28T11:04:38.067Z</time></trkpt><trkpt lat="43.7745833" lon="10.8383633"><ele>52.400000000000006</ele><time>2026-03-28T11:04:40.067Z</time></trkpt><trkpt lat="43.7745833" lon="10.8384917"><ele>54.0</ele><time>2026-03-28T11:04:42.067Z</time></trkpt><trkpt lat="43.774595" lon="10.8386283"><ele>54.5</ele><time>2026-03-28T11:04:44.067Z</time></trkpt><trkpt lat="43.77462" lon="10.8387167"><ele>55.0</ele><time>2026-03-28T11:04:45.066Z</time></trkpt><trkpt lat="43.7746483" lon="10.8388133"><ele>55.5</ele><time>2026-03-28T11:04:46.066Z</time></trkpt><trkpt lat="43.7746683" lon="10.8389133"><ele>56.0</ele><time>2026-03-28T11:04:47.067Z</time></trkpt><trkpt lat="43.7746967" lon="10.8390117"><ele>56.5</ele><time>2026-03-28T11:04:48.067Z</time></trkpt><trkpt lat="43.7747217" lon="10.83912"><ele>57.0</ele><time>2026-03-28T11:04:49.066Z</time></trkpt><trkpt lat="43.7747417" lon="10.8392317"><ele>56.333333333333336</ele><time>2026-03-28T11:04:50.066Z</time></trkpt><trkpt lat="43.7747567" lon="10.8393367"><ele>55.66666666666667</ele><time>2026-03-28T11:04:51.067Z</time></trkpt><trkpt lat="43.7747717" lon="10.8394383"><ele>55.0</ele><time>2026-03-28T11:04:52.066Z</time></trkpt><trkpt lat="43.774785" lon="10.8395417"><ele>54.333333333333336</ele><time>2026-03-28T11:04:53.067Z</time></trkpt><trkpt lat="43.774795" lon="10.8396433"><ele>53.66666666666667</ele><time>2026-03-28T11:04:54.067Z</time></trkpt><trkpt lat="43.77481" lon="10.839745"><ele>53.0</ele><time>2026-03-28T11:04:55.067Z</time></trkpt><trkpt lat="43.7748283" lon="10.8398517"><ele>53.0</ele><time>2026-03-28T11:04:56.066Z</time></trkpt><trkpt lat="43.774845" lon="10.8399567"><ele>53.0</ele><time>2026-03-28T11:04:57.066Z</time></trkpt><trkpt lat="43.7748617" lon="10.84006"><ele>53.0</ele><time>2026-03-28T11:04:58.066Z</time></trkpt><trkpt lat="43.7748733" lon="10.8401533"><ele>53.0</ele><time>2026-03-28T11:04:59.067Z</time></trkpt><trkpt lat="43.7748867" lon="10.8402533"><ele>53.0</ele><time>2026-03-28T11:05:00.067Z</time></trkpt><trkpt lat="43.7749083" lon="10.84035"><ele>53.0</ele><time>2026-03-28T11:05:01.067Z</time></trkpt><trkpt lat="43.77493" lon="10.84045"><ele>53.0</ele><time>2026-03-28T11:05:02.067Z</time></trkpt><trkpt lat="43.77495" lon="10.8405417"><ele>53.0</ele><time>2026-03-28T11:05:03.067Z</time></trkpt><trkpt lat="43.7749683" lon="10.8406333"><ele>53.0</ele><time>2026-03-28T11:05:04.066Z</time></trkpt><trkpt lat="43.7749817" lon="10.8407233"><ele>53.0</ele><time>2026-03-28T11:05:05.067Z</time></trkpt><trkpt lat="43.774995" lon="10.8408183"><ele>53.0</ele><time>2026-03-28T11:05:06.067Z</time></trkpt><trkpt lat="43.7750017" lon="10.84091"><ele>53.0</ele><time>2026-03-28T11:05:07.067Z</time></trkpt><trkpt lat="43.7750017" lon="10.8410017"><ele>53.0</ele><time>2026-03-28T11:05:08.067Z</time></trkpt><trkpt lat="43.7750017" lon="10.841095"><ele>53.0</ele><time>2026-03-28T11:05:09.066Z</time></trkpt><trkpt lat="43.7749933" lon="10.8411833"><ele>52.42857142857143</ele><time>2026-03-28T11:05:10.066Z</time></trkpt><trkpt lat="43.7749883" lon="10.8412783"><ele>51.857142857142854</ele><time>2026-03-28T11:05:11.067Z</time></trkpt><trkpt lat="43.7749817" lon="10.8413783"><ele>51.285714285714285</ele><time>2026-03-28T11:05:12.067Z</time></trkpt><trkpt lat="43.774975" lon="10.8414767"><ele>50.714285714285715</ele><time>2026-03-28T11:05:13.066Z</time></trkpt><trkpt lat="43.7749533" lon="10.841575"><ele>50.14285714285714</ele><time>2026-03-28T11:05:14.067Z</time></trkpt><trkpt lat="43.7749317" lon="10.8416867"><ele>49.57142857142857</ele><time>2026-03-28T11:05:15.067Z</time></trkpt><trkpt lat="43.7749083" lon="10.841785"><ele>49.0</ele><time>2026-03-28T11:05:16.067Z</time></trkpt><trkpt lat="43.774875" lon="10.8418767"><ele>48.166666666666664</ele><time>2026-03-28T11:05:17.067Z</time></trkpt><trkpt lat="43.774835" lon="10.8419667"><ele>47.33333333333333</ele><time>2026-03-28T11:05:18.067Z</time></trkpt><trkpt lat="43.7747933" lon="10.8420433"><ele>46.5</ele><time>2026-03-28T11:05:19.067Z</time></trkpt><trkpt lat="43.7747383" lon="10.8421183"><ele>45.666666666666664</ele><time>2026-03-28T11:05:20.067Z</time></trkpt><trkpt lat="43.7746767" lon="10.84218"><ele>44.83333333333333</ele><time>2026-03-28T11:05:21.066Z</time></trkpt><trkpt lat="43.7746067" lon="10.8422383"><ele>44.0</ele><time>2026-03-28T11:05:22.067Z</time></trkpt><trkpt lat="43.7745333" lon="10.8422967"><ele>44.0</ele><time>2026-03-28T11:05:23.067Z</time></trkpt><trkpt lat="43.7744567" lon="10.842345"><ele>44.0</ele><time>2026-03-28T11:05:24.066Z</time></trkpt><trkpt lat="43.7743883" lon="10.8423867"><ele>44.0</ele><time>2026-03-28T11:05:25.066Z</time></trkpt><trkpt lat="43.77432" lon="10.8424317"><ele>44.0</ele><time>2026-03-28T11:05:26.067Z</time></trkpt><trkpt lat="43.7742483" lon="10.8424683"><ele>44.0</ele><time>2026-03-28T11:05:27.067Z</time></trkpt><trkpt lat="43.77418" lon="10.84251"><ele>44.0</ele><time>2026-03-28T11:05:28.067Z</time></trkpt><trkpt lat="43.7741067" lon="10.8425533"><ele>45.285714285714285</ele><time>2026-03-28T11:05:29.067Z</time></trkpt><trkpt lat="43.77404" lon="10.8425967"><ele>46.57142857142857</ele><time>2026-03-28T11:05:30.067Z</time></trkpt><trkpt lat="43.7739733" lon="10.842635"><ele>47.85714285714286</ele><time>2026-03-28T11:05:31.066Z</time></trkpt><trkpt lat="43.7739067" lon="10.8426717"><ele>49.14285714285714</ele><time>2026-03-28T11:05:32.067Z</time></trkpt><trkpt lat="43.773845" lon="10.8427117"><ele>50.42857142857142</ele><time>2026-03-28T11:05:33.067Z</time></trkpt><trkpt lat="43.773785" lon="10.8427517"><ele>51.714285714285715</ele><time>2026-03-28T11:05:34.067Z</time></trkpt><trkpt lat="43.7737317" lon="10.8427983"><ele>53.0</ele><time>2026-03-28T11:05:35.066Z</time></trkpt><trkpt lat="43.7736433" lon="10.8428967"><ele>54.0</ele><time>2026-03-28T11:05:37.066Z</time></trkpt><trkpt lat="43.7735817" lon="10.8430367"><ele>55.0</ele><time>2026-03-28T11:05:39.067Z</time></trkpt><trkpt lat="43.7735533" lon="10.8431733"><ele>56.0</ele><time>2026-03-28T11:05:41.066Z</time></trkpt><trkpt lat="43.7735017" lon="10.8432633"><ele>57.0</ele><time>2026-03-28T11:05:44.067Z</time></trkpt><trkpt lat="43.7733917" lon="10.8433117"><ele>58.0</ele><time>2026-03-28T11:05:47.067Z</time></trkpt><trkpt lat="43.7732817" lon="10.8433633"><ele>58.0</ele><time>2026-03-28T11:05:49.067Z</time></trkpt><trkpt lat="43.7731617" lon="10.8434117"><ele>58.0</ele><time>2026-03-28T11:05:51.067Z</time></trkpt><trkpt lat="43.7730483" lon="10.84345"><ele>58.0</ele><time>2026-03-28T11:05:53.066Z</time></trkpt><trkpt lat="43.7729233" lon="10.8434933"><ele>58.0</ele><time>2026-03-28T11:05:55.067Z</time></trkpt><trkpt lat="43.7728533" lon="10.8435167"><ele>58.0</ele><time>2026-03-28T11:05:56.067Z</time></trkpt><trkpt lat="43.772785" lon="10.84354"><ele>55.2</ele><time>2026-03-28T11:05:57.066Z</time></trkpt><trkpt lat="43.772725" lon="10.8435717"><ele>52.4</ele><time>2026-03-28T11:05:58.067Z</time></trkpt><trkpt lat="43.772605" lon="10.843635"><ele>49.6</ele><time>2026-03-28T11:06:00.066Z</time></trkpt><trkpt lat="43.7725017" lon="10.8437067"><ele>46.800000000000004</ele><time>2026-03-28T11:06:02.067Z</time></trkpt><trkpt lat="43.7723917" lon="10.84378"><ele>44.0</ele><time>2026-03-28T11:06:04.067Z</time></trkpt><trkpt lat="43.7723283" lon="10.8438083"><ele>44.0</ele><time>2026-03-28T11:06:05.067Z</time></trkpt><trkpt lat="43.7722617" lon="10.843825"><ele>44.0</ele><time>2026-03-28T11:06:06.067Z</time></trkpt><trkpt lat="43.772195" lon="10.8438317"><ele>44.0</ele><time>2026-03-28T11:06:07.066Z</time></trkpt><trkpt lat="43.7721267" lon="10.8438333"><ele>44.0</ele><time>2026-03-28T11:06:08.067Z</time></trkpt><trkpt lat="43.772015" lon="10.8438267"><ele>44.0</ele><time>2026-03-28T11:06:10.066Z</time></trkpt><trkpt lat="43.7719067" lon="10.8438233"><ele>44.0</ele><time>2026-03-28T11:06:12.067Z</time></trkpt><trkpt lat="43.77182" lon="10.843835"><ele>44.5</ele><time>2026-03-28T11:06:14.066Z</time></trkpt><trkpt lat="43.7718217" lon="10.8439467"><ele>45.0</ele><time>2026-03-28T11:07:42.067Z</time></trkpt><trkpt lat="43.7717617" lon="10.8439033"><ele>45.5</ele><time>2026-03-28T11:07:43.066Z</time></trkpt><trkpt lat="43.7716783" lon="10.8438883"><ele>46.0</ele><time>2026-03-28T11:08:05.067Z</time></trkpt><trkpt lat="43.7715867" lon="10.84392"><ele>46.5</ele><time>2026-03-28T11:08:07.067Z</time></trkpt><trkpt lat="43.77148" lon="10.8439917"><ele>47.0</ele><time>2026-03-28T11:08:09.067Z</time></trkpt><trkpt lat="43.7714217" lon="10.8440333"><ele>47.0</ele><time>2026-03-28T11:08:10.067Z</time></trkpt><trkpt lat="43.771365" lon="10.844075"><ele>47.0</ele><time>2026-03-28T11:08:11.066Z</time></trkpt><trkpt lat="43.771265" lon="10.844145"><ele>47.0</ele><time>2026-03-28T11:08:13.066Z</time></trkpt><trkpt lat="43.7711567" lon="10.844235"><ele>47.0</ele><time>2026-03-28T11:08:15.066Z</time></trkpt><trkpt lat="43.7710833" lon="10.8442933"><ele>47.0</ele><time>2026-03-28T11:08:16.067Z</time></trkpt><trkpt lat="43.77101" lon="10.84435"><ele>48.166666666666664</ele><time>2026-03-28T11:08:17.066Z</time></trkpt><trkpt lat="43.7709367" lon="10.8444083"><ele>49.33333333333333</ele><time>2026-03-28T11:08:18.067Z</time></trkpt><trkpt lat="43.770875" lon="10.8444533"><ele>50.5</ele><time>2026-03-28T11:08:19.067Z</time></trkpt><trkpt lat="43.7708117" lon="10.8445017"><ele>51.666666666666664</ele><time>2026-03-28T11:08:20.066Z</time></trkpt><trkpt lat="43.77073" lon="10.844575"><ele>52.833333333333336</ele><time>2026-03-28T11:08:22.067Z</time></trkpt><trkpt lat="43.77067" lon="10.8446367"><ele>54.0</ele><time>2026-03-28T11:08:24.066Z</time></trkpt><trkpt lat="43.7706167" lon="10.8447"><ele>54.0</ele><time>2026-03-28T11:08:26.067Z</time></trkpt><trkpt lat="43.7705683" lon="10.8447717"><ele>54.00000000000001</ele><time>2026-03-28T11:08:28.067Z</time></trkpt><trkpt lat="43.7705267" lon="10.8448767"><ele>54.00000000000001</ele><time>2026-03-28T11:08:30.067Z</time></trkpt><trkpt lat="43.770475" lon="10.845"><ele>54.0</ele><time>2026-03-28T11:08:32.066Z</time></trkpt><trkpt lat="43.7704183" lon="10.8451233"><ele>54.0</ele><time>2026-03-28T11:08:34.067Z</time></trkpt><trkpt lat="43.7703683" lon="10.8452467"><ele>56.0</ele><time>2026-03-28T11:08:36.066Z</time></trkpt><trkpt lat="43.7703167" lon="10.8453933"><ele>58.00000000000001</ele><time>2026-03-28T11:08:38.066Z</time></trkpt><trkpt lat="43.7702967" lon="10.845535"><ele>60.00000000000001</ele><time>2026-03-28T11:08:40.066Z</time></trkpt><trkpt lat="43.7703083" lon="10.8456833"><ele>62.0</ele><time>2026-03-28T11:08:42.066Z</time></trkpt><trkpt lat="43.7703183" lon="10.845775"><ele>64.0</ele><time>2026-03-28T11:08:43.067Z</time></trkpt><trkpt lat="43.770315" lon="10.8458633"><ele>64.33333333333333</ele><time>2026-03-28T11:08:44.066Z</time></trkpt><trkpt lat="43.77031" lon="10.8460333"><ele>64.66666666666666</ele><time>2026-03-28T11:08:46.067Z</time></trkpt><trkpt lat="43.770305" lon="10.8461983"><ele>65.0</ele><time>2026-03-28T11:08:48.067Z</time></trkpt><trkpt lat="43.7703" lon="10.8462917"><ele>65.33333333333333</ele><time>2026-03-28T11:08:49.067Z</time></trkpt><trkpt lat="43.770285" lon="10.846385"><ele>65.66666666666667</ele><time>2026-03-28T11:08:50.067Z</time></trkpt><trkpt lat="43.7702617" lon="10.846475"><ele>66.0</ele><time>2026-03-28T11:08:51.066Z</time></trkpt><trkpt lat="43.770235" lon="10.8465783"><ele>66.0</ele><time>2026-03-28T11:08:52.067Z</time></trkpt><trkpt lat="43.7702" lon="10.8466783"><ele>66.0</ele><time>2026-03-28T11:08:53.067Z</time></trkpt><trkpt lat="43.7701467" lon="10.846775"><ele>66.0</ele><time>2026-03-28T11:08:54.067Z</time></trkpt><trkpt lat="43.7700733" lon="10.8468517"><ele>66.0</ele><time>2026-03-28T11:08:55.067Z</time></trkpt><trkpt lat="43.7699617" lon="10.8468967"><ele>66.0</ele><time>2026-03-28T11:08:56.067Z</time></trkpt><trkpt lat="43.76983" lon="10.8469417"><ele>65.2</ele><time>2026-03-28T11:08:57.067Z</time></trkpt><trkpt lat="43.7696967" lon="10.8469767"><ele>64.39999999999999</ele><time>2026-03-28T11:08:58.067Z</time></trkpt><trkpt lat="43.769585" lon="10.8470167"><ele>63.6</ele><time>2026-03-28T11:08:59.067Z</time></trkpt><trkpt lat="43.7694917" lon="10.8470567"><ele>62.8</ele><time>2026-03-28T11:09:00.067Z</time></trkpt><trkpt lat="43.7694133" lon="10.8470867"><ele>62.0</ele><time>2026-03-28T11:09:01.067Z</time></trkpt><trkpt lat="43.7693067" lon="10.8471283"><ele>62.0</ele><time>2026-03-28T11:09:03.066Z</time></trkpt><trkpt lat="43.7692233" lon="10.847155"><ele>62.0</ele><time>2026-03-28T11:09:05.066Z</time></trkpt><trkpt lat="43.7691265" lon="10.8471608"><ele>62.0</ele><time>2026-03-28T11:09:07.067Z</time></trkpt><trkpt lat="43.769022" lon="10.8471524"><ele>62.0</ele><time>2026-03-28T11:09:09.067Z</time></trkpt><trkpt lat="43.7689142" lon="10.8471624"><ele>62.0</ele><time>2026-03-28T11:09:11.066Z</time></trkpt><trkpt lat="43.7687985" lon="10.8471699"><ele>62.00000000000001</ele><time>2026-03-28T11:09:13.067Z</time></trkpt><trkpt lat="43.7687351" lon="10.847173"><ele>62.0</ele><time>2026-03-28T11:09:14.067Z</time></trkpt><trkpt lat="43.7686099" lon="10.8471821"><ele>62.0</ele><time>2026-03-28T11:09:16.067Z</time></trkpt><trkpt lat="43.7685465" lon="10.8471805"><ele>62.0</ele><time>2026-03-28T11:09:17.067Z</time></trkpt><trkpt lat="43.7684785" lon="10.8471811"><ele>62.00000000000001</ele><time>2026-03-28T11:09:18.066Z</time></trkpt><trkpt lat="43.7684128" lon="10.8471848"><ele>62.0</ele><time>2026-03-28T11:09:19.067Z</time></trkpt><trkpt lat="43.7682928" lon="10.8472128"><ele>62.66666666666667</ele><time>2026-03-28T11:09:21.067Z</time></trkpt><trkpt lat="43.7681808" lon="10.8472571"><ele>63.333333333333336</ele><time>2026-03-28T11:09:23.067Z</time></trkpt><trkpt lat="43.7680714" lon="10.8473143"><ele>64.0</ele><time>2026-03-28T11:09:25.067Z</time></trkpt><trkpt lat="43.7680095" lon="10.8473461"><ele>64.66666666666667</ele><time>2026-03-28T11:09:26.067Z</time></trkpt><trkpt lat="43.7679485" lon="10.8473746"><ele>65.33333333333333</ele><time>2026-03-28T11:09:27.067Z</time></trkpt><trkpt lat="43.7678871" lon="10.8473958"><ele>66.0</ele><time>2026-03-28T11:09:28.067Z</time></trkpt><trkpt lat="43.7678173" lon="10.8474037"><ele>66.0</ele><time>2026-03-28T11:09:29.067Z</time></trkpt><trkpt lat="43.7677386" lon="10.8474166"><ele>66.0</ele><time>2026-03-28T11:09:30.066Z</time></trkpt><trkpt lat="43.7676609" lon="10.8474304"><ele>66.0</ele><time>2026-03-28T11:09:31.067Z</time></trkpt><trkpt lat="43.7675874" lon="10.847435"><ele>66.0</ele><time>2026-03-28T11:09:32.066Z</time></trkpt><trkpt lat="43.7675155" lon="10.8474492"><ele>66.0</ele><time>2026-03-28T11:09:33.067Z</time></trkpt><trkpt lat="43.7674474" lon="10.8474778"><ele>66.0</ele><time>2026-03-28T11:09:34.067Z</time></trkpt><trkpt lat="43.7673863" lon="10.8475173"><ele>66.0</ele><time>2026-03-28T11:09:35.067Z</time></trkpt><trkpt lat="43.7673292" lon="10.8475604"><ele>66.0</ele><time>2026-03-28T11:09:36.067Z</time></trkpt><trkpt lat="43.7672654" lon="10.8476048"><ele>66.0</ele><time>2026-03-28T11:09:37.067Z</time></trkpt><trkpt lat="43.7672024" lon="10.8476492"><ele>66.0</ele><time>2026-03-28T11:09:38.067Z</time></trkpt><trkpt lat="43.7671478" lon="10.8476986"><ele>66.0</ele><time>2026-03-28T11:09:39.067Z</time></trkpt><trkpt lat="43.7670473" lon="10.8477934"><ele>66.0</ele><time>2026-03-28T11:09:41.067Z</time></trkpt><trkpt lat="43.7669605" lon="10.8478853"><ele>66.0</ele><time>2026-03-28T11:09:43.066Z</time></trkpt><trkpt lat="43.7668844" lon="10.8479797"><ele>65.5</ele><time>2026-03-28T11:09:45.067Z</time></trkpt><trkpt lat="43.7668072" lon="10.8480932"><ele>65.0</ele><time>2026-03-28T11:09:47.066Z</time></trkpt><trkpt lat="43.7667077" lon="10.848194"><ele>64.5</ele><time>2026-03-28T11:09:49.067Z</time></trkpt><trkpt lat="43.7666541" lon="10.8482532"><ele>64.0</ele><time>2026-03-28T11:09:50.066Z</time></trkpt><trkpt lat="43.766606" lon="10.8483113"><ele>63.5</ele><time>2026-03-28T11:09:51.067Z</time></trkpt><trkpt lat="43.7665583" lon="10.8483696"><ele>63.0</ele><time>2026-03-28T11:09:52.067Z</time></trkpt><trkpt lat="43.7665041" lon="10.8484354"><ele>63.0</ele><time>2026-03-28T11:09:53.067Z</time></trkpt><trkpt lat="43.766453" lon="10.8485033"><ele>63.0</ele><time>2026-03-28T11:09:54.067Z</time></trkpt><trkpt lat="43.766406" lon="10.8485654"><ele>63.0</ele><time>2026-03-28T11:09:55.067Z</time></trkpt><trkpt lat="43.7663519" lon="10.8486222"><ele>63.0</ele><time>2026-03-28T11:09:56.066Z</time></trkpt><trkpt lat="43.7662565" lon="10.8487356"><ele>63.0</ele><time>2026-03-28T11:09:58.067Z</time></trkpt><trkpt lat="43.7662106" lon="10.848796"><ele>63.0</ele><time>2026-03-28T11:09:59.067Z</time></trkpt><trkpt lat="43.7661569" lon="10.848847"><ele>63.0</ele><time>2026-03-28T11:10:00.066Z</time></trkpt><trkpt lat="43.7660885" lon="10.8488858"><ele>63.0</ele><time>2026-03-28T11:10:01.066Z</time></trkpt><trkpt lat="43.7660052" lon="10.8489111"><ele>63.0</ele><time>2026-03-28T11:10:02.067Z</time></trkpt><trkpt lat="43.7659064" lon="10.8489234"><ele>63.0</ele><time>2026-03-28T11:10:03.067Z</time></trkpt><trkpt lat="43.765805" lon="10.8489297"><ele>63.0</ele><time>2026-03-28T11:10:04.067Z</time></trkpt><trkpt lat="43.765716" lon="10.8489346"><ele>63.0</ele><time>2026-03-28T11:10:05.067Z</time></trkpt><trkpt lat="43.76564" lon="10.8489367"><ele>65.16666666666667</ele><time>2026-03-28T11:10:06.067Z</time></trkpt><trkpt lat="43.7655575" lon="10.8489143"><ele>67.33333333333333</ele><time>2026-03-28T11:10:07.066Z</time></trkpt><trkpt lat="43.7654689" lon="10.8488802"><ele>69.5</ele><time>2026-03-28T11:10:08.067Z</time></trkpt><trkpt lat="43.7653839" lon="10.8488557"><ele>71.66666666666666</ele><time>2026-03-28T11:10:09.066Z</time></trkpt><trkpt lat="43.7653064" lon="10.8488514"><ele>73.83333333333333</ele><time>2026-03-28T11:10:10.067Z</time></trkpt><trkpt lat="43.7652385" lon="10.8488684"><ele>76.0</ele><time>2026-03-28T11:10:11.066Z</time></trkpt><trkpt lat="43.7651716" lon="10.8488931"><ele>77.14285714285714</ele><time>2026-03-28T11:10:12.067Z</time></trkpt><trkpt lat="43.76511" lon="10.8489324"><ele>78.28571428571429</ele><time>2026-03-28T11:10:13.067Z</time></trkpt><trkpt lat="43.7650513" lon="10.8489839"><ele>79.42857142857143</ele><time>2026-03-28T11:10:14.067Z</time></trkpt><trkpt lat="43.7649916" lon="10.8490324"><ele>80.57142857142857</ele><time>2026-03-28T11:10:15.066Z</time></trkpt><trkpt lat="43.7649303" lon="10.8490677"><ele>81.71428571428572</ele><time>2026-03-28T11:10:16.067Z</time></trkpt><trkpt lat="43.7648693" lon="10.849098"><ele>82.85714285714286</ele><time>2026-03-28T11:10:17.067Z</time></trkpt><trkpt lat="43.7648045" lon="10.849123"><ele>84.0</ele><time>2026-03-28T11:10:18.066Z</time></trkpt><trkpt lat="43.7647367" lon="10.8491573"><ele>84.0</ele><time>2026-03-28T11:10:19.067Z</time></trkpt><trkpt lat="43.7646659" lon="10.8491941"><ele>84.0</ele><time>2026-03-28T11:10:20.067Z</time></trkpt><trkpt lat="43.7645896" lon="10.8492378"><ele>84.0</ele><time>2026-03-28T11:10:21.066Z</time></trkpt><trkpt lat="43.7645149" lon="10.8492824"><ele>84.0</ele><time>2026-03-28T11:10:22.067Z</time></trkpt><trkpt lat="43.7644397" lon="10.8493213"><ele>84.0</ele><time>2026-03-28T11:10:23.067Z</time></trkpt><trkpt lat="43.7643747" lon="10.8493598"><ele>84.0</ele><time>2026-03-28T11:10:24.066Z</time></trkpt><trkpt lat="43.7643051" lon="10.8493892"><ele>84.5</ele><time>2026-03-28T11:10:25.067Z</time></trkpt><trkpt lat="43.7642393" lon="10.849415"><ele>85.0</ele><time>2026-03-28T11:10:26.067Z</time></trkpt><trkpt lat="43.7641383" lon="10.8494554"><ele>85.5</ele><time>2026-03-28T11:10:28.067Z</time></trkpt><trkpt lat="43.7640715" lon="10.8495274"><ele>86.0</ele><time>2026-03-28T11:10:31.066Z</time></trkpt><trkpt lat="43.7639981" lon="10.8495571"><ele>86.5</ele><time>2026-03-28T11:10:34.066Z</time></trkpt><trkpt lat="43.7639501" lon="10.8494923"><ele>87.0</ele><time>2026-03-28T11:10:36.067Z</time></trkpt><trkpt lat="43.7638779" lon="10.8494468"><ele>87.0</ele><time>2026-03-28T11:10:40.14Z</time></trkpt><trkpt lat="43.7638639" lon="10.8493125"><ele>87.0</ele><time>2026-03-28T11:10:44.008Z</time></trkpt><trkpt lat="43.7638389" lon="10.8492266"><ele>87.0</ele><time>2026-03-28T11:10:45.067Z</time></trkpt><trkpt lat="43.7637509" lon="10.8491153"><ele>87.0</ele><time>2026-03-28T11:10:47.067Z</time></trkpt><trkpt lat="43.763625" lon="10.8490467"><ele>87.0</ele><time>2026-03-28T11:10:49.067Z</time></trkpt><trkpt lat="43.7635233" lon="10.8490167"><ele>87.19999999999999</ele><time>2026-03-28T11:10:51.067Z</time></trkpt><trkpt lat="43.7634217" lon="10.8490083"><ele>87.4</ele><time>2026-03-28T11:10:53.067Z</time></trkpt><trkpt lat="43.7633317" lon="10.848985"><ele>87.6</ele><time>2026-03-28T11:10:55.067Z</time></trkpt><trkpt lat="43.7632233" lon="10.8489667"><ele>87.80000000000001</ele><time>2026-03-28T11:10:57.067Z</time></trkpt><trkpt lat="43.7631317" lon="10.8489483"><ele>88.0</ele><time>2026-03-28T11:10:59.067Z</time></trkpt><trkpt lat="43.76307" lon="10.8489917"><ele>88.0</ele><time>2026-03-28T11:11:02.067Z</time></trkpt><trkpt lat="43.7630633" lon="10.849105"><ele>88.0</ele><time>2026-03-28T11:11:04.066Z</time></trkpt><trkpt lat="43.7630717" lon="10.84929"><ele>88.0</ele><time>2026-03-28T11:11:06.067Z</time></trkpt><trkpt lat="43.7630767" lon="10.84941"><ele>88.0</ele><time>2026-03-28T11:11:07.067Z</time></trkpt><trkpt lat="43.763075" lon="10.8495483"><ele>88.0</ele><time>2026-03-28T11:11:08.066Z</time></trkpt><trkpt lat="43.76306" lon="10.8496867"><ele>87.4</ele><time>2026-03-28T11:11:09.066Z</time></trkpt><trkpt lat="43.7630317" lon="10.8498267"><ele>86.80000000000001</ele><time>2026-03-28T11:11:10.067Z</time></trkpt><trkpt lat="43.7629933" lon="10.849965"><ele>86.2</ele><time>2026-03-28T11:11:11.066Z</time></trkpt><trkpt lat="43.762935" lon="10.8500983"><ele>85.6</ele><time>2026-03-28T11:11:12.067Z</time></trkpt><trkpt lat="43.7628633" lon="10.8502233"><ele>85.0</ele><time>2026-03-28T11:11:13.067Z</time></trkpt><trkpt lat="43.7627867" lon="10.8503383"><ele>84.2</ele><time>2026-03-28T11:11:14.067Z</time></trkpt><trkpt lat="43.76271" lon="10.850455"><ele>83.4</ele><time>2026-03-28T11:11:15.067Z</time></trkpt><trkpt lat="43.7626383" lon="10.85058"><ele>82.6</ele><time>2026-03-28T11:11:16.067Z</time></trkpt><trkpt lat="43.7625883" lon="10.8507083"><ele>81.8</ele><time>2026-03-28T11:11:17.067Z</time></trkpt><trkpt lat="43.762555" lon="10.8508317"><ele>81.0</ele><time>2026-03-28T11:11:18.067Z</time></trkpt><trkpt lat="43.7625433" lon="10.8509733"><ele>80.25</ele><time>2026-03-28T11:11:19.067Z</time></trkpt><trkpt lat="43.7625483" lon="10.8511167"><ele>79.5</ele><time>2026-03-28T11:11:20.066Z</time></trkpt><trkpt lat="43.7625683" lon="10.851285"><ele>78.75</ele><time>2026-03-28T11:11:21.067Z</time></trkpt><trkpt lat="43.7625917" lon="10.85146"><ele>78.0</ele><time>2026-03-28T11:11:22.067Z</time></trkpt><trkpt lat="43.7626133" lon="10.85164"><ele>77.5</ele><time>2026-03-28T11:11:23.067Z</time></trkpt><trkpt lat="43.7626333" lon="10.85181"><ele>77.0</ele><time>2026-03-28T11:11:24.067Z</time></trkpt><trkpt lat="43.76265" lon="10.8519717"><ele>76.5</ele><time>2026-03-28T11:11:25.067Z</time></trkpt><trkpt lat="43.7626633" lon="10.8521283"><ele>76.0</ele><time>2026-03-28T11:11:26.067Z</time></trkpt><trkpt lat="43.762665" lon="10.8522867"><ele>76.0</ele><time>2026-03-28T11:11:27.066Z</time></trkpt><trkpt lat="43.7626667" lon="10.8524433"><ele>76.0</ele><time>2026-03-28T11:11:28.067Z</time></trkpt><trkpt lat="43.76266" lon="10.8526"><ele>76.0</ele><time>2026-03-28T11:11:29.066Z</time></trkpt><trkpt lat="43.7626367" lon="10.8527533"><ele>76.0</ele><time>2026-03-28T11:11:30.067Z</time></trkpt><trkpt lat="43.7626067" lon="10.85291"><ele>76.8</ele><time>2026-03-28T11:11:31.066Z</time></trkpt><trkpt lat="43.762575" lon="10.85306"><ele>77.6</ele><time>2026-03-28T11:11:32.067Z</time></trkpt><trkpt lat="43.7625267" lon="10.8531933"><ele>78.4</ele><time>2026-03-28T11:11:33.067Z</time></trkpt><trkpt lat="43.762475" lon="10.8533167"><ele>79.2</ele><time>2026-03-28T11:11:34.067Z</time></trkpt><trkpt lat="43.76241" lon="10.85343"><ele>80.0</ele><time>2026-03-28T11:11:35.067Z</time></trkpt><trkpt lat="43.7623383" lon="10.85354"><ele>80.4</ele><time>2026-03-28T11:11:36.067Z</time></trkpt><trkpt lat="43.762265" lon="10.85365"><ele>80.8</ele><time>2026-03-28T11:11:37.067Z</time></trkpt><trkpt lat="43.7621883" lon="10.8537567"><ele>81.19999999999999</ele><time>2026-03-28T11:11:38.066Z</time></trkpt><trkpt lat="43.7621017" lon="10.853855"><ele>81.6</ele><time>2026-03-28T11:11:39.067Z</time></trkpt><trkpt lat="43.762" lon="10.8539417"><ele>82.0</ele><time>2026-03-28T11:11:40.067Z</time></trkpt><trkpt lat="43.7619" lon="10.85402"><ele>82.39999999999999</ele><time>2026-03-28T11:11:41.067Z</time></trkpt><trkpt lat="43.7618017" lon="10.8540933"><ele>82.8</ele><time>2026-03-28T11:11:42.067Z</time></trkpt><trkpt lat="43.76171" lon="10.8541733"><ele>83.2</ele><time>2026-03-28T11:11:43.067Z</time></trkpt><trkpt lat="43.7616167" lon="10.8542417"><ele>83.6</ele><time>2026-03-28T11:11:44.066Z</time></trkpt><trkpt lat="43.7615183" lon="10.8543117"><ele>84.0</ele><time>2026-03-28T11:11:45.067Z</time></trkpt><trkpt lat="43.761415" lon="10.8543717"><ele>84.0</ele><time>2026-03-28T11:11:46.067Z</time></trkpt><trkpt lat="43.761305" lon="10.8544233"><ele>84.0</ele><time>2026-03-28T11:11:47.067Z</time></trkpt><trkpt lat="43.7611933" lon="10.8544717"><ele>84.0</ele><time>2026-03-28T11:11:48.067Z</time></trkpt><trkpt lat="43.7610817" lon="10.8545183"><ele>84.0</ele><time>2026-03-28T11:11:49.066Z</time></trkpt><trkpt lat="43.7609767" lon="10.854565"><ele>84.0</ele><time>2026-03-28T11:11:50.067Z</time></trkpt><trkpt lat="43.7608667" lon="10.8546167"><ele>84.0</ele><time>2026-03-28T11:11:51.067Z</time></trkpt><trkpt lat="43.76076" lon="10.8546683"><ele>84.0</ele><time>2026-03-28T11:11:52.067Z</time></trkpt><trkpt lat="43.7606517" lon="10.8547117"><ele>84.0</ele><time>2026-03-28T11:11:53.067Z</time></trkpt><trkpt lat="43.7605367" lon="10.854755"><ele>84.0</ele><time>2026-03-28T11:11:54.067Z</time></trkpt><trkpt lat="43.7604267" lon="10.8548017"><ele>84.0</ele><time>2026-03-28T11:11:55.066Z</time></trkpt><trkpt lat="43.7603133" lon="10.8548567"><ele>84.0</ele><time>2026-03-28T11:11:56.067Z</time></trkpt><trkpt lat="43.760205" lon="10.8549167"><ele>84.0</ele><time>2026-03-28T11:11:57.067Z</time></trkpt><trkpt lat="43.7600983" lon="10.8549917"><ele>83.75</ele><time>2026-03-28T11:11:58.066Z</time></trkpt><trkpt lat="43.759995" lon="10.8550767"><ele>83.5</ele><time>2026-03-28T11:11:59.067Z</time></trkpt><trkpt lat="43.7598983" lon="10.8551683"><ele>83.25</ele><time>2026-03-28T11:12:00.067Z</time></trkpt><trkpt lat="43.7598033" lon="10.8552867"><ele>83.0</ele><time>2026-03-28T11:12:01.067Z</time></trkpt><trkpt lat="43.7597167" lon="10.855415"><ele>83.0</ele><time>2026-03-28T11:12:02.067Z</time></trkpt><trkpt lat="43.7596417" lon="10.85556"><ele>83.0</ele><time>2026-03-28T11:12:03.066Z</time></trkpt><trkpt lat="43.7595667" lon="10.8557"><ele>83.0</ele><time>2026-03-28T11:12:04.067Z</time></trkpt><trkpt lat="43.7595" lon="10.855855"><ele>83.0</ele><time>2026-03-28T11:12:05.067Z</time></trkpt><trkpt lat="43.7594433" lon="10.8560117"><ele>81.5</ele><time>2026-03-28T11:12:06.067Z</time></trkpt><trkpt lat="43.7593917" lon="10.8561767"><ele>80.0</ele><time>2026-03-28T11:12:07.067Z</time></trkpt><trkpt lat="43.7593567" lon="10.85635"><ele>78.5</ele><time>2026-03-28T11:12:08.067Z</time></trkpt><trkpt lat="43.759325" lon="10.85652"><ele>77.0</ele><time>2026-03-28T11:12:09.067Z</time></trkpt><trkpt lat="43.759295" lon="10.8566867"><ele>80.75</ele><time>2026-03-28T11:12:10.066Z</time></trkpt><trkpt lat="43.7592633" lon="10.8568533"><ele>84.5</ele><time>2026-03-28T11:12:11.067Z</time></trkpt><trkpt lat="43.759235" lon="10.857015"><ele>88.25</ele><time>2026-03-28T11:12:12.067Z</time></trkpt><trkpt lat="43.759205" lon="10.8571883"><ele>92.0</ele><time>2026-03-28T11:12:13.067Z</time></trkpt><trkpt lat="43.7591567" lon="10.85736"><ele>92.0</ele><time>2026-03-28T11:12:14.066Z</time></trkpt><trkpt lat="43.7591217" lon="10.85753"><ele>92.0</ele><time>2026-03-28T11:12:15.067Z</time></trkpt><trkpt lat="43.7590867" lon="10.8577017"><ele>92.0</ele><time>2026-03-28T11:12:16.067Z</time></trkpt><trkpt lat="43.7590467" lon="10.857855"><ele>92.0</ele><time>2026-03-28T11:12:17.066Z</time></trkpt><trkpt lat="43.7590133" lon="10.8579983"><ele>91.6</ele><time>2026-03-28T11:12:18.066Z</time></trkpt><trkpt lat="43.758975" lon="10.8581367"><ele>91.19999999999999</ele><time>2026-03-28T11:12:19.067Z</time></trkpt><trkpt lat="43.7589417" lon="10.8582683"><ele>90.8</ele><time>2026-03-28T11:12:20.066Z</time></trkpt><trkpt lat="43.7589117" lon="10.85839"><ele>90.4</ele><time>2026-03-28T11:12:21.067Z</time></trkpt><trkpt lat="43.758875" lon="10.8584933"><ele>90.0</ele><time>2026-03-28T11:12:22.067Z</time></trkpt><trkpt lat="43.7588317" lon="10.8585983"><ele>90.0</ele><time>2026-03-28T11:12:23.067Z</time></trkpt><trkpt lat="43.75879" lon="10.8586983"><ele>90.0</ele><time>2026-03-28T11:12:24.067Z</time></trkpt><trkpt lat="43.7587533" lon="10.858795"><ele>90.0</ele><time>2026-03-28T11:12:25.067Z</time></trkpt><trkpt lat="43.7587" lon="10.8589217"><ele>90.0</ele><time>2026-03-28T11:12:27.067Z</time></trkpt><trkpt lat="43.7586733" lon="10.85902"><ele>90.0</ele><time>2026-03-28T11:13:40.067Z</time></trkpt><trkpt lat="43.7586417" lon="10.8591283"><ele>90.0</ele><time>2026-03-28T11:13:42.067Z</time></trkpt><trkpt lat="43.7585717" lon="10.85926"><ele>89.83333333333333</ele><time>2026-03-28T11:13:44.066Z</time></trkpt><trkpt lat="43.7585317" lon="10.8593317"><ele>89.66666666666667</ele><time>2026-03-28T11:13:45.066Z</time></trkpt><trkpt lat="43.7584983" lon="10.85941"><ele>89.5</ele><time>2026-03-28T11:13:46.067Z</time></trkpt><trkpt lat="43.7584267" lon="10.859555"><ele>89.33333333333334</ele><time>2026-03-28T11:13:48.067Z</time></trkpt><trkpt lat="43.75839" lon="10.859635"><ele>89.16666666666667</ele><time>2026-03-28T11:13:49.067Z</time></trkpt><trkpt lat="43.7583467" lon="10.859715"><ele>89.0</ele><time>2026-03-28T11:13:50.067Z</time></trkpt><trkpt lat="43.7582883" lon="10.8597967"><ele>89.0</ele><time>2026-03-28T11:13:51.067Z</time></trkpt><trkpt lat="43.7582317" lon="10.8598783"><ele>89.0</ele><time>2026-03-28T11:13:52.067Z</time></trkpt><trkpt lat="43.758175" lon="10.8599633"><ele>89.0</ele><time>2026-03-28T11:13:53.066Z</time></trkpt><trkpt lat="43.7581317" lon="10.860065"><ele>89.0</ele><time>2026-03-28T11:13:54.066Z</time></trkpt><trkpt lat="43.7580883" lon="10.860155"><ele>89.0</ele><time>2026-03-28T11:13:55.066Z</time></trkpt><trkpt lat="43.7580367" lon="10.860245"><ele>89.0</ele><time>2026-03-28T11:13:56.067Z</time></trkpt><trkpt lat="43.7579817" lon="10.8603283"><ele>89.33333333333334</ele><time>2026-03-28T11:13:57.067Z</time></trkpt><trkpt lat="43.7579333" lon="10.8604133"><ele>89.66666666666667</ele><time>2026-03-28T11:13:58.067Z</time></trkpt><trkpt lat="43.75788" lon="10.8605017"><ele>90.0</ele><time>2026-03-28T11:13:59.067Z</time></trkpt><trkpt lat="43.7578217" lon="10.8605983"><ele>90.33333333333333</ele><time>2026-03-28T11:14:00.066Z</time></trkpt><trkpt lat="43.7577633" lon="10.8606917"><ele>90.66666666666666</ele><time>2026-03-28T11:14:01.067Z</time></trkpt><trkpt lat="43.757705" lon="10.860785"><ele>91.0</ele><time>2026-03-28T11:14:02.067Z</time></trkpt><trkpt lat="43.7576533" lon="10.860885"><ele>90.5</ele><time>2026-03-28T11:14:03.067Z</time></trkpt><trkpt lat="43.757595" lon="10.8609883"><ele>90.0</ele><time>2026-03-28T11:14:04.067Z</time></trkpt><trkpt lat="43.7575367" lon="10.8610933"><ele>89.5</ele><time>2026-03-28T11:14:05.067Z</time></trkpt><trkpt lat="43.7574817" lon="10.8611917"><ele>89.0</ele><time>2026-03-28T11:14:06.067Z</time></trkpt><trkpt lat="43.757435" lon="10.8612833"><ele>88.5</ele><time>2026-03-28T11:14:07.066Z</time></trkpt><trkpt lat="43.757385" lon="10.8613733"><ele>88.0</ele><time>2026-03-28T11:14:08.067Z</time></trkpt><trkpt lat="43.7573417" lon="10.8614533"><ele>88.0</ele><time>2026-03-28T11:14:09.067Z</time></trkpt><trkpt lat="43.7573067" lon="10.861535"><ele>88.0</ele><time>2026-03-28T11:14:11.066Z</time></trkpt><trkpt lat="43.7572633" lon="10.8616333"><ele>88.0</ele><time>2026-03-28T11:14:20.066Z</time></trkpt><trkpt lat="43.757225" lon="10.861705"><ele>88.0</ele><time>2026-03-28T11:14:21.067Z</time></trkpt><trkpt lat="43.7571867" lon="10.8617767"><ele>88.0</ele><time>2026-03-28T11:14:22.066Z</time></trkpt><trkpt lat="43.75715" lon="10.86186"><ele>88.0</ele><time>2026-03-28T11:14:23.066Z</time></trkpt><trkpt lat="43.7571133" lon="10.86195"><ele>88.0</ele><time>2026-03-28T11:14:24.067Z</time></trkpt><trkpt lat="43.7570767" lon="10.8620417"><ele>88.0</ele><time>2026-03-28T11:14:25.067Z</time></trkpt><trkpt lat="43.7570467" lon="10.8621367"><ele>88.0</ele><time>2026-03-28T11:14:26.067Z</time></trkpt><trkpt lat="43.7570217" lon="10.862235"><ele>88.0</ele><time>2026-03-28T11:14:27.066Z</time></trkpt><trkpt lat="43.7569967" lon="10.862335"><ele>88.0</ele><time>2026-03-28T11:14:28.066Z</time></trkpt><trkpt lat="43.75697" lon="10.862435"><ele>88.0</ele><time>2026-03-28T11:14:29.067Z</time></trkpt><trkpt lat="43.756945" lon="10.86254"><ele>88.0</ele><time>2026-03-28T11:14:30.067Z</time></trkpt><trkpt lat="43.7569183" lon="10.862645"><ele>88.0</ele><time>2026-03-28T11:14:31.066Z</time></trkpt><trkpt lat="43.7569033" lon="10.8627617"><ele>88.0</ele><time>2026-03-28T11:14:32.066Z</time></trkpt><trkpt lat="43.7568867" lon="10.8628833"><ele>88.0</ele><time>2026-03-28T11:14:33.066Z</time></trkpt><trkpt lat="43.7568683" lon="10.8630067"><ele>88.0</ele><time>2026-03-28T11:14:34.067Z</time></trkpt><trkpt lat="43.7568633" lon="10.8631333"><ele>88.0</ele><time>2026-03-28T11:14:35.067Z</time></trkpt><trkpt lat="43.756865" lon="10.8632617"><ele>88.60000000000001</ele><time>2026-03-28T11:14:36.067Z</time></trkpt><trkpt lat="43.756865" lon="10.8633817"><ele>89.2</ele><time>2026-03-28T11:14:37.067Z</time></trkpt><trkpt lat="43.7568633" lon="10.8635117"><ele>89.8</ele><time>2026-03-28T11:14:38.066Z</time></trkpt><trkpt lat="43.7568633" lon="10.863645"><ele>90.4</ele><time>2026-03-28T11:14:39.066Z</time></trkpt><trkpt lat="43.7568683" lon="10.8637817"><ele>91.0</ele><time>2026-03-28T11:14:40.067Z</time></trkpt><trkpt lat="43.7568717" lon="10.8639083"><ele>91.0</ele><time>2026-03-28T11:14:41.067Z</time></trkpt><trkpt lat="43.7568817" lon="10.864035"><ele>91.0</ele><time>2026-03-28T11:14:42.067Z</time></trkpt><trkpt lat="43.7568833" lon="10.8641733"><ele>91.0</ele><time>2026-03-28T11:14:43.067Z</time></trkpt><trkpt lat="43.7568883" lon="10.8643167"><ele>91.0</ele><time>2026-03-28T11:14:44.067Z</time></trkpt><trkpt lat="43.7568917" lon="10.8644667"><ele>91.0</ele><time>2026-03-28T11:14:45.067Z</time></trkpt><trkpt lat="43.7568983" lon="10.8646183"><ele>91.0</ele><time>2026-03-28T11:14:46.067Z</time></trkpt><trkpt lat="43.7569117" lon="10.86477"><ele>91.0</ele><time>2026-03-28T11:14:47.067Z</time></trkpt><trkpt lat="43.7569417" lon="10.8649217"><ele>91.0</ele><time>2026-03-28T11:14:48.067Z</time></trkpt><trkpt lat="43.756975" lon="10.8650717"><ele>91.0</ele><time>2026-03-28T11:14:49.067Z</time></trkpt><trkpt lat="43.757005" lon="10.86522"><ele>91.0</ele><time>2026-03-28T11:14:50.066Z</time></trkpt><trkpt lat="43.7570417" lon="10.8653583"><ele>91.6</ele><time>2026-03-28T11:14:51.067Z</time></trkpt><trkpt lat="43.7570833" lon="10.8655017"><ele>92.19999999999999</ele><time>2026-03-28T11:14:52.066Z</time></trkpt><trkpt lat="43.75714" lon="10.8656417"><ele>92.80000000000001</ele><time>2026-03-28T11:14:53.067Z</time></trkpt><trkpt lat="43.7571917" lon="10.8657783"><ele>93.4</ele><time>2026-03-28T11:14:54.066Z</time></trkpt><trkpt lat="43.7572533" lon="10.8659017"><ele>94.0</ele><time>2026-03-28T11:14:55.067Z</time></trkpt><trkpt lat="43.7573133" lon="10.8660283"><ele>94.4</ele><time>2026-03-28T11:14:56.067Z</time></trkpt><trkpt lat="43.757355" lon="10.8661567"><ele>94.80000000000001</ele><time>2026-03-28T11:14:57.067Z</time></trkpt><trkpt lat="43.7574217" lon="10.8662933"><ele>95.19999999999999</ele><time>2026-03-28T11:14:58.067Z</time></trkpt><trkpt lat="43.7574767" lon="10.86642"><ele>95.6</ele><time>2026-03-28T11:14:59.067Z</time></trkpt><trkpt lat="43.7575333" lon="10.8665517"><ele>96.0</ele><time>2026-03-28T11:15:00.067Z</time></trkpt><trkpt lat="43.7575883" lon="10.8666767"><ele>95.4</ele><time>2026-03-28T11:15:01.067Z</time></trkpt><trkpt lat="43.7576417" lon="10.8668033"><ele>94.8</ele><time>2026-03-28T11:15:02.067Z</time></trkpt><trkpt lat="43.7577033" lon="10.8669317"><ele>94.2</ele><time>2026-03-28T11:15:03.067Z</time></trkpt><trkpt lat="43.7577567" lon="10.8670517"><ele>93.60000000000001</ele><time>2026-03-28T11:15:04.067Z</time></trkpt><trkpt lat="43.757805" lon="10.8671633"><ele>93.0</ele><time>2026-03-28T11:15:05.067Z</time></trkpt><trkpt lat="43.7578417" lon="10.867265"><ele>92.2</ele><time>2026-03-28T11:15:06.067Z</time></trkpt><trkpt lat="43.7578717" lon="10.86736"><ele>91.4</ele><time>2026-03-28T11:15:07.067Z</time></trkpt><trkpt lat="43.7578883" lon="10.8674467"><ele>90.60000000000001</ele><time>2026-03-28T11:15:08.067Z</time></trkpt><trkpt lat="43.7579267" lon="10.8675883"><ele>89.80000000000001</ele><time>2026-03-28T11:15:10.067Z</time></trkpt><trkpt lat="43.7580133" lon="10.8677417"><ele>89.0</ele><time>2026-03-28T11:15:12.067Z</time></trkpt><trkpt lat="43.75806" lon="10.8678383"><ele>89.0</ele><time>2026-03-28T11:15:13.067Z</time></trkpt><trkpt lat="43.7581033" lon="10.8679367"><ele>89.0</ele><time>2026-03-28T11:15:14.067Z</time></trkpt><trkpt lat="43.7581483" lon="10.8680383"><ele>89.0</ele><time>2026-03-28T11:15:15.067Z</time></trkpt><trkpt lat="43.758185" lon="10.86816"><ele>89.0</ele><time>2026-03-28T11:15:16.066Z</time></trkpt><trkpt lat="43.7582317" lon="10.8682833"><ele>89.0</ele><time>2026-03-28T11:15:17.067Z</time></trkpt><trkpt lat="43.7582733" lon="10.8684117"><ele>89.0</ele><time>2026-03-28T11:15:18.067Z</time></trkpt><trkpt lat="43.7583217" lon="10.8685333"><ele>89.0</ele><time>2026-03-28T11:15:19.067Z</time></trkpt><trkpt lat="43.7583667" lon="10.8686667"><ele>89.0</ele><time>2026-03-28T11:15:20.067Z</time></trkpt><trkpt lat="43.7584083" lon="10.86881"><ele>89.0</ele><time>2026-03-28T11:15:21.066Z</time></trkpt><trkpt lat="43.75845" lon="10.8689583"><ele>89.0</ele><time>2026-03-28T11:15:22.067Z</time></trkpt><trkpt lat="43.7584917" lon="10.8691033"><ele>89.0</ele><time>2026-03-28T11:15:23.067Z</time></trkpt><trkpt lat="43.75853" lon="10.8692417"><ele>89.0</ele><time>2026-03-28T11:15:24.067Z</time></trkpt><trkpt lat="43.7585717" lon="10.8693733"><ele>89.0</ele><time>2026-03-28T11:15:25.067Z</time></trkpt><trkpt lat="43.7586083" lon="10.8695033"><ele>89.0</ele><time>2026-03-28T11:15:26.067Z</time></trkpt><trkpt lat="43.758645" lon="10.8696233"><ele>89.0</ele><time>2026-03-28T11:15:27.067Z</time></trkpt><trkpt lat="43.7586833" lon="10.8697383"><ele>89.4</ele><time>2026-03-28T11:15:28.067Z</time></trkpt><trkpt lat="43.758715" lon="10.8698467"><ele>89.80000000000001</ele><time>2026-03-28T11:15:29.066Z</time></trkpt><trkpt lat="43.75876" lon="10.869955"><ele>90.19999999999999</ele><time>2026-03-28T11:15:30.067Z</time></trkpt><trkpt lat="43.7588" lon="10.87007"><ele>90.6</ele><time>2026-03-28T11:15:31.066Z</time></trkpt><trkpt lat="43.7588467" lon="10.8701883"><ele>91.0</ele><time>2026-03-28T11:15:32.067Z</time></trkpt><trkpt lat="43.7588933" lon="10.8703083"><ele>91.0</ele><time>2026-03-28T11:15:33.067Z</time></trkpt><trkpt lat="43.7589467" lon="10.87042"><ele>91.0</ele><time>2026-03-28T11:15:34.066Z</time></trkpt><trkpt lat="43.7589983" lon="10.8705417"><ele>91.0</ele><time>2026-03-28T11:15:35.067Z</time></trkpt><trkpt lat="43.7590483" lon="10.87066"><ele>91.0</ele><time>2026-03-28T11:15:36.066Z</time></trkpt><trkpt lat="43.7590933" lon="10.8707833"><ele>91.0</ele><time>2026-03-28T11:15:37.066Z</time></trkpt><trkpt lat="43.7591533" lon="10.8709033"><ele>90.8</ele><time>2026-03-28T11:15:38.067Z</time></trkpt><trkpt lat="43.75921" lon="10.8710267"><ele>90.6</ele><time>2026-03-28T11:15:39.066Z</time></trkpt><trkpt lat="43.7592617" lon="10.8711517"><ele>90.4</ele><time>2026-03-28T11:15:40.067Z</time></trkpt><trkpt lat="43.7593217" lon="10.87128"><ele>90.2</ele><time>2026-03-28T11:15:41.067Z</time></trkpt><trkpt lat="43.7593783" lon="10.871405"><ele>90.0</ele><time>2026-03-28T11:15:42.067Z</time></trkpt><trkpt lat="43.7594317" lon="10.8715333"><ele>90.2</ele><time>2026-03-28T11:15:43.067Z</time></trkpt><trkpt lat="43.7594883" lon="10.8716667"><ele>90.4</ele><time>2026-03-28T11:15:44.067Z</time></trkpt><trkpt lat="43.7595467" lon="10.871795"><ele>90.6</ele><time>2026-03-28T11:15:45.066Z</time></trkpt><trkpt lat="43.7596033" lon="10.8719317"><ele>90.8</ele><time>2026-03-28T11:15:46.067Z</time></trkpt><trkpt lat="43.75966" lon="10.8720667"><ele>91.0</ele><time>2026-03-28T11:15:47.067Z</time></trkpt><trkpt lat="43.7597217" lon="10.872195"><ele>91.0</ele><time>2026-03-28T11:15:48.067Z</time></trkpt><trkpt lat="43.75978" lon="10.8723233"><ele>91.0</ele><time>2026-03-28T11:15:49.067Z</time></trkpt><trkpt lat="43.7598383" lon="10.8724517"><ele>91.0</ele><time>2026-03-28T11:15:50.066Z</time></trkpt><trkpt lat="43.7598967" lon="10.87258"><ele>91.0</ele><time>2026-03-28T11:15:51.066Z</time></trkpt><trkpt lat="43.75996" lon="10.872715"><ele>91.0</ele><time>2026-03-28T11:15:52.067Z</time></trkpt><trkpt lat="43.7600217" lon="10.872845"><ele>90.4</ele><time>2026-03-28T11:15:53.067Z</time></trkpt><trkpt lat="43.7600717" lon="10.87297"><ele>89.8</ele><time>2026-03-28T11:15:54.066Z</time></trkpt><trkpt lat="43.7601233" lon="10.8730883"><ele>89.2</ele><time>2026-03-28T11:15:55.067Z</time></trkpt><trkpt lat="43.760175" lon="10.87321"><ele>88.60000000000001</ele><time>2026-03-28T11:15:56.066Z</time></trkpt><trkpt lat="43.7602283" lon="10.8733233"><ele>88.0</ele><time>2026-03-28T11:15:57.066Z</time></trkpt><trkpt lat="43.7602667" lon="10.8734183"><ele>88.0</ele><time>2026-03-28T11:15:58.066Z</time></trkpt><trkpt lat="43.760305" lon="10.8734983"><ele>88.0</ele><time>2026-03-28T11:15:59.067Z</time></trkpt><trkpt lat="43.7603767" lon="10.8736033"><ele>88.0</ele><time>2026-03-28T11:16:01.067Z</time></trkpt><trkpt lat="43.7604367" lon="10.8736567"><ele>88.0</ele><time>2026-03-28T11:16:03.067Z</time></trkpt><trkpt lat="43.7604817" lon="10.8737583"><ele>88.0</ele><time>2026-03-28T11:16:05.067Z</time></trkpt><trkpt lat="43.7604983" lon="10.8738433"><ele>88.0</ele><time>2026-03-28T11:16:06.067Z</time></trkpt><trkpt lat="43.7605183" lon="10.8739417"><ele>88.0</ele><time>2026-03-28T11:16:07.067Z</time></trkpt><trkpt lat="43.7605433" lon="10.87405"><ele>88.0</ele><time>2026-03-28T11:16:08.067Z</time></trkpt><trkpt lat="43.76057" lon="10.8741617"><ele>88.0</ele><time>2026-03-28T11:16:09.066Z</time></trkpt><trkpt lat="43.7606017" lon="10.8742783"><ele>88.0</ele><time>2026-03-28T11:16:10.067Z</time></trkpt><trkpt lat="43.7606333" lon="10.8744067"><ele>88.0</ele><time>2026-03-28T11:16:11.067Z</time></trkpt><trkpt lat="43.7606617" lon="10.8745367"><ele>89.0</ele><time>2026-03-28T11:16:12.067Z</time></trkpt><trkpt lat="43.7607017" lon="10.87467"><ele>90.0</ele><time>2026-03-28T11:16:13.067Z</time></trkpt><trkpt lat="43.760745" lon="10.8748"><ele>91.0</ele><time>2026-03-28T11:16:14.066Z</time></trkpt><trkpt lat="43.760785" lon="10.8749333"><ele>92.0</ele><time>2026-03-28T11:16:15.067Z</time></trkpt><trkpt lat="43.7608167" lon="10.875075"><ele>93.0</ele><time>2026-03-28T11:16:16.066Z</time></trkpt><trkpt lat="43.7608417" lon="10.8752083"><ele>93.60000000000001</ele><time>2026-03-28T11:16:17.067Z</time></trkpt><trkpt lat="43.7608617" lon="10.87534"><ele>94.2</ele><time>2026-03-28T11:16:18.066Z</time></trkpt><trkpt lat="43.7608733" lon="10.87548"><ele>94.8</ele><time>2026-03-28T11:16:19.067Z</time></trkpt><trkpt lat="43.760875" lon="10.8756217"><ele>95.4</ele><time>2026-03-28T11:16:20.066Z</time></trkpt><trkpt lat="43.760885" lon="10.8757533"><ele>96.0</ele><time>2026-03-28T11:16:21.067Z</time></trkpt><trkpt lat="43.76091" lon="10.8758817"><ele>95.6</ele><time>2026-03-28T11:16:22.067Z</time></trkpt><trkpt lat="43.7609367" lon="10.876"><ele>95.19999999999999</ele><time>2026-03-28T11:16:23.067Z</time></trkpt><trkpt lat="43.7609433" lon="10.8761117"><ele>94.80000000000001</ele><time>2026-03-28T11:16:24.067Z</time></trkpt><trkpt lat="43.760935" lon="10.87624"><ele>94.4</ele><time>2026-03-28T11:16:25.067Z</time></trkpt><trkpt lat="43.7608983" lon="10.8763767"><ele>94.0</ele><time>2026-03-28T11:16:26.066Z</time></trkpt><trkpt lat="43.760845" lon="10.87651"><ele>94.0</ele><time>2026-03-28T11:16:27.067Z</time></trkpt><trkpt lat="43.7607767" lon="10.8766633"><ele>94.0</ele><time>2026-03-28T11:16:28.067Z</time></trkpt><trkpt lat="43.7607083" lon="10.8767967"><ele>94.0</ele><time>2026-03-28T11:16:29.066Z</time></trkpt><trkpt lat="43.7606383" lon="10.876925"><ele>94.0</ele><time>2026-03-28T11:16:30.067Z</time></trkpt><trkpt lat="43.7605717" lon="10.8770533"><ele>92.75</ele><time>2026-03-28T11:16:31.067Z</time></trkpt><trkpt lat="43.7604967" lon="10.8771833"><ele>91.5</ele><time>2026-03-28T11:16:32.067Z</time></trkpt><trkpt lat="43.7604233" lon="10.8773117"><ele>90.25</ele><time>2026-03-28T11:16:33.067Z</time></trkpt><trkpt lat="43.7603517" lon="10.8774417"><ele>89.0</ele><time>2026-03-28T11:16:34.067Z</time></trkpt><trkpt lat="43.7602767" lon="10.877575"><ele>87.75</ele><time>2026-03-28T11:16:35.067Z</time></trkpt><trkpt lat="43.7602033" lon="10.8777067"><ele>86.5</ele><time>2026-03-28T11:16:36.067Z</time></trkpt><trkpt lat="43.7601383" lon="10.8778383"><ele>85.25</ele><time>2026-03-28T11:16:37.067Z</time></trkpt><trkpt lat="43.7600817" lon="10.8779733"><ele>84.0</ele><time>2026-03-28T11:16:38.066Z</time></trkpt><trkpt lat="43.760035" lon="10.8781133"><ele>88.0</ele><time>2026-03-28T11:16:39.066Z</time></trkpt><trkpt lat="43.7599967" lon="10.8782617"><ele>92.0</ele><time>2026-03-28T11:16:40.067Z</time></trkpt><trkpt lat="43.7599767" lon="10.8784233"><ele>96.0</ele><time>2026-03-28T11:16:41.067Z</time></trkpt><trkpt lat="43.7599533" lon="10.87859"><ele>100.0</ele><time>2026-03-28T11:16:42.066Z</time></trkpt><trkpt lat="43.759955" lon="10.8787433"><ele>100.25</ele><time>2026-03-28T11:16:43.066Z</time></trkpt><trkpt lat="43.75995" lon="10.8789033"><ele>100.5</ele><time>2026-03-28T11:16:44.067Z</time></trkpt><trkpt lat="43.7599517" lon="10.8790717"><ele>100.75</ele><time>2026-03-28T11:16:45.066Z</time></trkpt><trkpt lat="43.7599467" lon="10.879235"><ele>101.0</ele><time>2026-03-28T11:16:46.067Z</time></trkpt><trkpt lat="43.7599367" lon="10.879395"><ele>101.19999999999999</ele><time>2026-03-28T11:16:47.067Z</time></trkpt><trkpt lat="43.7599267" lon="10.879545"><ele>101.39999999999999</ele><time>2026-03-28T11:16:48.066Z</time></trkpt><trkpt lat="43.7599117" lon="10.8796783"><ele>101.6</ele><time>2026-03-28T11:16:49.067Z</time></trkpt><trkpt lat="43.7598883" lon="10.8797983"><ele>101.8</ele><time>2026-03-28T11:16:50.066Z</time></trkpt><trkpt lat="43.759865" lon="10.8799167"><ele>102.0</ele><time>2026-03-28T11:16:51.067Z</time></trkpt><trkpt lat="43.75986" lon="10.8800117"><ele>101.5</ele><time>2026-03-28T11:16:52.066Z</time></trkpt><trkpt lat="43.7598283" lon="10.8801117"><ele>101.0</ele><time>2026-03-28T11:16:54.067Z</time></trkpt><trkpt lat="43.759795" lon="10.8802033"><ele>100.5</ele><time>2026-03-28T11:16:57.067Z</time></trkpt><trkpt lat="43.75985" lon="10.880295"><ele>100.0</ele><time>2026-03-28T11:16:59.067Z</time></trkpt><trkpt lat="43.7599433" lon="10.8803533"><ele>99.5</ele><time>2026-03-28T11:17:01.067Z</time></trkpt><trkpt lat="43.7600117" lon="10.8803767"><ele>99.0</ele><time>2026-03-28T11:17:02.066Z</time></trkpt><trkpt lat="43.7600867" lon="10.88041"><ele>99.0</ele><time>2026-03-28T11:17:03.066Z</time></trkpt><trkpt lat="43.7601667" lon="10.8804433"><ele>99.0</ele><time>2026-03-28T11:17:04.067Z</time></trkpt><trkpt lat="43.7602483" lon="10.8804883"><ele>99.0</ele><time>2026-03-28T11:17:05.067Z</time></trkpt><trkpt lat="43.7603333" lon="10.8805383"><ele>99.0</ele><time>2026-03-28T11:17:06.067Z</time></trkpt><trkpt lat="43.7604183" lon="10.8805833"><ele>99.0</ele><time>2026-03-28T11:17:07.067Z</time></trkpt><trkpt lat="43.7605017" lon="10.880635"><ele>99.0</ele><time>2026-03-28T11:17:08.067Z</time></trkpt><trkpt lat="43.7605867" lon="10.8806883"><ele>97.80000000000001</ele><time>2026-03-28T11:17:09.067Z</time></trkpt><trkpt lat="43.7606683" lon="10.8807417"><ele>96.60000000000001</ele><time>2026-03-28T11:17:10.066Z</time></trkpt><trkpt lat="43.7607433" lon="10.8808067"><ele>95.4</ele><time>2026-03-28T11:17:11.067Z</time></trkpt><trkpt lat="43.7608283" lon="10.8808683"><ele>94.2</ele><time>2026-03-28T11:17:12.067Z</time></trkpt><trkpt lat="43.7609083" lon="10.88092"><ele>93.0</ele><time>2026-03-28T11:17:13.066Z</time></trkpt><trkpt lat="43.7609917" lon="10.8809783"><ele>92.0</ele><time>2026-03-28T11:17:14.067Z</time></trkpt><trkpt lat="43.76107" lon="10.881035"><ele>91.0</ele><time>2026-03-28T11:17:15.067Z</time></trkpt><trkpt lat="43.7611517" lon="10.88109"><ele>90.0</ele><time>2026-03-28T11:17:16.066Z</time></trkpt><trkpt lat="43.7612233" lon="10.8811583"><ele>89.0</ele><time>2026-03-28T11:17:17.066Z</time></trkpt><trkpt lat="43.7612917" lon="10.8812333"><ele>88.0</ele><time>2026-03-28T11:17:18.067Z</time></trkpt><trkpt lat="43.761365" lon="10.8813067"><ele>87.0</ele><time>2026-03-28T11:17:19.066Z</time></trkpt><trkpt lat="43.7614233" lon="10.8813917"><ele>87.0</ele><time>2026-03-28T11:17:20.067Z</time></trkpt><trkpt lat="43.7614933" lon="10.8814783"><ele>87.0</ele><time>2026-03-28T11:17:21.067Z</time></trkpt><trkpt lat="43.761565" lon="10.8815717"><ele>87.0</ele><time>2026-03-28T11:17:22.066Z</time></trkpt><trkpt lat="43.7616417" lon="10.8816717"><ele>87.0</ele><time>2026-03-28T11:17:23.067Z</time></trkpt><trkpt lat="43.7617183" lon="10.8817667"><ele>87.0</ele><time>2026-03-28T11:17:24.066Z</time></trkpt><trkpt lat="43.761795" lon="10.8818683"><ele>87.6</ele><time>2026-03-28T11:17:25.067Z</time></trkpt><trkpt lat="43.7618717" lon="10.8819733"><ele>88.19999999999999</ele><time>2026-03-28T11:17:26.066Z</time></trkpt><trkpt lat="43.76195" lon="10.882075"><ele>88.8</ele><time>2026-03-28T11:17:27.067Z</time></trkpt><trkpt lat="43.76203" lon="10.8821817"><ele>89.4</ele><time>2026-03-28T11:17:28.066Z</time></trkpt><trkpt lat="43.7621083" lon="10.8822883"><ele>90.0</ele><time>2026-03-28T11:17:29.067Z</time></trkpt><trkpt lat="43.7621867" lon="10.882385"><ele>90.0</ele><time>2026-03-28T11:17:30.066Z</time></trkpt><trkpt lat="43.7622717" lon="10.8824883"><ele>90.0</ele><time>2026-03-28T11:17:31.066Z</time></trkpt><trkpt lat="43.7623717" lon="10.8825883"><ele>90.0</ele><time>2026-03-28T11:17:32.067Z</time></trkpt><trkpt lat="43.7624483" lon="10.882695"><ele>90.0</ele><time>2026-03-28T11:17:33.067Z</time></trkpt><trkpt lat="43.7625267" lon="10.8828067"><ele>90.0</ele><time>2026-03-28T11:17:34.066Z</time></trkpt><trkpt lat="43.7626017" lon="10.882915"><ele>90.0</ele><time>2026-03-28T11:17:35.067Z</time></trkpt><trkpt lat="43.762675" lon="10.883025"><ele>90.0</ele><time>2026-03-28T11:17:36.066Z</time></trkpt><trkpt lat="43.7627517" lon="10.8831467"><ele>90.0</ele><time>2026-03-28T11:17:37.067Z</time></trkpt><trkpt lat="43.7628317" lon="10.883265"><ele>90.0</ele><time>2026-03-28T11:17:38.066Z</time></trkpt><trkpt lat="43.7629133" lon="10.8833833"><ele>90.0</ele><time>2026-03-28T11:17:39.067Z</time></trkpt><trkpt lat="43.76299" lon="10.8834967"><ele>90.0</ele><time>2026-03-28T11:17:40.067Z</time></trkpt><trkpt lat="43.76307" lon="10.8836167"><ele>90.0</ele><time>2026-03-28T11:17:41.067Z</time></trkpt><trkpt lat="43.76316" lon="10.8837233"><ele>90.75</ele><time>2026-03-28T11:17:42.067Z</time></trkpt><trkpt lat="43.763255" lon="10.8838233"><ele>91.5</ele><time>2026-03-28T11:17:43.067Z</time></trkpt><trkpt lat="43.7633417" lon="10.883935"><ele>92.25</ele><time>2026-03-28T11:17:44.066Z</time></trkpt><trkpt lat="43.763405" lon="10.8840633"><ele>93.0</ele><time>2026-03-28T11:17:45.067Z</time></trkpt><trkpt lat="43.7634717" lon="10.8841983"><ele>94.25</ele><time>2026-03-28T11:17:46.067Z</time></trkpt><trkpt lat="43.7635283" lon="10.88434"><ele>95.5</ele><time>2026-03-28T11:17:47.067Z</time></trkpt><trkpt lat="43.76359" lon="10.8844817"><ele>96.75</ele><time>2026-03-28T11:17:48.066Z</time></trkpt><trkpt lat="43.7636533" lon="10.8846317"><ele>98.0</ele><time>2026-03-28T11:17:49.067Z</time></trkpt><trkpt lat="43.76372" lon="10.8847767"><ele>98.0</ele><time>2026-03-28T11:17:50.067Z</time></trkpt><trkpt lat="43.7637817" lon="10.8849217"><ele>98.0</ele><time>2026-03-28T11:17:51.066Z</time></trkpt><trkpt lat="43.7638417" lon="10.8850633"><ele>98.0</ele><time>2026-03-28T11:17:52.067Z</time></trkpt><trkpt lat="43.7639033" lon="10.885205"><ele>98.0</ele><time>2026-03-28T11:17:53.067Z</time></trkpt><trkpt lat="43.763965" lon="10.8853533"><ele>96.5</ele><time>2026-03-28T11:17:54.067Z</time></trkpt><trkpt lat="43.7640267" lon="10.8855"><ele>95.0</ele><time>2026-03-28T11:17:55.066Z</time></trkpt><trkpt lat="43.7640833" lon="10.8856517"><ele>93.5</ele><time>2026-03-28T11:17:56.067Z</time></trkpt><trkpt lat="43.7641333" lon="10.88579"><ele>92.0</ele><time>2026-03-28T11:17:57.067Z</time></trkpt><trkpt lat="43.764185" lon="10.8859283"><ele>91.83333333333334</ele><time>2026-03-28T11:17:58.067Z</time></trkpt><trkpt lat="43.7642333" lon="10.886045"><ele>91.66666666666667</ele><time>2026-03-28T11:17:59.067Z</time></trkpt><trkpt lat="43.7642783" lon="10.8861483"><ele>91.5</ele><time>2026-03-28T11:18:00.067Z</time></trkpt><trkpt lat="43.764315" lon="10.8862417"><ele>91.33333333333333</ele><time>2026-03-28T11:18:01.067Z</time></trkpt><trkpt lat="43.76435" lon="10.8863233"><ele>91.16666666666666</ele><time>2026-03-28T11:18:02.067Z</time></trkpt><trkpt lat="43.7643883" lon="10.8864717"><ele>91.0</ele><time>2026-03-28T11:18:04.067Z</time></trkpt><trkpt lat="43.7643817" lon="10.88659"><ele>91.0</ele><time>2026-03-28T11:18:06.067Z</time></trkpt><trkpt lat="43.7643167" lon="10.8866967"><ele>91.0</ele><time>2026-03-28T11:18:08.067Z</time></trkpt><trkpt lat="43.7642683" lon="10.886755"><ele>91.0</ele><time>2026-03-28T11:18:09.067Z</time></trkpt><trkpt lat="43.7642167" lon="10.886825"><ele>91.0</ele><time>2026-03-28T11:18:10.067Z</time></trkpt><trkpt lat="43.764165" lon="10.886895"><ele>91.0</ele><time>2026-03-28T11:18:11.066Z</time></trkpt><trkpt lat="43.7641167" lon="10.8869683"><ele>91.0</ele><time>2026-03-28T11:18:12.067Z</time></trkpt><trkpt lat="43.7640667" lon="10.8870417"><ele>91.5</ele><time>2026-03-28T11:18:13.067Z</time></trkpt><trkpt lat="43.764015" lon="10.88712"><ele>92.0</ele><time>2026-03-28T11:18:14.066Z</time></trkpt><trkpt lat="43.76397" lon="10.8872133"><ele>92.5</ele><time>2026-03-28T11:18:15.067Z</time></trkpt><trkpt lat="43.7639233" lon="10.8873117"><ele>93.0</ele><time>2026-03-28T11:18:16.067Z</time></trkpt><trkpt lat="43.7638767" lon="10.8874067"><ele>93.5</ele><time>2026-03-28T11:18:17.067Z</time></trkpt><trkpt lat="43.7638267" lon="10.8874983"><ele>94.0</ele><time>2026-03-28T11:18:18.066Z</time></trkpt><trkpt lat="43.7637733" lon="10.887595"><ele>94.0</ele><time>2026-03-28T11:18:19.066Z</time></trkpt><trkpt lat="43.763725" lon="10.8876983"><ele>94.0</ele><time>2026-03-28T11:18:20.066Z</time></trkpt><trkpt lat="43.7636783" lon="10.8877933"><ele>94.0</ele><time>2026-03-28T11:18:21.066Z</time></trkpt><trkpt lat="43.7636417" lon="10.8878833"><ele>94.0</ele><time>2026-03-28T11:18:22.066Z</time></trkpt><trkpt lat="43.7635933" lon="10.8879617"><ele>94.0</ele><time>2026-03-28T11:18:23.067Z</time></trkpt><trkpt lat="43.7635467" lon="10.8880567"><ele>94.0</ele><time>2026-03-28T11:18:24.067Z</time></trkpt><trkpt lat="43.763495" lon="10.8881467"><ele>93.80000000000001</ele><time>2026-03-28T11:18:25.067Z</time></trkpt><trkpt lat="43.763445" lon="10.8882483"><ele>93.60000000000001</ele><time>2026-03-28T11:18:26.067Z</time></trkpt><trkpt lat="43.763395" lon="10.8883633"><ele>93.4</ele><time>2026-03-28T11:18:27.067Z</time></trkpt><trkpt lat="43.763335" lon="10.8884733"><ele>93.2</ele><time>2026-03-28T11:18:28.067Z</time></trkpt><trkpt lat="43.7632767" lon="10.8885783"><ele>93.0</ele><time>2026-03-28T11:18:29.066Z</time></trkpt><trkpt lat="43.76322" lon="10.8886767"><ele>92.33333333333333</ele><time>2026-03-28T11:18:30.067Z</time></trkpt><trkpt lat="43.7631667" lon="10.8887717"><ele>91.66666666666667</ele><time>2026-03-28T11:18:31.066Z</time></trkpt><trkpt lat="43.7631133" lon="10.8888617"><ele>91.0</ele><time>2026-03-28T11:18:32.067Z</time></trkpt><trkpt lat="43.7630683" lon="10.8889483"><ele>90.33333333333334</ele><time>2026-03-28T11:18:33.067Z</time></trkpt><trkpt lat="43.7630183" lon="10.88903"><ele>89.66666666666667</ele><time>2026-03-28T11:18:34.067Z</time></trkpt><trkpt lat="43.76297" lon="10.8891117"><ele>89.0</ele><time>2026-03-28T11:18:35.067Z</time></trkpt><trkpt lat="43.7629167" lon="10.8891983"><ele>88.83333333333334</ele><time>2026-03-28T11:18:36.067Z</time></trkpt><trkpt lat="43.76286" lon="10.8892783"><ele>88.66666666666667</ele><time>2026-03-28T11:18:37.067Z</time></trkpt><trkpt lat="43.76281" lon="10.8893583"><ele>88.5</ele><time>2026-03-28T11:18:38.067Z</time></trkpt><trkpt lat="43.7627567" lon="10.88944"><ele>88.33333333333333</ele><time>2026-03-28T11:18:39.067Z</time></trkpt><trkpt lat="43.762705" lon="10.8895183"><ele>88.16666666666666</ele><time>2026-03-28T11:18:40.067Z</time></trkpt><trkpt lat="43.7626467" lon="10.8895967"><ele>88.0</ele><time>2026-03-28T11:18:41.066Z</time></trkpt><trkpt lat="43.762595" lon="10.8896733"><ele>88.0</ele><time>2026-03-28T11:18:42.067Z</time></trkpt><trkpt lat="43.762545" lon="10.8897417"><ele>88.0</ele><time>2026-03-28T11:18:43.066Z</time></trkpt><trkpt lat="43.7624833" lon="10.8898183"><ele>88.0</ele><time>2026-03-28T11:18:44.067Z</time></trkpt><trkpt lat="43.7624217" lon="10.8898967"><ele>88.0</ele><time>2026-03-28T11:18:45.067Z</time></trkpt><trkpt lat="43.7623617" lon="10.8899767"><ele>88.0</ele><time>2026-03-28T11:18:46.067Z</time></trkpt><trkpt lat="43.7622967" lon="10.890055"><ele>88.0</ele><time>2026-03-28T11:18:47.066Z</time></trkpt><trkpt lat="43.76224" lon="10.8901283"><ele>88.14285714285714</ele><time>2026-03-28T11:18:48.067Z</time></trkpt><trkpt lat="43.76218" lon="10.8902"><ele>88.28571428571428</ele><time>2026-03-28T11:18:49.066Z</time></trkpt><trkpt lat="43.7621267" lon="10.8902717"><ele>88.42857142857142</ele><time>2026-03-28T11:18:50.067Z</time></trkpt><trkpt lat="43.762075" lon="10.8903467"><ele>88.57142857142857</ele><time>2026-03-28T11:18:51.067Z</time></trkpt><trkpt lat="43.7620283" lon="10.8904133"><ele>88.71428571428571</ele><time>2026-03-28T11:18:52.066Z</time></trkpt><trkpt lat="43.7619883" lon="10.8904867"><ele>88.85714285714285</ele><time>2026-03-28T11:18:53.067Z</time></trkpt><trkpt lat="43.7619483" lon="10.8905583"><ele>89.0</ele><time>2026-03-28T11:18:54.067Z</time></trkpt><trkpt lat="43.761915" lon="10.8906417"><ele>89.0</ele><time>2026-03-28T11:18:55.067Z</time></trkpt><trkpt lat="43.7618817" lon="10.89073"><ele>89.0</ele><time>2026-03-28T11:18:56.066Z</time></trkpt><trkpt lat="43.7618517" lon="10.8908183"><ele>89.0</ele><time>2026-03-28T11:18:57.067Z</time></trkpt><trkpt lat="43.7618117" lon="10.8909067"><ele>89.0</ele><time>2026-03-28T11:18:58.066Z</time></trkpt><trkpt lat="43.7617733" lon="10.8909917"><ele>89.0</ele><time>2026-03-28T11:18:59.067Z</time></trkpt><trkpt lat="43.761735" lon="10.8910933"><ele>89.0</ele><time>2026-03-28T11:19:00.066Z</time></trkpt><trkpt lat="43.7617" lon="10.8912"><ele>88.83333333333334</ele><time>2026-03-28T11:19:01.066Z</time></trkpt><trkpt lat="43.7616767" lon="10.8913183"><ele>88.66666666666667</ele><time>2026-03-28T11:19:02.066Z</time></trkpt><trkpt lat="43.7616483" lon="10.8914217"><ele>88.5</ele><time>2026-03-28T11:19:03.067Z</time></trkpt><trkpt lat="43.7616183" lon="10.8915233"><ele>88.33333333333333</ele><time>2026-03-28T11:19:04.066Z</time></trkpt><trkpt lat="43.76158" lon="10.8916217"><ele>88.16666666666666</ele><time>2026-03-28T11:19:05.067Z</time></trkpt><trkpt lat="43.761535" lon="10.8917217"><ele>88.0</ele><time>2026-03-28T11:19:06.066Z</time></trkpt><trkpt lat="43.761505" lon="10.8918217"><ele>88.0</ele><time>2026-03-28T11:19:07.066Z</time></trkpt><trkpt lat="43.76148" lon="10.89193"><ele>88.0</ele><time>2026-03-28T11:19:08.066Z</time></trkpt><trkpt lat="43.7614533" lon="10.8920467"><ele>88.0</ele><time>2026-03-28T11:19:09.066Z</time></trkpt><trkpt lat="43.7614267" lon="10.8921633"><ele>88.0</ele><time>2026-03-28T11:19:10.067Z</time></trkpt><trkpt lat="43.7613983" lon="10.89228"><ele>88.0</ele><time>2026-03-28T11:19:11.066Z</time></trkpt><trkpt lat="43.7613683" lon="10.8924"><ele>88.0</ele><time>2026-03-28T11:19:12.067Z</time></trkpt><trkpt lat="43.7613517" lon="10.8925167"><ele>87.5</ele><time>2026-03-28T11:19:13.066Z</time></trkpt><trkpt lat="43.7613333" lon="10.8926383"><ele>87.0</ele><time>2026-03-28T11:19:14.067Z</time></trkpt><trkpt lat="43.7613183" lon="10.8927533"><ele>86.5</ele><time>2026-03-28T11:19:15.066Z</time></trkpt><trkpt lat="43.761305" lon="10.8928583"><ele>86.0</ele><time>2026-03-28T11:19:16.067Z</time></trkpt><trkpt lat="43.7612883" lon="10.8929567"><ele>85.5</ele><time>2026-03-28T11:19:17.066Z</time></trkpt><trkpt lat="43.7612783" lon="10.8930467"><ele>85.0</ele><time>2026-03-28T11:19:18.066Z</time></trkpt><trkpt lat="43.76126" lon="10.893225"><ele>85.0</ele><time>2026-03-28T11:19:20.067Z</time></trkpt><trkpt lat="43.7612583" lon="10.89332"><ele>85.0</ele><time>2026-03-28T11:19:21.067Z</time></trkpt><trkpt lat="43.7612517" lon="10.8934183"><ele>85.0</ele><time>2026-03-28T11:19:22.067Z</time></trkpt><trkpt lat="43.7612367" lon="10.8935183"><ele>85.0</ele><time>2026-03-28T11:19:23.067Z</time></trkpt><trkpt lat="43.761225" lon="10.8936267"><ele>85.0</ele><time>2026-03-28T11:19:24.067Z</time></trkpt><trkpt lat="43.761215" lon="10.8937217"><ele>85.0</ele><time>2026-03-28T11:19:25.067Z</time></trkpt><trkpt lat="43.7612033" lon="10.893825"><ele>85.0</ele><time>2026-03-28T11:19:26.067Z</time></trkpt><trkpt lat="43.7612017" lon="10.89393"><ele>85.16666666666666</ele><time>2026-03-28T11:19:27.067Z</time></trkpt><trkpt lat="43.7611983" lon="10.8940467"><ele>85.33333333333333</ele><time>2026-03-28T11:19:28.067Z</time></trkpt><trkpt lat="43.7612033" lon="10.89415"><ele>85.5</ele><time>2026-03-28T11:19:29.067Z</time></trkpt><trkpt lat="43.7612133" lon="10.8942667"><ele>85.66666666666667</ele><time>2026-03-28T11:19:30.067Z</time></trkpt><trkpt lat="43.7612233" lon="10.8943917"><ele>85.83333333333334</ele><time>2026-03-28T11:19:31.067Z</time></trkpt><trkpt lat="43.76123" lon="10.8945267"><ele>86.0</ele><time>2026-03-28T11:19:32.067Z</time></trkpt><trkpt lat="43.761235" lon="10.8946583"><ele>86.0</ele><time>2026-03-28T11:19:33.067Z</time></trkpt><trkpt lat="43.7612417" lon="10.894785"><ele>86.0</ele><time>2026-03-28T11:19:34.066Z</time></trkpt><trkpt lat="43.761245" lon="10.8949167"><ele>86.0</ele><time>2026-03-28T11:19:35.067Z</time></trkpt><trkpt lat="43.7612417" lon="10.8950417"><ele>86.0</ele><time>2026-03-28T11:19:36.067Z</time></trkpt><trkpt lat="43.7612383" lon="10.895175"><ele>86.0</ele><time>2026-03-28T11:19:37.067Z</time></trkpt><trkpt lat="43.761235" lon="10.8952933"><ele>85.33333333333334</ele><time>2026-03-28T11:19:38.066Z</time></trkpt><trkpt lat="43.761225" lon="10.8954167"><ele>84.66666666666667</ele><time>2026-03-28T11:19:39.066Z</time></trkpt><trkpt lat="43.7612133" lon="10.8955283"><ele>84.0</ele><time>2026-03-28T11:19:40.066Z</time></trkpt><trkpt lat="43.7612017" lon="10.8956517"><ele>83.33333333333333</ele><time>2026-03-28T11:19:41.067Z</time></trkpt><trkpt lat="43.7611917" lon="10.8957783"><ele>82.66666666666666</ele><time>2026-03-28T11:19:42.066Z</time></trkpt><trkpt lat="43.7611833" lon="10.895905"><ele>82.0</ele><time>2026-03-28T11:19:43.067Z</time></trkpt><trkpt lat="43.7611783" lon="10.8960333"><ele>81.39999999999999</ele><time>2026-03-28T11:19:44.067Z</time></trkpt><trkpt lat="43.7611717" lon="10.896165"><ele>80.8</ele><time>2026-03-28T11:19:45.066Z</time></trkpt><trkpt lat="43.7611567" lon="10.8962933"><ele>80.2</ele><time>2026-03-28T11:19:46.066Z</time></trkpt><trkpt lat="43.7611483" lon="10.8964217"><ele>79.6</ele><time>2026-03-28T11:19:47.067Z</time></trkpt><trkpt lat="43.7611367" lon="10.896555"><ele>79.0</ele><time>2026-03-28T11:19:48.066Z</time></trkpt><trkpt lat="43.761125" lon="10.89668"><ele>79.2</ele><time>2026-03-28T11:19:49.067Z</time></trkpt><trkpt lat="43.7611133" lon="10.8968067"><ele>79.4</ele><time>2026-03-28T11:19:50.066Z</time></trkpt><trkpt lat="43.7610983" lon="10.8969417"><ele>79.6</ele><time>2026-03-28T11:19:51.067Z</time></trkpt><trkpt lat="43.761085" lon="10.8970733"><ele>79.8</ele><time>2026-03-28T11:19:52.067Z</time></trkpt><trkpt lat="43.7610783" lon="10.8972017"><ele>80.0</ele><time>2026-03-28T11:19:53.067Z</time></trkpt><trkpt lat="43.7610667" lon="10.897335"><ele>80.0</ele><time>2026-03-28T11:19:54.067Z</time></trkpt><trkpt lat="43.7610567" lon="10.8974683"><ele>80.0</ele><time>2026-03-28T11:19:55.067Z</time></trkpt><trkpt lat="43.761045" lon="10.8976017"><ele>80.0</ele><time>2026-03-28T11:19:56.067Z</time></trkpt><trkpt lat="43.7610333" lon="10.8977217"><ele>80.0</ele><time>2026-03-28T11:19:57.066Z</time></trkpt><trkpt lat="43.761025" lon="10.8978517"><ele>80.0</ele><time>2026-03-28T11:19:58.066Z</time></trkpt><trkpt lat="43.7610233" lon="10.8979767"><ele>80.83333333333334</ele><time>2026-03-28T11:19:59.067Z</time></trkpt><trkpt lat="43.76102" lon="10.89809"><ele>81.66666666666667</ele><time>2026-03-28T11:20:00.067Z</time></trkpt><trkpt lat="43.7610133" lon="10.898205"><ele>82.5</ele><time>2026-03-28T11:20:01.066Z</time></trkpt><trkpt lat="43.761015" lon="10.89833"><ele>83.33333333333333</ele><time>2026-03-28T11:20:02.067Z</time></trkpt><trkpt lat="43.7610233" lon="10.898455"><ele>84.16666666666666</ele><time>2026-03-28T11:20:03.067Z</time></trkpt><trkpt lat="43.7610217" lon="10.898565"><ele>85.0</ele><time>2026-03-28T11:20:04.067Z</time></trkpt><trkpt lat="43.76102" lon="10.89868"><ele>85.0</ele><time>2026-03-28T11:20:05.066Z</time></trkpt><trkpt lat="43.761015" lon="10.8987917"><ele>85.0</ele><time>2026-03-28T11:20:06.067Z</time></trkpt><trkpt lat="43.7610083" lon="10.8988917"><ele>85.0</ele><time>2026-03-28T11:20:07.066Z</time></trkpt><trkpt lat="43.7609917" lon="10.89898"><ele>85.0</ele><time>2026-03-28T11:20:08.067Z</time></trkpt><trkpt lat="43.76097" lon="10.8990733"><ele>85.0</ele><time>2026-03-28T11:20:09.067Z</time></trkpt><trkpt lat="43.7609467" lon="10.8991733"><ele>85.0</ele><time>2026-03-28T11:20:10.066Z</time></trkpt><trkpt lat="43.7609167" lon="10.899275"><ele>85.0</ele><time>2026-03-28T11:20:11.067Z</time></trkpt><trkpt lat="43.7608733" lon="10.8993683"><ele>83.66666666666666</ele><time>2026-03-28T11:20:12.067Z</time></trkpt><trkpt lat="43.7608183" lon="10.8994517"><ele>82.33333333333333</ele><time>2026-03-28T11:20:13.066Z</time></trkpt><trkpt lat="43.760765" lon="10.89952"><ele>81.0</ele><time>2026-03-28T11:20:14.066Z</time></trkpt><trkpt lat="43.7607" lon="10.899585"><ele>79.66666666666667</ele><time>2026-03-28T11:20:15.066Z</time></trkpt><trkpt lat="43.76063" lon="10.8996417"><ele>78.33333333333334</ele><time>2026-03-28T11:20:16.066Z</time></trkpt><trkpt lat="43.7605433" lon="10.8996867"><ele>77.0</ele><time>2026-03-28T11:20:17.066Z</time></trkpt><trkpt lat="43.760465" lon="10.899715"><ele>77.0</ele><time>2026-03-28T11:20:18.066Z</time></trkpt><trkpt lat="43.760385" lon="10.8997283"><ele>77.0</ele><time>2026-03-28T11:20:19.067Z</time></trkpt><trkpt lat="43.7603033" lon="10.8997383"><ele>77.0</ele><time>2026-03-28T11:20:20.066Z</time></trkpt><trkpt lat="43.7602283" lon="10.8997467"><ele>77.0</ele><time>2026-03-28T11:20:21.067Z</time></trkpt><trkpt lat="43.7601617" lon="10.8997617"><ele>77.0</ele><time>2026-03-28T11:20:22.066Z</time></trkpt><trkpt lat="43.7600911" lon="10.8997819"><ele>77.0</ele><time>2026-03-28T11:20:23.067Z</time></trkpt><trkpt lat="43.7600222" lon="10.8998022"><ele>77.0</ele><time>2026-03-28T11:20:24.067Z</time></trkpt><trkpt lat="43.7599555" lon="10.8998157"><ele>76.0</ele><time>2026-03-28T11:20:25.066Z</time></trkpt><trkpt lat="43.7598353" lon="10.8998147"><ele>75.0</ele><time>2026-03-28T11:20:27.067Z</time></trkpt><trkpt lat="43.7597284" lon="10.8998219"><ele>74.0</ele><time>2026-03-28T11:20:29.067Z</time></trkpt><trkpt lat="43.759642" lon="10.8999163"><ele>73.0</ele><time>2026-03-28T11:20:31.067Z</time></trkpt><trkpt lat="43.7596129" lon="10.8999958"><ele>72.0</ele><time>2026-03-28T11:20:32.067Z</time></trkpt><trkpt lat="43.7595916" lon="10.9000921"><ele>70.83333333333333</ele><time>2026-03-28T11:20:33.067Z</time></trkpt><trkpt lat="43.7595732" lon="10.9001969"><ele>69.66666666666667</ele><time>2026-03-28T11:20:34.067Z</time></trkpt><trkpt lat="43.759557" lon="10.900299"><ele>68.5</ele><time>2026-03-28T11:20:35.066Z</time></trkpt><trkpt lat="43.7595437" lon="10.9003981"><ele>67.33333333333334</ele><time>2026-03-28T11:20:36.067Z</time></trkpt><trkpt lat="43.759531" lon="10.9004964"><ele>66.16666666666667</ele><time>2026-03-28T11:20:37.066Z</time></trkpt><trkpt lat="43.7595222" lon="10.9005926"><ele>65.0</ele><time>2026-03-28T11:20:38.066Z</time></trkpt><trkpt lat="43.759521" lon="10.9007634"><ele>63.6</ele><time>2026-03-28T11:20:40.067Z</time></trkpt><trkpt lat="43.7595123" lon="10.9009243"><ele>62.2</ele><time>2026-03-28T11:20:42.067Z</time></trkpt><trkpt lat="43.7594804" lon="10.9010708"><ele>60.8</ele><time>2026-03-28T11:20:44.067Z</time></trkpt><trkpt lat="43.7594433" lon="10.9011994"><ele>59.4</ele><time>2026-03-28T11:20:46.067Z</time></trkpt><trkpt lat="43.7593872" lon="10.9013301"><ele>58.0</ele><time>2026-03-28T11:20:48.067Z</time></trkpt><trkpt lat="43.7593183" lon="10.9014702"><ele>57.2</ele><time>2026-03-28T11:20:50.067Z</time></trkpt><trkpt lat="43.7592574" lon="10.9015951"><ele>56.4</ele><time>2026-03-28T11:20:52.067Z</time></trkpt><trkpt lat="43.7591909" lon="10.9017107"><ele>55.60000000000001</ele><time>2026-03-28T11:20:54.066Z</time></trkpt><trkpt lat="43.7591135" lon="10.9018332"><ele>54.800000000000004</ele><time>2026-03-28T11:20:56.067Z</time></trkpt><trkpt lat="43.7590688" lon="10.9019041"><ele>54.0</ele><time>2026-03-28T11:20:57.066Z</time></trkpt><trkpt lat="43.7590222" lon="10.90198"><ele>53.57142857142857</ele><time>2026-03-28T11:20:58.066Z</time></trkpt><trkpt lat="43.758977" lon="10.9020579"><ele>53.14285714285714</ele><time>2026-03-28T11:20:59.067Z</time></trkpt><trkpt lat="43.7589303" lon="10.9021379"><ele>52.714285714285715</ele><time>2026-03-28T11:21:00.067Z</time></trkpt><trkpt lat="43.7588826" lon="10.9022197"><ele>52.285714285714285</ele><time>2026-03-28T11:21:01.067Z</time></trkpt><trkpt lat="43.7588409" lon="10.9023071"><ele>51.85714285714286</ele><time>2026-03-28T11:21:02.067Z</time></trkpt><trkpt lat="43.7588035" lon="10.9023971"><ele>51.42857142857143</ele><time>2026-03-28T11:21:03.066Z</time></trkpt><trkpt lat="43.7587717" lon="10.9024888"><ele>51.0</ele><time>2026-03-28T11:21:04.066Z</time></trkpt><trkpt lat="43.7587426" lon="10.9025833"><ele>49.714285714285715</ele><time>2026-03-28T11:21:05.067Z</time></trkpt><trkpt lat="43.7587171" lon="10.9026749"><ele>48.42857142857143</ele><time>2026-03-28T11:21:06.066Z</time></trkpt><trkpt lat="43.7586943" lon="10.9027668"><ele>47.14285714285714</ele><time>2026-03-28T11:21:07.066Z</time></trkpt><trkpt lat="43.758675" lon="10.9028605"><ele>45.85714285714286</ele><time>2026-03-28T11:21:08.066Z</time></trkpt><trkpt lat="43.7586636" lon="10.9029548"><ele>44.57142857142857</ele><time>2026-03-28T11:21:09.067Z</time></trkpt><trkpt lat="43.7586516" lon="10.9030436"><ele>43.285714285714285</ele><time>2026-03-28T11:21:10.067Z</time></trkpt><trkpt lat="43.7586327" lon="10.9031301"><ele>42.0</ele><time>2026-03-28T11:21:11.067Z</time></trkpt><trkpt lat="43.7586033" lon="10.9032207"><ele>42.0</ele><time>2026-03-28T11:21:12.067Z</time></trkpt><trkpt lat="43.7585637" lon="10.9033133"><ele>42.0</ele><time>2026-03-28T11:21:13.067Z</time></trkpt><trkpt lat="43.7585264" lon="10.903404"><ele>42.0</ele><time>2026-03-28T11:21:14.066Z</time></trkpt><trkpt lat="43.7584947" lon="10.9034918"><ele>42.0</ele><time>2026-03-28T11:21:15.067Z</time></trkpt><trkpt lat="43.7584652" lon="10.9035746"><ele>42.0</ele><time>2026-03-28T11:21:16.066Z</time></trkpt><trkpt lat="43.7584316" lon="10.903654"><ele>42.0</ele><time>2026-03-28T11:21:17.067Z</time></trkpt><trkpt lat="43.7583969" lon="10.9037352"><ele>42.0</ele><time>2026-03-28T11:21:18.066Z</time></trkpt><trkpt lat="43.758365" lon="10.90382"><ele>40.57142857142857</ele><time>2026-03-28T11:21:19.067Z</time></trkpt><trkpt lat="43.7583366" lon="10.9039062"><ele>39.14285714285714</ele><time>2026-03-28T11:21:20.067Z</time></trkpt><trkpt lat="43.7583158" lon="10.9039959"><ele>37.714285714285715</ele><time>2026-03-28T11:21:21.067Z</time></trkpt><trkpt lat="43.7583025" lon="10.9040924"><ele>36.285714285714285</ele><time>2026-03-28T11:21:22.067Z</time></trkpt><trkpt lat="43.7582948" lon="10.9041983"><ele>34.857142857142854</ele><time>2026-03-28T11:21:23.067Z</time></trkpt><trkpt lat="43.7582883" lon="10.9043091"><ele>33.42857142857143</ele><time>2026-03-28T11:21:24.067Z</time></trkpt><trkpt lat="43.7582782" lon="10.9044152"><ele>32.0</ele><time>2026-03-28T11:21:25.066Z</time></trkpt><trkpt lat="43.7582594" lon="10.904514"><ele>31.6</ele><time>2026-03-28T11:21:26.066Z</time></trkpt><trkpt lat="43.7581778" lon="10.9046262"><ele>31.200000000000003</ele><time>2026-03-28T11:21:28.067Z</time></trkpt><trkpt lat="43.7581175" lon="10.9046542"><ele>30.8</ele><time>2026-03-28T11:21:29.067Z</time></trkpt><trkpt lat="43.7580332" lon="10.9046606"><ele>30.4</ele><time>2026-03-28T11:21:30.067Z</time></trkpt><trkpt lat="43.7579088" lon="10.9046432"><ele>30.0</ele><time>2026-03-28T11:21:31.066Z</time></trkpt><trkpt lat="43.7577586" lon="10.9046215"><ele>30.0</ele><time>2026-03-28T11:21:32.066Z</time></trkpt><trkpt lat="43.7576102" lon="10.9046056"><ele>30.0</ele><time>2026-03-28T11:21:33.067Z</time></trkpt><trkpt lat="43.7574811" lon="10.9045905"><ele>30.0</ele><time>2026-03-28T11:21:34.066Z</time></trkpt><trkpt lat="43.7573724" lon="10.9045795"><ele>30.0</ele><time>2026-03-28T11:21:35.067Z</time></trkpt><trkpt lat="43.7572795" lon="10.9045694"><ele>30.0</ele><time>2026-03-28T11:21:36.067Z</time></trkpt><trkpt lat="43.7571982" lon="10.9045604"><ele>30.0</ele><time>2026-03-28T11:21:37.067Z</time></trkpt><trkpt lat="43.7571297" lon="10.9045653"><ele>30.0</ele><time>2026-03-28T11:21:38.067Z</time></trkpt><trkpt lat="43.7570236" lon="10.9046339"><ele>30.0</ele><time>2026-03-28T11:21:40.066Z</time></trkpt><trkpt lat="43.7569448" lon="10.9047854"><ele>30.0</ele><time>2026-03-28T11:21:42.067Z</time></trkpt><trkpt lat="43.7569193" lon="10.9049251"><ele>29.75</ele><time>2026-03-28T11:21:43.066Z</time></trkpt><trkpt lat="43.7568886" lon="10.9051045"><ele>29.5</ele><time>2026-03-28T11:21:44.066Z</time></trkpt><trkpt lat="43.7568404" lon="10.905294"><ele>29.25</ele><time>2026-03-28T11:21:45.067Z</time></trkpt><trkpt lat="43.7567971" lon="10.905463"><ele>29.0</ele><time>2026-03-28T11:21:46.067Z</time></trkpt><trkpt lat="43.7567652" lon="10.9056023"><ele>29.0</ele><time>2026-03-28T11:21:47.067Z</time></trkpt><trkpt lat="43.7567422" lon="10.9057086"><ele>29.0</ele><time>2026-03-28T11:21:48.067Z</time></trkpt><trkpt lat="43.7567106" lon="10.9058388"><ele>29.0</ele><time>2026-03-28T11:21:50.067Z</time></trkpt><trkpt lat="43.7566839" lon="10.9059179"><ele>29.0</ele><time>2026-03-28T11:21:52.067Z</time></trkpt><trkpt lat="43.7566587" lon="10.906034"><ele>29.0</ele><time>2026-03-28T11:21:54.067Z</time></trkpt><trkpt lat="43.7565957" lon="10.9061929"><ele>28.999999999999996</ele><time>2026-03-28T11:21:56.066Z</time></trkpt><trkpt lat="43.7565569" lon="10.9062863"><ele>29.0</ele><time>2026-03-28T11:21:57.067Z</time></trkpt><trkpt lat="43.7565164" lon="10.9063784"><ele>29.0</ele><time>2026-03-28T11:21:58.067Z</time></trkpt><trkpt lat="43.7564757" lon="10.9064678"><ele>29.0</ele><time>2026-03-28T11:21:59.066Z</time></trkpt><trkpt lat="43.7564372" lon="10.9065541"><ele>28.999999999999996</ele><time>2026-03-28T11:22:00.066Z</time></trkpt><trkpt lat="43.756401" lon="10.9066381"><ele>29.0</ele><time>2026-03-28T11:22:01.067Z</time></trkpt><trkpt lat="43.7563364" lon="10.9067537"><ele>29.333333333333332</ele><time>2026-03-28T11:22:03.067Z</time></trkpt><trkpt lat="43.7562983" lon="10.9068317"><ele>29.666666666666664</ele><time>2026-03-28T11:22:06.067Z</time></trkpt><trkpt lat="43.7562467" lon="10.906955"><ele>30.0</ele><time>2026-03-28T11:22:08.066Z</time></trkpt><trkpt lat="43.7562117" lon="10.9070433"><ele>30.333333333333336</ele><time>2026-03-28T11:22:09.067Z</time></trkpt><trkpt lat="43.7561733" lon="10.9071433"><ele>30.666666666666668</ele><time>2026-03-28T11:22:10.067Z</time></trkpt><trkpt lat="43.7561317" lon="10.9072367"><ele>31.0</ele><time>2026-03-28T11:22:11.067Z</time></trkpt><trkpt lat="43.756085" lon="10.907325"><ele>31.000000000000004</ele><time>2026-03-28T11:22:12.067Z</time></trkpt><trkpt lat="43.75604" lon="10.9074117"><ele>31.0</ele><time>2026-03-28T11:22:13.067Z</time></trkpt><trkpt lat="43.7560033" lon="10.9074933"><ele>31.0</ele><time>2026-03-28T11:22:14.066Z</time></trkpt><trkpt lat="43.755955" lon="10.90761"><ele>31.0</ele><time>2026-03-28T11:22:16.067Z</time></trkpt><trkpt lat="43.755895" lon="10.9076867"><ele>31.000000000000004</ele><time>2026-03-28T11:22:19.067Z</time></trkpt><trkpt lat="43.7558267" lon="10.90771"><ele>31.0</ele><time>2026-03-28T11:22:21.067Z</time></trkpt><trkpt lat="43.75571" lon="10.9077433"><ele>31.166666666666668</ele><time>2026-03-28T11:22:23.067Z</time></trkpt><trkpt lat="43.7556117" lon="10.9078317"><ele>31.333333333333336</ele><time>2026-03-28T11:22:25.066Z</time></trkpt><trkpt lat="43.7555917" lon="10.907915"><ele>31.5</ele><time>2026-03-28T11:22:26.066Z</time></trkpt><trkpt lat="43.7555917" lon="10.90801"><ele>31.666666666666664</ele><time>2026-03-28T11:22:27.067Z</time></trkpt><trkpt lat="43.7556167" lon="10.9081317"><ele>31.833333333333332</ele><time>2026-03-28T11:22:28.066Z</time></trkpt><trkpt lat="43.7556483" lon="10.90827"><ele>32.0</ele><time>2026-03-28T11:22:29.067Z</time></trkpt><trkpt lat="43.755675" lon="10.9084267"><ele>32.25</ele><time>2026-03-28T11:22:30.067Z</time></trkpt><trkpt lat="43.755705" lon="10.90859"><ele>32.5</ele><time>2026-03-28T11:22:31.067Z</time></trkpt><trkpt lat="43.7557367" lon="10.9087583"><ele>32.75</ele><time>2026-03-28T11:22:32.067Z</time></trkpt><trkpt lat="43.7557667" lon="10.9089183"><ele>33.0</ele><time>2026-03-28T11:22:33.066Z</time></trkpt><trkpt lat="43.755795" lon="10.9090667"><ele>33.0</ele><time>2026-03-28T11:22:34.066Z</time></trkpt><trkpt lat="43.7558233" lon="10.9092133"><ele>33.0</ele><time>2026-03-28T11:22:35.067Z</time></trkpt><trkpt lat="43.7558533" lon="10.90936"><ele>33.0</ele><time>2026-03-28T11:22:36.067Z</time></trkpt><trkpt lat="43.7558833" lon="10.9095067"><ele>33.0</ele><time>2026-03-28T11:22:37.067Z</time></trkpt><trkpt lat="43.7559133" lon="10.9096433"><ele>33.0</ele><time>2026-03-28T11:22:38.066Z</time></trkpt><trkpt lat="43.7559417" lon="10.9097833"><ele>32.8</ele><time>2026-03-28T11:22:39.067Z</time></trkpt><trkpt lat="43.7559683" lon="10.9099233"><ele>32.599999999999994</ele><time>2026-03-28T11:22:40.067Z</time></trkpt><trkpt lat="43.755995" lon="10.9100633"><ele>32.400000000000006</ele><time>2026-03-28T11:22:41.066Z</time></trkpt><trkpt lat="43.7560167" lon="10.9102017"><ele>32.2</ele><time>2026-03-28T11:22:42.067Z</time></trkpt><trkpt lat="43.7560467" lon="10.910335"><ele>32.0</ele><time>2026-03-28T11:22:43.067Z</time></trkpt><trkpt lat="43.7560667" lon="10.9104517"><ele>33.4</ele><time>2026-03-28T11:22:44.067Z</time></trkpt><trkpt lat="43.7560817" lon="10.9105667"><ele>34.800000000000004</ele><time>2026-03-28T11:22:45.066Z</time></trkpt><trkpt lat="43.7561017" lon="10.9106817"><ele>36.2</ele><time>2026-03-28T11:22:46.067Z</time></trkpt><trkpt lat="43.7561233" lon="10.9108133"><ele>37.6</ele><time>2026-03-28T11:22:47.067Z</time></trkpt><trkpt lat="43.7561433" lon="10.9109483"><ele>39.0</ele><time>2026-03-28T11:22:48.067Z</time></trkpt><trkpt lat="43.756155" lon="10.91108"><ele>39.0</ele><time>2026-03-28T11:22:49.067Z</time></trkpt><trkpt lat="43.7561733" lon="10.9112033"><ele>39.0</ele><time>2026-03-28T11:22:50.066Z</time></trkpt><trkpt lat="43.7561933" lon="10.911335"><ele>39.0</ele><time>2026-03-28T11:22:51.066Z</time></trkpt><trkpt lat="43.7562133" lon="10.9114767"><ele>39.0</ele><time>2026-03-28T11:22:52.066Z</time></trkpt><trkpt lat="43.7562367" lon="10.9116217"><ele>39.0</ele><time>2026-03-28T11:22:53.067Z</time></trkpt><trkpt lat="43.75625" lon="10.9117667"><ele>38.2</ele><time>2026-03-28T11:22:54.067Z</time></trkpt><trkpt lat="43.7562633" lon="10.9119117"><ele>37.4</ele><time>2026-03-28T11:22:55.066Z</time></trkpt><trkpt lat="43.75627" lon="10.9120583"><ele>36.6</ele><time>2026-03-28T11:22:56.067Z</time></trkpt><trkpt lat="43.7562817" lon="10.912205"><ele>35.8</ele><time>2026-03-28T11:22:57.067Z</time></trkpt><trkpt lat="43.7562867" lon="10.9123367"><ele>35.0</ele><time>2026-03-28T11:22:58.066Z</time></trkpt><trkpt lat="43.75629" lon="10.912485"><ele>35.0</ele><time>2026-03-28T11:22:59.066Z</time></trkpt><trkpt lat="43.756295" lon="10.9126283"><ele>35.0</ele><time>2026-03-28T11:23:00.066Z</time></trkpt><trkpt lat="43.7563017" lon="10.9127767"><ele>35.0</ele><time>2026-03-28T11:23:01.067Z</time></trkpt><trkpt lat="43.7563083" lon="10.91291"><ele>35.0</ele><time>2026-03-28T11:23:02.067Z</time></trkpt><trkpt lat="43.75631" lon="10.91305"><ele>35.0</ele><time>2026-03-28T11:23:03.067Z</time></trkpt><trkpt lat="43.75632" lon="10.9131833"><ele>35.0</ele><time>2026-03-28T11:23:04.067Z</time></trkpt><trkpt lat="43.756325" lon="10.9133133"><ele>35.0</ele><time>2026-03-28T11:23:05.067Z</time></trkpt><trkpt lat="43.7563283" lon="10.9134417"><ele>35.0</ele><time>2026-03-28T11:23:06.066Z</time></trkpt><trkpt lat="43.7563283" lon="10.9135683"><ele>35.0</ele><time>2026-03-28T11:23:07.066Z</time></trkpt><trkpt lat="43.756325" lon="10.9136967"><ele>35.0</ele><time>2026-03-28T11:23:08.066Z</time></trkpt><trkpt lat="43.7563283" lon="10.9138167"><ele>35.6</ele><time>2026-03-28T11:23:09.067Z</time></trkpt><trkpt lat="43.7563317" lon="10.9139467"><ele>36.2</ele><time>2026-03-28T11:23:10.067Z</time></trkpt><trkpt lat="43.7563317" lon="10.9140767"><ele>36.8</ele><time>2026-03-28T11:23:11.067Z</time></trkpt><trkpt lat="43.7563283" lon="10.9142033"><ele>37.4</ele><time>2026-03-28T11:23:12.066Z</time></trkpt><trkpt lat="43.7563217" lon="10.9143367"><ele>38.0</ele><time>2026-03-28T11:23:13.067Z</time></trkpt><trkpt lat="43.7563233" lon="10.9144717"><ele>38.5</ele><time>2026-03-28T11:23:14.066Z</time></trkpt><trkpt lat="43.75632" lon="10.9145967"><ele>39.0</ele><time>2026-03-28T11:23:15.067Z</time></trkpt><trkpt lat="43.7563117" lon="10.9147117"><ele>39.5</ele><time>2026-03-28T11:23:16.067Z</time></trkpt><trkpt lat="43.7563017" lon="10.914805"><ele>40.0</ele><time>2026-03-28T11:23:17.067Z</time></trkpt><trkpt lat="43.756215" lon="10.914925"><ele>40.5</ele><time>2026-03-28T11:23:19.067Z</time></trkpt><trkpt lat="43.7561417" lon="10.9149333"><ele>41.0</ele><time>2026-03-28T11:23:20.066Z</time></trkpt><trkpt lat="43.7560517" lon="10.9149167"><ele>39.599999999999994</ele><time>2026-03-28T11:23:21.067Z</time></trkpt><trkpt lat="43.7559483" lon="10.914885"><ele>38.199999999999996</ele><time>2026-03-28T11:23:22.067Z</time></trkpt><trkpt lat="43.7558367" lon="10.9148383"><ele>36.8</ele><time>2026-03-28T11:23:23.067Z</time></trkpt><trkpt lat="43.7557367" lon="10.9147917"><ele>35.4</ele><time>2026-03-28T11:23:24.067Z</time></trkpt><trkpt lat="43.75564" lon="10.9147617"><ele>34.0</ele><time>2026-03-28T11:23:25.067Z</time></trkpt><trkpt lat="43.7555483" lon="10.91474"><ele>34.0</ele><time>2026-03-28T11:23:26.067Z</time></trkpt><trkpt lat="43.7554467" lon="10.9147283"><ele>34.0</ele><time>2026-03-28T11:23:27.067Z</time></trkpt><trkpt lat="43.75535" lon="10.9147383"><ele>34.0</ele><time>2026-03-28T11:23:28.067Z</time></trkpt><trkpt lat="43.75526" lon="10.9147767"><ele>34.0</ele><time>2026-03-28T11:23:29.067Z</time></trkpt><trkpt lat="43.7551833" lon="10.91484"><ele>34.0</ele><time>2026-03-28T11:23:30.067Z</time></trkpt><trkpt lat="43.755095" lon="10.9149367"><ele>34.5</ele><time>2026-03-28T11:23:31.067Z</time></trkpt><trkpt lat="43.7550183" lon="10.91505"><ele>35.0</ele><time>2026-03-28T11:23:32.066Z</time></trkpt><trkpt lat="43.7549417" lon="10.915175"><ele>35.5</ele><time>2026-03-28T11:23:33.066Z</time></trkpt><trkpt lat="43.754865" lon="10.9153067"><ele>36.0</ele><time>2026-03-28T11:23:34.067Z</time></trkpt><trkpt lat="43.7547867" lon="10.9154433"><ele>36.25</ele><time>2026-03-28T11:23:35.067Z</time></trkpt><trkpt lat="43.75471" lon="10.9155767"><ele>36.5</ele><time>2026-03-28T11:23:36.067Z</time></trkpt><trkpt lat="43.7546317" lon="10.9157217"><ele>36.75</ele><time>2026-03-28T11:23:37.067Z</time></trkpt><trkpt lat="43.7545567" lon="10.9158567"><ele>37.0</ele><time>2026-03-28T11:23:38.067Z</time></trkpt><trkpt lat="43.7544817" lon="10.9159783"><ele>37.0</ele><time>2026-03-28T11:23:39.066Z</time></trkpt><trkpt lat="43.7544067" lon="10.9161133"><ele>37.0</ele><time>2026-03-28T11:23:40.066Z</time></trkpt><trkpt lat="43.7543317" lon="10.9162533"><ele>37.0</ele><time>2026-03-28T11:23:41.067Z</time></trkpt><trkpt lat="43.7542583" lon="10.9163933"><ele>37.0</ele><time>2026-03-28T11:23:42.066Z</time></trkpt><trkpt lat="43.7541783" lon="10.9165333"><ele>39.0</ele><time>2026-03-28T11:23:43.067Z</time></trkpt><trkpt lat="43.754105" lon="10.9166733"><ele>41.0</ele><time>2026-03-28T11:23:44.066Z</time></trkpt><trkpt lat="43.7540367" lon="10.91682"><ele>43.0</ele><time>2026-03-28T11:23:45.067Z</time></trkpt><trkpt lat="43.7539767" lon="10.9169583"><ele>45.0</ele><time>2026-03-28T11:23:46.066Z</time></trkpt><trkpt lat="43.75392" lon="10.917095"><ele>45.75</ele><time>2026-03-28T11:23:47.067Z</time></trkpt><trkpt lat="43.7538683" lon="10.9172333"><ele>46.5</ele><time>2026-03-28T11:23:48.067Z</time></trkpt><trkpt lat="43.753815" lon="10.9173733"><ele>47.25</ele><time>2026-03-28T11:23:49.066Z</time></trkpt><trkpt lat="43.75376" lon="10.9175083"><ele>48.0</ele><time>2026-03-28T11:23:50.067Z</time></trkpt><trkpt lat="43.7536983" lon="10.9176517"><ele>48.599999999999994</ele><time>2026-03-28T11:23:51.067Z</time></trkpt><trkpt lat="43.7536433" lon="10.9177867"><ele>49.199999999999996</ele><time>2026-03-28T11:23:52.067Z</time></trkpt><trkpt lat="43.7535917" lon="10.917915"><ele>49.8</ele><time>2026-03-28T11:23:53.067Z</time></trkpt><trkpt lat="43.7535383" lon="10.9180433"><ele>50.4</ele><time>2026-03-28T11:23:54.066Z</time></trkpt><trkpt lat="43.7534883" lon="10.9181633"><ele>51.0</ele><time>2026-03-28T11:23:55.067Z</time></trkpt><trkpt lat="43.7534417" lon="10.9182767"><ele>54.199999999999996</ele><time>2026-03-28T11:23:56.067Z</time></trkpt><trkpt lat="43.7533967" lon="10.9184017"><ele>57.4</ele><time>2026-03-28T11:23:57.066Z</time></trkpt><trkpt lat="43.75335" lon="10.918535"><ele>60.6</ele><time>2026-03-28T11:23:58.067Z</time></trkpt><trkpt lat="43.7533067" lon="10.9186617"><ele>63.8</ele><time>2026-03-28T11:23:59.067Z</time></trkpt><trkpt lat="43.7532633" lon="10.9187883"><ele>67.0</ele><time>2026-03-28T11:24:00.067Z</time></trkpt><trkpt lat="43.75321" lon="10.91891"><ele>67.0</ele><time>2026-03-28T11:24:01.066Z</time></trkpt><trkpt lat="43.7531517" lon="10.9190283"><ele>67.0</ele><time>2026-03-28T11:24:02.067Z</time></trkpt><trkpt lat="43.753085" lon="10.9191517"><ele>67.0</ele><time>2026-03-28T11:24:03.067Z</time></trkpt><trkpt lat="43.7530217" lon="10.9192717"><ele>67.0</ele><time>2026-03-28T11:24:04.066Z</time></trkpt><trkpt lat="43.7529633" lon="10.9193967"><ele>67.0</ele><time>2026-03-28T11:24:05.067Z</time></trkpt><trkpt lat="43.7529033" lon="10.919525"><ele>67.2</ele><time>2026-03-28T11:24:06.067Z</time></trkpt><trkpt lat="43.7528467" lon="10.9196467"><ele>67.4</ele><time>2026-03-28T11:24:07.067Z</time></trkpt><trkpt lat="43.7527867" lon="10.9197583"><ele>67.6</ele><time>2026-03-28T11:24:08.067Z</time></trkpt><trkpt lat="43.7527217" lon="10.9198683"><ele>67.8</ele><time>2026-03-28T11:24:09.067Z</time></trkpt><trkpt lat="43.75266" lon="10.91998"><ele>68.0</ele><time>2026-03-28T11:24:10.067Z</time></trkpt><trkpt lat="43.752595" lon="10.9200733"><ele>70.5</ele><time>2026-03-28T11:24:11.066Z</time></trkpt><trkpt lat="43.7525417" lon="10.920155"><ele>73.0</ele><time>2026-03-28T11:24:12.067Z</time></trkpt><trkpt lat="43.7524883" lon="10.9202283"><ele>75.5</ele><time>2026-03-28T11:24:13.066Z</time></trkpt><trkpt lat="43.7524433" lon="10.92029"><ele>78.0</ele><time>2026-03-28T11:24:14.067Z</time></trkpt><trkpt lat="43.7523733" lon="10.92037"><ele>80.5</ele><time>2026-03-28T11:24:16.067Z</time></trkpt><trkpt lat="43.7523183" lon="10.920465"><ele>83.0</ele><time>2026-03-28T11:24:19.067Z</time></trkpt><trkpt lat="43.752305" lon="10.92059"><ele>83.0</ele><time>2026-03-28T11:24:21.067Z</time></trkpt><trkpt lat="43.7522967" lon="10.92075"><ele>83.0</ele><time>2026-03-28T11:24:23.067Z</time></trkpt><trkpt lat="43.752295" lon="10.9208433"><ele>83.0</ele><time>2026-03-28T11:24:24.067Z</time></trkpt><trkpt lat="43.7522917" lon="10.9209433"><ele>83.0</ele><time>2026-03-28T11:24:25.067Z</time></trkpt><trkpt lat="43.7522883" lon="10.9210517"><ele>83.0</ele><time>2026-03-28T11:24:26.067Z</time></trkpt><trkpt lat="43.752285" lon="10.9211617"><ele>83.0</ele><time>2026-03-28T11:24:27.066Z</time></trkpt><trkpt lat="43.752285" lon="10.9212717"><ele>83.16666666666667</ele><time>2026-03-28T11:24:28.067Z</time></trkpt><trkpt lat="43.7522833" lon="10.9213833"><ele>83.33333333333334</ele><time>2026-03-28T11:24:29.066Z</time></trkpt><trkpt lat="43.752275" lon="10.9215"><ele>83.5</ele><time>2026-03-28T11:24:30.067Z</time></trkpt><trkpt lat="43.7522633" lon="10.9216183"><ele>83.66666666666667</ele><time>2026-03-28T11:24:31.067Z</time></trkpt><trkpt lat="43.752245" lon="10.9217433"><ele>83.83333333333333</ele><time>2026-03-28T11:24:32.067Z</time></trkpt><trkpt lat="43.75223" lon="10.9218617"><ele>84.0</ele><time>2026-03-28T11:24:33.067Z</time></trkpt><trkpt lat="43.7522067" lon="10.9219767"><ele>83.66666666666667</ele><time>2026-03-28T11:24:34.067Z</time></trkpt><trkpt lat="43.75218" lon="10.9220967"><ele>83.33333333333333</ele><time>2026-03-28T11:24:35.067Z</time></trkpt><trkpt lat="43.752145" lon="10.922215"><ele>83.0</ele><time>2026-03-28T11:24:36.067Z</time></trkpt><trkpt lat="43.7521083" lon="10.9223233"><ele>82.66666666666666</ele><time>2026-03-28T11:24:37.067Z</time></trkpt><trkpt lat="43.7520733" lon="10.9224367"><ele>82.33333333333333</ele><time>2026-03-28T11:24:38.067Z</time></trkpt><trkpt lat="43.75204" lon="10.9225483"><ele>82.0</ele><time>2026-03-28T11:24:39.067Z</time></trkpt><trkpt lat="43.7520067" lon="10.922665"><ele>81.39999999999999</ele><time>2026-03-28T11:24:40.067Z</time></trkpt><trkpt lat="43.7519717" lon="10.9227817"><ele>80.8</ele><time>2026-03-28T11:24:41.067Z</time></trkpt><trkpt lat="43.7519383" lon="10.9229017"><ele>80.2</ele><time>2026-03-28T11:24:42.067Z</time></trkpt><trkpt lat="43.7519083" lon="10.923015"><ele>79.6</ele><time>2026-03-28T11:24:43.067Z</time></trkpt><trkpt lat="43.75188" lon="10.9231383"><ele>79.0</ele><time>2026-03-28T11:24:44.067Z</time></trkpt><trkpt lat="43.751855" lon="10.9232533"><ele>81.6</ele><time>2026-03-28T11:24:45.067Z</time></trkpt><trkpt lat="43.7518267" lon="10.9233817"><ele>84.2</ele><time>2026-03-28T11:24:46.066Z</time></trkpt><trkpt lat="43.7518017" lon="10.9235117"><ele>86.8</ele><time>2026-03-28T11:24:47.067Z</time></trkpt><trkpt lat="43.7517833" lon="10.92364"><ele>89.39999999999999</ele><time>2026-03-28T11:24:48.067Z</time></trkpt><trkpt lat="43.7517717" lon="10.9237633"><ele>92.0</ele><time>2026-03-28T11:24:49.066Z</time></trkpt><trkpt lat="43.751765" lon="10.9238967"><ele>93.0</ele><time>2026-03-28T11:24:50.067Z</time></trkpt><trkpt lat="43.7517617" lon="10.9240317"><ele>94.0</ele><time>2026-03-28T11:24:51.066Z</time></trkpt><trkpt lat="43.751765" lon="10.9241617"><ele>95.0</ele><time>2026-03-28T11:24:52.066Z</time></trkpt><trkpt lat="43.7517617" lon="10.924285"><ele>96.0</ele><time>2026-03-28T11:24:53.067Z</time></trkpt><trkpt lat="43.7517483" lon="10.9244033"><ele>97.0</ele><time>2026-03-28T11:24:54.067Z</time></trkpt><trkpt lat="43.75173" lon="10.92452"><ele>97.19999999999999</ele><time>2026-03-28T11:24:55.067Z</time></trkpt><trkpt lat="43.7517167" lon="10.9246217"><ele>97.4</ele><time>2026-03-28T11:24:56.067Z</time></trkpt><trkpt lat="43.7516733" lon="10.9247683"><ele>97.6</ele><time>2026-03-28T11:24:58.067Z</time></trkpt><trkpt lat="43.7516117" lon="10.9248667"><ele>97.80000000000001</ele><time>2026-03-28T11:25:00.067Z</time></trkpt><trkpt lat="43.7515933" lon="10.9249833"><ele>98.0</ele><time>2026-03-28T11:25:02.067Z</time></trkpt><trkpt lat="43.751615" lon="10.9251583"><ele>97.16666666666666</ele><time>2026-03-28T11:25:04.067Z</time></trkpt><trkpt lat="43.751655" lon="10.925265"><ele>96.33333333333333</ele><time>2026-03-28T11:25:05.067Z</time></trkpt><trkpt lat="43.7516933" lon="10.925375"><ele>95.5</ele><time>2026-03-28T11:25:06.066Z</time></trkpt><trkpt lat="43.7517283" lon="10.925465"><ele>94.66666666666666</ele><time>2026-03-28T11:25:07.066Z</time></trkpt><trkpt lat="43.751785" lon="10.9255867"><ele>93.83333333333333</ele><time>2026-03-28T11:25:09.067Z</time></trkpt><trkpt lat="43.7518483" lon="10.9256817"><ele>93.0</ele><time>2026-03-28T11:25:11.067Z</time></trkpt><trkpt lat="43.75191" lon="10.9258017"><ele>93.2</ele><time>2026-03-28T11:25:13.067Z</time></trkpt><trkpt lat="43.7519933" lon="10.9259533"><ele>93.4</ele><time>2026-03-28T11:25:15.066Z</time></trkpt><trkpt lat="43.752045" lon="10.9260483"><ele>93.60000000000001</ele><time>2026-03-28T11:25:16.067Z</time></trkpt><trkpt lat="43.7521" lon="10.9261383"><ele>93.80000000000001</ele><time>2026-03-28T11:25:17.066Z</time></trkpt><trkpt lat="43.752145" lon="10.9262317"><ele>94.0</ele><time>2026-03-28T11:25:18.066Z</time></trkpt><trkpt lat="43.7521883" lon="10.9263117"><ele>94.0</ele><time>2026-03-28T11:25:19.067Z</time></trkpt><trkpt lat="43.7522317" lon="10.926395"><ele>94.0</ele><time>2026-03-28T11:25:20.066Z</time></trkpt><trkpt lat="43.7522733" lon="10.9264683"><ele>94.0</ele><time>2026-03-28T11:25:21.067Z</time></trkpt><trkpt lat="43.7523333" lon="10.9266217"><ele>94.0</ele><time>2026-03-28T11:25:23.067Z</time></trkpt><trkpt lat="43.7523717" lon="10.926695"><ele>94.0</ele><time>2026-03-28T11:25:24.067Z</time></trkpt><trkpt lat="43.7524133" lon="10.9267717"><ele>94.0</ele><time>2026-03-28T11:25:25.067Z</time></trkpt><trkpt lat="43.75248" lon="10.9268933"><ele>94.4</ele><time>2026-03-28T11:25:27.067Z</time></trkpt><trkpt lat="43.7525433" lon="10.92703"><ele>94.80000000000001</ele><time>2026-03-28T11:25:29.067Z</time></trkpt><trkpt lat="43.752605" lon="10.9271583"><ele>95.19999999999999</ele><time>2026-03-28T11:25:31.067Z</time></trkpt><trkpt lat="43.7526517" lon="10.9272683"><ele>95.6</ele><time>2026-03-28T11:25:33.067Z</time></trkpt><trkpt lat="43.752685" lon="10.9273667"><ele>96.0</ele><time>2026-03-28T11:25:35.067Z</time></trkpt><trkpt lat="43.752725" lon="10.9274483"><ele>96.0</ele><time>2026-03-28T11:25:37.067Z</time></trkpt><trkpt lat="43.752775" lon="10.9275133"><ele>96.0</ele><time>2026-03-28T11:25:39.067Z</time></trkpt><trkpt lat="43.7528417" lon="10.9275833"><ele>96.0</ele><time>2026-03-28T11:25:41.066Z</time></trkpt><trkpt lat="43.7529283" lon="10.9276367"><ele>96.0</ele><time>2026-03-28T11:25:43.067Z</time></trkpt><trkpt lat="43.7530433" lon="10.92765"><ele>96.0</ele><time>2026-03-28T11:25:45.067Z</time></trkpt><trkpt lat="43.7531067" lon="10.9276583"><ele>96.0</ele><time>2026-03-28T11:25:46.067Z</time></trkpt><trkpt lat="43.753225" lon="10.92769"><ele>95.0</ele><time>2026-03-28T11:25:48.067Z</time></trkpt><trkpt lat="43.75329" lon="10.9277067"><ele>94.0</ele><time>2026-03-28T11:25:49.067Z</time></trkpt><trkpt lat="43.753355" lon="10.9277283"><ele>93.0</ele><time>2026-03-28T11:25:50.067Z</time></trkpt><trkpt lat="43.7534183" lon="10.9277517"><ele>92.0</ele><time>2026-03-28T11:25:51.066Z</time></trkpt><trkpt lat="43.7535383" lon="10.9278"><ele>91.0</ele><time>2026-03-28T11:25:53.067Z</time></trkpt><trkpt lat="43.75361" lon="10.927825"><ele>90.0</ele><time>2026-03-28T11:25:54.067Z</time></trkpt><trkpt lat="43.7536817" lon="10.92785"><ele>89.6</ele><time>2026-03-28T11:25:55.067Z</time></trkpt><trkpt lat="43.753755" lon="10.927875"><ele>89.2</ele><time>2026-03-28T11:25:56.067Z</time></trkpt><trkpt lat="43.75383" lon="10.927895"><ele>88.80000000000001</ele><time>2026-03-28T11:25:57.067Z</time></trkpt><trkpt lat="43.7539" lon="10.92791"><ele>88.4</ele><time>2026-03-28T11:25:58.067Z</time></trkpt><trkpt lat="43.7540248" lon="10.9279491"><ele>88.0</ele><time>2026-03-28T11:26:00.067Z</time></trkpt><trkpt lat="43.7541455" lon="10.9279903"><ele>88.0</ele><time>2026-03-28T11:26:02.067Z</time></trkpt><trkpt lat="43.7542096" lon="10.9280113"><ele>88.0</ele><time>2026-03-28T11:26:03.067Z</time></trkpt><trkpt lat="43.7542726" lon="10.9280281"><ele>88.0</ele><time>2026-03-28T11:26:04.067Z</time></trkpt><trkpt lat="43.7543775" lon="10.9280548"><ele>88.0</ele><time>2026-03-28T11:26:06.067Z</time></trkpt><trkpt lat="43.7544405" lon="10.9280638"><ele>88.0</ele><time>2026-03-28T11:26:08.066Z</time></trkpt><trkpt lat="43.7545633" lon="10.928037"><ele>88.0</ele><time>2026-03-28T11:26:12.067Z</time></trkpt><trkpt lat="43.7546878" lon="10.9279747"><ele>86.80000000000001</ele><time>2026-03-28T11:26:14.067Z</time></trkpt><trkpt lat="43.7547663" lon="10.9279635"><ele>85.6</ele><time>2026-03-28T11:26:15.067Z</time></trkpt><trkpt lat="43.7548526" lon="10.9279688"><ele>84.4</ele><time>2026-03-28T11:26:16.066Z</time></trkpt><trkpt lat="43.75494" lon="10.9279883"><ele>83.19999999999999</ele><time>2026-03-28T11:26:17.067Z</time></trkpt><trkpt lat="43.7550299" lon="10.9280217"><ele>82.0</ele><time>2026-03-28T11:26:18.067Z</time></trkpt><trkpt lat="43.7551288" lon="10.9280754"><ele>82.0</ele><time>2026-03-28T11:26:19.067Z</time></trkpt><trkpt lat="43.7552371" lon="10.9281492"><ele>82.0</ele><time>2026-03-28T11:26:20.067Z</time></trkpt><trkpt lat="43.755346" lon="10.9282407"><ele>82.0</ele><time>2026-03-28T11:26:21.067Z</time></trkpt><trkpt lat="43.7554563" lon="10.9283304"><ele>82.0</ele><time>2026-03-28T11:26:22.067Z</time></trkpt><trkpt lat="43.7555627" lon="10.9284117"><ele>82.0</ele><time>2026-03-28T11:26:23.067Z</time></trkpt><trkpt lat="43.7556655" lon="10.9284844"><ele>82.0</ele><time>2026-03-28T11:26:24.067Z</time></trkpt><trkpt lat="43.7557637" lon="10.9285516"><ele>82.0</ele><time>2026-03-28T11:26:25.066Z</time></trkpt><trkpt lat="43.7558538" lon="10.9286114"><ele>82.0</ele><time>2026-03-28T11:26:26.067Z</time></trkpt><trkpt lat="43.7559387" lon="10.9286576"><ele>82.0</ele><time>2026-03-28T11:26:27.067Z</time></trkpt><trkpt lat="43.7560237" lon="10.9286953"><ele>83.33333333333333</ele><time>2026-03-28T11:26:28.067Z</time></trkpt><trkpt lat="43.7561069" lon="10.9287251"><ele>84.66666666666666</ele><time>2026-03-28T11:26:29.066Z</time></trkpt><trkpt lat="43.7561868" lon="10.9287474"><ele>86.0</ele><time>2026-03-28T11:26:30.067Z</time></trkpt><trkpt lat="43.7562639" lon="10.9287643"><ele>87.33333333333333</ele><time>2026-03-28T11:26:31.067Z</time></trkpt><trkpt lat="43.756335" lon="10.9287733"><ele>88.66666666666667</ele><time>2026-03-28T11:26:32.067Z</time></trkpt><trkpt lat="43.7564133" lon="10.92879"><ele>90.0</ele><time>2026-03-28T11:26:33.067Z</time></trkpt><trkpt lat="43.756495" lon="10.9288217"><ele>90.0</ele><time>2026-03-28T11:26:34.067Z</time></trkpt><trkpt lat="43.7565783" lon="10.9288517"><ele>90.0</ele><time>2026-03-28T11:26:35.067Z</time></trkpt><trkpt lat="43.7566667" lon="10.9288783"><ele>90.0</ele><time>2026-03-28T11:26:36.067Z</time></trkpt><trkpt lat="43.7567483" lon="10.9288967"><ele>90.0</ele><time>2026-03-28T11:26:37.067Z</time></trkpt><trkpt lat="43.75683" lon="10.9289133"><ele>90.0</ele><time>2026-03-28T11:26:38.066Z</time></trkpt><trkpt lat="43.7569067" lon="10.9289217"><ele>90.0</ele><time>2026-03-28T11:26:39.067Z</time></trkpt><trkpt lat="43.7569833" lon="10.92893"><ele>90.16666666666667</ele><time>2026-03-28T11:26:40.067Z</time></trkpt><trkpt lat="43.75706" lon="10.92893"><ele>90.33333333333333</ele><time>2026-03-28T11:26:41.067Z</time></trkpt><trkpt lat="43.7571417" lon="10.9289333"><ele>90.5</ele><time>2026-03-28T11:26:42.067Z</time></trkpt><trkpt lat="43.7572167" lon="10.928935"><ele>90.66666666666666</ele><time>2026-03-28T11:26:43.066Z</time></trkpt><trkpt lat="43.7572933" lon="10.92894"><ele>90.83333333333333</ele><time>2026-03-28T11:26:44.067Z</time></trkpt><trkpt lat="43.7573783" lon="10.9289433"><ele>91.0</ele><time>2026-03-28T11:26:45.067Z</time></trkpt><trkpt lat="43.75746" lon="10.9289517"><ele>91.0</ele><time>2026-03-28T11:26:46.067Z</time></trkpt><trkpt lat="43.7575467" lon="10.9289533"><ele>91.0</ele><time>2026-03-28T11:26:47.067Z</time></trkpt><trkpt lat="43.7576333" lon="10.9289567"><ele>91.0</ele><time>2026-03-28T11:26:48.067Z</time></trkpt><trkpt lat="43.7577183" lon="10.9289483"><ele>91.0</ele><time>2026-03-28T11:26:49.066Z</time></trkpt><trkpt lat="43.7578083" lon="10.9289167"><ele>91.0</ele><time>2026-03-28T11:26:50.066Z</time></trkpt><trkpt lat="43.75789" lon="10.9288717"><ele>91.0</ele><time>2026-03-28T11:26:51.067Z</time></trkpt><trkpt lat="43.757965" lon="10.928815"><ele>91.0</ele><time>2026-03-28T11:26:52.066Z</time></trkpt><trkpt lat="43.7580433" lon="10.92876"><ele>91.0</ele><time>2026-03-28T11:26:53.067Z</time></trkpt><trkpt lat="43.7581167" lon="10.9287067"><ele>91.0</ele><time>2026-03-28T11:26:54.066Z</time></trkpt><trkpt lat="43.7581867" lon="10.9286517"><ele>91.0</ele><time>2026-03-28T11:26:55.066Z</time></trkpt><trkpt lat="43.75826" lon="10.9285983"><ele>91.0</ele><time>2026-03-28T11:26:56.066Z</time></trkpt><trkpt lat="43.758335" lon="10.9285483"><ele>91.0</ele><time>2026-03-28T11:26:57.067Z</time></trkpt><trkpt lat="43.7584133" lon="10.9284983"><ele>91.0</ele><time>2026-03-28T11:26:58.067Z</time></trkpt><trkpt lat="43.7584933" lon="10.9284483"><ele>91.0</ele><time>2026-03-28T11:26:59.066Z</time></trkpt><trkpt lat="43.7585717" lon="10.9283967"><ele>91.0</ele><time>2026-03-28T11:27:00.067Z</time></trkpt><trkpt lat="43.758655" lon="10.9283433"><ele>91.0</ele><time>2026-03-28T11:27:01.067Z</time></trkpt><trkpt lat="43.7587367" lon="10.9282883"><ele>91.0</ele><time>2026-03-28T11:27:02.067Z</time></trkpt><trkpt lat="43.7588167" lon="10.9282367"><ele>91.0</ele><time>2026-03-28T11:27:03.067Z</time></trkpt><trkpt lat="43.7588917" lon="10.928195"><ele>90.5</ele><time>2026-03-28T11:27:04.066Z</time></trkpt><trkpt lat="43.7589667" lon="10.928155"><ele>90.0</ele><time>2026-03-28T11:27:05.066Z</time></trkpt><trkpt lat="43.759035" lon="10.9281133"><ele>89.5</ele><time>2026-03-28T11:27:06.067Z</time></trkpt><trkpt lat="43.759115" lon="10.9280533"><ele>89.0</ele><time>2026-03-28T11:27:08.067Z</time></trkpt><trkpt lat="43.759195" lon="10.9280067"><ele>88.5</ele><time>2026-03-28T11:27:10.066Z</time></trkpt><trkpt lat="43.7592917" lon="10.9279567"><ele>88.0</ele><time>2026-03-28T11:27:12.067Z</time></trkpt><trkpt lat="43.7593933" lon="10.927895"><ele>85.25</ele><time>2026-03-28T11:27:14.066Z</time></trkpt><trkpt lat="43.7595" lon="10.927825"><ele>82.5</ele><time>2026-03-28T11:27:16.067Z</time></trkpt><trkpt lat="43.7595917" lon="10.9277617"><ele>79.75</ele><time>2026-03-28T11:27:18.067Z</time></trkpt><trkpt lat="43.7596633" lon="10.9277267"><ele>77.0</ele><time>2026-03-28T11:27:20.067Z</time></trkpt><trkpt lat="43.7597783" lon="10.9279483"><ele>77.0</ele><time>2026-03-28T11:27:27.067Z</time></trkpt><trkpt lat="43.7597983" lon="10.9281033"><ele>77.0</ele><time>2026-03-28T11:27:29.067Z</time></trkpt><trkpt lat="43.75981" lon="10.92819"><ele>77.0</ele><time>2026-03-28T11:27:30.067Z</time></trkpt><trkpt lat="43.7598267" lon="10.9283633"><ele>77.0</ele><time>2026-03-28T11:27:32.067Z</time></trkpt><trkpt lat="43.759855" lon="10.9285233"><ele>77.0</ele><time>2026-03-28T11:27:34.067Z</time></trkpt><trkpt lat="43.7598717" lon="10.928695"><ele>76.33333333333334</ele><time>2026-03-28T11:27:36.066Z</time></trkpt><trkpt lat="43.75989" lon="10.928855"><ele>75.66666666666667</ele><time>2026-03-28T11:27:38.067Z</time></trkpt><trkpt lat="43.759905" lon="10.9290133"><ele>75.0</ele><time>2026-03-28T11:27:40.067Z</time></trkpt><trkpt lat="43.7599167" lon="10.9291033"><ele>74.33333333333333</ele><time>2026-03-28T11:27:41.067Z</time></trkpt><trkpt lat="43.759925" lon="10.92919"><ele>73.66666666666666</ele><time>2026-03-28T11:27:42.067Z</time></trkpt><trkpt lat="43.759935" lon="10.9292783"><ele>73.0</ele><time>2026-03-28T11:27:43.067Z</time></trkpt><trkpt lat="43.759945" lon="10.9293683"><ele>73.0</ele><time>2026-03-28T11:27:44.067Z</time></trkpt><trkpt lat="43.7599567" lon="10.9294617"><ele>73.0</ele><time>2026-03-28T11:27:45.067Z</time></trkpt><trkpt lat="43.7599667" lon="10.929555"><ele>73.0</ele><time>2026-03-28T11:27:46.066Z</time></trkpt><trkpt lat="43.759975" lon="10.92965"><ele>73.0</ele><time>2026-03-28T11:27:47.066Z</time></trkpt><trkpt lat="43.75998" lon="10.929745"><ele>73.0</ele><time>2026-03-28T11:27:48.067Z</time></trkpt><trkpt lat="43.7600033" lon="10.929905"><ele>73.0</ele><time>2026-03-28T11:27:50.067Z</time></trkpt><trkpt lat="43.76002" lon="10.9300667"><ele>73.4</ele><time>2026-03-28T11:27:52.067Z</time></trkpt><trkpt lat="43.7600483" lon="10.9302233"><ele>73.8</ele><time>2026-03-28T11:27:54.067Z</time></trkpt><trkpt lat="43.7600667" lon="10.9303567"><ele>74.2</ele><time>2026-03-28T11:27:56.066Z</time></trkpt><trkpt lat="43.7600917" lon="10.9304917"><ele>74.6</ele><time>2026-03-28T11:27:58.066Z</time></trkpt><trkpt lat="43.760115" lon="10.9306517"><ele>75.0</ele><time>2026-03-28T11:28:00.066Z</time></trkpt><trkpt lat="43.760135" lon="10.9308017"><ele>74.16666666666667</ele><time>2026-03-28T11:28:02.066Z</time></trkpt><trkpt lat="43.7601533" lon="10.9309333"><ele>73.33333333333333</ele><time>2026-03-28T11:28:04.066Z</time></trkpt><trkpt lat="43.760175" lon="10.9310633"><ele>72.5</ele><time>2026-03-28T11:28:06.067Z</time></trkpt><trkpt lat="43.7601848" lon="10.931158"><ele>71.66666666666666</ele><time>2026-03-28T11:28:08.067Z</time></trkpt><trkpt lat="43.7601946" lon="10.9312647"><ele>70.83333333333333</ele><time>2026-03-28T11:28:11.067Z</time></trkpt><trkpt lat="43.7602252" lon="10.931356"><ele>70.0</ele><time>2026-03-28T11:28:14.067Z</time></trkpt><trkpt lat="43.76023" lon="10.9314499"><ele>68.33333333333333</ele><time>2026-03-28T11:28:17.103Z</time></trkpt><trkpt lat="43.7602372" lon="10.9315799"><ele>66.66666666666666</ele><time>2026-03-28T11:28:20.011Z</time></trkpt><trkpt lat="43.7602234" lon="10.9316865"><ele>65.0</ele><time>2026-03-28T11:28:22.029Z</time></trkpt><trkpt lat="43.7602282" lon="10.9317782"><ele>63.33333333333333</ele><time>2026-03-28T11:28:24.137Z</time></trkpt><trkpt lat="43.7602818" lon="10.9318291"><ele>61.666666666666664</ele><time>2026-03-28T11:28:26.132Z</time></trkpt><trkpt lat="43.7603567" lon="10.9318222"><ele>60.0</ele><time>2026-03-28T11:28:29.072Z</time></trkpt><trkpt lat="43.7604359" lon="10.9318153"><ele>59.0</ele><time>2026-03-28T11:28:31.992Z</time></trkpt><trkpt lat="43.7605175" lon="10.9318373"><ele>58.0</ele><time>2026-03-28T11:28:34.112Z</time></trkpt><trkpt lat="43.7605852" lon="10.9318467"><ele>57.0</ele><time>2026-03-28T11:28:36.107Z</time></trkpt><trkpt lat="43.7606578" lon="10.9318426"><ele>56.0</ele><time>2026-03-28T11:28:38.102Z</time></trkpt><trkpt lat="43.760727" lon="10.9318432"><ele>55.0</ele><time>2026-03-28T11:28:40.127Z</time></trkpt><trkpt lat="43.7607975" lon="10.9318543"><ele>54.0</ele><time>2026-03-28T11:28:42.092Z</time></trkpt><trkpt lat="43.7608771" lon="10.9318673"><ele>53.0</ele><time>2026-03-28T11:28:44.087Z</time></trkpt><trkpt lat="43.7609568" lon="10.9318695"><ele>52.00000000000001</ele><time>2026-03-28T11:28:45.067Z</time></trkpt><trkpt lat="43.7610491" lon="10.9318731"><ele>51.0</ele><time>2026-03-28T11:28:46.067Z</time></trkpt><trkpt lat="43.761138" lon="10.9318751"><ele>50.0</ele><time>2026-03-28T11:28:47.066Z</time></trkpt><trkpt lat="43.761215" lon="10.9318717"><ele>49.0</ele><time>2026-03-28T11:28:48.066Z</time></trkpt><trkpt lat="43.7612796" lon="10.9318648"><ele>48.0</ele><time>2026-03-28T11:28:49.066Z</time></trkpt><trkpt lat="43.761392" lon="10.9318566"><ele>47.0</ele><time>2026-03-28T11:28:51.067Z</time></trkpt><trkpt lat="43.7614876" lon="10.9318535"><ele>47.0</ele><time>2026-03-28T11:28:53.066Z</time></trkpt><trkpt lat="43.7615707" lon="10.9318463"><ele>47.0</ele><time>2026-03-28T11:28:55.067Z</time></trkpt><trkpt lat="43.7616338" lon="10.93189"><ele>47.0</ele><time>2026-03-28T11:28:57.066Z</time></trkpt><trkpt lat="43.7616548" lon="10.9320054"><ele>47.0</ele><time>2026-03-28T11:28:59.067Z</time></trkpt><trkpt lat="43.7616709" lon="10.9321286"><ele>47.0</ele><time>2026-03-28T11:29:01.066Z</time></trkpt><trkpt lat="43.7616975" lon="10.9322962"><ele>47.0</ele><time>2026-03-28T11:29:03.067Z</time></trkpt><trkpt lat="43.7617214" lon="10.9324464"><ele>47.0</ele><time>2026-03-28T11:29:05.067Z</time></trkpt><trkpt lat="43.7617442" lon="10.9325899"><ele>47.0</ele><time>2026-03-28T11:29:07.067Z</time></trkpt><trkpt lat="43.761765" lon="10.9327268"><ele>47.0</ele><time>2026-03-28T11:29:09.066Z</time></trkpt><trkpt lat="43.761783" lon="10.9328574"><ele>47.0</ele><time>2026-03-28T11:29:11.067Z</time></trkpt><trkpt lat="43.7617956" lon="10.9329801"><ele>46.714285714285715</ele><time>2026-03-28T11:29:13.067Z</time></trkpt><trkpt lat="43.7618147" lon="10.9330935"><ele>46.42857142857143</ele><time>2026-03-28T11:29:15.066Z</time></trkpt><trkpt lat="43.7618352" lon="10.9331862"><ele>46.14285714285714</ele><time>2026-03-28T11:29:17.067Z</time></trkpt><trkpt lat="43.7618509" lon="10.933272"><ele>45.85714285714286</ele><time>2026-03-28T11:29:21.067Z</time></trkpt><trkpt lat="43.7618867" lon="10.933345"><ele>45.57142857142858</ele><time>2026-03-28T11:30:48.066Z</time></trkpt><trkpt lat="43.7619683" lon="10.9333417"><ele>45.285714285714285</ele><time>2026-03-28T11:30:51.067Z</time></trkpt><trkpt lat="43.7620533" lon="10.9333367"><ele>45.0</ele><time>2026-03-28T11:30:54.067Z</time></trkpt><trkpt lat="43.762125" lon="10.93334"><ele>44.857142857142854</ele><time>2026-03-28T11:30:56.067Z</time></trkpt><trkpt lat="43.76221" lon="10.9333533"><ele>44.714285714285715</ele><time>2026-03-28T11:30:59.067Z</time></trkpt><trkpt lat="43.7622883" lon="10.93336"><ele>44.57142857142857</ele><time>2026-03-28T11:31:03.066Z</time></trkpt><trkpt lat="43.762355" lon="10.9333567"><ele>44.42857142857143</ele><time>2026-03-28T11:31:06.067Z</time></trkpt><trkpt lat="43.7624217" lon="10.9333583"><ele>44.285714285714285</ele><time>2026-03-28T11:31:22.066Z</time></trkpt><trkpt lat="43.7624867" lon="10.93337"><ele>44.142857142857146</ele><time>2026-03-28T11:31:24.066Z</time></trkpt><trkpt lat="43.7625533" lon="10.93338"><ele>44.0</ele><time>2026-03-28T11:31:26.066Z</time></trkpt><trkpt lat="43.7626383" lon="10.933395"><ele>44.666666666666664</ele><time>2026-03-28T11:31:28.066Z</time></trkpt><trkpt lat="43.762715" lon="10.9334133"><ele>45.33333333333333</ele><time>2026-03-28T11:31:30.066Z</time></trkpt><trkpt lat="43.76278" lon="10.9334383"><ele>46.0</ele><time>2026-03-28T11:31:32.067Z</time></trkpt><trkpt lat="43.7628583" lon="10.9334517"><ele>46.666666666666664</ele><time>2026-03-28T11:31:34.067Z</time></trkpt><trkpt lat="43.76293" lon="10.93347"><ele>47.333333333333336</ele><time>2026-03-28T11:31:36.067Z</time></trkpt><trkpt lat="43.763015" lon="10.933485"><ele>48.0</ele><time>2026-03-28T11:31:38.066Z</time></trkpt><trkpt lat="43.763095" lon="10.9335"><ele>47.99999999999999</ele><time>2026-03-28T11:31:40.066Z</time></trkpt><trkpt lat="43.7631633" lon="10.9335283"><ele>48.0</ele><time>2026-03-28T11:31:42.067Z</time></trkpt><trkpt lat="43.7632" lon="10.9336367"><ele>48.0</ele><time>2026-03-28T11:31:45.067Z</time></trkpt><trkpt lat="43.7632227" lon="10.9337358"><ele>48.0</ele><time>2026-03-28T11:31:48.008Z</time></trkpt><trkpt lat="43.7632387" lon="10.9338301"><ele>48.0</ele><time>2026-03-28T11:31:50.072Z</time></trkpt><trkpt lat="43.7632639" lon="10.9339215"><ele>47.99999999999999</ele><time>2026-03-28T11:31:52.069Z</time></trkpt><trkpt lat="43.7632568" lon="10.9340125"><ele>48.0</ele><time>2026-03-28T11:31:55.113Z</time></trkpt><trkpt lat="43.7632383" lon="10.9340979"><ele>48.0</ele><time>2026-03-28T11:31:58.108Z</time></trkpt><trkpt lat="43.7632528" lon="10.934217"><ele>48.0</ele><time>2026-03-28T11:32:01.1Z</time></trkpt><trkpt lat="43.7632628" lon="10.934312"><ele>48.0</ele><time>2026-03-28T11:32:03.095Z</time></trkpt><trkpt lat="43.7632716" lon="10.9344259"><ele>48.0</ele><time>2026-03-28T11:32:05.09Z</time></trkpt><trkpt lat="43.7632606" lon="10.9345315"><ele>48.0</ele><time>2026-03-28T11:32:07.085Z</time></trkpt><trkpt lat="43.7631814" lon="10.934543"><ele>48.0</ele><time>2026-03-28T11:32:10.089Z</time></trkpt><trkpt lat="43.7631303" lon="10.9344739"><ele>49.333333333333336</ele><time>2026-03-28T11:32:12.126Z</time></trkpt><trkpt lat="43.7630759" lon="10.9345404"><ele>50.66666666666667</ele><time>2026-03-28T11:32:14.121Z</time></trkpt><trkpt lat="43.7630728" lon="10.9346412"><ele>52.0</ele><time>2026-03-28T11:32:16.116Z</time></trkpt><trkpt lat="43.763093" lon="10.9347718"><ele>53.333333333333336</ele><time>2026-03-28T11:32:18.271Z</time></trkpt><trkpt lat="43.7630975" lon="10.9348977"><ele>54.66666666666667</ele><time>2026-03-28T11:32:20.317Z</time></trkpt><trkpt lat="43.7630998" lon="10.9349893"><ele>56.0</ele><time>2026-03-28T11:32:21.393Z</time></trkpt><trkpt lat="43.7631002" lon="10.9350801"><ele>58.0</ele><time>2026-03-28T11:32:22.786Z</time></trkpt><trkpt lat="43.7631116" lon="10.9352671"><ele>59.99999999999999</ele><time>2026-03-28T11:32:25.067Z</time></trkpt><trkpt lat="43.7631158" lon="10.9354161"><ele>61.99999999999999</ele><time>2026-03-28T11:32:26.909Z</time></trkpt><trkpt lat="43.7631117" lon="10.9355295"><ele>64.0</ele><time>2026-03-28T11:32:28.067Z</time></trkpt><trkpt lat="43.76311" lon="10.935691"><ele>66.0</ele><time>2026-03-28T11:32:30.066Z</time></trkpt><trkpt lat="43.7631112" lon="10.9358347"><ele>67.8</ele><time>2026-03-28T11:32:32.066Z</time></trkpt><trkpt lat="43.7631109" lon="10.9359855"><ele>69.6</ele><time>2026-03-28T11:32:34.067Z</time></trkpt><trkpt lat="43.7631053" lon="10.9361542"><ele>71.4</ele><time>2026-03-28T11:32:36.066Z</time></trkpt><trkpt lat="43.7631011" lon="10.9362447"><ele>73.2</ele><time>2026-03-28T11:32:37.066Z</time></trkpt><trkpt lat="43.7630919" lon="10.9364065"><ele>75.0</ele><time>2026-03-28T11:32:39.067Z</time></trkpt><trkpt lat="43.7630876" lon="10.9365673"><ele>76.2</ele><time>2026-03-28T11:32:41.067Z</time></trkpt><trkpt lat="43.7630837" lon="10.9367225"><ele>77.4</ele><time>2026-03-28T11:32:43.067Z</time></trkpt><trkpt lat="43.7630828" lon="10.936868"><ele>78.6</ele><time>2026-03-28T11:32:45.067Z</time></trkpt><trkpt lat="43.7630872" lon="10.9370036"><ele>79.8</ele><time>2026-03-28T11:32:47.066Z</time></trkpt><trkpt lat="43.7630841" lon="10.9371439"><ele>81.0</ele><time>2026-03-28T11:32:49.067Z</time></trkpt><trkpt lat="43.7631117" lon="10.9372467"><ele>81.0</ele><time>2026-03-28T11:33:31.067Z</time></trkpt><trkpt lat="43.7630383" lon="10.9372"><ele>81.0</ele><time>2026-03-28T11:33:49.067Z</time></trkpt><trkpt lat="43.76296" lon="10.9371983"><ele>81.0</ele><time>2026-03-28T11:33:52.067Z</time></trkpt><trkpt lat="43.7628967" lon="10.93721"><ele>81.0</ele><time>2026-03-28T11:33:54.067Z</time></trkpt><trkpt lat="43.7628333" lon="10.937235"><ele>81.0</ele><time>2026-03-28T11:33:56.067Z</time></trkpt><trkpt lat="43.762785" lon="10.93731"><ele>81.0</ele><time>2026-03-28T11:34:12.067Z</time></trkpt><trkpt lat="43.7628017" lon="10.93743"><ele>81.0</ele><time>2026-03-28T11:34:15.066Z</time></trkpt><trkpt lat="43.762815" lon="10.9375167"><ele>81.0</ele><time>2026-03-28T11:34:17.066Z</time></trkpt><trkpt lat="43.7628233" lon="10.9376417"><ele>81.0</ele><time>2026-03-28T11:34:20.066Z</time></trkpt><trkpt lat="43.7628467" lon="10.9377433"><ele>81.0</ele><time>2026-03-28T11:34:23.067Z</time></trkpt><trkpt lat="43.76286" lon="10.937865"><ele>81.0</ele><time>2026-03-28T11:34:26.067Z</time></trkpt><trkpt lat="43.7628717" lon="10.9379517"><ele>81.0</ele><time>2026-03-28T11:34:28.067Z</time></trkpt><trkpt lat="43.76289" lon="10.938075"><ele>81.4</ele><time>2026-03-28T11:34:31.067Z</time></trkpt><trkpt lat="43.7629" lon="10.9381633"><ele>81.8</ele><time>2026-03-28T11:34:33.066Z</time></trkpt><trkpt lat="43.7629533" lon="10.9382267"><ele>82.2</ele><time>2026-03-28T11:34:37.067Z</time></trkpt><trkpt lat="43.76302" lon="10.9382283"><ele>82.60000000000001</ele><time>2026-03-28T11:34:39.067Z</time></trkpt><trkpt lat="43.763125" lon="10.9382183"><ele>83.0</ele><time>2026-03-28T11:34:41.067Z</time></trkpt><trkpt lat="43.7633033" lon="10.93821"><ele>83.0</ele><time>2026-03-28T11:34:44.066Z</time></trkpt><trkpt lat="43.7634233" lon="10.9382033"><ele>83.0</ele><time>2026-03-28T11:34:46.066Z</time></trkpt><trkpt lat="43.76349" lon="10.938195"><ele>83.0</ele><time>2026-03-28T11:34:47.067Z</time></trkpt><trkpt lat="43.76356" lon="10.93819"><ele>83.0</ele><time>2026-03-28T11:34:48.067Z</time></trkpt><trkpt lat="43.7636383" lon="10.93818"><ele>83.0</ele><time>2026-03-28T11:34:49.066Z</time></trkpt><trkpt lat="43.763715" lon="10.93817"><ele>83.0</ele><time>2026-03-28T11:34:50.066Z</time></trkpt><trkpt lat="43.7638" lon="10.93816"><ele>82.66666666666667</ele><time>2026-03-28T11:34:51.067Z</time></trkpt><trkpt lat="43.7638833" lon="10.9381517"><ele>82.33333333333334</ele><time>2026-03-28T11:34:52.067Z</time></trkpt><trkpt lat="43.76397" lon="10.938145"><ele>82.0</ele><time>2026-03-28T11:34:53.067Z</time></trkpt><trkpt lat="43.7640583" lon="10.9381383"><ele>81.66666666666667</ele><time>2026-03-28T11:34:54.067Z</time></trkpt><trkpt lat="43.7641383" lon="10.9381283"><ele>81.33333333333333</ele><time>2026-03-28T11:34:55.067Z</time></trkpt><trkpt lat="43.7642167" lon="10.9381183"><ele>81.0</ele><time>2026-03-28T11:34:56.067Z</time></trkpt><trkpt lat="43.7642967" lon="10.9381117"><ele>81.57142857142857</ele><time>2026-03-28T11:34:57.067Z</time></trkpt><trkpt lat="43.76437" lon="10.9381233"><ele>82.14285714285714</ele><time>2026-03-28T11:34:58.067Z</time></trkpt><trkpt lat="43.7644433" lon="10.9381233"><ele>82.71428571428572</ele><time>2026-03-28T11:34:59.067Z</time></trkpt><trkpt lat="43.7645133" lon="10.9381233"><ele>83.28571428571428</ele><time>2026-03-28T11:35:00.066Z</time></trkpt><trkpt lat="43.7645833" lon="10.9381183"><ele>83.85714285714285</ele><time>2026-03-28T11:35:01.067Z</time></trkpt><trkpt lat="43.7646583" lon="10.93811"><ele>84.42857142857143</ele><time>2026-03-28T11:35:02.067Z</time></trkpt><trkpt lat="43.7647367" lon="10.938095"><ele>85.0</ele><time>2026-03-28T11:35:03.066Z</time></trkpt><trkpt lat="43.7648133" lon="10.9380833"><ele>85.0</ele><time>2026-03-28T11:35:04.066Z</time></trkpt><trkpt lat="43.76489" lon="10.9380783"><ele>85.0</ele><time>2026-03-28T11:35:05.067Z</time></trkpt><trkpt lat="43.7649533" lon="10.9380833"><ele>85.0</ele><time>2026-03-28T11:35:06.066Z</time></trkpt><trkpt lat="43.765075" lon="10.93809"><ele>85.0</ele><time>2026-03-28T11:35:08.066Z</time></trkpt><trkpt lat="43.7651883" lon="10.9380917"><ele>85.0</ele><time>2026-03-28T11:35:10.066Z</time></trkpt><trkpt lat="43.7653167" lon="10.9381033"><ele>84.2</ele><time>2026-03-28T11:35:12.067Z</time></trkpt><trkpt lat="43.7653833" lon="10.9381083"><ele>83.4</ele><time>2026-03-28T11:35:13.067Z</time></trkpt><trkpt lat="43.7654483" lon="10.9381067"><ele>82.6</ele><time>2026-03-28T11:35:14.067Z</time></trkpt><trkpt lat="43.765555" lon="10.9381083"><ele>81.8</ele><time>2026-03-28T11:35:16.067Z</time></trkpt><trkpt lat="43.7656117" lon="10.93822"><ele>81.0</ele><time>2026-03-28T11:35:19.066Z</time></trkpt><trkpt lat="43.76561" lon="10.9384133"><ele>80.2</ele><time>2026-03-28T11:35:21.067Z</time></trkpt><trkpt lat="43.7656" lon="10.93853"><ele>79.39999999999999</ele><time>2026-03-28T11:35:22.066Z</time></trkpt><trkpt lat="43.7655933" lon="10.938645"><ele>78.6</ele><time>2026-03-28T11:35:23.066Z</time></trkpt><trkpt lat="43.765585" lon="10.9387617"><ele>77.8</ele><time>2026-03-28T11:35:24.066Z</time></trkpt><trkpt lat="43.7655717" lon="10.9388917"><ele>77.0</ele><time>2026-03-28T11:35:25.066Z</time></trkpt><trkpt lat="43.76555" lon="10.9390317"><ele>77.0</ele><time>2026-03-28T11:35:26.067Z</time></trkpt><trkpt lat="43.7655217" lon="10.9391617"><ele>77.0</ele><time>2026-03-28T11:35:27.066Z</time></trkpt><trkpt lat="43.76549" lon="10.9392967"><ele>77.0</ele><time>2026-03-28T11:35:28.067Z</time></trkpt><trkpt lat="43.765455" lon="10.9394267"><ele>77.0</ele><time>2026-03-28T11:35:29.067Z</time></trkpt><trkpt lat="43.7654183" lon="10.9395633"><ele>77.0</ele><time>2026-03-28T11:35:30.067Z</time></trkpt><trkpt lat="43.7653833" lon="10.9396983"><ele>76.0</ele><time>2026-03-28T11:35:31.067Z</time></trkpt><trkpt lat="43.7653467" lon="10.9398383"><ele>75.0</ele><time>2026-03-28T11:35:32.067Z</time></trkpt><trkpt lat="43.7653083" lon="10.9399817"><ele>74.0</ele><time>2026-03-28T11:35:33.067Z</time></trkpt><trkpt lat="43.765265" lon="10.9401183"><ele>73.0</ele><time>2026-03-28T11:35:34.067Z</time></trkpt><trkpt lat="43.7652283" lon="10.94025"><ele>72.0</ele><time>2026-03-28T11:35:35.067Z</time></trkpt><trkpt lat="43.7651917" lon="10.9403767"><ele>69.6</ele><time>2026-03-28T11:35:36.067Z</time></trkpt><trkpt lat="43.765165" lon="10.9405033"><ele>67.2</ele><time>2026-03-28T11:35:37.067Z</time></trkpt><trkpt lat="43.7651433" lon="10.9406283"><ele>64.8</ele><time>2026-03-28T11:35:38.067Z</time></trkpt><trkpt lat="43.7651267" lon="10.9407567"><ele>62.4</ele><time>2026-03-28T11:35:39.067Z</time></trkpt><trkpt lat="43.7651033" lon="10.9408967"><ele>60.0</ele><time>2026-03-28T11:35:40.067Z</time></trkpt><trkpt lat="43.7650817" lon="10.9410383"><ele>59.0</ele><time>2026-03-28T11:35:41.067Z</time></trkpt><trkpt lat="43.76506" lon="10.94118"><ele>58.0</ele><time>2026-03-28T11:35:42.067Z</time></trkpt><trkpt lat="43.765035" lon="10.941325"><ele>57.0</ele><time>2026-03-28T11:35:43.067Z</time></trkpt><trkpt lat="43.7650167" lon="10.9414733"><ele>56.0</ele><time>2026-03-28T11:35:44.066Z</time></trkpt><trkpt lat="43.7649933" lon="10.9416267"><ele>55.0</ele><time>2026-03-28T11:35:45.067Z</time></trkpt><trkpt lat="43.764965" lon="10.9417817"><ele>52.75</ele><time>2026-03-28T11:35:46.067Z</time></trkpt><trkpt lat="43.764935" lon="10.941935"><ele>50.5</ele><time>2026-03-28T11:35:47.067Z</time></trkpt><trkpt lat="43.7648967" lon="10.9420967"><ele>48.25</ele><time>2026-03-28T11:35:48.067Z</time></trkpt><trkpt lat="43.764855" lon="10.9422467"><ele>46.0</ele><time>2026-03-28T11:35:49.067Z</time></trkpt><trkpt lat="43.7648167" lon="10.9423917"><ele>46.0</ele><time>2026-03-28T11:35:50.066Z</time></trkpt><trkpt lat="43.76476" lon="10.9425317"><ele>46.0</ele><time>2026-03-28T11:35:51.066Z</time></trkpt><trkpt lat="43.7647017" lon="10.9426533"><ele>46.0</ele><time>2026-03-28T11:35:52.067Z</time></trkpt><trkpt lat="43.7646617" lon="10.9427783"><ele>46.0</ele><time>2026-03-28T11:35:53.066Z</time></trkpt><trkpt lat="43.76463" lon="10.9429033"><ele>46.0</ele><time>2026-03-28T11:35:54.066Z</time></trkpt><trkpt lat="43.764615" lon="10.9430283"><ele>45.75</ele><time>2026-03-28T11:35:55.066Z</time></trkpt><trkpt lat="43.7646133" lon="10.9431733"><ele>45.5</ele><time>2026-03-28T11:35:56.067Z</time></trkpt><trkpt lat="43.76462" lon="10.94333"><ele>45.25</ele><time>2026-03-28T11:35:57.067Z</time></trkpt><trkpt lat="43.7646433" lon="10.9434967"><ele>45.0</ele><time>2026-03-28T11:35:58.067Z</time></trkpt><trkpt lat="43.7646717" lon="10.9436767"><ele>45.8</ele><time>2026-03-28T11:35:59.066Z</time></trkpt><trkpt lat="43.764705" lon="10.94383"><ele>46.6</ele><time>2026-03-28T11:36:00.067Z</time></trkpt><trkpt lat="43.7647383" lon="10.943965"><ele>47.400000000000006</ele><time>2026-03-28T11:36:01.067Z</time></trkpt><trkpt lat="43.764765" lon="10.944085"><ele>48.2</ele><time>2026-03-28T11:36:02.067Z</time></trkpt><trkpt lat="43.7647917" lon="10.94419"><ele>49.0</ele><time>2026-03-28T11:36:03.067Z</time></trkpt><trkpt lat="43.7648167" lon="10.9442833"><ele>50.666666666666664</ele><time>2026-03-28T11:36:04.067Z</time></trkpt><trkpt lat="43.7648317" lon="10.9444433"><ele>52.33333333333333</ele><time>2026-03-28T11:36:06.067Z</time></trkpt><trkpt lat="43.764815" lon="10.94454"><ele>54.0</ele><time>2026-03-28T11:36:07.067Z</time></trkpt><trkpt lat="43.7647783" lon="10.9446283"><ele>55.66666666666667</ele><time>2026-03-28T11:36:08.067Z</time></trkpt><trkpt lat="43.7647317" lon="10.9447183"><ele>57.333333333333336</ele><time>2026-03-28T11:36:09.066Z</time></trkpt><trkpt lat="43.7646733" lon="10.9448217"><ele>59.0</ele><time>2026-03-28T11:36:10.066Z</time></trkpt><trkpt lat="43.7646117" lon="10.9449367"><ele>60.6</ele><time>2026-03-28T11:36:11.067Z</time></trkpt><trkpt lat="43.7645433" lon="10.9450533"><ele>62.2</ele><time>2026-03-28T11:36:12.067Z</time></trkpt><trkpt lat="43.7644767" lon="10.9451733"><ele>63.800000000000004</ele><time>2026-03-28T11:36:13.067Z</time></trkpt><trkpt lat="43.7644117" lon="10.9452933"><ele>65.4</ele><time>2026-03-28T11:36:14.067Z</time></trkpt><trkpt lat="43.764345" lon="10.945415"><ele>67.0</ele><time>2026-03-28T11:36:15.067Z</time></trkpt><trkpt lat="43.764285" lon="10.9455217"><ele>67.6</ele><time>2026-03-28T11:36:16.067Z</time></trkpt><trkpt lat="43.76423" lon="10.9456267"><ele>68.2</ele><time>2026-03-28T11:36:17.066Z</time></trkpt><trkpt lat="43.764175" lon="10.9457417"><ele>68.8</ele><time>2026-03-28T11:36:18.067Z</time></trkpt><trkpt lat="43.7641183" lon="10.9458483"><ele>69.4</ele><time>2026-03-28T11:36:19.066Z</time></trkpt><trkpt lat="43.7640583" lon="10.9459583"><ele>70.0</ele><time>2026-03-28T11:36:20.067Z</time></trkpt><trkpt lat="43.7639933" lon="10.94607"><ele>72.2</ele><time>2026-03-28T11:36:21.067Z</time></trkpt><trkpt lat="43.76394" lon="10.94617"><ele>74.4</ele><time>2026-03-28T11:36:22.067Z</time></trkpt><trkpt lat="43.7638917" lon="10.9462683"><ele>76.6</ele><time>2026-03-28T11:36:23.067Z</time></trkpt><trkpt lat="43.7638433" lon="10.9463733"><ele>78.8</ele><time>2026-03-28T11:36:24.067Z</time></trkpt><trkpt lat="43.7637933" lon="10.9464767"><ele>81.0</ele><time>2026-03-28T11:36:25.067Z</time></trkpt><trkpt lat="43.7637383" lon="10.94659"><ele>81.0</ele><time>2026-03-28T11:36:26.066Z</time></trkpt><trkpt lat="43.7636733" lon="10.9466983"><ele>81.0</ele><time>2026-03-28T11:36:27.067Z</time></trkpt><trkpt lat="43.7636067" lon="10.946795"><ele>81.0</ele><time>2026-03-28T11:36:28.067Z</time></trkpt><trkpt lat="43.763545" lon="10.9468883"><ele>81.0</ele><time>2026-03-28T11:36:29.067Z</time></trkpt><trkpt lat="43.7634883" lon="10.9469617"><ele>81.0</ele><time>2026-03-28T11:36:30.067Z</time></trkpt><trkpt lat="43.76343" lon="10.9470733"><ele>81.16666666666667</ele><time>2026-03-28T11:36:32.067Z</time></trkpt><trkpt lat="43.76342" lon="10.9471717"><ele>81.33333333333333</ele><time>2026-03-28T11:36:41.066Z</time></trkpt><trkpt lat="43.7634917" lon="10.94722"><ele>81.5</ele><time>2026-03-28T11:36:43.067Z</time></trkpt><trkpt lat="43.763615" lon="10.9472483"><ele>81.66666666666666</ele><time>2026-03-28T11:36:45.067Z</time></trkpt><trkpt lat="43.7636833" lon="10.9472767"><ele>81.83333333333333</ele><time>2026-03-28T11:36:46.067Z</time></trkpt><trkpt lat="43.7637617" lon="10.9473183"><ele>82.0</ele><time>2026-03-28T11:36:47.066Z</time></trkpt><trkpt lat="43.763845" lon="10.94737"><ele>82.66666666666666</ele><time>2026-03-28T11:36:48.066Z</time></trkpt><trkpt lat="43.7639267" lon="10.9474217"><ele>83.33333333333333</ele><time>2026-03-28T11:36:49.067Z</time></trkpt><trkpt lat="43.764015" lon="10.9474533"><ele>84.0</ele><time>2026-03-28T11:36:50.067Z</time></trkpt><trkpt lat="43.7640983" lon="10.9474783"><ele>84.66666666666667</ele><time>2026-03-28T11:36:51.067Z</time></trkpt><trkpt lat="43.76418" lon="10.9475067"><ele>85.33333333333334</ele><time>2026-03-28T11:36:52.067Z</time></trkpt><trkpt lat="43.76427" lon="10.9475517"><ele>86.0</ele><time>2026-03-28T11:36:53.067Z</time></trkpt><trkpt lat="43.764355" lon="10.9476"><ele>87.6</ele><time>2026-03-28T11:36:54.067Z</time></trkpt><trkpt lat="43.7644433" lon="10.9476517"><ele>89.19999999999999</ele><time>2026-03-28T11:36:55.067Z</time></trkpt><trkpt lat="43.7645383" lon="10.94769"><ele>90.80000000000001</ele><time>2026-03-28T11:36:56.067Z</time></trkpt><trkpt lat="43.764635" lon="10.9477317"><ele>92.4</ele><time>2026-03-28T11:36:57.066Z</time></trkpt><trkpt lat="43.76473" lon="10.94777"><ele>94.0</ele><time>2026-03-28T11:36:58.066Z</time></trkpt><trkpt lat="43.7648217" lon="10.94781"><ele>94.0</ele><time>2026-03-28T11:36:59.067Z</time></trkpt><trkpt lat="43.7649133" lon="10.9478517"><ele>94.0</ele><time>2026-03-28T11:37:00.067Z</time></trkpt><trkpt lat="43.765005" lon="10.9478933"><ele>94.0</ele><time>2026-03-28T11:37:01.067Z</time></trkpt><trkpt lat="43.7650967" lon="10.9479467"><ele>94.0</ele><time>2026-03-28T11:37:02.067Z</time></trkpt><trkpt lat="43.7651733" lon="10.947995"><ele>94.0</ele><time>2026-03-28T11:37:03.067Z</time></trkpt><trkpt lat="43.7652417" lon="10.9480367"><ele>94.0</ele><time>2026-03-28T11:37:04.067Z</time></trkpt><trkpt lat="43.7653167" lon="10.9480633"><ele>94.0</ele><time>2026-03-28T11:37:05.067Z</time></trkpt><trkpt lat="43.76539" lon="10.948095"><ele>94.0</ele><time>2026-03-28T11:37:06.066Z</time></trkpt><trkpt lat="43.7654733" lon="10.9481217"><ele>94.0</ele><time>2026-03-28T11:37:07.067Z</time></trkpt><trkpt lat="43.7655583" lon="10.9481583"><ele>94.0</ele><time>2026-03-28T11:37:08.066Z</time></trkpt><trkpt lat="43.76564" lon="10.9482083"><ele>94.0</ele><time>2026-03-28T11:37:09.067Z</time></trkpt><trkpt lat="43.7657317" lon="10.9482433"><ele>94.0</ele><time>2026-03-28T11:37:10.066Z</time></trkpt><trkpt lat="43.765825" lon="10.94829"><ele>94.0</ele><time>2026-03-28T11:37:11.067Z</time></trkpt><trkpt lat="43.7659117" lon="10.9483533"><ele>94.0</ele><time>2026-03-28T11:37:12.067Z</time></trkpt><trkpt lat="43.7660133" lon="10.9484117"><ele>94.0</ele><time>2026-03-28T11:37:13.067Z</time></trkpt><trkpt lat="43.7661183" lon="10.9484933"><ele>94.0</ele><time>2026-03-28T11:37:14.067Z</time></trkpt><trkpt lat="43.766225" lon="10.9485833"><ele>93.5</ele><time>2026-03-28T11:37:15.067Z</time></trkpt><trkpt lat="43.76633" lon="10.9486717"><ele>93.0</ele><time>2026-03-28T11:37:16.067Z</time></trkpt><trkpt lat="43.7664333" lon="10.9487583"><ele>92.5</ele><time>2026-03-28T11:37:17.067Z</time></trkpt><trkpt lat="43.7665283" lon="10.9488417"><ele>92.0</ele><time>2026-03-28T11:37:18.067Z</time></trkpt><trkpt lat="43.7666267" lon="10.948925"><ele>92.0</ele><time>2026-03-28T11:37:19.066Z</time></trkpt><trkpt lat="43.7667217" lon="10.9490067"><ele>92.0</ele><time>2026-03-28T11:37:20.067Z</time></trkpt><trkpt lat="43.7668167" lon="10.9490967"><ele>92.0</ele><time>2026-03-28T11:37:21.067Z</time></trkpt><trkpt lat="43.76691" lon="10.9491967"><ele>92.0</ele><time>2026-03-28T11:37:22.067Z</time></trkpt><trkpt lat="43.767005" lon="10.9493"><ele>91.25</ele><time>2026-03-28T11:37:23.067Z</time></trkpt><trkpt lat="43.7671" lon="10.9494067"><ele>90.5</ele><time>2026-03-28T11:37:24.067Z</time></trkpt><trkpt lat="43.76719" lon="10.9495167"><ele>89.75</ele><time>2026-03-28T11:37:25.067Z</time></trkpt><trkpt lat="43.7672733" lon="10.94963"><ele>89.0</ele><time>2026-03-28T11:37:26.066Z</time></trkpt><trkpt lat="43.7673533" lon="10.9497517"><ele>89.0</ele><time>2026-03-28T11:37:27.067Z</time></trkpt><trkpt lat="43.7674267" lon="10.949875"><ele>89.0</ele><time>2026-03-28T11:37:28.067Z</time></trkpt><trkpt lat="43.7675017" lon="10.9499917"><ele>89.0</ele><time>2026-03-28T11:37:29.067Z</time></trkpt><trkpt lat="43.767575" lon="10.9501117"><ele>89.0</ele><time>2026-03-28T11:37:30.066Z</time></trkpt><trkpt lat="43.7676533" lon="10.95023"><ele>88.25</ele><time>2026-03-28T11:37:31.067Z</time></trkpt><trkpt lat="43.7677317" lon="10.95034"><ele>87.5</ele><time>2026-03-28T11:37:32.066Z</time></trkpt><trkpt lat="43.7678233" lon="10.95044"><ele>86.75</ele><time>2026-03-28T11:37:33.066Z</time></trkpt><trkpt lat="43.7679217" lon="10.9505367"><ele>86.0</ele><time>2026-03-28T11:37:34.067Z</time></trkpt><trkpt lat="43.7680267" lon="10.9506167"><ele>86.0</ele><time>2026-03-28T11:37:35.067Z</time></trkpt><trkpt lat="43.76814" lon="10.95067"><ele>86.0</ele><time>2026-03-28T11:37:36.067Z</time></trkpt><trkpt lat="43.7682433" lon="10.950685"><ele>86.0</ele><time>2026-03-28T11:37:37.067Z</time></trkpt><trkpt lat="43.76834" lon="10.9506767"><ele>86.0</ele><time>2026-03-28T11:37:38.066Z</time></trkpt><trkpt lat="43.7684233" lon="10.9506283"><ele>86.0</ele><time>2026-03-28T11:37:39.067Z</time></trkpt><trkpt lat="43.7684967" lon="10.950525"><ele>86.8</ele><time>2026-03-28T11:37:40.067Z</time></trkpt><trkpt lat="43.7685433" lon="10.950395"><ele>87.6</ele><time>2026-03-28T11:37:41.066Z</time></trkpt><trkpt lat="43.768565" lon="10.950255"><ele>88.4</ele><time>2026-03-28T11:37:42.066Z</time></trkpt><trkpt lat="43.7685633" lon="10.9501"><ele>89.2</ele><time>2026-03-28T11:37:43.067Z</time></trkpt><trkpt lat="43.768545" lon="10.9499417"><ele>90.0</ele><time>2026-03-28T11:37:44.066Z</time></trkpt><trkpt lat="43.7685183" lon="10.94978"><ele>90.0</ele><time>2026-03-28T11:37:45.067Z</time></trkpt><trkpt lat="43.7684967" lon="10.9496217"><ele>90.0</ele><time>2026-03-28T11:37:46.066Z</time></trkpt><trkpt lat="43.76849" lon="10.94947"><ele>90.0</ele><time>2026-03-28T11:37:47.066Z</time></trkpt><trkpt lat="43.7685033" lon="10.9493317"><ele>90.0</ele><time>2026-03-28T11:37:48.066Z</time></trkpt><trkpt lat="43.7685467" lon="10.9492183"><ele>90.0</ele><time>2026-03-28T11:37:49.067Z</time></trkpt><trkpt lat="43.768605" lon="10.9491567"><ele>92.6</ele><time>2026-03-28T11:37:50.067Z</time></trkpt><trkpt lat="43.7686717" lon="10.9491517"><ele>95.2</ele><time>2026-03-28T11:37:51.067Z</time></trkpt><trkpt lat="43.768745" lon="10.949215"><ele>97.80000000000001</ele><time>2026-03-28T11:37:52.066Z</time></trkpt><trkpt lat="43.7688" lon="10.949325"><ele>100.4</ele><time>2026-03-28T11:37:53.066Z</time></trkpt><trkpt lat="43.7688367" lon="10.94946"><ele>103.0</ele><time>2026-03-28T11:37:54.067Z</time></trkpt><trkpt lat="43.768855" lon="10.949615"><ele>103.25</ele><time>2026-03-28T11:37:55.067Z</time></trkpt><trkpt lat="43.76888" lon="10.949765"><ele>103.5</ele><time>2026-03-28T11:37:56.067Z</time></trkpt><trkpt lat="43.7689267" lon="10.9499017"><ele>103.75</ele><time>2026-03-28T11:37:57.067Z</time></trkpt><trkpt lat="43.7689967" lon="10.95003"><ele>104.0</ele><time>2026-03-28T11:37:58.067Z</time></trkpt><trkpt lat="43.7690833" lon="10.9501517"><ele>104.0</ele><time>2026-03-28T11:37:59.066Z</time></trkpt><trkpt lat="43.7691833" lon="10.9502633"><ele>104.0</ele><time>2026-03-28T11:38:00.067Z</time></trkpt><trkpt lat="43.7692933" lon="10.9503667"><ele>104.0</ele><time>2026-03-28T11:38:01.067Z</time></trkpt><trkpt lat="43.7694" lon="10.9504767"><ele>104.0</ele><time>2026-03-28T11:38:02.066Z</time></trkpt><trkpt lat="43.7695067" lon="10.9505767"><ele>107.0</ele><time>2026-03-28T11:38:03.067Z</time></trkpt><trkpt lat="43.76961" lon="10.95067"><ele>110.0</ele><time>2026-03-28T11:38:04.067Z</time></trkpt><trkpt lat="43.769715" lon="10.9507517"><ele>113.0</ele><time>2026-03-28T11:38:05.067Z</time></trkpt><trkpt lat="43.7698283" lon="10.9508117"><ele>116.0</ele><time>2026-03-28T11:38:06.067Z</time></trkpt><trkpt lat="43.7699417" lon="10.9508717"><ele>116.75</ele><time>2026-03-28T11:38:07.067Z</time></trkpt><trkpt lat="43.7700567" lon="10.9509133"><ele>117.5</ele><time>2026-03-28T11:38:08.066Z</time></trkpt><trkpt lat="43.7701733" lon="10.9509317"><ele>118.25</ele><time>2026-03-28T11:38:09.066Z</time></trkpt><trkpt lat="43.7702917" lon="10.95094"><ele>119.0</ele><time>2026-03-28T11:38:10.067Z</time></trkpt><trkpt lat="43.77041" lon="10.95095"><ele>119.0</ele><time>2026-03-28T11:38:11.067Z</time></trkpt><trkpt lat="43.7705333" lon="10.950965"><ele>119.0</ele><time>2026-03-28T11:38:12.067Z</time></trkpt><trkpt lat="43.7706567" lon="10.95098"><ele>119.0</ele><time>2026-03-28T11:38:13.066Z</time></trkpt><trkpt lat="43.770775" lon="10.9509867"><ele>119.0</ele><time>2026-03-28T11:38:14.066Z</time></trkpt><trkpt lat="43.77089" lon="10.950955"><ele>119.0</ele><time>2026-03-28T11:38:15.067Z</time></trkpt><trkpt lat="43.770995" lon="10.9508967"><ele>119.0</ele><time>2026-03-28T11:38:16.067Z</time></trkpt><trkpt lat="43.7710967" lon="10.9508233"><ele>119.0</ele><time>2026-03-28T11:38:17.067Z</time></trkpt><trkpt lat="43.7711983" lon="10.9507417"><ele>119.0</ele><time>2026-03-28T11:38:18.067Z</time></trkpt><trkpt lat="43.771305" lon="10.95067"><ele>122.5</ele><time>2026-03-28T11:38:19.067Z</time></trkpt><trkpt lat="43.7714133" lon="10.9506083"><ele>126.0</ele><time>2026-03-28T11:38:20.066Z</time></trkpt><trkpt lat="43.7715283" lon="10.9505533"><ele>129.5</ele><time>2026-03-28T11:38:21.067Z</time></trkpt><trkpt lat="43.7716417" lon="10.9505217"><ele>133.0</ele><time>2026-03-28T11:38:22.066Z</time></trkpt><trkpt lat="43.7717533" lon="10.950525"><ele>134.75</ele><time>2026-03-28T11:38:23.067Z</time></trkpt><trkpt lat="43.7718667" lon="10.9505533"><ele>136.5</ele><time>2026-03-28T11:38:24.067Z</time></trkpt><trkpt lat="43.7719833" lon="10.9505867"><ele>138.25</ele><time>2026-03-28T11:38:25.067Z</time></trkpt><trkpt lat="43.772105" lon="10.950615"><ele>140.0</ele><time>2026-03-28T11:38:26.067Z</time></trkpt><trkpt lat="43.7722217" lon="10.9506417"><ele>140.0</ele><time>2026-03-28T11:38:27.066Z</time></trkpt><trkpt lat="43.77234" lon="10.9506817"><ele>140.0</ele><time>2026-03-28T11:38:28.066Z</time></trkpt><trkpt lat="43.7724483" lon="10.9507217"><ele>140.0</ele><time>2026-03-28T11:38:29.067Z</time></trkpt><trkpt lat="43.772545" lon="10.9507667"><ele>140.0</ele><time>2026-03-28T11:38:30.067Z</time></trkpt><trkpt lat="43.772645" lon="10.9508083"><ele>140.0</ele><time>2026-03-28T11:38:31.067Z</time></trkpt><trkpt lat="43.77275" lon="10.9508533"><ele>142.0</ele><time>2026-03-28T11:38:32.067Z</time></trkpt><trkpt lat="43.7728367" lon="10.9508917"><ele>144.0</ele><time>2026-03-28T11:38:33.067Z</time></trkpt><trkpt lat="43.7729133" lon="10.9509383"><ele>146.0</ele><time>2026-03-28T11:38:34.067Z</time></trkpt><trkpt lat="43.7729817" lon="10.95101"><ele>148.0</ele><time>2026-03-28T11:38:35.067Z</time></trkpt><trkpt lat="43.7730567" lon="10.951095"><ele>150.0</ele><time>2026-03-28T11:38:36.067Z</time></trkpt><trkpt lat="43.773135" lon="10.95119"><ele>150.0</ele><time>2026-03-28T11:38:37.066Z</time></trkpt><trkpt lat="43.7732183" lon="10.9512933"><ele>150.0</ele><time>2026-03-28T11:38:38.067Z</time></trkpt><trkpt lat="43.7733017" lon="10.9514067"><ele>150.0</ele><time>2026-03-28T11:38:39.066Z</time></trkpt><trkpt lat="43.7733833" lon="10.951525"><ele>150.0</ele><time>2026-03-28T11:38:40.067Z</time></trkpt><trkpt lat="43.773465" lon="10.951645"><ele>152.0</ele><time>2026-03-28T11:38:41.067Z</time></trkpt><trkpt lat="43.773545" lon="10.9517633"><ele>154.0</ele><time>2026-03-28T11:38:42.066Z</time></trkpt><trkpt lat="43.7736267" lon="10.9518833"><ele>156.0</ele><time>2026-03-28T11:38:43.067Z</time></trkpt><trkpt lat="43.77371" lon="10.952"><ele>158.0</ele><time>2026-03-28T11:38:44.066Z</time></trkpt><trkpt lat="43.77379" lon="10.9521117"><ele>158.0</ele><time>2026-03-28T11:38:45.067Z</time></trkpt><trkpt lat="43.7738717" lon="10.95222"><ele>158.0</ele><time>2026-03-28T11:38:46.066Z</time></trkpt><trkpt lat="43.7739483" lon="10.9523367"><ele>158.0</ele><time>2026-03-28T11:38:47.066Z</time></trkpt><trkpt lat="43.7740267" lon="10.9524467"><ele>158.0</ele><time>2026-03-28T11:38:48.067Z</time></trkpt><trkpt lat="43.7741033" lon="10.9525583"><ele>159.60000000000002</ele><time>2026-03-28T11:38:49.067Z</time></trkpt><trkpt lat="43.774175" lon="10.95266"><ele>161.20000000000002</ele><time>2026-03-28T11:38:50.066Z</time></trkpt><trkpt lat="43.7742517" lon="10.95275"><ele>162.8</ele><time>2026-03-28T11:38:51.067Z</time></trkpt><trkpt lat="43.77434" lon="10.9528283"><ele>164.4</ele><time>2026-03-28T11:38:52.067Z</time></trkpt><trkpt lat="43.7744283" lon="10.9528917"><ele>166.0</ele><time>2026-03-28T11:38:53.067Z</time></trkpt><trkpt lat="43.774525" lon="10.9529333"><ele>166.20000000000002</ele><time>2026-03-28T11:38:54.067Z</time></trkpt><trkpt lat="43.774625" lon="10.9529567"><ele>166.4</ele><time>2026-03-28T11:38:55.066Z</time></trkpt><trkpt lat="43.7747217" lon="10.9529767"><ele>166.6</ele><time>2026-03-28T11:38:56.066Z</time></trkpt><trkpt lat="43.7748217" lon="10.9529867"><ele>166.8</ele><time>2026-03-28T11:38:57.066Z</time></trkpt><trkpt lat="43.774925" lon="10.9529867"><ele>167.0</ele><time>2026-03-28T11:38:58.067Z</time></trkpt><trkpt lat="43.7750417" lon="10.952975"><ele>167.0</ele><time>2026-03-28T11:38:59.066Z</time></trkpt><trkpt lat="43.77515" lon="10.95294"><ele>167.0</ele><time>2026-03-28T11:39:00.067Z</time></trkpt><trkpt lat="43.7752567" lon="10.95291"><ele>167.0</ele><time>2026-03-28T11:39:01.067Z</time></trkpt><trkpt lat="43.7753533" lon="10.9528667"><ele>167.0</ele><time>2026-03-28T11:39:02.067Z</time></trkpt><trkpt lat="43.7754483" lon="10.95283"><ele>167.0</ele><time>2026-03-28T11:39:03.066Z</time></trkpt><trkpt lat="43.7755433" lon="10.9528012"><ele>168.6</ele><time>2026-03-28T11:39:04.067Z</time></trkpt><trkpt lat="43.775639" lon="10.9527862"><ele>170.2</ele><time>2026-03-28T11:39:05.067Z</time></trkpt><trkpt lat="43.7757352" lon="10.9527906"><ele>171.8</ele><time>2026-03-28T11:39:06.067Z</time></trkpt><trkpt lat="43.7758291" lon="10.9528171"><ele>173.4</ele><time>2026-03-28T11:39:07.066Z</time></trkpt><trkpt lat="43.7759208" lon="10.9528625"><ele>175.0</ele><time>2026-03-28T11:39:08.067Z</time></trkpt><trkpt lat="43.7760099" lon="10.9529185"><ele>176.8</ele><time>2026-03-28T11:39:09.067Z</time></trkpt><trkpt lat="43.7760996" lon="10.9529791"><ele>178.6</ele><time>2026-03-28T11:39:10.067Z</time></trkpt><trkpt lat="43.7761895" lon="10.9530397"><ele>180.39999999999998</ele><time>2026-03-28T11:39:11.066Z</time></trkpt><trkpt lat="43.776283" lon="10.9531025"><ele>182.2</ele><time>2026-03-28T11:39:12.067Z</time></trkpt><trkpt lat="43.7763763" lon="10.9531668"><ele>184.0</ele><time>2026-03-28T11:39:13.067Z</time></trkpt><trkpt lat="43.7764709" lon="10.9532318"><ele>184.0</ele><time>2026-03-28T11:39:14.067Z</time></trkpt><trkpt lat="43.7765671" lon="10.9532932"><ele>184.0</ele><time>2026-03-28T11:39:15.067Z</time></trkpt><trkpt lat="43.7766612" lon="10.9533543"><ele>184.0</ele><time>2026-03-28T11:39:16.067Z</time></trkpt><trkpt lat="43.7767514" lon="10.953412"><ele>184.0</ele><time>2026-03-28T11:39:17.067Z</time></trkpt><trkpt lat="43.7768363" lon="10.9534726"><ele>184.0</ele><time>2026-03-28T11:39:18.067Z</time></trkpt><trkpt lat="43.7769171" lon="10.9535339"><ele>184.5</ele><time>2026-03-28T11:39:19.066Z</time></trkpt><trkpt lat="43.7769895" lon="10.9535911"><ele>185.0</ele><time>2026-03-28T11:39:20.067Z</time></trkpt><trkpt lat="43.7770572" lon="10.9536473"><ele>185.5</ele><time>2026-03-28T11:39:21.066Z</time></trkpt><trkpt lat="43.7771245" lon="10.9537024"><ele>186.0</ele><time>2026-03-28T11:39:22.067Z</time></trkpt><trkpt lat="43.7771935" lon="10.9537572"><ele>186.5</ele><time>2026-03-28T11:39:23.067Z</time></trkpt><trkpt lat="43.7772639" lon="10.9538143"><ele>187.0</ele><time>2026-03-28T11:39:24.067Z</time></trkpt><trkpt lat="43.7773352" lon="10.953874"><ele>187.0</ele><time>2026-03-28T11:39:25.067Z</time></trkpt><trkpt lat="43.7774057" lon="10.9539332"><ele>187.0</ele><time>2026-03-28T11:39:26.067Z</time></trkpt><trkpt lat="43.7774747" lon="10.9539878"><ele>187.0</ele><time>2026-03-28T11:39:27.066Z</time></trkpt><trkpt lat="43.777539" lon="10.9540411"><ele>187.0</ele><time>2026-03-28T11:39:28.067Z</time></trkpt><trkpt lat="43.7776019" lon="10.9540931"><ele>187.0</ele><time>2026-03-28T11:39:29.067Z</time></trkpt><trkpt lat="43.7776649" lon="10.9541475"><ele>187.0</ele><time>2026-03-28T11:39:30.066Z</time></trkpt><trkpt lat="43.7777258" lon="10.9542076"><ele>186.16666666666669</ele><time>2026-03-28T11:39:31.067Z</time></trkpt><trkpt lat="43.7777873" lon="10.9542754"><ele>185.33333333333334</ele><time>2026-03-28T11:39:32.067Z</time></trkpt><trkpt lat="43.7778464" lon="10.9543582"><ele>184.5</ele><time>2026-03-28T11:39:33.067Z</time></trkpt><trkpt lat="43.7779024" lon="10.954449"><ele>183.66666666666666</ele><time>2026-03-28T11:39:34.067Z</time></trkpt><trkpt lat="43.7779629" lon="10.9545367"><ele>182.83333333333331</ele><time>2026-03-28T11:39:35.067Z</time></trkpt><trkpt lat="43.7780285" lon="10.9546268"><ele>182.0</ele><time>2026-03-28T11:39:36.067Z</time></trkpt><trkpt lat="43.7780983" lon="10.9547133"><ele>182.0</ele><time>2026-03-28T11:39:37.067Z</time></trkpt><trkpt lat="43.778175" lon="10.9547717"><ele>182.0</ele><time>2026-03-28T11:39:38.067Z</time></trkpt><trkpt lat="43.7782617" lon="10.954805"><ele>182.0</ele><time>2026-03-28T11:39:39.067Z</time></trkpt><trkpt lat="43.7783417" lon="10.9548433"><ele>182.0</ele><time>2026-03-28T11:39:40.067Z</time></trkpt><trkpt lat="43.7784167" lon="10.9548633"><ele>182.0</ele><time>2026-03-28T11:39:41.067Z</time></trkpt><trkpt lat="43.7784983" lon="10.9548767"><ele>182.0</ele><time>2026-03-28T11:39:42.067Z</time></trkpt><trkpt lat="43.7785817" lon="10.9548783"><ele>182.5</ele><time>2026-03-28T11:39:43.066Z</time></trkpt><trkpt lat="43.7786467" lon="10.9548717"><ele>183.0</ele><time>2026-03-28T11:39:44.067Z</time></trkpt><trkpt lat="43.7787533" lon="10.9548883"><ele>183.5</ele><time>2026-03-28T11:39:46.066Z</time></trkpt><trkpt lat="43.7788667" lon="10.9549417"><ele>184.0</ele><time>2026-03-28T11:39:48.067Z</time></trkpt><trkpt lat="43.7789217" lon="10.954985"><ele>184.5</ele><time>2026-03-28T11:39:49.067Z</time></trkpt><trkpt lat="43.778985" lon="10.95503"><ele>185.0</ele><time>2026-03-28T11:39:50.067Z</time></trkpt><trkpt lat="43.7791017" lon="10.9550983"><ele>183.66666666666666</ele><time>2026-03-28T11:39:52.066Z</time></trkpt><trkpt lat="43.7791783" lon="10.9551217"><ele>182.33333333333331</ele><time>2026-03-28T11:39:53.066Z</time></trkpt><trkpt lat="43.7792617" lon="10.9551283"><ele>181.0</ele><time>2026-03-28T11:39:54.066Z</time></trkpt><trkpt lat="43.7793367" lon="10.9551467"><ele>179.66666666666666</ele><time>2026-03-28T11:39:55.066Z</time></trkpt><trkpt lat="43.779415" lon="10.9551433"><ele>178.33333333333334</ele><time>2026-03-28T11:39:56.067Z</time></trkpt><trkpt lat="43.7794933" lon="10.9551633"><ele>177.0</ele><time>2026-03-28T11:39:57.067Z</time></trkpt><trkpt lat="43.779565" lon="10.9551867"><ele>177.0</ele><time>2026-03-28T11:39:58.066Z</time></trkpt><trkpt lat="43.7796817" lon="10.9552383"><ele>177.0</ele><time>2026-03-28T11:40:00.067Z</time></trkpt><trkpt lat="43.7797917" lon="10.955255"><ele>177.0</ele><time>2026-03-28T11:40:02.066Z</time></trkpt><trkpt lat="43.7799017" lon="10.9552833"><ele>177.0</ele><time>2026-03-28T11:40:04.067Z</time></trkpt><trkpt lat="43.7799667" lon="10.955295"><ele>177.0</ele><time>2026-03-28T11:40:05.067Z</time></trkpt><trkpt lat="43.7800317" lon="10.9553233"><ele>177.0</ele><time>2026-03-28T11:40:06.067Z</time></trkpt><trkpt lat="43.7801117" lon="10.9553333"><ele>177.0</ele><time>2026-03-28T11:40:07.067Z</time></trkpt><trkpt lat="43.780205" lon="10.9553367"><ele>177.0</ele><time>2026-03-28T11:40:08.067Z</time></trkpt><trkpt lat="43.7802917" lon="10.95535"><ele>177.0</ele><time>2026-03-28T11:40:09.067Z</time></trkpt><trkpt lat="43.780375" lon="10.9553583"><ele>177.0</ele><time>2026-03-28T11:40:10.067Z</time></trkpt><trkpt lat="43.7804567" lon="10.9553583"><ele>177.0</ele><time>2026-03-28T11:40:11.067Z</time></trkpt><trkpt lat="43.7805667" lon="10.9553917"><ele>179.2</ele><time>2026-03-28T11:40:13.067Z</time></trkpt><trkpt lat="43.7806283" lon="10.9554567"><ele>181.39999999999998</ele><time>2026-03-28T11:40:15.066Z</time></trkpt><trkpt lat="43.7806667" lon="10.95556"><ele>183.60000000000002</ele><time>2026-03-28T11:40:18.066Z</time></trkpt><trkpt lat="43.780745" lon="10.9556367"><ele>185.8</ele><time>2026-03-28T11:40:20.067Z</time></trkpt><trkpt lat="43.7808233" lon="10.9557233"><ele>188.0</ele><time>2026-03-28T11:40:22.067Z</time></trkpt><trkpt lat="43.7809183" lon="10.95582"><ele>188.16666666666666</ele><time>2026-03-28T11:40:24.066Z</time></trkpt><trkpt lat="43.7810117" lon="10.9558767"><ele>188.33333333333331</ele><time>2026-03-28T11:40:26.067Z</time></trkpt><trkpt lat="43.7810783" lon="10.9559333"><ele>188.5</ele><time>2026-03-28T11:40:28.067Z</time></trkpt><trkpt lat="43.7811383" lon="10.955965"><ele>188.66666666666666</ele><time>2026-03-28T11:40:30.066Z</time></trkpt><trkpt lat="43.781205" lon="10.9560367"><ele>188.83333333333334</ele><time>2026-03-28T11:40:34.067Z</time></trkpt><trkpt lat="43.78127" lon="10.9561033"><ele>189.0</ele><time>2026-03-28T11:40:36.067Z</time></trkpt><trkpt lat="43.7813717" lon="10.9561683"><ele>189.0</ele><time>2026-03-28T11:40:38.067Z</time></trkpt><trkpt lat="43.7814833" lon="10.95623"><ele>189.0</ele><time>2026-03-28T11:40:40.067Z</time></trkpt><trkpt lat="43.7815817" lon="10.9563083"><ele>189.0</ele><time>2026-03-28T11:40:42.067Z</time></trkpt><trkpt lat="43.7816783" lon="10.956365"><ele>189.0</ele><time>2026-03-28T11:40:44.066Z</time></trkpt><trkpt lat="43.7817833" lon="10.9564467"><ele>189.0</ele><time>2026-03-28T11:40:46.067Z</time></trkpt><trkpt lat="43.78184" lon="10.9564917"><ele>189.0</ele><time>2026-03-28T11:40:47.067Z</time></trkpt><trkpt lat="43.7818967" lon="10.9565417"><ele>189.0</ele><time>2026-03-28T11:40:48.066Z</time></trkpt><trkpt lat="43.7819483" lon="10.9565967"><ele>189.0</ele><time>2026-03-28T11:40:49.067Z</time></trkpt><trkpt lat="43.782005" lon="10.9566433"><ele>189.0</ele><time>2026-03-28T11:40:50.067Z</time></trkpt><trkpt lat="43.7821" lon="10.9567317"><ele>189.0</ele><time>2026-03-28T11:40:52.067Z</time></trkpt><trkpt lat="43.782165" lon="10.9567433"><ele>189.0</ele><time>2026-03-28T11:40:53.067Z</time></trkpt><trkpt lat="43.7822267" lon="10.9567683"><ele>190.39999999999998</ele><time>2026-03-28T11:40:54.067Z</time></trkpt><trkpt lat="43.7823367" lon="10.956865"><ele>191.8</ele><time>2026-03-28T11:40:56.067Z</time></trkpt><trkpt lat="43.7823867" lon="10.9569183"><ele>193.2</ele><time>2026-03-28T11:40:57.066Z</time></trkpt><trkpt lat="43.7824867" lon="10.957015"><ele>194.60000000000002</ele><time>2026-03-28T11:40:59.067Z</time></trkpt><trkpt lat="43.7825867" lon="10.9571133"><ele>196.0</ele><time>2026-03-28T11:41:01.067Z</time></trkpt><trkpt lat="43.7826433" lon="10.9571767"><ele>197.99999999999997</ele><time>2026-03-28T11:41:02.066Z</time></trkpt><trkpt lat="43.7827033" lon="10.95725"><ele>200.0</ele><time>2026-03-28T11:41:03.067Z</time></trkpt><trkpt lat="43.7827533" lon="10.957325"><ele>202.0</ele><time>2026-03-28T11:41:04.067Z</time></trkpt><trkpt lat="43.7828033" lon="10.9574017"><ele>204.0</ele><time>2026-03-28T11:41:05.066Z</time></trkpt><trkpt lat="43.7828617" lon="10.9574817"><ele>205.99999999999997</ele><time>2026-03-28T11:41:06.066Z</time></trkpt><trkpt lat="43.7829317" lon="10.9575667"><ele>208.0</ele><time>2026-03-28T11:41:07.066Z</time></trkpt><trkpt lat="43.783" lon="10.9576417"><ele>208.16666666666666</ele><time>2026-03-28T11:41:08.067Z</time></trkpt><trkpt lat="43.7830667" lon="10.9577217"><ele>208.33333333333331</ele><time>2026-03-28T11:41:09.066Z</time></trkpt><trkpt lat="43.7831333" lon="10.957795"><ele>208.5</ele><time>2026-03-28T11:41:10.067Z</time></trkpt><trkpt lat="43.783205" lon="10.9578683"><ele>208.66666666666669</ele><time>2026-03-28T11:41:11.066Z</time></trkpt><trkpt lat="43.7832817" lon="10.9579433"><ele>208.83333333333334</ele><time>2026-03-28T11:41:12.067Z</time></trkpt><trkpt lat="43.7833483" lon="10.958015"><ele>209.0</ele><time>2026-03-28T11:41:13.067Z</time></trkpt><trkpt lat="43.7834217" lon="10.9581033"><ele>209.0</ele><time>2026-03-28T11:41:14.066Z</time></trkpt><trkpt lat="43.783495" lon="10.95818"><ele>209.0</ele><time>2026-03-28T11:41:15.067Z</time></trkpt><trkpt lat="43.78357" lon="10.9582583"><ele>209.0</ele><time>2026-03-28T11:41:16.067Z</time></trkpt><trkpt lat="43.7836417" lon="10.95834"><ele>209.0</ele><time>2026-03-28T11:41:17.067Z</time></trkpt><trkpt lat="43.7837167" lon="10.9584117"><ele>209.0</ele><time>2026-03-28T11:41:18.067Z</time></trkpt><trkpt lat="43.78378" lon="10.95849"><ele>211.6</ele><time>2026-03-28T11:41:19.067Z</time></trkpt><trkpt lat="43.7838533" lon="10.95856"><ele>214.2</ele><time>2026-03-28T11:41:20.067Z</time></trkpt><trkpt lat="43.7839317" lon="10.9586383"><ele>216.79999999999998</ele><time>2026-03-28T11:41:21.067Z</time></trkpt><trkpt lat="43.7840067" lon="10.9587383"><ele>219.39999999999998</ele><time>2026-03-28T11:41:22.067Z</time></trkpt><trkpt lat="43.7840867" lon="10.95883"><ele>222.0</ele><time>2026-03-28T11:41:23.066Z</time></trkpt><trkpt lat="43.78417" lon="10.958925"><ele>222.0</ele><time>2026-03-28T11:41:24.067Z</time></trkpt><trkpt lat="43.7842517" lon="10.9590183"><ele>222.0</ele><time>2026-03-28T11:41:25.066Z</time></trkpt><trkpt lat="43.7843233" lon="10.9591133"><ele>222.0</ele><time>2026-03-28T11:41:26.067Z</time></trkpt><trkpt lat="43.7844" lon="10.959195"><ele>222.0</ele><time>2026-03-28T11:41:27.066Z</time></trkpt><trkpt lat="43.7844767" lon="10.959275"><ele>222.0</ele><time>2026-03-28T11:41:28.066Z</time></trkpt><trkpt lat="43.7845533" lon="10.9593517"><ele>225.8</ele><time>2026-03-28T11:41:29.067Z</time></trkpt><trkpt lat="43.7846333" lon="10.959425"><ele>229.6</ele><time>2026-03-28T11:41:30.067Z</time></trkpt><trkpt lat="43.78471" lon="10.9595"><ele>233.40000000000003</ele><time>2026-03-28T11:41:31.066Z</time></trkpt><trkpt lat="43.7847867" lon="10.9595783"><ele>237.20000000000002</ele><time>2026-03-28T11:41:32.066Z</time></trkpt><trkpt lat="43.7848683" lon="10.9596483"><ele>241.0</ele><time>2026-03-28T11:41:33.066Z</time></trkpt><trkpt lat="43.7849433" lon="10.9597233"><ele>240.99999999999997</ele><time>2026-03-28T11:41:34.067Z</time></trkpt><trkpt lat="43.7850233" lon="10.95979"><ele>241.0</ele><time>2026-03-28T11:41:35.067Z</time></trkpt><trkpt lat="43.785085" lon="10.9598433"><ele>241.0</ele><time>2026-03-28T11:41:36.067Z</time></trkpt><trkpt lat="43.7851383" lon="10.9598983"><ele>241.0</ele><time>2026-03-28T11:41:37.067Z</time></trkpt><trkpt lat="43.785205" lon="10.9600283"><ele>240.99999999999997</ele><time>2026-03-28T11:41:39.067Z</time></trkpt><trkpt lat="43.7852033" lon="10.9601267"><ele>241.0</ele><time>2026-03-28T11:41:40.067Z</time></trkpt><trkpt lat="43.7852017" lon="10.9602283"><ele>244.99999999999997</ele><time>2026-03-28T11:41:41.067Z</time></trkpt><trkpt lat="43.7852083" lon="10.96034"><ele>249.0</ele><time>2026-03-28T11:41:42.067Z</time></trkpt><trkpt lat="43.7852283" lon="10.960455"><ele>253.0</ele><time>2026-03-28T11:41:43.067Z</time></trkpt><trkpt lat="43.7852567" lon="10.9605583"><ele>257.0</ele><time>2026-03-28T11:41:44.067Z</time></trkpt><trkpt lat="43.7852933" lon="10.9606583"><ele>261.0</ele><time>2026-03-28T11:41:45.067Z</time></trkpt><trkpt lat="43.7853333" lon="10.9607417"><ele>265.0</ele><time>2026-03-28T11:41:46.067Z</time></trkpt><trkpt lat="43.7854067" lon="10.9608567"><ele>265.0</ele><time>2026-03-28T11:41:48.067Z</time></trkpt><trkpt lat="43.7854867" lon="10.96085"><ele>265.0</ele><time>2026-03-28T11:41:50.067Z</time></trkpt><trkpt lat="43.7855367" lon="10.9607017"><ele>265.0</ele><time>2026-03-28T11:41:52.067Z</time></trkpt><trkpt lat="43.7855567" lon="10.9606"><ele>265.0</ele><time>2026-03-28T11:41:53.066Z</time></trkpt><trkpt lat="43.78559" lon="10.9605217"><ele>265.0</ele><time>2026-03-28T11:41:54.067Z</time></trkpt><trkpt lat="43.78564" lon="10.9604633"><ele>265.0</ele><time>2026-03-28T11:41:55.067Z</time></trkpt><trkpt lat="43.7857117" lon="10.960465"><ele>265.0</ele><time>2026-03-28T11:41:56.067Z</time></trkpt><trkpt lat="43.7857967" lon="10.9605183"><ele>265.0</ele><time>2026-03-28T11:41:57.067Z</time></trkpt><trkpt lat="43.7858817" lon="10.9605817"><ele>265.0</ele><time>2026-03-28T11:41:58.066Z</time></trkpt><trkpt lat="43.785975" lon="10.9606533"><ele>265.0</ele><time>2026-03-28T11:41:59.067Z</time></trkpt><trkpt lat="43.786075" lon="10.96072"><ele>265.0</ele><time>2026-03-28T11:42:00.067Z</time></trkpt><trkpt lat="43.7861683" lon="10.9607767"><ele>265.5</ele><time>2026-03-28T11:42:01.066Z</time></trkpt><trkpt lat="43.7862467" lon="10.9608417"><ele>266.0</ele><time>2026-03-28T11:42:02.066Z</time></trkpt><trkpt lat="43.7863117" lon="10.9609117"><ele>266.5</ele><time>2026-03-28T11:42:03.067Z</time></trkpt><trkpt lat="43.78636" lon="10.9609833"><ele>267.0</ele><time>2026-03-28T11:42:04.067Z</time></trkpt><trkpt lat="43.7863783" lon="10.9610767"><ele>267.5</ele><time>2026-03-28T11:42:05.067Z</time></trkpt><trkpt lat="43.78639" lon="10.9611767"><ele>268.0</ele><time>2026-03-28T11:42:06.067Z</time></trkpt><trkpt lat="43.7863867" lon="10.961285"><ele>271.3333333333333</ele><time>2026-03-28T11:42:07.067Z</time></trkpt><trkpt lat="43.7863717" lon="10.9614083"><ele>274.66666666666663</ele><time>2026-03-28T11:42:08.067Z</time></trkpt><trkpt lat="43.786355" lon="10.961535"><ele>278.0</ele><time>2026-03-28T11:42:09.067Z</time></trkpt><trkpt lat="43.7863383" lon="10.9616583"><ele>281.3333333333333</ele><time>2026-03-28T11:42:10.067Z</time></trkpt><trkpt lat="43.7863083" lon="10.9617617"><ele>284.6666666666667</ele><time>2026-03-28T11:42:11.066Z</time></trkpt><trkpt lat="43.7862867" lon="10.961845"><ele>288.0</ele><time>2026-03-28T11:42:12.066Z</time></trkpt><trkpt lat="43.78628" lon="10.9619833"><ele>288.8333333333333</ele><time>2026-03-28T11:42:14.066Z</time></trkpt><trkpt lat="43.78631" lon="10.96209"><ele>289.6666666666667</ele><time>2026-03-28T11:42:17.066Z</time></trkpt><trkpt lat="43.78638" lon="10.9621817"><ele>290.5</ele><time>2026-03-28T11:42:19.066Z</time></trkpt><trkpt lat="43.78642" lon="10.9622517"><ele>291.33333333333337</ele><time>2026-03-28T11:42:20.067Z</time></trkpt><trkpt lat="43.7864617" lon="10.9623183"><ele>292.1666666666667</ele><time>2026-03-28T11:42:21.066Z</time></trkpt><trkpt lat="43.786545" lon="10.96245"><ele>293.0</ele><time>2026-03-28T11:42:23.067Z</time></trkpt><trkpt lat="43.7866233" lon="10.9625633"><ele>293.0</ele><time>2026-03-28T11:42:25.067Z</time></trkpt><trkpt lat="43.78672" lon="10.9624417"><ele>293.0</ele><time>2026-03-28T11:42:29.067Z</time></trkpt><trkpt lat="43.78672" lon="10.962295"><ele>293.0</ele><time>2026-03-28T11:42:31.067Z</time></trkpt><trkpt lat="43.786765" lon="10.9621933"><ele>293.0</ele><time>2026-03-28T11:42:33.067Z</time></trkpt><trkpt lat="43.78682" lon="10.9621417"><ele>293.0</ele><time>2026-03-28T11:42:35.067Z</time></trkpt><trkpt lat="43.78693" lon="10.9621283"><ele>295.1428571428571</ele><time>2026-03-28T11:42:37.067Z</time></trkpt><trkpt lat="43.7869983" lon="10.9621333"><ele>297.2857142857143</ele><time>2026-03-28T11:42:38.067Z</time></trkpt><trkpt lat="43.787065" lon="10.962145"><ele>299.42857142857144</ele><time>2026-03-28T11:42:39.066Z</time></trkpt><trkpt lat="43.787135" lon="10.9621567"><ele>301.57142857142856</ele><time>2026-03-28T11:42:40.067Z</time></trkpt><trkpt lat="43.7872117" lon="10.9621767"><ele>303.7142857142857</ele><time>2026-03-28T11:42:41.067Z</time></trkpt><trkpt lat="43.7872883" lon="10.962195"><ele>305.85714285714283</ele><time>2026-03-28T11:42:42.066Z</time></trkpt><trkpt lat="43.7873667" lon="10.9622183"><ele>308.0</ele><time>2026-03-28T11:42:43.067Z</time></trkpt><trkpt lat="43.7874233" lon="10.9622667"><ele>308.0</ele><time>2026-03-28T11:42:44.067Z</time></trkpt><trkpt lat="43.78748" lon="10.9623267"><ele>308.0</ele><time>2026-03-28T11:42:45.066Z</time></trkpt><trkpt lat="43.7875417" lon="10.9624017"><ele>308.0</ele><time>2026-03-28T11:42:46.066Z</time></trkpt><trkpt lat="43.7876067" lon="10.9624783"><ele>308.0</ele><time>2026-03-28T11:42:47.067Z</time></trkpt><trkpt lat="43.7876767" lon="10.9625683"><ele>308.0</ele><time>2026-03-28T11:42:48.067Z</time></trkpt><trkpt lat="43.7877433" lon="10.96267"><ele>308.0</ele><time>2026-03-28T11:42:49.066Z</time></trkpt><trkpt lat="43.7878167" lon="10.9627617"><ele>310.33333333333337</ele><time>2026-03-28T11:42:50.067Z</time></trkpt><trkpt lat="43.7878883" lon="10.9628517"><ele>312.6666666666667</ele><time>2026-03-28T11:42:51.067Z</time></trkpt><trkpt lat="43.787955" lon="10.962925"><ele>315.0</ele><time>2026-03-28T11:42:52.066Z</time></trkpt><trkpt lat="43.7880367" lon="10.9630233"><ele>317.3333333333333</ele><time>2026-03-28T11:42:54.067Z</time></trkpt><trkpt lat="43.7880483" lon="10.9631267"><ele>319.66666666666663</ele><time>2026-03-28T11:42:57.067Z</time></trkpt><trkpt lat="43.7879767" lon="10.9631467"><ele>322.0</ele><time>2026-03-28T11:43:00.067Z</time></trkpt><trkpt lat="43.7878933" lon="10.9631"><ele>322.0</ele><time>2026-03-28T11:43:02.066Z</time></trkpt><trkpt lat="43.7878067" lon="10.963075"><ele>322.0</ele><time>2026-03-28T11:43:04.067Z</time></trkpt><trkpt lat="43.7877167" lon="10.9631117"><ele>322.0</ele><time>2026-03-28T11:43:06.067Z</time></trkpt><trkpt lat="43.7876683" lon="10.9631867"><ele>322.0</ele><time>2026-03-28T11:43:08.067Z</time></trkpt><trkpt lat="43.7876833" lon="10.9632833"><ele>322.0</ele><time>2026-03-28T11:43:10.067Z</time></trkpt><trkpt lat="43.7877717" lon="10.963385"><ele>322.0</ele><time>2026-03-28T11:43:12.066Z</time></trkpt><trkpt lat="43.787825" lon="10.9634333"><ele>323.5</ele><time>2026-03-28T11:43:13.066Z</time></trkpt><trkpt lat="43.7878767" lon="10.96349"><ele>325.0</ele><time>2026-03-28T11:43:14.067Z</time></trkpt><trkpt lat="43.78793" lon="10.9635417"><ele>326.5</ele><time>2026-03-28T11:43:15.067Z</time></trkpt><trkpt lat="43.78798" lon="10.963595"><ele>328.0</ele><time>2026-03-28T11:43:16.067Z</time></trkpt><trkpt lat="43.78803" lon="10.963655"><ele>329.5</ele><time>2026-03-28T11:43:17.066Z</time></trkpt><trkpt lat="43.7881133" lon="10.963785"><ele>331.0</ele><time>2026-03-28T11:43:19.067Z</time></trkpt><trkpt lat="43.7881333" lon="10.96395"><ele>331.0</ele><time>2026-03-28T11:43:21.067Z</time></trkpt><trkpt lat="43.7881517" lon="10.96404"><ele>331.0</ele><time>2026-03-28T11:43:22.067Z</time></trkpt><trkpt lat="43.7881767" lon="10.9641383"><ele>331.0</ele><time>2026-03-28T11:43:23.067Z</time></trkpt><trkpt lat="43.7882067" lon="10.96423"><ele>331.0</ele><time>2026-03-28T11:43:24.066Z</time></trkpt><trkpt lat="43.7882467" lon="10.9643167"><ele>331.0</ele><time>2026-03-28T11:43:25.067Z</time></trkpt><trkpt lat="43.788295" lon="10.9643967"><ele>331.0</ele><time>2026-03-28T11:43:26.067Z</time></trkpt><trkpt lat="43.78835" lon="10.964485"><ele>331.0</ele><time>2026-03-28T11:43:27.067Z</time></trkpt><trkpt lat="43.7884117" lon="10.9645817"><ele>329.8333333333333</ele><time>2026-03-28T11:43:28.067Z</time></trkpt><trkpt lat="43.7884717" lon="10.9646783"><ele>328.66666666666663</ele><time>2026-03-28T11:43:29.067Z</time></trkpt><trkpt lat="43.7885317" lon="10.9647767"><ele>327.5</ele><time>2026-03-28T11:43:30.067Z</time></trkpt><trkpt lat="43.7885883" lon="10.9648733"><ele>326.3333333333333</ele><time>2026-03-28T11:43:31.067Z</time></trkpt><trkpt lat="43.788635" lon="10.9649533"><ele>325.1666666666667</ele><time>2026-03-28T11:43:32.067Z</time></trkpt><trkpt lat="43.7886767" lon="10.9650317"><ele>324.0</ele><time>2026-03-28T11:43:33.067Z</time></trkpt><trkpt lat="43.7887517" lon="10.9651033"><ele>327.6666666666667</ele><time>2026-03-28T11:43:35.066Z</time></trkpt><trkpt lat="43.788795" lon="10.964965"><ele>331.3333333333333</ele><time>2026-03-28T11:43:38.066Z</time></trkpt><trkpt lat="43.7888017" lon="10.9648317"><ele>335.0</ele><time>2026-03-28T11:43:40.067Z</time></trkpt><trkpt lat="43.7889" lon="10.9648833"><ele>338.66666666666663</ele><time>2026-03-28T11:43:43.067Z</time></trkpt><trkpt lat="43.7889417" lon="10.9649533"><ele>342.3333333333333</ele><time>2026-03-28T11:43:44.067Z</time></trkpt><trkpt lat="43.7889883" lon="10.9650183"><ele>346.0</ele><time>2026-03-28T11:43:45.066Z</time></trkpt><trkpt lat="43.7890633" lon="10.9651333"><ele>346.16666666666663</ele><time>2026-03-28T11:43:47.066Z</time></trkpt><trkpt lat="43.7891283" lon="10.9651867"><ele>346.3333333333333</ele><time>2026-03-28T11:43:49.067Z</time></trkpt><trkpt lat="43.78922" lon="10.965135"><ele>346.5</ele><time>2026-03-28T11:43:52.067Z</time></trkpt><trkpt lat="43.789315" lon="10.9652183"><ele>346.6666666666667</ele><time>2026-03-28T11:43:55.066Z</time></trkpt><trkpt lat="43.7893517" lon="10.9653067"><ele>346.83333333333337</ele><time>2026-03-28T11:43:56.066Z</time></trkpt><trkpt lat="43.7893867" lon="10.9653983"><ele>347.0</ele><time>2026-03-28T11:43:57.067Z</time></trkpt><trkpt lat="43.7894233" lon="10.96549"><ele>349.33333333333337</ele><time>2026-03-28T11:43:58.066Z</time></trkpt><trkpt lat="43.7894567" lon="10.9655717"><ele>351.6666666666667</ele><time>2026-03-28T11:43:59.066Z</time></trkpt><trkpt lat="43.78949" lon="10.9656567"><ele>354.0</ele><time>2026-03-28T11:44:00.067Z</time></trkpt><trkpt lat="43.7895217" lon="10.9657433"><ele>356.3333333333333</ele><time>2026-03-28T11:44:01.067Z</time></trkpt><trkpt lat="43.7895517" lon="10.9658233"><ele>358.66666666666663</ele><time>2026-03-28T11:44:02.067Z</time></trkpt><trkpt lat="43.78959" lon="10.9659533"><ele>361.0</ele><time>2026-03-28T11:44:04.066Z</time></trkpt><trkpt lat="43.7895883" lon="10.9660583"><ele>363.4</ele><time>2026-03-28T11:44:06.067Z</time></trkpt><trkpt lat="43.7895483" lon="10.9661433"><ele>365.8</ele><time>2026-03-28T11:44:08.067Z</time></trkpt><trkpt lat="43.7895133" lon="10.9662217"><ele>368.2</ele><time>2026-03-28T11:44:10.067Z</time></trkpt><trkpt lat="43.789475" lon="10.9663367"><ele>370.59999999999997</ele><time>2026-03-28T11:44:12.067Z</time></trkpt><trkpt lat="43.7894317" lon="10.9664933"><ele>373.0</ele><time>2026-03-28T11:44:14.066Z</time></trkpt><trkpt lat="43.7894033" lon="10.966655"><ele>373.59999999999997</ele><time>2026-03-28T11:44:16.067Z</time></trkpt><trkpt lat="43.78938" lon="10.9668067"><ele>374.2</ele><time>2026-03-28T11:44:18.067Z</time></trkpt><trkpt lat="43.7893517" lon="10.966945"><ele>374.8</ele><time>2026-03-28T11:44:20.067Z</time></trkpt><trkpt lat="43.7893483" lon="10.9670533"><ele>375.4</ele><time>2026-03-28T11:44:22.067Z</time></trkpt><trkpt lat="43.7893783" lon="10.9671717"><ele>376.0</ele><time>2026-03-28T11:44:25.066Z</time></trkpt><trkpt lat="43.7894011" lon="10.9672613"><ele>376.0</ele><time>2026-03-28T11:44:28.067Z</time></trkpt><trkpt lat="43.7894055" lon="10.9673606"><ele>376.0</ele><time>2026-03-28T11:44:33.032Z</time></trkpt><trkpt lat="43.7894357" lon="10.9674403"><ele>376.0</ele><time>2026-03-28T11:44:35.07Z</time></trkpt><trkpt lat="43.7894722" lon="10.9675144"><ele>376.0</ele><time>2026-03-28T11:44:38.116Z</time></trkpt><trkpt lat="43.7895091" lon="10.9676234"><ele>376.0</ele><time>2026-03-28T11:44:41.067Z</time></trkpt><trkpt lat="43.7895611" lon="10.9676997"><ele>376.0</ele><time>2026-03-28T11:44:43.067Z</time></trkpt><trkpt lat="43.7896336" lon="10.9678"><ele>373.8</ele><time>2026-03-28T11:44:45.067Z</time></trkpt><trkpt lat="43.7896911" lon="10.9678751"><ele>371.6</ele><time>2026-03-28T11:44:47.066Z</time></trkpt><trkpt lat="43.7896958" lon="10.9679739"><ele>369.4</ele><time>2026-03-28T11:44:49.067Z</time></trkpt><trkpt lat="43.7896717" lon="10.9680571"><ele>367.2</ele><time>2026-03-28T11:44:51.066Z</time></trkpt><trkpt lat="43.7896698" lon="10.9681925"><ele>365.0</ele><time>2026-03-28T11:44:53.953Z</time></trkpt><trkpt lat="43.7897167" lon="10.9684283"><ele>363.1666666666667</ele><time>2026-03-28T11:44:55.067Z</time></trkpt><trkpt lat="43.7897367" lon="10.9685383"><ele>361.33333333333337</ele><time>2026-03-28T11:44:57.066Z</time></trkpt><trkpt lat="43.789755" lon="10.9686483"><ele>359.5</ele><time>2026-03-28T11:44:59.067Z</time></trkpt><trkpt lat="43.78978" lon="10.9687583"><ele>357.6666666666667</ele><time>2026-03-28T11:45:01.067Z</time></trkpt><trkpt lat="43.7898017" lon="10.9688533"><ele>355.8333333333333</ele><time>2026-03-28T11:45:03.067Z</time></trkpt><trkpt lat="43.7898133" lon="10.9689633"><ele>354.0</ele><time>2026-03-28T11:45:06.067Z</time></trkpt><trkpt lat="43.7898283" lon="10.96907"><ele>354.0</ele><time>2026-03-28T11:45:09.066Z</time></trkpt><trkpt lat="43.78984" lon="10.96916"><ele>354.0</ele><time>2026-03-28T11:45:11.067Z</time></trkpt><trkpt lat="43.7898417" lon="10.969255"><ele>354.0</ele><time>2026-03-28T11:45:13.067Z</time></trkpt><trkpt lat="43.7898317" lon="10.96935"><ele>354.0</ele><time>2026-03-28T11:45:15.066Z</time></trkpt><trkpt lat="43.7898283" lon="10.9694467"><ele>354.0</ele><time>2026-03-28T11:45:17.066Z</time></trkpt><trkpt lat="43.7898117" lon="10.9695367"><ele>354.0</ele><time>2026-03-28T11:45:20.066Z</time></trkpt><trkpt lat="43.78981" lon="10.969665"><ele>354.0</ele><time>2026-03-28T11:45:29.067Z</time></trkpt><trkpt lat="43.7898367" lon="10.96976"><ele>354.7142857142857</ele><time>2026-03-28T11:45:31.067Z</time></trkpt><trkpt lat="43.78986" lon="10.96985"><ele>355.4285714285714</ele><time>2026-03-28T11:45:33.067Z</time></trkpt><trkpt lat="43.7898933" lon="10.96993"><ele>356.1428571428571</ele><time>2026-03-28T11:45:35.067Z</time></trkpt><trkpt lat="43.7899467" lon="10.9700233"><ele>356.8571428571429</ele><time>2026-03-28T11:45:38.067Z</time></trkpt><trkpt lat="43.79001" lon="10.97007"><ele>357.57142857142856</ele><time>2026-03-28T11:45:40.067Z</time></trkpt><trkpt lat="43.7900767" lon="10.9701033"><ele>358.2857142857143</ele><time>2026-03-28T11:45:42.066Z</time></trkpt><trkpt lat="43.7901533" lon="10.9701067"><ele>359.0</ele><time>2026-03-28T11:45:44.067Z</time></trkpt><trkpt lat="43.7902283" lon="10.97012"><ele>359.0</ele><time>2026-03-28T11:45:46.066Z</time></trkpt><trkpt lat="43.7903133" lon="10.9701383"><ele>359.0</ele><time>2026-03-28T11:45:49.066Z</time></trkpt><trkpt lat="43.7903583" lon="10.970215"><ele>359.0</ele><time>2026-03-28T11:45:52.066Z</time></trkpt><trkpt lat="43.7903917" lon="10.9703217"><ele>359.0</ele><time>2026-03-28T11:45:55.067Z</time></trkpt><trkpt lat="43.7904" lon="10.9704417"><ele>359.0</ele><time>2026-03-28T11:45:58.067Z</time></trkpt><trkpt lat="43.7903617" lon="10.9705483"><ele>359.0</ele><time>2026-03-28T11:46:01.067Z</time></trkpt><trkpt lat="43.79032" lon="10.97065"><ele>359.0</ele><time>2026-03-28T11:46:04.067Z</time></trkpt><trkpt lat="43.7903067" lon="10.970765"><ele>359.0</ele><time>2026-03-28T11:46:07.066Z</time></trkpt><trkpt lat="43.7903067" lon="10.9708533"><ele>359.0</ele><time>2026-03-28T11:46:09.067Z</time></trkpt><trkpt lat="43.7903283" lon="10.9709533"><ele>359.0</ele><time>2026-03-28T11:46:11.067Z</time></trkpt><trkpt lat="43.7903717" lon="10.9710467"><ele>359.0</ele><time>2026-03-28T11:46:13.067Z</time></trkpt><trkpt lat="43.790425" lon="10.9711317"><ele>359.0</ele><time>2026-03-28T11:46:15.067Z</time></trkpt><trkpt lat="43.7904833" lon="10.9712317"><ele>358.2857142857143</ele><time>2026-03-28T11:46:17.067Z</time></trkpt><trkpt lat="43.7905383" lon="10.97132"><ele>357.57142857142856</ele><time>2026-03-28T11:46:19.067Z</time></trkpt><trkpt lat="43.790585" lon="10.9714"><ele>356.8571428571429</ele><time>2026-03-28T11:46:21.067Z</time></trkpt><trkpt lat="43.7906317" lon="10.9714833"><ele>356.1428571428571</ele><time>2026-03-28T11:46:23.067Z</time></trkpt><trkpt lat="43.7906733" lon="10.971555"><ele>355.4285714285714</ele><time>2026-03-28T11:46:25.067Z</time></trkpt><trkpt lat="43.7907067" lon="10.97163"><ele>354.7142857142857</ele><time>2026-03-28T11:46:27.066Z</time></trkpt><trkpt lat="43.7907533" lon="10.971705"><ele>354.0</ele><time>2026-03-28T11:46:29.067Z</time></trkpt><trkpt lat="43.7908017" lon="10.971775"><ele>356.1666666666667</ele><time>2026-03-28T11:46:31.067Z</time></trkpt><trkpt lat="43.7908483" lon="10.971855"><ele>358.3333333333333</ele><time>2026-03-28T11:46:33.067Z</time></trkpt><trkpt lat="43.7908967" lon="10.97193"><ele>360.5</ele><time>2026-03-28T11:46:35.067Z</time></trkpt><trkpt lat="43.790955" lon="10.9720183"><ele>362.66666666666663</ele><time>2026-03-28T11:46:38.067Z</time></trkpt><trkpt lat="43.7909983" lon="10.9720833"><ele>364.8333333333333</ele><time>2026-03-28T11:46:41.067Z</time></trkpt><trkpt lat="43.79094" lon="10.9721483"><ele>367.0</ele><time>2026-03-28T11:46:47.067Z</time></trkpt><trkpt lat="43.79085" lon="10.972125"><ele>367.0</ele><time>2026-03-28T11:46:50.067Z</time></trkpt><trkpt lat="43.7907767" lon="10.9721267"><ele>367.0</ele><time>2026-03-28T11:46:52.067Z</time></trkpt><trkpt lat="43.7906933" lon="10.9721333"><ele>367.0</ele><time>2026-03-28T11:46:54.067Z</time></trkpt><trkpt lat="43.7906379" lon="10.9720794"><ele>367.0</ele><time>2026-03-28T11:46:57.036Z</time></trkpt><trkpt lat="43.7905584" lon="10.9720995"><ele>367.0</ele><time>2026-03-28T11:46:59.074Z</time></trkpt><trkpt lat="43.7904764" lon="10.9720805"><ele>367.0</ele><time>2026-03-28T11:47:01.129Z</time></trkpt><trkpt lat="43.7903994" lon="10.9720612"><ele>367.0</ele><time>2026-03-28T11:47:03.115Z</time></trkpt><trkpt lat="43.7903372" lon="10.9721094"><ele>367.0</ele><time>2026-03-28T11:47:05.118Z</time></trkpt><trkpt lat="43.7902649" lon="10.9721672"><ele>367.0</ele><time>2026-03-28T11:47:08.067Z</time></trkpt><trkpt lat="43.7901931" lon="10.9721402"><ele>367.0</ele><time>2026-03-28T11:47:10.067Z</time></trkpt><trkpt lat="43.7901176" lon="10.9721212"><ele>367.0</ele><time>2026-03-28T11:47:12.067Z</time></trkpt><trkpt lat="43.7900493" lon="10.9721162"><ele>367.0</ele><time>2026-03-28T11:47:14.074Z</time></trkpt><trkpt lat="43.789953" lon="10.9720644"><ele>368.0</ele><time>2026-03-28T11:47:16.067Z</time></trkpt><trkpt lat="43.7898751" lon="10.9720422"><ele>369.0</ele><time>2026-03-28T11:47:18.074Z</time></trkpt><trkpt lat="43.7898125" lon="10.9720311"><ele>370.0</ele><time>2026-03-28T11:47:19.083Z</time></trkpt><trkpt lat="43.7897314" lon="10.9720248"><ele>371.0</ele><time>2026-03-28T11:47:21.079Z</time></trkpt><trkpt lat="43.7896453" lon="10.9720095"><ele>372.0</ele><time>2026-03-28T11:47:23.074Z</time></trkpt><trkpt lat="43.7895635" lon="10.9720303"><ele>373.0</ele><time>2026-03-28T11:47:25.069Z</time></trkpt><trkpt lat="43.7894798" lon="10.9720612"><ele>374.3333333333333</ele><time>2026-03-28T11:47:27.067Z</time></trkpt><trkpt lat="43.7893337" lon="10.9720692"><ele>375.66666666666663</ele><time>2026-03-28T11:47:29.067Z</time></trkpt><trkpt lat="43.7892695" lon="10.9720456"><ele>377.0</ele><time>2026-03-28T11:47:31.067Z</time></trkpt><trkpt lat="43.789205" lon="10.9720333"><ele>378.3333333333333</ele><time>2026-03-28T11:50:41.067Z</time></trkpt><trkpt lat="43.78914" lon="10.9720617"><ele>379.6666666666667</ele><time>2026-03-28T11:50:44.067Z</time></trkpt><trkpt lat="43.7890733" lon="10.97208"><ele>381.0</ele><time>2026-03-28T11:50:46.067Z</time></trkpt><trkpt lat="43.788995" lon="10.972115"><ele>381.0</ele><time>2026-03-28T11:50:49.067Z</time></trkpt><trkpt lat="43.7889433" lon="10.97221"><ele>381.0</ele><time>2026-03-28T11:50:52.066Z</time></trkpt><trkpt lat="43.7889083" lon="10.9722867"><ele>381.0</ele><time>2026-03-28T11:50:54.067Z</time></trkpt><trkpt lat="43.7888475" lon="10.9724056"><ele>381.0</ele><time>2026-03-28T12:00:34.47Z</time></trkpt><trkpt lat="43.7888748" lon="10.9724958"><ele>381.0</ele><time>2026-03-28T12:00:38.031Z</time></trkpt><trkpt lat="43.7888534" lon="10.9726326"><ele>381.0</ele><time>2026-03-28T12:00:39.132Z</time></trkpt><trkpt lat="43.788843" lon="10.9727557"><ele>385.5</ele><time>2026-03-28T12:00:41.109Z</time></trkpt><trkpt lat="43.788848" lon="10.9728627"><ele>390.0</ele><time>2026-03-28T12:00:44.068Z</time></trkpt><trkpt lat="43.7887633" lon="10.972935"><ele>394.5</ele><time>2026-03-28T12:01:12.068Z</time></trkpt><trkpt lat="43.7886967" lon="10.9730383"><ele>399.0</ele><time>2026-03-28T12:01:16.067Z</time></trkpt><trkpt lat="43.788635" lon="10.9730783"><ele>403.5</ele><time>2026-03-28T12:01:20.067Z</time></trkpt><trkpt lat="43.788575" lon="10.973145"><ele>408.0</ele><time>2026-03-28T12:01:24.068Z</time></trkpt><trkpt lat="43.78852" lon="10.9731933"><ele>408.1666666666667</ele><time>2026-03-28T12:01:27.068Z</time></trkpt><trkpt lat="43.7884633" lon="10.9732333"><ele>408.33333333333337</ele><time>2026-03-28T12:01:30.068Z</time></trkpt><trkpt lat="43.7884167" lon="10.97313"><ele>408.5</ele><time>2026-03-28T12:01:34.068Z</time></trkpt><trkpt lat="43.7884" lon="10.9730433"><ele>408.6666666666667</ele><time>2026-03-28T12:01:36.068Z</time></trkpt><trkpt lat="43.7883817" lon="10.972945"><ele>408.83333333333337</ele><time>2026-03-28T12:01:39.068Z</time></trkpt><trkpt lat="43.7883267" lon="10.972855"><ele>409.0</ele><time>2026-03-28T12:01:42.068Z</time></trkpt><trkpt lat="43.7882583" lon="10.97279"><ele>409.0</ele><time>2026-03-28T12:01:44.068Z</time></trkpt><trkpt lat="43.7881967" lon="10.9727667"><ele>409.0</ele><time>2026-03-28T12:01:46.068Z</time></trkpt><trkpt lat="43.7881333" lon="10.972785"><ele>409.0</ele><time>2026-03-28T12:01:48.068Z</time></trkpt><trkpt lat="43.7880767" lon="10.97283"><ele>409.0</ele><time>2026-03-28T12:01:50.068Z</time></trkpt><trkpt lat="43.7880117" lon="10.9728967"><ele>409.0</ele><time>2026-03-28T12:01:53.067Z</time></trkpt><trkpt lat="43.7879467" lon="10.9729617"><ele>409.0</ele><time>2026-03-28T12:01:56.067Z</time></trkpt><trkpt lat="43.787875" lon="10.97302"><ele>409.0</ele><time>2026-03-28T12:01:59.067Z</time></trkpt><trkpt lat="43.7878167" lon="10.9730867"><ele>409.0</ele><time>2026-03-28T12:02:02.067Z</time></trkpt><trkpt lat="43.78774" lon="10.9731117"><ele>409.0</ele><time>2026-03-28T12:02:06.067Z</time></trkpt><trkpt lat="43.7876633" lon="10.9730817"><ele>409.0</ele><time>2026-03-28T12:02:09.067Z</time></trkpt><trkpt lat="43.78761" lon="10.9730217"><ele>409.0</ele><time>2026-03-28T12:02:11.067Z</time></trkpt><trkpt lat="43.7875567" lon="10.9729667"><ele>409.0</ele><time>2026-03-28T12:02:13.068Z</time></trkpt><trkpt lat="43.7874967" lon="10.972905"><ele>409.0</ele><time>2026-03-28T12:02:15.068Z</time></trkpt><trkpt lat="43.7874417" lon="10.97285"><ele>409.0</ele><time>2026-03-28T12:02:17.068Z</time></trkpt><trkpt lat="43.7873917" lon="10.972795"><ele>408.33333333333337</ele><time>2026-03-28T12:02:19.067Z</time></trkpt><trkpt lat="43.787335" lon="10.9727117"><ele>407.6666666666667</ele><time>2026-03-28T12:02:22.068Z</time></trkpt><trkpt lat="43.78729" lon="10.97263"><ele>407.0</ele><time>2026-03-28T12:02:25.068Z</time></trkpt><trkpt lat="43.787275" lon="10.972525"><ele>406.33333333333337</ele><time>2026-03-28T12:02:28.068Z</time></trkpt><trkpt lat="43.78726" lon="10.9724367"><ele>405.6666666666667</ele><time>2026-03-28T12:02:30.068Z</time></trkpt><trkpt lat="43.78723" lon="10.972345"><ele>405.0</ele><time>2026-03-28T12:02:32.067Z</time></trkpt><trkpt lat="43.78718" lon="10.97222"><ele>405.0</ele><time>2026-03-28T12:02:35.068Z</time></trkpt><trkpt lat="43.7871183" lon="10.9721567"><ele>405.0</ele><time>2026-03-28T12:02:37.067Z</time></trkpt><trkpt lat="43.7870467" lon="10.97208"><ele>405.0</ele><time>2026-03-28T12:02:39.067Z</time></trkpt><trkpt lat="43.7869817" lon="10.9720133"><ele>405.0</ele><time>2026-03-28T12:02:41.068Z</time></trkpt><trkpt lat="43.786915" lon="10.9719267"><ele>405.0</ele><time>2026-03-28T12:02:44.068Z</time></trkpt><trkpt lat="43.78686" lon="10.9718517"><ele>405.0</ele><time>2026-03-28T12:02:46.068Z</time></trkpt><trkpt lat="43.7867933" lon="10.9717833"><ele>406.0</ele><time>2026-03-28T12:02:48.068Z</time></trkpt><trkpt lat="43.7867083" lon="10.971715"><ele>407.0</ele><time>2026-03-28T12:02:50.067Z</time></trkpt><trkpt lat="43.7866533" lon="10.971655"><ele>408.0</ele><time>2026-03-28T12:02:52.068Z</time></trkpt><trkpt lat="43.78659" lon="10.9715833"><ele>409.0</ele><time>2026-03-28T12:02:54.068Z</time></trkpt><trkpt lat="43.7865167" lon="10.971555"><ele>410.0</ele><time>2026-03-28T12:02:56.068Z</time></trkpt><trkpt lat="43.7864517" lon="10.9715233"><ele>411.0</ele><time>2026-03-28T12:02:58.068Z</time></trkpt><trkpt lat="43.78639" lon="10.9715"><ele>411.0</ele><time>2026-03-28T12:03:00.068Z</time></trkpt><trkpt lat="43.7863033" lon="10.971475"><ele>411.0</ele><time>2026-03-28T12:03:03.067Z</time></trkpt><trkpt lat="43.7862433" lon="10.9714417"><ele>411.0</ele><time>2026-03-28T12:03:05.068Z</time></trkpt><trkpt lat="43.786155" lon="10.9713783"><ele>411.0</ele><time>2026-03-28T12:03:08.068Z</time></trkpt><trkpt lat="43.7860817" lon="10.97135"><ele>411.0</ele><time>2026-03-28T12:03:10.067Z</time></trkpt><trkpt lat="43.7859933" lon="10.9713117"><ele>411.0</ele><time>2026-03-28T12:03:12.068Z</time></trkpt><trkpt lat="43.7859083" lon="10.9712767"><ele>413.20000000000005</ele><time>2026-03-28T12:03:14.068Z</time></trkpt><trkpt lat="43.78582" lon="10.9712467"><ele>415.40000000000003</ele><time>2026-03-28T12:03:16.067Z</time></trkpt><trkpt lat="43.78572" lon="10.9711967"><ele>417.6</ele><time>2026-03-28T12:03:18.068Z</time></trkpt><trkpt lat="43.7856367" lon="10.97113"><ele>419.8</ele><time>2026-03-28T12:03:20.068Z</time></trkpt><trkpt lat="43.7855617" lon="10.9710667"><ele>422.0</ele><time>2026-03-28T12:03:22.068Z</time></trkpt><trkpt lat="43.7854933" lon="10.97097"><ele>421.99999999999994</ele><time>2026-03-28T12:03:24.068Z</time></trkpt><trkpt lat="43.7854359" lon="10.9708689"><ele>422.0</ele><time>2026-03-28T12:03:26.154Z</time></trkpt><trkpt lat="43.7854042" lon="10.970781"><ele>422.0</ele><time>2026-03-28T12:03:28.098Z</time></trkpt><trkpt lat="43.7853368" lon="10.9707092"><ele>422.0</ele><time>2026-03-28T12:03:30.093Z</time></trkpt><trkpt lat="43.7852595" lon="10.9706789"><ele>421.99999999999994</ele><time>2026-03-28T12:03:32.051Z</time></trkpt><trkpt lat="43.7851555" lon="10.9706496"><ele>422.0</ele><time>2026-03-28T12:03:34.068Z</time></trkpt><trkpt lat="43.7850866" lon="10.9706342"><ele>419.8</ele><time>2026-03-28T12:03:35.067Z</time></trkpt><trkpt lat="43.784967" lon="10.9706318"><ele>417.6</ele><time>2026-03-28T12:03:37.068Z</time></trkpt><trkpt lat="43.7848589" lon="10.9706593"><ele>415.40000000000003</ele><time>2026-03-28T12:03:39.068Z</time></trkpt><trkpt lat="43.7847618" lon="10.9706928"><ele>413.20000000000005</ele><time>2026-03-28T12:03:41.068Z</time></trkpt><trkpt lat="43.7846649" lon="10.9707129"><ele>411.0</ele><time>2026-03-28T12:03:43.068Z</time></trkpt><trkpt lat="43.7845658" lon="10.970724"><ele>411.0</ele><time>2026-03-28T12:03:45.068Z</time></trkpt><trkpt lat="43.784472" lon="10.9707638"><ele>411.0</ele><time>2026-03-28T12:03:47.067Z</time></trkpt><trkpt lat="43.7843776" lon="10.9708275"><ele>411.0</ele><time>2026-03-28T12:03:49.068Z</time></trkpt><trkpt lat="43.7842856" lon="10.97091"><ele>411.0</ele><time>2026-03-28T12:03:51.068Z</time></trkpt><trkpt lat="43.7841942" lon="10.9709988"><ele>411.0</ele><time>2026-03-28T12:03:53.068Z</time></trkpt><trkpt lat="43.784149" lon="10.971061"><ele>410.4</ele><time>2026-03-28T12:03:54.067Z</time></trkpt><trkpt lat="43.7840889" lon="10.9711946"><ele>409.8</ele><time>2026-03-28T12:03:56.068Z</time></trkpt><trkpt lat="43.7840325" lon="10.9713276"><ele>409.2</ele><time>2026-03-28T12:03:58.068Z</time></trkpt><trkpt lat="43.7839645" lon="10.9714363"><ele>408.59999999999997</ele><time>2026-03-28T12:04:00.068Z</time></trkpt><trkpt lat="43.7839077" lon="10.9715449"><ele>408.0</ele><time>2026-03-28T12:04:02.068Z</time></trkpt><trkpt lat="43.7838795" lon="10.971663"><ele>408.6666666666667</ele><time>2026-03-28T12:04:04.067Z</time></trkpt><trkpt lat="43.7838787" lon="10.9717794"><ele>409.33333333333337</ele><time>2026-03-28T12:04:06.068Z</time></trkpt><trkpt lat="43.7838706" lon="10.9719134"><ele>410.0</ele><time>2026-03-28T12:04:08.067Z</time></trkpt><trkpt lat="43.7838536" lon="10.9720729"><ele>410.6666666666667</ele><time>2026-03-28T12:04:10.068Z</time></trkpt><trkpt lat="43.7838418" lon="10.9721611"><ele>411.33333333333337</ele><time>2026-03-28T12:04:11.067Z</time></trkpt><trkpt lat="43.783828" lon="10.9722746"><ele>412.0</ele><time>2026-03-28T12:04:12.068Z</time></trkpt><trkpt lat="43.7838174" lon="10.9723872"><ele>412.00000000000006</ele><time>2026-03-28T12:04:13.067Z</time></trkpt><trkpt lat="43.7838104" lon="10.9724934"><ele>412.0</ele><time>2026-03-28T12:04:14.068Z</time></trkpt><trkpt lat="43.7838086" lon="10.9725821"><ele>412.0</ele><time>2026-03-28T12:04:15.068Z</time></trkpt><trkpt lat="43.7838212" lon="10.9726919"><ele>412.0</ele><time>2026-03-28T12:04:17.067Z</time></trkpt><trkpt lat="43.783852" lon="10.9727861"><ele>412.00000000000006</ele><time>2026-03-28T12:04:19.067Z</time></trkpt><trkpt lat="43.7838793" lon="10.9729164"><ele>412.0</ele><time>2026-03-28T12:04:21.068Z</time></trkpt><trkpt lat="43.7838954" lon="10.9730597"><ele>412.20000000000005</ele><time>2026-03-28T12:04:23.068Z</time></trkpt><trkpt lat="43.7839186" lon="10.9731842"><ele>412.4</ele><time>2026-03-28T12:04:25.068Z</time></trkpt><trkpt lat="43.78394" lon="10.9732996"><ele>412.6</ele><time>2026-03-28T12:04:27.068Z</time></trkpt><trkpt lat="43.7839711" lon="10.9734226"><ele>412.79999999999995</ele><time>2026-03-28T12:04:29.068Z</time></trkpt><trkpt lat="43.7839961" lon="10.9735753"><ele>413.0</ele><time>2026-03-28T12:04:31.068Z</time></trkpt><trkpt lat="43.7839938" lon="10.9737495"><ele>413.42857142857144</ele><time>2026-03-28T12:04:33.068Z</time></trkpt><trkpt lat="43.7839892" lon="10.9738438"><ele>413.8571428571429</ele><time>2026-03-28T12:04:34.068Z</time></trkpt><trkpt lat="43.7839817" lon="10.9739379"><ele>414.2857142857143</ele><time>2026-03-28T12:04:35.068Z</time></trkpt><trkpt lat="43.7839648" lon="10.9740265"><ele>414.7142857142857</ele><time>2026-03-28T12:04:36.068Z</time></trkpt><trkpt lat="43.7839355" lon="10.9741067"><ele>415.14285714285717</ele><time>2026-03-28T12:04:37.068Z</time></trkpt><trkpt lat="43.7838901" lon="10.9741762"><ele>415.57142857142856</ele><time>2026-03-28T12:04:38.067Z</time></trkpt><trkpt lat="43.7838098" lon="10.9742396"><ele>416.0</ele><time>2026-03-28T12:04:39.067Z</time></trkpt><trkpt lat="43.7837459" lon="10.9742936"><ele>417.3333333333333</ele><time>2026-03-28T12:04:40.068Z</time></trkpt><trkpt lat="43.7836728" lon="10.9743536"><ele>418.66666666666663</ele><time>2026-03-28T12:04:41.068Z</time></trkpt><trkpt lat="43.7836035" lon="10.9744203"><ele>420.0</ele><time>2026-03-28T12:04:42.068Z</time></trkpt><trkpt lat="43.783537" lon="10.9744944"><ele>421.33333333333337</ele><time>2026-03-28T12:04:43.068Z</time></trkpt><trkpt lat="43.7834804" lon="10.9745728"><ele>422.6666666666667</ele><time>2026-03-28T12:04:44.067Z</time></trkpt><trkpt lat="43.7834305" lon="10.9746581"><ele>424.0</ele><time>2026-03-28T12:04:45.068Z</time></trkpt><trkpt lat="43.7833911" lon="10.9747392"><ele>421.4</ele><time>2026-03-28T12:04:46.068Z</time></trkpt><trkpt lat="43.7833519" lon="10.9748496"><ele>418.79999999999995</ele><time>2026-03-28T12:04:48.068Z</time></trkpt><trkpt lat="43.7832982" lon="10.9749419"><ele>416.20000000000005</ele><time>2026-03-28T12:04:58.067Z</time></trkpt><trkpt lat="43.7832283" lon="10.9750208"><ele>413.6</ele><time>2026-03-28T12:05:00.067Z</time></trkpt><trkpt lat="43.7831549" lon="10.9751227"><ele>411.0</ele><time>2026-03-28T12:05:02.068Z</time></trkpt><trkpt lat="43.7830783" lon="10.97524"><ele>411.0</ele><time>2026-03-28T12:05:04.068Z</time></trkpt><trkpt lat="43.7830033" lon="10.9753417"><ele>411.0</ele><time>2026-03-28T12:05:06.068Z</time></trkpt><trkpt lat="43.7829167" lon="10.9754183"><ele>411.0</ele><time>2026-03-28T12:05:08.068Z</time></trkpt><trkpt lat="43.7828333" lon="10.9754783"><ele>411.0</ele><time>2026-03-28T12:05:10.068Z</time></trkpt><trkpt lat="43.78275" lon="10.9755633"><ele>411.0</ele><time>2026-03-28T12:05:12.068Z</time></trkpt><trkpt lat="43.782675" lon="10.9756433"><ele>408.6666666666667</ele><time>2026-03-28T12:05:14.067Z</time></trkpt><trkpt lat="43.7826033" lon="10.9757217"><ele>406.33333333333337</ele><time>2026-03-28T12:05:16.068Z</time></trkpt><trkpt lat="43.7825367" lon="10.9758017"><ele>404.0</ele><time>2026-03-28T12:05:18.068Z</time></trkpt><trkpt lat="43.7824667" lon="10.9758733"><ele>401.6666666666667</ele><time>2026-03-28T12:05:21.067Z</time></trkpt><trkpt lat="43.78242" lon="10.975945"><ele>399.33333333333337</ele><time>2026-03-28T12:05:23.068Z</time></trkpt><trkpt lat="43.7823683" lon="10.9760283"><ele>397.0</ele><time>2026-03-28T12:05:25.067Z</time></trkpt><trkpt lat="43.782325" lon="10.9761033"><ele>396.33333333333337</ele><time>2026-03-28T12:05:27.068Z</time></trkpt><trkpt lat="43.7822717" lon="10.9761883"><ele>395.6666666666667</ele><time>2026-03-28T12:05:29.067Z</time></trkpt><trkpt lat="43.78222" lon="10.97628"><ele>395.0</ele><time>2026-03-28T12:05:31.068Z</time></trkpt><trkpt lat="43.7821783" lon="10.97639"><ele>394.33333333333337</ele><time>2026-03-28T12:05:33.068Z</time></trkpt><trkpt lat="43.78215" lon="10.9765033"><ele>393.6666666666667</ele><time>2026-03-28T12:05:35.068Z</time></trkpt><trkpt lat="43.7821033" lon="10.9765683"><ele>393.0</ele><time>2026-03-28T12:05:37.067Z</time></trkpt><trkpt lat="43.7820033" lon="10.97657"><ele>393.0</ele><time>2026-03-28T12:05:39.068Z</time></trkpt><trkpt lat="43.7818733" lon="10.9765783"><ele>393.0</ele><time>2026-03-28T12:05:41.068Z</time></trkpt><trkpt lat="43.7818067" lon="10.9765817"><ele>393.0</ele><time>2026-03-28T12:05:42.068Z</time></trkpt><trkpt lat="43.7817367" lon="10.9765817"><ele>393.0</ele><time>2026-03-28T12:05:43.068Z</time></trkpt><trkpt lat="43.78167" lon="10.9765783"><ele>393.0</ele><time>2026-03-28T12:05:44.068Z</time></trkpt><trkpt lat="43.7816067" lon="10.9765767"><ele>393.0</ele><time>2026-03-28T12:05:45.067Z</time></trkpt><trkpt lat="43.7814867" lon="10.9765783"><ele>391.5</ele><time>2026-03-28T12:05:47.068Z</time></trkpt><trkpt lat="43.781385" lon="10.9765667"><ele>390.0</ele><time>2026-03-28T12:05:49.068Z</time></trkpt><trkpt lat="43.7813167" lon="10.97651"><ele>388.5</ele><time>2026-03-28T12:05:51.067Z</time></trkpt><trkpt lat="43.7812783" lon="10.97641"><ele>387.0</ele><time>2026-03-28T12:05:53.067Z</time></trkpt><trkpt lat="43.781255" lon="10.9763"><ele>385.5</ele><time>2026-03-28T12:05:55.068Z</time></trkpt><trkpt lat="43.781225" lon="10.9761983"><ele>384.0</ele><time>2026-03-28T12:05:57.068Z</time></trkpt><trkpt lat="43.7811283" lon="10.9761583"><ele>384.0</ele><time>2026-03-28T12:06:00.067Z</time></trkpt><trkpt lat="43.7810433" lon="10.9761567"><ele>384.0</ele><time>2026-03-28T12:06:02.068Z</time></trkpt><trkpt lat="43.780935" lon="10.9761117"><ele>384.0</ele><time>2026-03-28T12:06:04.068Z</time></trkpt><trkpt lat="43.7808287" lon="10.9760942"><ele>384.0</ele><time>2026-03-28T12:06:06.068Z</time></trkpt><trkpt lat="43.7807129" lon="10.9761222"><ele>384.0</ele><time>2026-03-28T12:06:08.068Z</time></trkpt><trkpt lat="43.7806535" lon="10.9761562"><ele>383.1666666666667</ele><time>2026-03-28T12:06:09.067Z</time></trkpt><trkpt lat="43.7805928" lon="10.976189"><ele>382.3333333333333</ele><time>2026-03-28T12:06:10.068Z</time></trkpt><trkpt lat="43.7805306" lon="10.9762106"><ele>381.5</ele><time>2026-03-28T12:06:11.067Z</time></trkpt><trkpt lat="43.780415" lon="10.9762104"><ele>380.66666666666663</ele><time>2026-03-28T12:06:13.068Z</time></trkpt><trkpt lat="43.7803175" lon="10.9761888"><ele>379.8333333333333</ele><time>2026-03-28T12:06:15.068Z</time></trkpt><trkpt lat="43.7802173" lon="10.9761678"><ele>379.0</ele><time>2026-03-28T12:06:17.068Z</time></trkpt><trkpt lat="43.7801174" lon="10.9761579"><ele>376.6</ele><time>2026-03-28T12:06:19.068Z</time></trkpt><trkpt lat="43.7800163" lon="10.976146"><ele>374.2</ele><time>2026-03-28T12:06:21.068Z</time></trkpt><trkpt lat="43.7799274" lon="10.976142"><ele>371.8</ele><time>2026-03-28T12:06:23.067Z</time></trkpt><trkpt lat="43.7798991" lon="10.9763378"><ele>369.40000000000003</ele><time>2026-03-28T12:06:29.067Z</time></trkpt><trkpt lat="43.7799126" lon="10.9764284"><ele>367.0</ele><time>2026-03-28T12:06:30.068Z</time></trkpt><trkpt lat="43.7799308" lon="10.9765802"><ele>364.0</ele><time>2026-03-28T12:06:32.068Z</time></trkpt><trkpt lat="43.7799467" lon="10.9767188"><ele>361.0</ele><time>2026-03-28T12:06:34.067Z</time></trkpt><trkpt lat="43.7799617" lon="10.9768507"><ele>358.0</ele><time>2026-03-28T12:06:36.068Z</time></trkpt><trkpt lat="43.7799772" lon="10.976954"><ele>355.0</ele><time>2026-03-28T12:06:38.068Z</time></trkpt><trkpt lat="43.7800306" lon="10.9770554"><ele>352.0</ele><time>2026-03-28T12:06:42.067Z</time></trkpt><trkpt lat="43.7801415" lon="10.9771051"><ele>354.16666666666663</ele><time>2026-03-28T12:06:44.068Z</time></trkpt><trkpt lat="43.7802068" lon="10.9771541"><ele>356.3333333333333</ele><time>2026-03-28T12:06:45.068Z</time></trkpt><trkpt lat="43.7802716" lon="10.977216"><ele>358.5</ele><time>2026-03-28T12:06:46.068Z</time></trkpt><trkpt lat="43.7803361" lon="10.9772836"><ele>360.6666666666667</ele><time>2026-03-28T12:06:47.068Z</time></trkpt><trkpt lat="43.7804086" lon="10.9773614"><ele>362.83333333333337</ele><time>2026-03-28T12:06:48.067Z</time></trkpt><trkpt lat="43.7804859" lon="10.9774386"><ele>365.0</ele><time>2026-03-28T12:06:49.068Z</time></trkpt><trkpt lat="43.7805717" lon="10.9775036"><ele>364.4</ele><time>2026-03-28T12:06:50.068Z</time></trkpt><trkpt lat="43.7806662" lon="10.9775441"><ele>363.8</ele><time>2026-03-28T12:06:51.068Z</time></trkpt><trkpt lat="43.7807649" lon="10.9775567"><ele>363.20000000000005</ele><time>2026-03-28T12:06:52.067Z</time></trkpt><trkpt lat="43.7808684" lon="10.9775535"><ele>362.6</ele><time>2026-03-28T12:06:53.067Z</time></trkpt><trkpt lat="43.7809712" lon="10.9775382"><ele>362.0</ele><time>2026-03-28T12:06:54.068Z</time></trkpt><trkpt lat="43.7810816" lon="10.977517"><ele>362.0</ele><time>2026-03-28T12:06:55.068Z</time></trkpt><trkpt lat="43.7811967" lon="10.9774868"><ele>362.0</ele><time>2026-03-28T12:06:56.067Z</time></trkpt><trkpt lat="43.7813149" lon="10.9774477"><ele>362.0</ele><time>2026-03-28T12:06:57.068Z</time></trkpt><trkpt lat="43.7814327" lon="10.9774059"><ele>362.0</ele><time>2026-03-28T12:06:58.067Z</time></trkpt><trkpt lat="43.7815522" lon="10.977361"><ele>362.0</ele><time>2026-03-28T12:06:59.068Z</time></trkpt><trkpt lat="43.7816705" lon="10.9773131"><ele>362.0</ele><time>2026-03-28T12:07:00.068Z</time></trkpt><trkpt lat="43.7817908" lon="10.9772659"><ele>362.0</ele><time>2026-03-28T12:07:01.068Z</time></trkpt><trkpt lat="43.7819063" lon="10.9772267"><ele>362.0</ele><time>2026-03-28T12:07:02.068Z</time></trkpt><trkpt lat="43.7820175" lon="10.9771985"><ele>363.6</ele><time>2026-03-28T12:07:03.068Z</time></trkpt><trkpt lat="43.7821292" lon="10.9771902"><ele>365.20000000000005</ele><time>2026-03-28T12:07:04.068Z</time></trkpt><trkpt lat="43.7822356" lon="10.9772235"><ele>366.8</ele><time>2026-03-28T12:07:05.068Z</time></trkpt><trkpt lat="43.7823403" lon="10.9772693"><ele>368.4</ele><time>2026-03-28T12:07:06.067Z</time></trkpt><trkpt lat="43.7824373" lon="10.9773462"><ele>370.0</ele><time>2026-03-28T12:07:07.068Z</time></trkpt><trkpt lat="43.7825369" lon="10.977434"><ele>370.0</ele><time>2026-03-28T12:07:08.068Z</time></trkpt><trkpt lat="43.7826417" lon="10.9775117"><ele>370.0</ele><time>2026-03-28T12:07:09.068Z</time></trkpt><trkpt lat="43.7827535" lon="10.9775626"><ele>370.0</ele><time>2026-03-28T12:07:10.068Z</time></trkpt><trkpt lat="43.7828703" lon="10.9775945"><ele>370.0</ele><time>2026-03-28T12:07:11.067Z</time></trkpt><trkpt lat="43.7829898" lon="10.9776164"><ele>367.0</ele><time>2026-03-28T12:07:12.068Z</time></trkpt><trkpt lat="43.7831082" lon="10.9776302"><ele>364.0</ele><time>2026-03-28T12:07:13.068Z</time></trkpt><trkpt lat="43.7832286" lon="10.9776277"><ele>361.0</ele><time>2026-03-28T12:07:14.068Z</time></trkpt><trkpt lat="43.7833489" lon="10.9776031"><ele>358.0</ele><time>2026-03-28T12:07:15.068Z</time></trkpt><trkpt lat="43.7834671" lon="10.977557"><ele>363.5</ele><time>2026-03-28T12:07:16.068Z</time></trkpt><trkpt lat="43.7835827" lon="10.9775021"><ele>369.0</ele><time>2026-03-28T12:07:17.068Z</time></trkpt><trkpt lat="43.7836963" lon="10.9774422"><ele>374.5</ele><time>2026-03-28T12:07:18.068Z</time></trkpt><trkpt lat="43.7838135" lon="10.9773814"><ele>380.0</ele><time>2026-03-28T12:07:19.068Z</time></trkpt><trkpt lat="43.7839324" lon="10.9773314"><ele>380.0</ele><time>2026-03-28T12:07:20.068Z</time></trkpt><trkpt lat="43.784051" lon="10.9773016"><ele>380.0</ele><time>2026-03-28T12:07:21.068Z</time></trkpt><trkpt lat="43.7841688" lon="10.9772863"><ele>380.0</ele><time>2026-03-28T12:07:22.068Z</time></trkpt><trkpt lat="43.7842867" lon="10.9772967"><ele>380.0</ele><time>2026-03-28T12:07:23.068Z</time></trkpt><trkpt lat="43.7844083" lon="10.9772983"><ele>383.0</ele><time>2026-03-28T12:07:24.067Z</time></trkpt><trkpt lat="43.7845267" lon="10.9773017"><ele>386.0</ele><time>2026-03-28T12:07:25.068Z</time></trkpt><trkpt lat="43.7846367" lon="10.9773083"><ele>389.0</ele><time>2026-03-28T12:07:26.068Z</time></trkpt><trkpt lat="43.78475" lon="10.9773267"><ele>392.0</ele><time>2026-03-28T12:07:27.067Z</time></trkpt><trkpt lat="43.7848617" lon="10.9773467"><ele>392.0</ele><time>2026-03-28T12:07:28.068Z</time></trkpt><trkpt lat="43.7849733" lon="10.9773717"><ele>392.0</ele><time>2026-03-28T12:07:29.068Z</time></trkpt><trkpt lat="43.7850717" lon="10.9774067"><ele>392.0</ele><time>2026-03-28T12:07:30.067Z</time></trkpt><trkpt lat="43.7851667" lon="10.977445"><ele>392.0</ele><time>2026-03-28T12:07:31.068Z</time></trkpt><trkpt lat="43.785255" lon="10.9774883"><ele>392.0</ele><time>2026-03-28T12:07:32.068Z</time></trkpt><trkpt lat="43.7853233" lon="10.9775567"><ele>392.66666666666663</ele><time>2026-03-28T12:07:33.068Z</time></trkpt><trkpt lat="43.7853717" lon="10.9776433"><ele>393.3333333333333</ele><time>2026-03-28T12:07:34.067Z</time></trkpt><trkpt lat="43.785395" lon="10.977745"><ele>394.0</ele><time>2026-03-28T12:07:35.068Z</time></trkpt><trkpt lat="43.7853683" lon="10.9778583"><ele>394.66666666666663</ele><time>2026-03-28T12:07:36.067Z</time></trkpt><trkpt lat="43.7853067" lon="10.97795"><ele>395.3333333333333</ele><time>2026-03-28T12:07:37.067Z</time></trkpt><trkpt lat="43.785205" lon="10.9780233"><ele>396.0</ele><time>2026-03-28T12:07:38.067Z</time></trkpt><trkpt lat="43.7850833" lon="10.9780917"><ele>396.0</ele><time>2026-03-28T12:07:39.068Z</time></trkpt><trkpt lat="43.78496" lon="10.9781567"><ele>396.0</ele><time>2026-03-28T12:07:40.067Z</time></trkpt><trkpt lat="43.7848383" lon="10.97824"><ele>396.0</ele><time>2026-03-28T12:07:41.068Z</time></trkpt><trkpt lat="43.7847317" lon="10.9783417"><ele>396.0</ele><time>2026-03-28T12:07:42.068Z</time></trkpt><trkpt lat="43.7846317" lon="10.9784817"><ele>393.0</ele><time>2026-03-28T12:07:43.067Z</time></trkpt><trkpt lat="43.7845283" lon="10.978615"><ele>390.0</ele><time>2026-03-28T12:07:44.068Z</time></trkpt><trkpt lat="43.7844433" lon="10.9787533"><ele>387.0</ele><time>2026-03-28T12:07:45.068Z</time></trkpt><trkpt lat="43.7843733" lon="10.9789"><ele>384.0</ele><time>2026-03-28T12:07:46.067Z</time></trkpt><trkpt lat="43.7843267" lon="10.9790383"><ele>386.75</ele><time>2026-03-28T12:07:47.068Z</time></trkpt><trkpt lat="43.7843" lon="10.9791883"><ele>389.5</ele><time>2026-03-28T12:07:48.068Z</time></trkpt><trkpt lat="43.7843017" lon="10.9793467"><ele>392.25</ele><time>2026-03-28T12:07:49.068Z</time></trkpt><trkpt lat="43.7843233" lon="10.9795067"><ele>395.0</ele><time>2026-03-28T12:07:50.068Z</time></trkpt><trkpt lat="43.7843233" lon="10.97966"><ele>395.0</ele><time>2026-03-28T12:07:51.067Z</time></trkpt><trkpt lat="43.7842967" lon="10.9798133"><ele>395.0</ele><time>2026-03-28T12:07:52.068Z</time></trkpt><trkpt lat="43.78425" lon="10.979945"><ele>395.0</ele><time>2026-03-28T12:07:53.068Z</time></trkpt><trkpt lat="43.78417" lon="10.9800533"><ele>395.0</ele><time>2026-03-28T12:07:54.067Z</time></trkpt><trkpt lat="43.7840833" lon="10.9801483"><ele>395.0</ele><time>2026-03-28T12:07:55.068Z</time></trkpt><trkpt lat="43.784" lon="10.980265"><ele>397.75</ele><time>2026-03-28T12:07:56.068Z</time></trkpt><trkpt lat="43.7839417" lon="10.9804083"><ele>400.5</ele><time>2026-03-28T12:07:57.068Z</time></trkpt><trkpt lat="43.78391" lon="10.980565"><ele>403.25</ele><time>2026-03-28T12:07:58.068Z</time></trkpt><trkpt lat="43.7838867" lon="10.980725"><ele>406.0</ele><time>2026-03-28T12:07:59.068Z</time></trkpt><trkpt lat="43.7838917" lon="10.9809"><ele>406.0</ele><time>2026-03-28T12:08:00.068Z</time></trkpt><trkpt lat="43.783915" lon="10.9810717"><ele>406.0</ele><time>2026-03-28T12:08:01.068Z</time></trkpt><trkpt lat="43.78394" lon="10.9812333"><ele>406.0</ele><time>2026-03-28T12:08:02.068Z</time></trkpt><trkpt lat="43.7839683" lon="10.9814083"><ele>406.0</ele><time>2026-03-28T12:08:03.067Z</time></trkpt><trkpt lat="43.7839967" lon="10.9815817"><ele>404.25</ele><time>2026-03-28T12:08:04.068Z</time></trkpt><trkpt lat="43.7840383" lon="10.9817467"><ele>402.5</ele><time>2026-03-28T12:08:05.067Z</time></trkpt><trkpt lat="43.78408" lon="10.9818983"><ele>400.75</ele><time>2026-03-28T12:08:06.068Z</time></trkpt><trkpt lat="43.7841267" lon="10.982045"><ele>399.0</ele><time>2026-03-28T12:08:07.068Z</time></trkpt><trkpt lat="43.7841817" lon="10.9821983"><ele>399.0</ele><time>2026-03-28T12:08:08.068Z</time></trkpt><trkpt lat="43.784235" lon="10.982345"><ele>399.0</ele><time>2026-03-28T12:08:09.068Z</time></trkpt><trkpt lat="43.784325" lon="10.9825017"><ele>399.0</ele><time>2026-03-28T12:08:10.068Z</time></trkpt><trkpt lat="43.7844017" lon="10.982655"><ele>399.0</ele><time>2026-03-28T12:08:11.067Z</time></trkpt><trkpt lat="43.7844833" lon="10.9827983"><ele>404.25</ele><time>2026-03-28T12:08:12.068Z</time></trkpt><trkpt lat="43.7845617" lon="10.9829317"><ele>409.5</ele><time>2026-03-28T12:08:13.068Z</time></trkpt><trkpt lat="43.7846333" lon="10.983065"><ele>414.75</ele><time>2026-03-28T12:08:14.068Z</time></trkpt><trkpt lat="43.7847083" lon="10.9831983"><ele>420.0</ele><time>2026-03-28T12:08:15.068Z</time></trkpt><trkpt lat="43.7847933" lon="10.9833317"><ele>418.0</ele><time>2026-03-28T12:08:16.067Z</time></trkpt><trkpt lat="43.78487" lon="10.9834683"><ele>416.0</ele><time>2026-03-28T12:08:17.067Z</time></trkpt><trkpt lat="43.7849533" lon="10.9835967"><ele>414.0</ele><time>2026-03-28T12:08:18.068Z</time></trkpt><trkpt lat="43.7850317" lon="10.9837267"><ele>412.0</ele><time>2026-03-28T12:08:19.068Z</time></trkpt><trkpt lat="43.785095" lon="10.9838683"><ele>412.0</ele><time>2026-03-28T12:08:20.067Z</time></trkpt><trkpt lat="43.7851317" lon="10.9840317"><ele>412.0</ele><time>2026-03-28T12:08:21.068Z</time></trkpt><trkpt lat="43.78515" lon="10.9841867"><ele>412.0</ele><time>2026-03-28T12:08:22.068Z</time></trkpt><trkpt lat="43.7851567" lon="10.98432"><ele>412.0</ele><time>2026-03-28T12:08:23.067Z</time></trkpt><trkpt lat="43.7851667" lon="10.984425"><ele>412.0</ele><time>2026-03-28T12:08:24.067Z</time></trkpt><trkpt lat="43.78517" lon="10.984515"><ele>414.0</ele><time>2026-03-28T12:08:25.068Z</time></trkpt><trkpt lat="43.785165" lon="10.98464"><ele>414.0</ele><time>2026-03-28T12:08:27.068Z</time></trkpt><trkpt lat="43.785165" lon="10.9847283"><ele>414.0</ele><time>2026-03-28T12:08:31.068Z</time></trkpt></trkseg></trk></gpx>